<?xml version="1.0" encoding="UTF-8" standalone="no" ?>
<gpx xmlns="http://www.topografix.com/GPX/1/1" xmlns:xsi="http://www.w3.org/2001/XMLSchema-instance" xsi:schemaLocation="http://www.topografix.com/GPX/1/1 http://www.topografix.com/GPX/1/1/gpx.xsd" version="1.1" creator="VisuGPX - https://www.visugpx.com">
  <metadata>
    <name>LOIRE àC HEVAL OUEST FL</name>
    <desc><![CDATA[grp_trc:]]></desc>
  </metadata>
  <trk>
    <name><![CDATA[LOIRE àC HEVAL OUEST]]></name>
    <cmt><![CDATA[18:12:36]]></cmt>
    <desc><![CDATA[comment ...]]></desc>
    <trkseg>
      <trkpt lat="47.41233" lon="1.01331">
        <ele>100</ele>
        <time>2021-01-18T17:12:36Z</time>
      </trkpt>
      <trkpt lat="47.41233" lon="1.01331">
        <ele>100</ele>
        <time>2021-01-18T17:12:36Z</time>
      </trkpt>
      <trkpt lat="47.41177" lon="1.00692">
        <ele>103</ele>
        <time>2021-01-18T17:12:36Z</time>
      </trkpt>
      <trkpt lat="47.41177" lon="1.00692">
        <ele>103</ele>
        <time>2021-01-18T17:12:36Z</time>
      </trkpt>
      <trkpt lat="47.41165" lon="1.00443">
        <ele>104.1</ele>
        <time>2021-01-18T17:12:36Z</time>
      </trkpt>
      <trkpt lat="47.41165" lon="1.00443">
        <ele>104.1</ele>
        <time>2021-01-18T17:12:36Z</time>
      </trkpt>
      <trkpt lat="47.41145" lon="1.00285">
        <ele>105</ele>
        <time>2021-01-18T17:12:36Z</time>
      </trkpt>
      <trkpt lat="47.41145" lon="1.00285">
        <ele>105</ele>
        <time>2021-01-18T17:12:36Z</time>
      </trkpt>
      <trkpt lat="47.4113" lon="1.00159">
        <ele>104.5</ele>
        <time>2021-01-18T17:12:36Z</time>
      </trkpt>
      <trkpt lat="47.41135" lon="1.00101">
        <ele>104</ele>
        <time>2021-01-18T17:12:36Z</time>
      </trkpt>
      <trkpt lat="47.41133" lon="1.00086">
        <ele>104</ele>
        <time>2021-01-18T17:12:36Z</time>
      </trkpt>
      <trkpt lat="47.41133" lon="1.00086">
        <ele>104</ele>
        <time>2021-01-18T17:12:36Z</time>
      </trkpt>
      <trkpt lat="47.41106" lon="0.99842">
        <ele>103.9</ele>
        <time>2021-01-18T17:12:36Z</time>
      </trkpt>
      <trkpt lat="47.41106" lon="0.99842">
        <ele>103.9</ele>
        <time>2021-01-18T17:12:36Z</time>
      </trkpt>
      <trkpt lat="47.41101" lon="0.99802">
        <ele>102</ele>
        <time>2021-01-18T17:12:36Z</time>
      </trkpt>
      <trkpt lat="47.4106" lon="0.99631">
        <ele>93.6</ele>
        <time>2021-01-18T17:12:36Z</time>
      </trkpt>
      <trkpt lat="47.4106" lon="0.99631">
        <ele>93.6</ele>
        <time>2021-01-18T17:12:36Z</time>
      </trkpt>
      <trkpt lat="47.4101" lon="0.99486">
        <ele>89.6</ele>
        <time>2021-01-18T17:12:36Z</time>
      </trkpt>
      <trkpt lat="47.41009" lon="0.99462">
        <ele>88.2</ele>
        <time>2021-01-18T17:12:36Z</time>
      </trkpt>
      <trkpt lat="47.41009" lon="0.99462">
        <ele>88.2</ele>
        <time>2021-01-18T17:12:36Z</time>
      </trkpt>
      <trkpt lat="47.41005" lon="0.99374">
        <ele>82.6</ele>
        <time>2021-01-18T17:12:36Z</time>
      </trkpt>
      <trkpt lat="47.41007" lon="0.99356">
        <ele>81.7</ele>
        <time>2021-01-18T17:12:36Z</time>
      </trkpt>
      <trkpt lat="47.41031" lon="0.99247">
        <ele>75.6</ele>
        <time>2021-01-18T17:12:36Z</time>
      </trkpt>
      <trkpt lat="47.41031" lon="0.99247">
        <ele>75.6</ele>
        <time>2021-01-18T17:12:36Z</time>
      </trkpt>
      <trkpt lat="47.41035" lon="0.99235">
        <ele>75.1</ele>
        <time>2021-01-18T17:12:36Z</time>
      </trkpt>
      <trkpt lat="47.41069" lon="0.99188">
        <ele>71.5</ele>
        <time>2021-01-18T17:12:36Z</time>
      </trkpt>
      <trkpt lat="47.41069" lon="0.99188">
        <ele>71.5</ele>
        <time>2021-01-18T17:12:36Z</time>
      </trkpt>
      <trkpt lat="47.41094" lon="0.99161">
        <ele>68.6</ele>
        <time>2021-01-18T17:12:36Z</time>
      </trkpt>
      <trkpt lat="47.41207" lon="0.98952">
        <ele>65.9</ele>
        <time>2021-01-18T17:12:36Z</time>
      </trkpt>
      <trkpt lat="47.41225" lon="0.98896">
        <ele>67</ele>
        <time>2021-01-18T17:12:36Z</time>
      </trkpt>
      <trkpt lat="47.41225" lon="0.98896">
        <ele>67</ele>
        <time>2021-01-18T17:12:36Z</time>
      </trkpt>
      <trkpt lat="47.41286" lon="0.98447">
        <ele>60.3</ele>
        <time>2021-01-18T17:12:36Z</time>
      </trkpt>
      <trkpt lat="47.41286" lon="0.98447">
        <ele>60.3</ele>
        <time>2021-01-18T17:12:36Z</time>
      </trkpt>
      <trkpt lat="47.41291" lon="0.98432">
        <ele>60</ele>
        <time>2021-01-18T17:12:36Z</time>
      </trkpt>
      <trkpt lat="47.41291" lon="0.98432">
        <ele>60</ele>
        <time>2021-01-18T17:12:36Z</time>
      </trkpt>
      <trkpt lat="47.41281" lon="0.98424">
        <ele>59.4</ele>
        <time>2021-01-18T17:12:36Z</time>
      </trkpt>
      <trkpt lat="47.41275" lon="0.98415">
        <ele>58.9</ele>
        <time>2021-01-18T17:12:36Z</time>
      </trkpt>
      <trkpt lat="47.41235" lon="0.98384">
        <ele>58.5</ele>
        <time>2021-01-18T17:12:36Z</time>
      </trkpt>
      <trkpt lat="47.41217" lon="0.98362">
        <ele>59</ele>
        <time>2021-01-18T17:12:36Z</time>
      </trkpt>
      <trkpt lat="47.41153" lon="0.98214">
        <ele>58</ele>
        <time>2021-01-18T17:12:36Z</time>
      </trkpt>
      <trkpt lat="47.41153" lon="0.98214">
        <ele>58</ele>
        <time>2021-01-18T17:12:36Z</time>
      </trkpt>
      <trkpt lat="47.41119" lon="0.98121">
        <ele>58</ele>
        <time>2021-01-18T17:12:36Z</time>
      </trkpt>
      <trkpt lat="47.41097" lon="0.98046">
        <ele>59</ele>
        <time>2021-01-18T17:12:36Z</time>
      </trkpt>
      <trkpt lat="47.41068" lon="0.98003">
        <ele>59.5</ele>
        <time>2021-01-18T17:12:36Z</time>
      </trkpt>
      <trkpt lat="47.41068" lon="0.98003">
        <ele>59.5</ele>
        <time>2021-01-18T17:12:36Z</time>
      </trkpt>
      <trkpt lat="47.41057" lon="0.9799">
        <ele>59.6</ele>
        <time>2021-01-18T17:12:36Z</time>
      </trkpt>
      <trkpt lat="47.41044" lon="0.97993">
        <ele>59.8</ele>
        <time>2021-01-18T17:12:36Z</time>
      </trkpt>
      <trkpt lat="47.41032" lon="0.97991">
        <ele>60</ele>
        <time>2021-01-18T17:12:36Z</time>
      </trkpt>
      <trkpt lat="47.41032" lon="0.97991">
        <ele>60</ele>
        <time>2021-01-18T17:12:36Z</time>
      </trkpt>
      <trkpt lat="47.41044" lon="0.97993">
        <ele>59.8</ele>
        <time>2021-01-18T17:12:36Z</time>
      </trkpt>
      <trkpt lat="47.41038" lon="0.97963">
        <ele>59.8</ele>
        <time>2021-01-18T17:12:36Z</time>
      </trkpt>
      <trkpt lat="47.41038" lon="0.97963">
        <ele>59.8</ele>
        <time>2021-01-18T17:12:36Z</time>
      </trkpt>
      <trkpt lat="47.40973" lon="0.97916">
        <ele>65</ele>
        <time>2021-01-18T17:12:36Z</time>
      </trkpt>
      <trkpt lat="47.40956" lon="0.97894">
        <ele>68.6</ele>
        <time>2021-01-18T17:12:36Z</time>
      </trkpt>
      <trkpt lat="47.40935" lon="0.9784">
        <ele>70.9</ele>
        <time>2021-01-18T17:12:36Z</time>
      </trkpt>
      <trkpt lat="47.40935" lon="0.9784">
        <ele>70.9</ele>
        <time>2021-01-18T17:12:36Z</time>
      </trkpt>
      <trkpt lat="47.40924" lon="0.97825">
        <ele>74.6</ele>
        <time>2021-01-18T17:12:36Z</time>
      </trkpt>
      <trkpt lat="47.40873" lon="0.97803">
        <ele>76.6</ele>
        <time>2021-01-18T17:12:36Z</time>
      </trkpt>
      <trkpt lat="47.40665" lon="0.97788">
        <ele>83</ele>
        <time>2021-01-18T17:12:36Z</time>
      </trkpt>
      <trkpt lat="47.40665" lon="0.97788">
        <ele>83</ele>
        <time>2021-01-18T17:12:36Z</time>
      </trkpt>
      <trkpt lat="47.40611" lon="0.9778">
        <ele>83</ele>
        <time>2021-01-18T17:12:36Z</time>
      </trkpt>
      <trkpt lat="47.40544" lon="0.97735">
        <ele>81.5</ele>
        <time>2021-01-18T17:12:36Z</time>
      </trkpt>
      <trkpt lat="47.40544" lon="0.97735">
        <ele>81.5</ele>
        <time>2021-01-18T17:12:36Z</time>
      </trkpt>
      <trkpt lat="47.40345" lon="0.97519">
        <ele>79.7</ele>
        <time>2021-01-18T17:12:36Z</time>
      </trkpt>
      <trkpt lat="47.40314" lon="0.9747">
        <ele>80.7</ele>
        <time>2021-01-18T17:12:36Z</time>
      </trkpt>
      <trkpt lat="47.40314" lon="0.9747">
        <ele>80.7</ele>
        <time>2021-01-18T17:12:36Z</time>
      </trkpt>
      <trkpt lat="47.40307" lon="0.9746">
        <ele>81</ele>
        <time>2021-01-18T17:12:36Z</time>
      </trkpt>
      <trkpt lat="47.403" lon="0.97456">
        <ele>81.1</ele>
        <time>2021-01-18T17:12:36Z</time>
      </trkpt>
      <trkpt lat="47.40249" lon="0.97383">
        <ele>83.1</ele>
        <time>2021-01-18T17:12:36Z</time>
      </trkpt>
      <trkpt lat="47.40166" lon="0.9713">
        <ele>87</ele>
        <time>2021-01-18T17:12:36Z</time>
      </trkpt>
      <trkpt lat="47.40146" lon="0.97098">
        <ele>87.5</ele>
        <time>2021-01-18T17:12:36Z</time>
      </trkpt>
      <trkpt lat="47.40146" lon="0.97098">
        <ele>87.5</ele>
        <time>2021-01-18T17:12:36Z</time>
      </trkpt>
      <trkpt lat="47.40062" lon="0.96975">
        <ele>89.1</ele>
        <time>2021-01-18T17:12:36Z</time>
      </trkpt>
      <trkpt lat="47.40049" lon="0.96965">
        <ele>89.2</ele>
        <time>2021-01-18T17:12:36Z</time>
      </trkpt>
      <trkpt lat="47.40049" lon="0.96965">
        <ele>89.2</ele>
        <time>2021-01-18T17:12:36Z</time>
      </trkpt>
      <trkpt lat="47.40039" lon="0.96959">
        <ele>89.6</ele>
        <time>2021-01-18T17:12:36Z</time>
      </trkpt>
      <trkpt lat="47.39883" lon="0.96961">
        <ele>92.2</ele>
        <time>2021-01-18T17:12:36Z</time>
      </trkpt>
      <trkpt lat="47.39883" lon="0.96961">
        <ele>92.2</ele>
        <time>2021-01-18T17:12:36Z</time>
      </trkpt>
      <trkpt lat="47.39905" lon="0.96792">
        <ele>87.5</ele>
        <time>2021-01-18T17:12:36Z</time>
      </trkpt>
      <trkpt lat="47.39908" lon="0.96319">
        <ele>90</ele>
        <time>2021-01-18T17:12:36Z</time>
      </trkpt>
      <trkpt lat="47.39908" lon="0.96319">
        <ele>90</ele>
        <time>2021-01-18T17:12:36Z</time>
      </trkpt>
      <trkpt lat="47.39874" lon="0.96308">
        <ele>90</ele>
        <time>2021-01-18T17:12:36Z</time>
      </trkpt>
      <trkpt lat="47.39767" lon="0.96253">
        <ele>93.4</ele>
        <time>2021-01-18T17:12:36Z</time>
      </trkpt>
      <trkpt lat="47.39729" lon="0.96246">
        <ele>94.7</ele>
        <time>2021-01-18T17:12:36Z</time>
      </trkpt>
      <trkpt lat="47.39729" lon="0.96246">
        <ele>94.7</ele>
        <time>2021-01-18T17:12:36Z</time>
      </trkpt>
      <trkpt lat="47.39747" lon="0.95905">
        <ele>96.4</ele>
        <time>2021-01-18T17:12:36Z</time>
      </trkpt>
      <trkpt lat="47.39742" lon="0.95805">
        <ele>95.8</ele>
        <time>2021-01-18T17:12:36Z</time>
      </trkpt>
      <trkpt lat="47.39742" lon="0.95805">
        <ele>95.8</ele>
        <time>2021-01-18T17:12:36Z</time>
      </trkpt>
      <trkpt lat="47.39744" lon="0.95794">
        <ele>95.3</ele>
        <time>2021-01-18T17:12:36Z</time>
      </trkpt>
      <trkpt lat="47.39892" lon="0.95736">
        <ele>88.5</ele>
        <time>2021-01-18T17:12:36Z</time>
      </trkpt>
      <trkpt lat="47.39823" lon="0.95507">
        <ele>87.9</ele>
        <time>2021-01-18T17:12:36Z</time>
      </trkpt>
      <trkpt lat="47.39696" lon="0.9556">
        <ele>95</ele>
        <time>2021-01-18T17:12:36Z</time>
      </trkpt>
      <trkpt lat="47.39696" lon="0.9556">
        <ele>95</ele>
        <time>2021-01-18T17:12:36Z</time>
      </trkpt>
      <trkpt lat="47.39569" lon="0.9557">
        <ele>105</ele>
        <time>2021-01-18T17:12:36Z</time>
      </trkpt>
      <trkpt lat="47.39558" lon="0.95576">
        <ele>105.6</ele>
        <time>2021-01-18T17:12:36Z</time>
      </trkpt>
      <trkpt lat="47.39553" lon="0.95589">
        <ele>106.3</ele>
        <time>2021-01-18T17:12:36Z</time>
      </trkpt>
      <trkpt lat="47.39554" lon="0.95627">
        <ele>107.6</ele>
        <time>2021-01-18T17:12:36Z</time>
      </trkpt>
      <trkpt lat="47.39543" lon="0.95637">
        <ele>107.9</ele>
        <time>2021-01-18T17:12:36Z</time>
      </trkpt>
      <trkpt lat="47.39543" lon="0.95637">
        <ele>107.9</ele>
        <time>2021-01-18T17:12:36Z</time>
      </trkpt>
      <trkpt lat="47.39353" lon="0.95695">
        <ele>111</ele>
        <time>2021-01-18T17:12:36Z</time>
      </trkpt>
      <trkpt lat="47.39353" lon="0.95695">
        <ele>111</ele>
        <time>2021-01-18T17:12:36Z</time>
      </trkpt>
      <trkpt lat="47.39343" lon="0.95702">
        <ele>111.2</ele>
        <time>2021-01-18T17:12:36Z</time>
      </trkpt>
      <trkpt lat="47.39327" lon="0.95731">
        <ele>112</ele>
        <time>2021-01-18T17:12:36Z</time>
      </trkpt>
      <trkpt lat="47.39236" lon="0.95778">
        <ele>113</ele>
        <time>2021-01-18T17:12:36Z</time>
      </trkpt>
      <trkpt lat="47.39236" lon="0.95778">
        <ele>113</ele>
        <time>2021-01-18T17:12:36Z</time>
      </trkpt>
      <trkpt lat="47.39151" lon="0.95827">
        <ele>113.8</ele>
        <time>2021-01-18T17:12:36Z</time>
      </trkpt>
      <trkpt lat="47.39122" lon="0.95816">
        <ele>113.1</ele>
        <time>2021-01-18T17:12:36Z</time>
      </trkpt>
      <trkpt lat="47.3912" lon="0.9583">
        <ele>113.3</ele>
        <time>2021-01-18T17:12:36Z</time>
      </trkpt>
      <trkpt lat="47.3912" lon="0.9583">
        <ele>113.3</ele>
        <time>2021-01-18T17:12:36Z</time>
      </trkpt>
      <trkpt lat="47.39122" lon="0.95816">
        <ele>113.1</ele>
        <time>2021-01-18T17:12:36Z</time>
      </trkpt>
      <trkpt lat="47.39134" lon="0.9524">
        <ele>108</ele>
        <time>2021-01-18T17:12:36Z</time>
      </trkpt>
      <trkpt lat="47.39134" lon="0.9524">
        <ele>108</ele>
        <time>2021-01-18T17:12:36Z</time>
      </trkpt>
      <trkpt lat="47.39168" lon="0.95159">
        <ele>107</ele>
        <time>2021-01-18T17:12:36Z</time>
      </trkpt>
      <trkpt lat="47.39387" lon="0.94749">
        <ele>102.2</ele>
        <time>2021-01-18T17:12:36Z</time>
      </trkpt>
      <trkpt lat="47.39387" lon="0.94749">
        <ele>102.2</ele>
        <time>2021-01-18T17:12:36Z</time>
      </trkpt>
      <trkpt lat="47.39182" lon="0.94913">
        <ele>104.9</ele>
        <time>2021-01-18T17:12:36Z</time>
      </trkpt>
      <trkpt lat="47.3916" lon="0.94918">
        <ele>104.7</ele>
        <time>2021-01-18T17:12:36Z</time>
      </trkpt>
      <trkpt lat="47.3916" lon="0.94918">
        <ele>104.7</ele>
        <time>2021-01-18T17:12:36Z</time>
      </trkpt>
      <trkpt lat="47.39098" lon="0.94907">
        <ele>103.8</ele>
        <time>2021-01-18T17:12:36Z</time>
      </trkpt>
      <trkpt lat="47.38872" lon="0.94756">
        <ele>108</ele>
        <time>2021-01-18T17:12:36Z</time>
      </trkpt>
      <trkpt lat="47.3822" lon="0.94416">
        <ele>104.9</ele>
        <time>2021-01-18T17:12:36Z</time>
      </trkpt>
      <trkpt lat="47.3822" lon="0.94416">
        <ele>104.9</ele>
        <time>2021-01-18T17:12:36Z</time>
      </trkpt>
      <trkpt lat="47.37994" lon="0.94302">
        <ele>102</ele>
        <time>2021-01-18T17:12:36Z</time>
      </trkpt>
      <trkpt lat="47.37994" lon="0.94302">
        <ele>102</ele>
        <time>2021-01-18T17:12:36Z</time>
      </trkpt>
      <trkpt lat="47.37915" lon="0.94109">
        <ele>101</ele>
        <time>2021-01-18T17:12:36Z</time>
      </trkpt>
      <trkpt lat="47.37915" lon="0.94109">
        <ele>101</ele>
        <time>2021-01-18T17:12:36Z</time>
      </trkpt>
      <trkpt lat="47.3791" lon="0.941">
        <ele>101</ele>
        <time>2021-01-18T17:12:36Z</time>
      </trkpt>
      <trkpt lat="47.37921" lon="0.94089">
        <ele>101.1</ele>
        <time>2021-01-18T17:12:36Z</time>
      </trkpt>
      <trkpt lat="47.37869" lon="0.91648">
        <ele>101.7</ele>
        <time>2021-01-18T17:12:36Z</time>
      </trkpt>
      <trkpt lat="47.37869" lon="0.91648">
        <ele>101.7</ele>
        <time>2021-01-18T17:12:36Z</time>
      </trkpt>
      <trkpt lat="47.37828" lon="0.8994">
        <ele>96</ele>
        <time>2021-01-18T17:12:36Z</time>
      </trkpt>
      <trkpt lat="47.37839" lon="0.89948">
        <ele>96</ele>
        <time>2021-01-18T17:12:36Z</time>
      </trkpt>
      <trkpt lat="47.37839" lon="0.89948">
        <ele>96</ele>
        <time>2021-01-18T17:12:36Z</time>
      </trkpt>
      <trkpt lat="47.37799" lon="0.89913">
        <ele>96</ele>
        <time>2021-01-18T17:12:36Z</time>
      </trkpt>
      <trkpt lat="47.37762" lon="0.8987">
        <ele>95.1</ele>
        <time>2021-01-18T17:12:36Z</time>
      </trkpt>
      <trkpt lat="47.37761" lon="0.89846">
        <ele>95</ele>
        <time>2021-01-18T17:12:36Z</time>
      </trkpt>
      <trkpt lat="47.37587" lon="0.8929">
        <ele>93</ele>
        <time>2021-01-18T17:12:36Z</time>
      </trkpt>
      <trkpt lat="47.37585" lon="0.89274">
        <ele>92.9</ele>
        <time>2021-01-18T17:12:36Z</time>
      </trkpt>
      <trkpt lat="47.37585" lon="0.89274">
        <ele>92.9</ele>
        <time>2021-01-18T17:12:36Z</time>
      </trkpt>
      <trkpt lat="47.37586" lon="0.88783">
        <ele>87.1</ele>
        <time>2021-01-18T17:12:36Z</time>
      </trkpt>
      <trkpt lat="47.37586" lon="0.88783">
        <ele>87.1</ele>
        <time>2021-01-18T17:12:36Z</time>
      </trkpt>
      <trkpt lat="47.37593" lon="0.88695">
        <ele>85.7</ele>
        <time>2021-01-18T17:12:36Z</time>
      </trkpt>
      <trkpt lat="47.37645" lon="0.88508">
        <ele>78.8</ele>
        <time>2021-01-18T17:12:36Z</time>
      </trkpt>
      <trkpt lat="47.37658" lon="0.88491">
        <ele>78.3</ele>
        <time>2021-01-18T17:12:36Z</time>
      </trkpt>
      <trkpt lat="47.3767" lon="0.88484">
        <ele>77.9</ele>
        <time>2021-01-18T17:12:36Z</time>
      </trkpt>
      <trkpt lat="47.37728" lon="0.88485">
        <ele>76.6</ele>
        <time>2021-01-18T17:12:36Z</time>
      </trkpt>
      <trkpt lat="47.3773" lon="0.88474">
        <ele>76.9</ele>
        <time>2021-01-18T17:12:36Z</time>
      </trkpt>
      <trkpt lat="47.3773" lon="0.88474">
        <ele>76.9</ele>
        <time>2021-01-18T17:12:36Z</time>
      </trkpt>
      <trkpt lat="47.37727" lon="0.88403">
        <ele>79.7</ele>
        <time>2021-01-18T17:12:36Z</time>
      </trkpt>
      <trkpt lat="47.37742" lon="0.88273">
        <ele>83.7</ele>
        <time>2021-01-18T17:12:36Z</time>
      </trkpt>
      <trkpt lat="47.37837" lon="0.87868">
        <ele>84.9</ele>
        <time>2021-01-18T17:12:36Z</time>
      </trkpt>
      <trkpt lat="47.37825" lon="0.87804">
        <ele>84</ele>
        <time>2021-01-18T17:12:36Z</time>
      </trkpt>
      <trkpt lat="47.37825" lon="0.87793">
        <ele>84</ele>
        <time>2021-01-18T17:12:36Z</time>
      </trkpt>
      <trkpt lat="47.37896" lon="0.87644">
        <ele>80.5</ele>
        <time>2021-01-18T17:12:36Z</time>
      </trkpt>
      <trkpt lat="47.37896" lon="0.87644">
        <ele>80.5</ele>
        <time>2021-01-18T17:12:36Z</time>
      </trkpt>
      <trkpt lat="47.37895" lon="0.87626">
        <ele>80</ele>
        <time>2021-01-18T17:12:36Z</time>
      </trkpt>
      <trkpt lat="47.37838" lon="0.87488">
        <ele>75.3</ele>
        <time>2021-01-18T17:12:36Z</time>
      </trkpt>
      <trkpt lat="47.37836" lon="0.87476">
        <ele>75.1</ele>
        <time>2021-01-18T17:12:36Z</time>
      </trkpt>
      <trkpt lat="47.37836" lon="0.87476">
        <ele>75.1</ele>
        <time>2021-01-18T17:12:36Z</time>
      </trkpt>
      <trkpt lat="47.37984" lon="0.87294">
        <ele>74.6</ele>
        <time>2021-01-18T17:12:36Z</time>
      </trkpt>
      <trkpt lat="47.37984" lon="0.87294">
        <ele>74.6</ele>
        <time>2021-01-18T17:12:36Z</time>
      </trkpt>
      <trkpt lat="47.37992" lon="0.87283">
        <ele>74.2</ele>
        <time>2021-01-18T17:12:36Z</time>
      </trkpt>
      <trkpt lat="47.37992" lon="0.87283">
        <ele>74.2</ele>
        <time>2021-01-18T17:12:36Z</time>
      </trkpt>
      <trkpt lat="47.37994" lon="0.87273">
        <ele>73.8</ele>
        <time>2021-01-18T17:12:36Z</time>
      </trkpt>
      <trkpt lat="47.37862" lon="0.86878">
        <ele>70</ele>
        <time>2021-01-18T17:12:36Z</time>
      </trkpt>
      <trkpt lat="47.37827" lon="0.86742">
        <ele>75.3</ele>
        <time>2021-01-18T17:12:36Z</time>
      </trkpt>
      <trkpt lat="47.37822" lon="0.86734">
        <ele>75.6</ele>
        <time>2021-01-18T17:12:36Z</time>
      </trkpt>
      <trkpt lat="47.37822" lon="0.86734">
        <ele>75.6</ele>
        <time>2021-01-18T17:12:36Z</time>
      </trkpt>
      <trkpt lat="47.37815" lon="0.86725">
        <ele>75.9</ele>
        <time>2021-01-18T17:12:36Z</time>
      </trkpt>
      <trkpt lat="47.37725" lon="0.86673">
        <ele>76.8</ele>
        <time>2021-01-18T17:12:36Z</time>
      </trkpt>
      <trkpt lat="47.37714" lon="0.86676">
        <ele>76.8</ele>
        <time>2021-01-18T17:12:36Z</time>
      </trkpt>
      <trkpt lat="47.37714" lon="0.86676">
        <ele>76.8</ele>
        <time>2021-01-18T17:12:36Z</time>
      </trkpt>
      <trkpt lat="47.37721" lon="0.86672">
        <ele>76.8</ele>
        <time>2021-01-18T17:12:36Z</time>
      </trkpt>
      <trkpt lat="47.37726" lon="0.8659">
        <ele>78.1</ele>
        <time>2021-01-18T17:12:36Z</time>
      </trkpt>
      <trkpt lat="47.37736" lon="0.86545">
        <ele>78.9</ele>
        <time>2021-01-18T17:12:36Z</time>
      </trkpt>
      <trkpt lat="47.37736" lon="0.86545">
        <ele>78.9</ele>
        <time>2021-01-18T17:12:36Z</time>
      </trkpt>
      <trkpt lat="47.37726" lon="0.86537">
        <ele>78.8</ele>
        <time>2021-01-18T17:12:36Z</time>
      </trkpt>
      <trkpt lat="47.37027" lon="0.86826">
        <ele>74</ele>
        <time>2021-01-18T17:12:36Z</time>
      </trkpt>
      <trkpt lat="47.37027" lon="0.86826">
        <ele>74</ele>
        <time>2021-01-18T17:12:36Z</time>
      </trkpt>
      <trkpt lat="47.37002" lon="0.86833">
        <ele>74</ele>
        <time>2021-01-18T17:12:36Z</time>
      </trkpt>
      <trkpt lat="47.37001" lon="0.86795">
        <ele>74</ele>
        <time>2021-01-18T17:12:36Z</time>
      </trkpt>
      <trkpt lat="47.37003" lon="0.86783">
        <ele>73.9</ele>
        <time>2021-01-18T17:12:36Z</time>
      </trkpt>
      <trkpt lat="47.37003" lon="0.86783">
        <ele>73.9</ele>
        <time>2021-01-18T17:12:36Z</time>
      </trkpt>
      <trkpt lat="47.37008" lon="0.86766">
        <ele>73.7</ele>
        <time>2021-01-18T17:12:36Z</time>
      </trkpt>
      <trkpt lat="47.37029" lon="0.86731">
        <ele>73</ele>
        <time>2021-01-18T17:12:36Z</time>
      </trkpt>
      <trkpt lat="47.37088" lon="0.86685">
        <ele>73.2</ele>
        <time>2021-01-18T17:12:36Z</time>
      </trkpt>
      <trkpt lat="47.37142" lon="0.86612">
        <ele>75.1</ele>
        <time>2021-01-18T17:12:36Z</time>
      </trkpt>
      <trkpt lat="47.37339" lon="0.86097">
        <ele>83</ele>
        <time>2021-01-18T17:12:36Z</time>
      </trkpt>
      <trkpt lat="47.37339" lon="0.86097">
        <ele>83</ele>
        <time>2021-01-18T17:12:36Z</time>
      </trkpt>
      <trkpt lat="47.37409" lon="0.85893">
        <ele>82.8</ele>
        <time>2021-01-18T17:12:36Z</time>
      </trkpt>
      <trkpt lat="47.37409" lon="0.85893">
        <ele>82.8</ele>
        <time>2021-01-18T17:12:36Z</time>
      </trkpt>
      <trkpt lat="47.37412" lon="0.85877">
        <ele>82.8</ele>
        <time>2021-01-18T17:12:36Z</time>
      </trkpt>
      <trkpt lat="47.37355" lon="0.85871">
        <ele>82</ele>
        <time>2021-01-18T17:12:36Z</time>
      </trkpt>
      <trkpt lat="47.37297" lon="0.85876">
        <ele>81</ele>
        <time>2021-01-18T17:12:36Z</time>
      </trkpt>
      <trkpt lat="47.37125" lon="0.85855">
        <ele>76.7</ele>
        <time>2021-01-18T17:12:36Z</time>
      </trkpt>
      <trkpt lat="47.37116" lon="0.85848">
        <ele>76.7</ele>
        <time>2021-01-18T17:12:36Z</time>
      </trkpt>
      <trkpt lat="47.37134" lon="0.85841">
        <ele>77.6</ele>
        <time>2021-01-18T17:12:36Z</time>
      </trkpt>
      <trkpt lat="47.37134" lon="0.85841">
        <ele>77.6</ele>
        <time>2021-01-18T17:12:36Z</time>
      </trkpt>
      <trkpt lat="47.37136" lon="0.84575">
        <ele>69.9</ele>
        <time>2021-01-18T17:12:36Z</time>
      </trkpt>
      <trkpt lat="47.37136" lon="0.84575">
        <ele>69.9</ele>
        <time>2021-01-18T17:12:36Z</time>
      </trkpt>
      <trkpt lat="47.37138" lon="0.84594">
        <ele>69.3</ele>
        <time>2021-01-18T17:12:36Z</time>
      </trkpt>
      <trkpt lat="47.37279" lon="0.84599">
        <ele>73.6</ele>
        <time>2021-01-18T17:12:36Z</time>
      </trkpt>
      <trkpt lat="47.37502" lon="0.84484">
        <ele>78.1</ele>
        <time>2021-01-18T17:12:36Z</time>
      </trkpt>
      <trkpt lat="47.37594" lon="0.84399">
        <ele>79</ele>
        <time>2021-01-18T17:12:36Z</time>
      </trkpt>
      <trkpt lat="47.37606" lon="0.84392">
        <ele>79</ele>
        <time>2021-01-18T17:12:36Z</time>
      </trkpt>
      <trkpt lat="47.37641" lon="0.8439">
        <ele>79</ele>
        <time>2021-01-18T17:12:36Z</time>
      </trkpt>
      <trkpt lat="47.37919" lon="0.8441">
        <ele>79</ele>
        <time>2021-01-18T17:12:36Z</time>
      </trkpt>
      <trkpt lat="47.37919" lon="0.8441">
        <ele>79</ele>
        <time>2021-01-18T17:12:36Z</time>
      </trkpt>
      <trkpt lat="47.37935" lon="0.84409">
        <ele>79</ele>
        <time>2021-01-18T17:12:36Z</time>
      </trkpt>
      <trkpt lat="47.37933" lon="0.84392">
        <ele>79</ele>
        <time>2021-01-18T17:12:36Z</time>
      </trkpt>
      <trkpt lat="47.37935" lon="0.84342">
        <ele>78.5</ele>
        <time>2021-01-18T17:12:36Z</time>
      </trkpt>
      <trkpt lat="47.37952" lon="0.84266">
        <ele>78.4</ele>
        <time>2021-01-18T17:12:36Z</time>
      </trkpt>
      <trkpt lat="47.37948" lon="0.84083">
        <ele>78</ele>
        <time>2021-01-18T17:12:36Z</time>
      </trkpt>
      <trkpt lat="47.37921" lon="0.83939">
        <ele>78</ele>
        <time>2021-01-18T17:12:36Z</time>
      </trkpt>
      <trkpt lat="47.37843" lon="0.83826">
        <ele>78</ele>
        <time>2021-01-18T17:12:36Z</time>
      </trkpt>
      <trkpt lat="47.37843" lon="0.83826">
        <ele>78</ele>
        <time>2021-01-18T17:12:36Z</time>
      </trkpt>
      <trkpt lat="47.37836" lon="0.83818">
        <ele>78</ele>
        <time>2021-01-18T17:12:36Z</time>
      </trkpt>
      <trkpt lat="47.3776" lon="0.83824">
        <ele>77</ele>
        <time>2021-01-18T17:12:36Z</time>
      </trkpt>
      <trkpt lat="47.37751" lon="0.83819">
        <ele>77</ele>
        <time>2021-01-18T17:12:36Z</time>
      </trkpt>
      <trkpt lat="47.37744" lon="0.83811">
        <ele>77</ele>
        <time>2021-01-18T17:12:36Z</time>
      </trkpt>
      <trkpt lat="47.37643" lon="0.83551">
        <ele>78.2</ele>
        <time>2021-01-18T17:12:36Z</time>
      </trkpt>
      <trkpt lat="47.37599" lon="0.83478">
        <ele>78</ele>
        <time>2021-01-18T17:12:36Z</time>
      </trkpt>
      <trkpt lat="47.37597" lon="0.83468">
        <ele>78</ele>
        <time>2021-01-18T17:12:36Z</time>
      </trkpt>
      <trkpt lat="47.37598" lon="0.83453">
        <ele>78</ele>
        <time>2021-01-18T17:12:36Z</time>
      </trkpt>
      <trkpt lat="47.37598" lon="0.83453">
        <ele>78</ele>
        <time>2021-01-18T17:12:36Z</time>
      </trkpt>
      <trkpt lat="47.376" lon="0.83415">
        <ele>78</ele>
        <time>2021-01-18T17:12:36Z</time>
      </trkpt>
      <trkpt lat="47.37691" lon="0.83041">
        <ele>77.1</ele>
        <time>2021-01-18T17:12:36Z</time>
      </trkpt>
      <trkpt lat="47.37691" lon="0.83041">
        <ele>77.1</ele>
        <time>2021-01-18T17:12:36Z</time>
      </trkpt>
      <trkpt lat="47.37688" lon="0.8306">
        <ele>77.3</ele>
        <time>2021-01-18T17:12:36Z</time>
      </trkpt>
      <trkpt lat="47.37468" lon="0.82892">
        <ele>75.1</ele>
        <time>2021-01-18T17:12:36Z</time>
      </trkpt>
      <trkpt lat="47.37358" lon="0.82839">
        <ele>77.8</ele>
        <time>2021-01-18T17:12:36Z</time>
      </trkpt>
      <trkpt lat="47.37138" lon="0.82688">
        <ele>72.9</ele>
        <time>2021-01-18T17:12:36Z</time>
      </trkpt>
      <trkpt lat="47.37087" lon="0.82676">
        <ele>66</ele>
        <time>2021-01-18T17:12:36Z</time>
      </trkpt>
      <trkpt lat="47.37079" lon="0.82672">
        <ele>63.9</ele>
        <time>2021-01-18T17:12:36Z</time>
      </trkpt>
      <trkpt lat="47.37079" lon="0.82672">
        <ele>63.9</ele>
        <time>2021-01-18T17:12:36Z</time>
      </trkpt>
      <trkpt lat="47.37076" lon="0.82635">
        <ele>60.1</ele>
        <time>2021-01-18T17:12:36Z</time>
      </trkpt>
      <trkpt lat="47.37053" lon="0.82691">
        <ele>59.6</ele>
        <time>2021-01-18T17:12:36Z</time>
      </trkpt>
      <trkpt lat="47.37018" lon="0.82739">
        <ele>56.6</ele>
        <time>2021-01-18T17:12:36Z</time>
      </trkpt>
      <trkpt lat="47.37008" lon="0.82762">
        <ele>56.3</ele>
        <time>2021-01-18T17:12:36Z</time>
      </trkpt>
      <trkpt lat="47.36993" lon="0.82825">
        <ele>55.9</ele>
        <time>2021-01-18T17:12:36Z</time>
      </trkpt>
      <trkpt lat="47.36971" lon="0.83044">
        <ele>55.9</ele>
        <time>2021-01-18T17:12:36Z</time>
      </trkpt>
      <trkpt lat="47.36981" lon="0.83177">
        <ele>59</ele>
        <time>2021-01-18T17:12:36Z</time>
      </trkpt>
      <trkpt lat="47.36979" lon="0.83202">
        <ele>58.4</ele>
        <time>2021-01-18T17:12:36Z</time>
      </trkpt>
      <trkpt lat="47.3695" lon="0.83348">
        <ele>55.8</ele>
        <time>2021-01-18T17:12:36Z</time>
      </trkpt>
      <trkpt lat="47.3695" lon="0.83348">
        <ele>55.8</ele>
        <time>2021-01-18T17:12:36Z</time>
      </trkpt>
      <trkpt lat="47.36888" lon="0.83349">
        <ele>54</ele>
        <time>2021-01-18T17:12:36Z</time>
      </trkpt>
      <trkpt lat="47.36865" lon="0.83562">
        <ele>53.3</ele>
        <time>2021-01-18T17:12:36Z</time>
      </trkpt>
      <trkpt lat="47.36857" lon="0.83583">
        <ele>53</ele>
        <time>2021-01-18T17:12:36Z</time>
      </trkpt>
      <trkpt lat="47.36809" lon="0.83625">
        <ele>52.1</ele>
        <time>2021-01-18T17:12:36Z</time>
      </trkpt>
      <trkpt lat="47.36772" lon="0.8363">
        <ele>51.3</ele>
        <time>2021-01-18T17:12:36Z</time>
      </trkpt>
      <trkpt lat="47.36753" lon="0.83629">
        <ele>51.4</ele>
        <time>2021-01-18T17:12:36Z</time>
      </trkpt>
      <trkpt lat="47.36732" lon="0.83618">
        <ele>51.3</ele>
        <time>2021-01-18T17:12:36Z</time>
      </trkpt>
      <trkpt lat="47.36732" lon="0.83618">
        <ele>51.3</ele>
        <time>2021-01-18T17:12:36Z</time>
      </trkpt>
      <trkpt lat="47.36713" lon="0.83603">
        <ele>51.5</ele>
        <time>2021-01-18T17:12:36Z</time>
      </trkpt>
      <trkpt lat="47.36715" lon="0.83573">
        <ele>51.9</ele>
        <time>2021-01-18T17:12:36Z</time>
      </trkpt>
      <trkpt lat="47.36854" lon="0.83196">
        <ele>52.5</ele>
        <time>2021-01-18T17:12:36Z</time>
      </trkpt>
      <trkpt lat="47.36856" lon="0.83177">
        <ele>52.5</ele>
        <time>2021-01-18T17:12:36Z</time>
      </trkpt>
      <trkpt lat="47.36865" lon="0.83139">
        <ele>52.1</ele>
        <time>2021-01-18T17:12:36Z</time>
      </trkpt>
      <trkpt lat="47.36864" lon="0.83128">
        <ele>52.1</ele>
        <time>2021-01-18T17:12:36Z</time>
      </trkpt>
      <trkpt lat="47.36861" lon="0.83117">
        <ele>52</ele>
        <time>2021-01-18T17:12:36Z</time>
      </trkpt>
      <trkpt lat="47.36853" lon="0.83109">
        <ele>51.9</ele>
        <time>2021-01-18T17:12:36Z</time>
      </trkpt>
      <trkpt lat="47.36839" lon="0.83106">
        <ele>52</ele>
        <time>2021-01-18T17:12:36Z</time>
      </trkpt>
      <trkpt lat="47.36828" lon="0.83111">
        <ele>52</ele>
        <time>2021-01-18T17:12:36Z</time>
      </trkpt>
      <trkpt lat="47.3682" lon="0.8311">
        <ele>52</ele>
        <time>2021-01-18T17:12:36Z</time>
      </trkpt>
      <trkpt lat="47.36807" lon="0.83104">
        <ele>52</ele>
        <time>2021-01-18T17:12:36Z</time>
      </trkpt>
      <trkpt lat="47.36801" lon="0.83095">
        <ele>51.8</ele>
        <time>2021-01-18T17:12:36Z</time>
      </trkpt>
      <trkpt lat="47.36795" lon="0.83079">
        <ele>51.6</ele>
        <time>2021-01-18T17:12:36Z</time>
      </trkpt>
      <trkpt lat="47.36775" lon="0.83083">
        <ele>50.8</ele>
        <time>2021-01-18T17:12:36Z</time>
      </trkpt>
      <trkpt lat="47.36781" lon="0.83148">
        <ele>50.2</ele>
        <time>2021-01-18T17:12:36Z</time>
      </trkpt>
      <trkpt lat="47.3677" lon="0.83218">
        <ele>51</ele>
        <time>2021-01-18T17:12:36Z</time>
      </trkpt>
      <trkpt lat="47.36694" lon="0.83509">
        <ele>50</ele>
        <time>2021-01-18T17:12:36Z</time>
      </trkpt>
      <trkpt lat="47.36688" lon="0.83519">
        <ele>49.8</ele>
        <time>2021-01-18T17:12:36Z</time>
      </trkpt>
      <trkpt lat="47.36678" lon="0.83529">
        <ele>49.4</ele>
        <time>2021-01-18T17:12:36Z</time>
      </trkpt>
      <trkpt lat="47.36666" lon="0.83505">
        <ele>49</ele>
        <time>2021-01-18T17:12:36Z</time>
      </trkpt>
      <trkpt lat="47.36656" lon="0.83497">
        <ele>49</ele>
        <time>2021-01-18T17:12:36Z</time>
      </trkpt>
      <trkpt lat="47.36559" lon="0.83487">
        <ele>49.5</ele>
        <time>2021-01-18T17:12:36Z</time>
      </trkpt>
      <trkpt lat="47.36541" lon="0.83471">
        <ele>49.5</ele>
        <time>2021-01-18T17:12:36Z</time>
      </trkpt>
      <trkpt lat="47.36533" lon="0.83459">
        <ele>49.5</ele>
        <time>2021-01-18T17:12:36Z</time>
      </trkpt>
      <trkpt lat="47.36533" lon="0.83459">
        <ele>49.5</ele>
        <time>2021-01-18T17:12:36Z</time>
      </trkpt>
      <trkpt lat="47.36521" lon="0.83469">
        <ele>49.9</ele>
        <time>2021-01-18T17:12:36Z</time>
      </trkpt>
      <trkpt lat="47.36445" lon="0.83837">
        <ele>50</ele>
        <time>2021-01-18T17:12:36Z</time>
      </trkpt>
      <trkpt lat="47.36435" lon="0.83857">
        <ele>50</ele>
        <time>2021-01-18T17:12:36Z</time>
      </trkpt>
      <trkpt lat="47.36269" lon="0.84042">
        <ele>50</ele>
        <time>2021-01-18T17:12:36Z</time>
      </trkpt>
      <trkpt lat="47.36173" lon="0.8412">
        <ele>50</ele>
        <time>2021-01-18T17:12:36Z</time>
      </trkpt>
      <trkpt lat="47.36016" lon="0.84276">
        <ele>50</ele>
        <time>2021-01-18T17:12:36Z</time>
      </trkpt>
      <trkpt lat="47.35932" lon="0.84343">
        <ele>50.5</ele>
        <time>2021-01-18T17:12:36Z</time>
      </trkpt>
      <trkpt lat="47.35733" lon="0.8463">
        <ele>50.6</ele>
        <time>2021-01-18T17:12:36Z</time>
      </trkpt>
      <trkpt lat="47.35578" lon="0.84778">
        <ele>51</ele>
        <time>2021-01-18T17:12:36Z</time>
      </trkpt>
      <trkpt lat="47.3556" lon="0.84788">
        <ele>51</ele>
        <time>2021-01-18T17:12:36Z</time>
      </trkpt>
      <trkpt lat="47.3556" lon="0.84788">
        <ele>51</ele>
        <time>2021-01-18T17:12:36Z</time>
      </trkpt>
      <trkpt lat="47.35521" lon="0.84797">
        <ele>51</ele>
        <time>2021-01-18T17:12:36Z</time>
      </trkpt>
      <trkpt lat="47.35445" lon="0.84774">
        <ele>51</ele>
        <time>2021-01-18T17:12:36Z</time>
      </trkpt>
      <trkpt lat="47.35364" lon="0.84743">
        <ele>51.9</ele>
        <time>2021-01-18T17:12:36Z</time>
      </trkpt>
      <trkpt lat="47.35364" lon="0.84743">
        <ele>51.9</ele>
        <time>2021-01-18T17:12:36Z</time>
      </trkpt>
      <trkpt lat="47.35392" lon="0.84546">
        <ele>51.6</ele>
        <time>2021-01-18T17:12:36Z</time>
      </trkpt>
      <trkpt lat="47.35423" lon="0.84242">
        <ele>50.1</ele>
        <time>2021-01-18T17:12:36Z</time>
      </trkpt>
      <trkpt lat="47.35517" lon="0.83944">
        <ele>49.8</ele>
        <time>2021-01-18T17:12:36Z</time>
      </trkpt>
      <trkpt lat="47.35537" lon="0.83901">
        <ele>50.3</ele>
        <time>2021-01-18T17:12:36Z</time>
      </trkpt>
      <trkpt lat="47.35537" lon="0.83901">
        <ele>50.3</ele>
        <time>2021-01-18T17:12:36Z</time>
      </trkpt>
      <trkpt lat="47.35591" lon="0.83826">
        <ele>50.4</ele>
        <time>2021-01-18T17:12:36Z</time>
      </trkpt>
      <trkpt lat="47.35604" lon="0.83817">
        <ele>50.5</ele>
        <time>2021-01-18T17:12:36Z</time>
      </trkpt>
      <trkpt lat="47.35663" lon="0.83708">
        <ele>50.7</ele>
        <time>2021-01-18T17:12:36Z</time>
      </trkpt>
      <trkpt lat="47.35679" lon="0.83635">
        <ele>50.3</ele>
        <time>2021-01-18T17:12:36Z</time>
      </trkpt>
      <trkpt lat="47.35679" lon="0.83502">
        <ele>49.4</ele>
        <time>2021-01-18T17:12:36Z</time>
      </trkpt>
      <trkpt lat="47.35859" lon="0.83036">
        <ele>50.7</ele>
        <time>2021-01-18T17:12:36Z</time>
      </trkpt>
      <trkpt lat="47.35883" lon="0.82899">
        <ele>50.1</ele>
        <time>2021-01-18T17:12:36Z</time>
      </trkpt>
      <trkpt lat="47.35883" lon="0.82899">
        <ele>50.1</ele>
        <time>2021-01-18T17:12:36Z</time>
      </trkpt>
      <trkpt lat="47.35892" lon="0.82847">
        <ele>51</ele>
        <time>2021-01-18T17:12:36Z</time>
      </trkpt>
      <trkpt lat="47.35916" lon="0.82614">
        <ele>50.8</ele>
        <time>2021-01-18T17:12:36Z</time>
      </trkpt>
      <trkpt lat="47.36003" lon="0.82298">
        <ele>50.9</ele>
        <time>2021-01-18T17:12:36Z</time>
      </trkpt>
      <trkpt lat="47.35996" lon="0.81801">
        <ele>50.5</ele>
        <time>2021-01-18T17:12:36Z</time>
      </trkpt>
      <trkpt lat="47.35996" lon="0.81801">
        <ele>50.5</ele>
        <time>2021-01-18T17:12:36Z</time>
      </trkpt>
      <trkpt lat="47.35979" lon="0.81665">
        <ele>49.5</ele>
        <time>2021-01-18T17:12:36Z</time>
      </trkpt>
      <trkpt lat="47.35959" lon="0.81609">
        <ele>49.1</ele>
        <time>2021-01-18T17:12:36Z</time>
      </trkpt>
      <trkpt lat="47.3595" lon="0.81543">
        <ele>50.2</ele>
        <time>2021-01-18T17:12:36Z</time>
      </trkpt>
      <trkpt lat="47.36008" lon="0.81526">
        <ele>50.3</ele>
        <time>2021-01-18T17:12:36Z</time>
      </trkpt>
      <trkpt lat="47.36008" lon="0.81526">
        <ele>50.3</ele>
        <time>2021-01-18T17:12:36Z</time>
      </trkpt>
      <trkpt lat="47.36016" lon="0.81518">
        <ele>50.4</ele>
        <time>2021-01-18T17:12:36Z</time>
      </trkpt>
      <trkpt lat="47.35987" lon="0.81292">
        <ele>50</ele>
        <time>2021-01-18T17:12:36Z</time>
      </trkpt>
      <trkpt lat="47.36004" lon="0.81141">
        <ele>50</ele>
        <time>2021-01-18T17:12:36Z</time>
      </trkpt>
      <trkpt lat="47.3605" lon="0.80962">
        <ele>50</ele>
        <time>2021-01-18T17:12:36Z</time>
      </trkpt>
      <trkpt lat="47.36131" lon="0.80806">
        <ele>50</ele>
        <time>2021-01-18T17:12:36Z</time>
      </trkpt>
      <trkpt lat="47.36139" lon="0.80811">
        <ele>50</ele>
        <time>2021-01-18T17:12:36Z</time>
      </trkpt>
      <trkpt lat="47.36139" lon="0.80811">
        <ele>50</ele>
        <time>2021-01-18T17:12:36Z</time>
      </trkpt>
      <trkpt lat="47.36075" lon="0.80769">
        <ele>50.8</ele>
        <time>2021-01-18T17:12:36Z</time>
      </trkpt>
      <trkpt lat="47.36075" lon="0.80769">
        <ele>50.8</ele>
        <time>2021-01-18T17:12:36Z</time>
      </trkpt>
      <trkpt lat="47.36076" lon="0.80757">
        <ele>50.6</ele>
        <time>2021-01-18T17:12:36Z</time>
      </trkpt>
      <trkpt lat="47.36128" lon="0.80657">
        <ele>50.4</ele>
        <time>2021-01-18T17:12:36Z</time>
      </trkpt>
      <trkpt lat="47.36169" lon="0.80601">
        <ele>50</ele>
        <time>2021-01-18T17:12:36Z</time>
      </trkpt>
      <trkpt lat="47.36178" lon="0.80596">
        <ele>50.5</ele>
        <time>2021-01-18T17:12:36Z</time>
      </trkpt>
      <trkpt lat="47.36203" lon="0.80617">
        <ele>51.1</ele>
        <time>2021-01-18T17:12:36Z</time>
      </trkpt>
      <trkpt lat="47.36224" lon="0.80631">
        <ele>51.9</ele>
        <time>2021-01-18T17:12:36Z</time>
      </trkpt>
      <trkpt lat="47.36232" lon="0.80648">
        <ele>51.1</ele>
        <time>2021-01-18T17:12:36Z</time>
      </trkpt>
      <trkpt lat="47.36232" lon="0.80648">
        <ele>51.1</ele>
        <time>2021-01-18T17:12:36Z</time>
      </trkpt>
      <trkpt lat="47.36217" lon="0.80619">
        <ele>51.7</ele>
        <time>2021-01-18T17:12:36Z</time>
      </trkpt>
      <trkpt lat="47.36217" lon="0.80607">
        <ele>52</ele>
        <time>2021-01-18T17:12:36Z</time>
      </trkpt>
      <trkpt lat="47.36201" lon="0.80577">
        <ele>52.5</ele>
        <time>2021-01-18T17:12:36Z</time>
      </trkpt>
      <trkpt lat="47.36195" lon="0.80561">
        <ele>51.3</ele>
        <time>2021-01-18T17:12:36Z</time>
      </trkpt>
      <trkpt lat="47.36197" lon="0.8055">
        <ele>50.4</ele>
        <time>2021-01-18T17:12:36Z</time>
      </trkpt>
      <trkpt lat="47.36252" lon="0.80434">
        <ele>49.3</ele>
        <time>2021-01-18T17:12:36Z</time>
      </trkpt>
      <trkpt lat="47.36282" lon="0.804">
        <ele>49.5</ele>
        <time>2021-01-18T17:12:36Z</time>
      </trkpt>
      <trkpt lat="47.36371" lon="0.80311">
        <ele>49.5</ele>
        <time>2021-01-18T17:12:36Z</time>
      </trkpt>
      <trkpt lat="47.36457" lon="0.80191">
        <ele>50.1</ele>
        <time>2021-01-18T17:12:36Z</time>
      </trkpt>
      <trkpt lat="47.36457" lon="0.80191">
        <ele>50.1</ele>
        <time>2021-01-18T17:12:36Z</time>
      </trkpt>
      <trkpt lat="47.36723" lon="0.79795">
        <ele>48.9</ele>
        <time>2021-01-18T17:12:36Z</time>
      </trkpt>
      <trkpt lat="47.36787" lon="0.79624">
        <ele>48.8</ele>
        <time>2021-01-18T17:12:36Z</time>
      </trkpt>
      <trkpt lat="47.36899" lon="0.79209">
        <ele>48.4</ele>
        <time>2021-01-18T17:12:36Z</time>
      </trkpt>
      <trkpt lat="47.3695" lon="0.78801">
        <ele>49</ele>
        <time>2021-01-18T17:12:36Z</time>
      </trkpt>
      <trkpt lat="47.3695" lon="0.78801">
        <ele>49</ele>
        <time>2021-01-18T17:12:36Z</time>
      </trkpt>
      <trkpt lat="47.3695" lon="0.78785">
        <ele>49.2</ele>
        <time>2021-01-18T17:12:36Z</time>
      </trkpt>
      <trkpt lat="47.36955" lon="0.78763">
        <ele>49</ele>
        <time>2021-01-18T17:12:36Z</time>
      </trkpt>
      <trkpt lat="47.36964" lon="0.78597">
        <ele>48.7</ele>
        <time>2021-01-18T17:12:36Z</time>
      </trkpt>
      <trkpt lat="47.37052" lon="0.78192">
        <ele>49.1</ele>
        <time>2021-01-18T17:12:36Z</time>
      </trkpt>
      <trkpt lat="47.37093" lon="0.77737">
        <ele>48</ele>
        <time>2021-01-18T17:12:36Z</time>
      </trkpt>
      <trkpt lat="47.37093" lon="0.77612">
        <ele>48.4</ele>
        <time>2021-01-18T17:12:36Z</time>
      </trkpt>
      <trkpt lat="47.37112" lon="0.77443">
        <ele>50</ele>
        <time>2021-01-18T17:12:36Z</time>
      </trkpt>
      <trkpt lat="47.37123" lon="0.77425">
        <ele>49.6</ele>
        <time>2021-01-18T17:12:36Z</time>
      </trkpt>
      <trkpt lat="47.37123" lon="0.77425">
        <ele>49.6</ele>
        <time>2021-01-18T17:12:36Z</time>
      </trkpt>
      <trkpt lat="47.37133" lon="0.77415">
        <ele>49.3</ele>
        <time>2021-01-18T17:12:36Z</time>
      </trkpt>
      <trkpt lat="47.37166" lon="0.77302">
        <ele>49</ele>
        <time>2021-01-18T17:12:36Z</time>
      </trkpt>
      <trkpt lat="47.37167" lon="0.77225">
        <ele>49</ele>
        <time>2021-01-18T17:12:36Z</time>
      </trkpt>
      <trkpt lat="47.37124" lon="0.76814">
        <ele>47.7</ele>
        <time>2021-01-18T17:12:36Z</time>
      </trkpt>
      <trkpt lat="47.37079" lon="0.76608">
        <ele>48.5</ele>
        <time>2021-01-18T17:12:36Z</time>
      </trkpt>
      <trkpt lat="47.37079" lon="0.76608">
        <ele>48.5</ele>
        <time>2021-01-18T17:12:36Z</time>
      </trkpt>
      <trkpt lat="47.37061" lon="0.76444">
        <ele>49</ele>
        <time>2021-01-18T17:12:36Z</time>
      </trkpt>
      <trkpt lat="47.37066" lon="0.76397">
        <ele>49</ele>
        <time>2021-01-18T17:12:36Z</time>
      </trkpt>
      <trkpt lat="47.37153" lon="0.76167">
        <ele>49</ele>
        <time>2021-01-18T17:12:36Z</time>
      </trkpt>
      <trkpt lat="47.37387" lon="0.75635">
        <ele>48.9</ele>
        <time>2021-01-18T17:12:36Z</time>
      </trkpt>
      <trkpt lat="47.3745" lon="0.75565">
        <ele>48.4</ele>
        <time>2021-01-18T17:12:36Z</time>
      </trkpt>
      <trkpt lat="47.3753" lon="0.75366">
        <ele>48</ele>
        <time>2021-01-18T17:12:36Z</time>
      </trkpt>
      <trkpt lat="47.37546" lon="0.75265">
        <ele>47.3</ele>
        <time>2021-01-18T17:12:36Z</time>
      </trkpt>
      <trkpt lat="47.37553" lon="0.75164">
        <ele>47.9</ele>
        <time>2021-01-18T17:12:36Z</time>
      </trkpt>
      <trkpt lat="47.37553" lon="0.75164">
        <ele>47.9</ele>
        <time>2021-01-18T17:12:36Z</time>
      </trkpt>
      <trkpt lat="47.3755" lon="0.74989">
        <ele>47.6</ele>
        <time>2021-01-18T17:12:36Z</time>
      </trkpt>
      <trkpt lat="47.37509" lon="0.74825">
        <ele>48.2</ele>
        <time>2021-01-18T17:12:36Z</time>
      </trkpt>
      <trkpt lat="47.37457" lon="0.74695">
        <ele>48</ele>
        <time>2021-01-18T17:12:36Z</time>
      </trkpt>
      <trkpt lat="47.37358" lon="0.74538">
        <ele>48.2</ele>
        <time>2021-01-18T17:12:36Z</time>
      </trkpt>
      <trkpt lat="47.37188" lon="0.74364">
        <ele>48.2</ele>
        <time>2021-01-18T17:12:36Z</time>
      </trkpt>
      <trkpt lat="47.37177" lon="0.74345">
        <ele>48</ele>
        <time>2021-01-18T17:12:36Z</time>
      </trkpt>
      <trkpt lat="47.37176" lon="0.74323">
        <ele>48.8</ele>
        <time>2021-01-18T17:12:36Z</time>
      </trkpt>
      <trkpt lat="47.37169" lon="0.74307">
        <ele>49.8</ele>
        <time>2021-01-18T17:12:36Z</time>
      </trkpt>
      <trkpt lat="47.37153" lon="0.74289">
        <ele>49</ele>
        <time>2021-01-18T17:12:36Z</time>
      </trkpt>
      <trkpt lat="47.37105" lon="0.74164">
        <ele>48.6</ele>
        <time>2021-01-18T17:12:36Z</time>
      </trkpt>
      <trkpt lat="47.37102" lon="0.74149">
        <ele>47.8</ele>
        <time>2021-01-18T17:12:36Z</time>
      </trkpt>
      <trkpt lat="47.37102" lon="0.74149">
        <ele>47.8</ele>
        <time>2021-01-18T17:12:36Z</time>
      </trkpt>
      <trkpt lat="47.37097" lon="0.74097">
        <ele>47</ele>
        <time>2021-01-18T17:12:36Z</time>
      </trkpt>
      <trkpt lat="47.37106" lon="0.73939">
        <ele>48.6</ele>
        <time>2021-01-18T17:12:36Z</time>
      </trkpt>
      <trkpt lat="47.3711" lon="0.73918">
        <ele>48.9</ele>
        <time>2021-01-18T17:12:36Z</time>
      </trkpt>
      <trkpt lat="47.3711" lon="0.73905">
        <ele>48.9</ele>
        <time>2021-01-18T17:12:36Z</time>
      </trkpt>
      <trkpt lat="47.37116" lon="0.73888">
        <ele>48.6</ele>
        <time>2021-01-18T17:12:36Z</time>
      </trkpt>
      <trkpt lat="47.37124" lon="0.73876">
        <ele>48.3</ele>
        <time>2021-01-18T17:12:36Z</time>
      </trkpt>
      <trkpt lat="47.37112" lon="0.73876">
        <ele>48.9</ele>
        <time>2021-01-18T17:12:36Z</time>
      </trkpt>
      <trkpt lat="47.371" lon="0.73871">
        <ele>47.8</ele>
        <time>2021-01-18T17:12:36Z</time>
      </trkpt>
      <trkpt lat="47.37136" lon="0.73627">
        <ele>47.8</ele>
        <time>2021-01-18T17:12:36Z</time>
      </trkpt>
      <trkpt lat="47.37136" lon="0.73627">
        <ele>47.8</ele>
        <time>2021-01-18T17:12:36Z</time>
      </trkpt>
      <trkpt lat="47.37186" lon="0.73366">
        <ele>47.5</ele>
        <time>2021-01-18T17:12:36Z</time>
      </trkpt>
      <trkpt lat="47.37382" lon="0.72366">
        <ele>47.5</ele>
        <time>2021-01-18T17:12:36Z</time>
      </trkpt>
      <trkpt lat="47.37387" lon="0.72297">
        <ele>47.9</ele>
        <time>2021-01-18T17:12:36Z</time>
      </trkpt>
      <trkpt lat="47.37387" lon="0.72297">
        <ele>47.9</ele>
        <time>2021-01-18T17:12:36Z</time>
      </trkpt>
      <trkpt lat="47.37402" lon="0.72137">
        <ele>47.4</ele>
        <time>2021-01-18T17:12:36Z</time>
      </trkpt>
      <trkpt lat="47.37411" lon="0.72119">
        <ele>48.9</ele>
        <time>2021-01-18T17:12:36Z</time>
      </trkpt>
      <trkpt lat="47.37427" lon="0.7207">
        <ele>48.3</ele>
        <time>2021-01-18T17:12:36Z</time>
      </trkpt>
      <trkpt lat="47.37425" lon="0.71818">
        <ele>50.4</ele>
        <time>2021-01-18T17:12:36Z</time>
      </trkpt>
      <trkpt lat="47.37428" lon="0.71808">
        <ele>50.5</ele>
        <time>2021-01-18T17:12:36Z</time>
      </trkpt>
      <trkpt lat="47.37428" lon="0.71808">
        <ele>50.5</ele>
        <time>2021-01-18T17:12:36Z</time>
      </trkpt>
      <trkpt lat="47.37434" lon="0.718">
        <ele>50.5</ele>
        <time>2021-01-18T17:12:36Z</time>
      </trkpt>
      <trkpt lat="47.37428" lon="0.71788">
        <ele>50.8</ele>
        <time>2021-01-18T17:12:36Z</time>
      </trkpt>
      <trkpt lat="47.37411" lon="0.71654">
        <ele>48.4</ele>
        <time>2021-01-18T17:12:36Z</time>
      </trkpt>
      <trkpt lat="47.37402" lon="0.71338">
        <ele>48.3</ele>
        <time>2021-01-18T17:12:36Z</time>
      </trkpt>
      <trkpt lat="47.37402" lon="0.71338">
        <ele>48.3</ele>
        <time>2021-01-18T17:12:36Z</time>
      </trkpt>
      <trkpt lat="47.37403" lon="0.71471">
        <ele>48.1</ele>
        <time>2021-01-18T17:12:36Z</time>
      </trkpt>
      <trkpt lat="47.3741" lon="0.71454">
        <ele>49.6</ele>
        <time>2021-01-18T17:12:36Z</time>
      </trkpt>
      <trkpt lat="47.37415" lon="0.71296">
        <ele>50.7</ele>
        <time>2021-01-18T17:12:36Z</time>
      </trkpt>
      <trkpt lat="47.37413" lon="0.71134">
        <ele>50.3</ele>
        <time>2021-01-18T17:12:36Z</time>
      </trkpt>
      <trkpt lat="47.37413" lon="0.71134">
        <ele>50.3</ele>
        <time>2021-01-18T17:12:36Z</time>
      </trkpt>
      <trkpt lat="47.37211" lon="0.71138">
        <ele>47.6</ele>
        <time>2021-01-18T17:12:36Z</time>
      </trkpt>
      <trkpt lat="47.37211" lon="0.71138">
        <ele>47.6</ele>
        <time>2021-01-18T17:12:36Z</time>
      </trkpt>
      <trkpt lat="47.37199" lon="0.71136">
        <ele>47.3</ele>
        <time>2021-01-18T17:12:36Z</time>
      </trkpt>
      <trkpt lat="47.3719" lon="0.71125">
        <ele>47.3</ele>
        <time>2021-01-18T17:12:36Z</time>
      </trkpt>
      <trkpt lat="47.37187" lon="0.71108">
        <ele>47.5</ele>
        <time>2021-01-18T17:12:36Z</time>
      </trkpt>
      <trkpt lat="47.37187" lon="0.71087">
        <ele>47.7</ele>
        <time>2021-01-18T17:12:36Z</time>
      </trkpt>
      <trkpt lat="47.37199" lon="0.71026">
        <ele>48</ele>
        <time>2021-01-18T17:12:36Z</time>
      </trkpt>
      <trkpt lat="47.37188" lon="0.71004">
        <ele>48.2</ele>
        <time>2021-01-18T17:12:36Z</time>
      </trkpt>
      <trkpt lat="47.37181" lon="0.70997">
        <ele>48.5</ele>
        <time>2021-01-18T17:12:36Z</time>
      </trkpt>
      <trkpt lat="47.37166" lon="0.7099">
        <ele>49</ele>
        <time>2021-01-18T17:12:36Z</time>
      </trkpt>
      <trkpt lat="47.37157" lon="0.70988">
        <ele>48.8</ele>
        <time>2021-01-18T17:12:36Z</time>
      </trkpt>
      <trkpt lat="47.37066" lon="0.71061">
        <ele>49.5</ele>
        <time>2021-01-18T17:12:36Z</time>
      </trkpt>
      <trkpt lat="47.37066" lon="0.71061">
        <ele>49.5</ele>
        <time>2021-01-18T17:12:36Z</time>
      </trkpt>
      <trkpt lat="47.3706" lon="0.71048">
        <ele>50</ele>
        <time>2021-01-18T17:12:36Z</time>
      </trkpt>
      <trkpt lat="47.37053" lon="0.71042">
        <ele>50.6</ele>
        <time>2021-01-18T17:12:36Z</time>
      </trkpt>
      <trkpt lat="47.37041" lon="0.71021">
        <ele>50.8</ele>
        <time>2021-01-18T17:12:36Z</time>
      </trkpt>
      <trkpt lat="47.3704" lon="0.71009">
        <ele>50.2</ele>
        <time>2021-01-18T17:12:36Z</time>
      </trkpt>
      <trkpt lat="47.37027" lon="0.70958">
        <ele>50.1</ele>
        <time>2021-01-18T17:12:36Z</time>
      </trkpt>
      <trkpt lat="47.37003" lon="0.70906">
        <ele>51.2</ele>
        <time>2021-01-18T17:12:36Z</time>
      </trkpt>
      <trkpt lat="47.36983" lon="0.70824">
        <ele>50.8</ele>
        <time>2021-01-18T17:12:36Z</time>
      </trkpt>
      <trkpt lat="47.36983" lon="0.7081">
        <ele>50</ele>
        <time>2021-01-18T17:12:36Z</time>
      </trkpt>
      <trkpt lat="47.36976" lon="0.70803">
        <ele>51.2</ele>
        <time>2021-01-18T17:12:36Z</time>
      </trkpt>
      <trkpt lat="47.36961" lon="0.70711">
        <ele>51.1</ele>
        <time>2021-01-18T17:12:36Z</time>
      </trkpt>
      <trkpt lat="47.36955" lon="0.70623">
        <ele>51.4</ele>
        <time>2021-01-18T17:12:36Z</time>
      </trkpt>
      <trkpt lat="47.36957" lon="0.70595">
        <ele>49.9</ele>
        <time>2021-01-18T17:12:36Z</time>
      </trkpt>
      <trkpt lat="47.36952" lon="0.70552">
        <ele>50.5</ele>
        <time>2021-01-18T17:12:36Z</time>
      </trkpt>
      <trkpt lat="47.36953" lon="0.7048">
        <ele>49.8</ele>
        <time>2021-01-18T17:12:36Z</time>
      </trkpt>
      <trkpt lat="47.36953" lon="0.7048">
        <ele>49.8</ele>
        <time>2021-01-18T17:12:36Z</time>
      </trkpt>
      <trkpt lat="47.36937" lon="0.70364">
        <ele>51.2</ele>
        <time>2021-01-18T17:12:36Z</time>
      </trkpt>
      <trkpt lat="47.36934" lon="0.70293">
        <ele>49</ele>
        <time>2021-01-18T17:12:36Z</time>
      </trkpt>
      <trkpt lat="47.36963" lon="0.70211">
        <ele>48.3</ele>
        <time>2021-01-18T17:12:36Z</time>
      </trkpt>
      <trkpt lat="47.36957" lon="0.69988">
        <ele>47.8</ele>
        <time>2021-01-18T17:12:36Z</time>
      </trkpt>
      <trkpt lat="47.36954" lon="0.69881">
        <ele>48.1</ele>
        <time>2021-01-18T17:12:36Z</time>
      </trkpt>
      <trkpt lat="47.36923" lon="0.69722">
        <ele>50.1</ele>
        <time>2021-01-18T17:12:36Z</time>
      </trkpt>
      <trkpt lat="47.36906" lon="0.69591">
        <ele>48</ele>
        <time>2021-01-18T17:12:36Z</time>
      </trkpt>
      <trkpt lat="47.36906" lon="0.69591">
        <ele>48</ele>
        <time>2021-01-18T17:12:36Z</time>
      </trkpt>
      <trkpt lat="47.36903" lon="0.69515">
        <ele>47.5</ele>
        <time>2021-01-18T17:12:36Z</time>
      </trkpt>
      <trkpt lat="47.36919" lon="0.69386">
        <ele>50.4</ele>
        <time>2021-01-18T17:12:36Z</time>
      </trkpt>
      <trkpt lat="47.36926" lon="0.69364">
        <ele>48</ele>
        <time>2021-01-18T17:12:36Z</time>
      </trkpt>
      <trkpt lat="47.36929" lon="0.69308">
        <ele>47.1</ele>
        <time>2021-01-18T17:12:36Z</time>
      </trkpt>
      <trkpt lat="47.36944" lon="0.69244">
        <ele>49.9</ele>
        <time>2021-01-18T17:12:36Z</time>
      </trkpt>
      <trkpt lat="47.36961" lon="0.69076">
        <ele>47.9</ele>
        <time>2021-01-18T17:12:36Z</time>
      </trkpt>
      <trkpt lat="47.36961" lon="0.69076">
        <ele>47.9</ele>
        <time>2021-01-18T17:12:36Z</time>
      </trkpt>
      <trkpt lat="47.36962" lon="0.69048">
        <ele>49</ele>
        <time>2021-01-18T17:12:36Z</time>
      </trkpt>
      <trkpt lat="47.36972" lon="0.69034">
        <ele>50.6</ele>
        <time>2021-01-18T17:12:36Z</time>
      </trkpt>
      <trkpt lat="47.3699" lon="0.68957">
        <ele>45.9</ele>
        <time>2021-01-18T17:12:36Z</time>
      </trkpt>
      <trkpt lat="47.37015" lon="0.68759">
        <ele>47</ele>
        <time>2021-01-18T17:12:36Z</time>
      </trkpt>
      <trkpt lat="47.37015" lon="0.68729">
        <ele>47.4</ele>
        <time>2021-01-18T17:12:36Z</time>
      </trkpt>
      <trkpt lat="47.3702" lon="0.68723">
        <ele>46.4</ele>
        <time>2021-01-18T17:12:36Z</time>
      </trkpt>
      <trkpt lat="47.37025" lon="0.68683">
        <ele>45.5</ele>
        <time>2021-01-18T17:12:36Z</time>
      </trkpt>
      <trkpt lat="47.36999" lon="0.68252">
        <ele>46.1</ele>
        <time>2021-01-18T17:12:36Z</time>
      </trkpt>
      <trkpt lat="47.36999" lon="0.68252">
        <ele>46.1</ele>
        <time>2021-01-18T17:12:36Z</time>
      </trkpt>
      <trkpt lat="47.3702" lon="0.68096">
        <ele>46.1</ele>
        <time>2021-01-18T17:12:36Z</time>
      </trkpt>
      <trkpt lat="47.37057" lon="0.6799">
        <ele>46.9</ele>
        <time>2021-01-18T17:12:36Z</time>
      </trkpt>
      <trkpt lat="47.37142" lon="0.67842">
        <ele>47.8</ele>
        <time>2021-01-18T17:12:36Z</time>
      </trkpt>
      <trkpt lat="47.37157" lon="0.67824">
        <ele>47.4</ele>
        <time>2021-01-18T17:12:36Z</time>
      </trkpt>
      <trkpt lat="47.37163" lon="0.67809">
        <ele>49.2</ele>
        <time>2021-01-18T17:12:36Z</time>
      </trkpt>
      <trkpt lat="47.37167" lon="0.67783">
        <ele>50.8</ele>
        <time>2021-01-18T17:12:36Z</time>
      </trkpt>
      <trkpt lat="47.37172" lon="0.67767">
        <ele>49.3</ele>
        <time>2021-01-18T17:12:36Z</time>
      </trkpt>
      <trkpt lat="47.37172" lon="0.67767">
        <ele>49.3</ele>
        <time>2021-01-18T17:12:36Z</time>
      </trkpt>
      <trkpt lat="47.37207" lon="0.67598">
        <ele>46.9</ele>
        <time>2021-01-18T17:12:36Z</time>
      </trkpt>
      <trkpt lat="47.37207" lon="0.67598">
        <ele>46.9</ele>
        <time>2021-01-18T17:12:36Z</time>
      </trkpt>
      <trkpt lat="47.37269" lon="0.6743">
        <ele>46.7</ele>
        <time>2021-01-18T17:12:36Z</time>
      </trkpt>
      <trkpt lat="47.37326" lon="0.66664">
        <ele>46.6</ele>
        <time>2021-01-18T17:12:36Z</time>
      </trkpt>
      <trkpt lat="47.37336" lon="0.6663">
        <ele>46.7</ele>
        <time>2021-01-18T17:12:36Z</time>
      </trkpt>
      <trkpt lat="47.37336" lon="0.6663">
        <ele>46.7</ele>
        <time>2021-01-18T17:12:36Z</time>
      </trkpt>
      <trkpt lat="47.37368" lon="0.66533">
        <ele>46.2</ele>
        <time>2021-01-18T17:12:36Z</time>
      </trkpt>
      <trkpt lat="47.37414" lon="0.66342">
        <ele>47.3</ele>
        <time>2021-01-18T17:12:36Z</time>
      </trkpt>
      <trkpt lat="47.37434" lon="0.66302">
        <ele>47.9</ele>
        <time>2021-01-18T17:12:36Z</time>
      </trkpt>
      <trkpt lat="47.37434" lon="0.66302">
        <ele>47.9</ele>
        <time>2021-01-18T17:12:36Z</time>
      </trkpt>
      <trkpt lat="47.37436" lon="0.66285">
        <ele>47.2</ele>
        <time>2021-01-18T17:12:36Z</time>
      </trkpt>
      <trkpt lat="47.37439" lon="0.66212">
        <ele>47</ele>
        <time>2021-01-18T17:12:36Z</time>
      </trkpt>
      <trkpt lat="47.37442" lon="0.66174">
        <ele>47</ele>
        <time>2021-01-18T17:12:36Z</time>
      </trkpt>
      <trkpt lat="47.37434" lon="0.66058">
        <ele>47</ele>
        <time>2021-01-18T17:12:36Z</time>
      </trkpt>
      <trkpt lat="47.3735" lon="0.65722">
        <ele>46.6</ele>
        <time>2021-01-18T17:12:36Z</time>
      </trkpt>
      <trkpt lat="47.37332" lon="0.65511">
        <ele>46</ele>
        <time>2021-01-18T17:12:36Z</time>
      </trkpt>
      <trkpt lat="47.37342" lon="0.65332">
        <ele>46.4</ele>
        <time>2021-01-18T17:12:36Z</time>
      </trkpt>
      <trkpt lat="47.37342" lon="0.65332">
        <ele>46.4</ele>
        <time>2021-01-18T17:12:36Z</time>
      </trkpt>
      <trkpt lat="47.37353" lon="0.65325">
        <ele>47.4</ele>
        <time>2021-01-18T17:12:36Z</time>
      </trkpt>
      <trkpt lat="47.37378" lon="0.65315">
        <ele>46.8</ele>
        <time>2021-01-18T17:12:36Z</time>
      </trkpt>
      <trkpt lat="47.37384" lon="0.6531">
        <ele>45.9</ele>
        <time>2021-01-18T17:12:36Z</time>
      </trkpt>
      <trkpt lat="47.3739" lon="0.653">
        <ele>45.1</ele>
        <time>2021-01-18T17:12:36Z</time>
      </trkpt>
      <trkpt lat="47.3739" lon="0.653">
        <ele>45.1</ele>
        <time>2021-01-18T17:12:36Z</time>
      </trkpt>
      <trkpt lat="47.37419" lon="0.65055">
        <ele>47.6</ele>
        <time>2021-01-18T17:12:36Z</time>
      </trkpt>
      <trkpt lat="47.37418" lon="0.64976">
        <ele>45.9</ele>
        <time>2021-01-18T17:12:36Z</time>
      </trkpt>
      <trkpt lat="47.37384" lon="0.64841">
        <ele>43.9</ele>
        <time>2021-01-18T17:12:36Z</time>
      </trkpt>
      <trkpt lat="47.37249" lon="0.64671">
        <ele>46</ele>
        <time>2021-01-18T17:12:36Z</time>
      </trkpt>
      <trkpt lat="47.37223" lon="0.6442">
        <ele>45.9</ele>
        <time>2021-01-18T17:12:36Z</time>
      </trkpt>
      <trkpt lat="47.37223" lon="0.64233">
        <ele>45.9</ele>
        <time>2021-01-18T17:12:36Z</time>
      </trkpt>
      <trkpt lat="47.37214" lon="0.64064">
        <ele>46</ele>
        <time>2021-01-18T17:12:36Z</time>
      </trkpt>
      <trkpt lat="47.37214" lon="0.64064">
        <ele>46</ele>
        <time>2021-01-18T17:12:36Z</time>
      </trkpt>
      <trkpt lat="47.372" lon="0.63935">
        <ele>46</ele>
        <time>2021-01-18T17:12:36Z</time>
      </trkpt>
      <trkpt lat="47.37191" lon="0.63919">
        <ele>45.9</ele>
        <time>2021-01-18T17:12:36Z</time>
      </trkpt>
      <trkpt lat="47.37137" lon="0.6376">
        <ele>44.9</ele>
        <time>2021-01-18T17:12:36Z</time>
      </trkpt>
      <trkpt lat="47.37107" lon="0.63459">
        <ele>45</ele>
        <time>2021-01-18T17:12:36Z</time>
      </trkpt>
      <trkpt lat="47.37107" lon="0.63459">
        <ele>45</ele>
        <time>2021-01-18T17:12:36Z</time>
      </trkpt>
      <trkpt lat="47.37088" lon="0.63253">
        <ele>45.1</ele>
        <time>2021-01-18T17:12:36Z</time>
      </trkpt>
      <trkpt lat="47.3714" lon="0.63255">
        <ele>45.7</ele>
        <time>2021-01-18T17:12:36Z</time>
      </trkpt>
      <trkpt lat="47.37111" lon="0.6313">
        <ele>46</ele>
        <time>2021-01-18T17:12:36Z</time>
      </trkpt>
      <trkpt lat="47.37137" lon="0.62984">
        <ele>46</ele>
        <time>2021-01-18T17:12:36Z</time>
      </trkpt>
      <trkpt lat="47.37197" lon="0.62896">
        <ele>45.6</ele>
        <time>2021-01-18T17:12:36Z</time>
      </trkpt>
      <trkpt lat="47.37282" lon="0.62785">
        <ele>46.1</ele>
        <time>2021-01-18T17:12:36Z</time>
      </trkpt>
      <trkpt lat="47.37312" lon="0.62678">
        <ele>45.4</ele>
        <time>2021-01-18T17:12:36Z</time>
      </trkpt>
      <trkpt lat="47.37314" lon="0.6256">
        <ele>45.6</ele>
        <time>2021-01-18T17:12:36Z</time>
      </trkpt>
      <trkpt lat="47.37245" lon="0.62444">
        <ele>45.2</ele>
        <time>2021-01-18T17:12:36Z</time>
      </trkpt>
      <trkpt lat="47.3714" lon="0.62272">
        <ele>45.7</ele>
        <time>2021-01-18T17:12:36Z</time>
      </trkpt>
      <trkpt lat="47.37105" lon="0.62167">
        <ele>46</ele>
        <time>2021-01-18T17:12:36Z</time>
      </trkpt>
      <trkpt lat="47.37091" lon="0.61912">
        <ele>45.3</ele>
        <time>2021-01-18T17:12:36Z</time>
      </trkpt>
      <trkpt lat="47.37123" lon="0.61676">
        <ele>44.6</ele>
        <time>2021-01-18T17:12:36Z</time>
      </trkpt>
      <trkpt lat="47.37115" lon="0.61472">
        <ele>45.5</ele>
        <time>2021-01-18T17:12:36Z</time>
      </trkpt>
      <trkpt lat="47.37083" lon="0.61321">
        <ele>45</ele>
        <time>2021-01-18T17:12:36Z</time>
      </trkpt>
      <trkpt lat="47.36894" lon="0.61195">
        <ele>45</ele>
        <time>2021-01-18T17:12:36Z</time>
      </trkpt>
      <trkpt lat="47.36753" lon="0.61234">
        <ele>44.4</ele>
        <time>2021-01-18T17:12:36Z</time>
      </trkpt>
      <trkpt lat="47.36655" lon="0.61227">
        <ele>44.4</ele>
        <time>2021-01-18T17:12:36Z</time>
      </trkpt>
      <trkpt lat="47.36601" lon="0.61186">
        <ele>44.1</ele>
        <time>2021-01-18T17:12:36Z</time>
      </trkpt>
      <trkpt lat="47.36601" lon="0.61186">
        <ele>44.1</ele>
        <time>2021-01-18T17:12:36Z</time>
      </trkpt>
      <trkpt lat="47.36582" lon="0.61165">
        <ele>44.9</ele>
        <time>2021-01-18T17:12:36Z</time>
      </trkpt>
      <trkpt lat="47.3647" lon="0.60959">
        <ele>45</ele>
        <time>2021-01-18T17:12:36Z</time>
      </trkpt>
      <trkpt lat="47.3647" lon="0.60959">
        <ele>45</ele>
        <time>2021-01-18T17:12:36Z</time>
      </trkpt>
      <trkpt lat="47.36388" lon="0.60754">
        <ele>45</ele>
        <time>2021-01-18T17:12:36Z</time>
      </trkpt>
      <trkpt lat="47.3637" lon="0.60686">
        <ele>44.4</ele>
        <time>2021-01-18T17:12:36Z</time>
      </trkpt>
      <trkpt lat="47.3637" lon="0.60686">
        <ele>44.4</ele>
        <time>2021-01-18T17:12:36Z</time>
      </trkpt>
      <trkpt lat="47.36318" lon="0.60522">
        <ele>43.9</ele>
        <time>2021-01-18T17:12:36Z</time>
      </trkpt>
      <trkpt lat="47.3631" lon="0.60513">
        <ele>43.9</ele>
        <time>2021-01-18T17:12:36Z</time>
      </trkpt>
      <trkpt lat="47.3631" lon="0.60513">
        <ele>43.9</ele>
        <time>2021-01-18T17:12:36Z</time>
      </trkpt>
      <trkpt lat="47.36296" lon="0.60498">
        <ele>44.1</ele>
        <time>2021-01-18T17:12:36Z</time>
      </trkpt>
      <trkpt lat="47.36271" lon="0.60486">
        <ele>44</ele>
        <time>2021-01-18T17:12:36Z</time>
      </trkpt>
      <trkpt lat="47.36262" lon="0.60493">
        <ele>44</ele>
        <time>2021-01-18T17:12:36Z</time>
      </trkpt>
      <trkpt lat="47.36262" lon="0.60493">
        <ele>44</ele>
        <time>2021-01-18T17:12:36Z</time>
      </trkpt>
      <trkpt lat="47.36271" lon="0.60487">
        <ele>44</ele>
        <time>2021-01-18T17:12:36Z</time>
      </trkpt>
      <trkpt lat="47.36271" lon="0.60487">
        <ele>44</ele>
        <time>2021-01-18T17:12:36Z</time>
      </trkpt>
      <trkpt lat="47.36282" lon="0.60463">
        <ele>44.3</ele>
        <time>2021-01-18T17:12:36Z</time>
      </trkpt>
      <trkpt lat="47.36286" lon="0.60303">
        <ele>43.9</ele>
        <time>2021-01-18T17:12:36Z</time>
      </trkpt>
      <trkpt lat="47.36277" lon="0.60213">
        <ele>45</ele>
        <time>2021-01-18T17:12:36Z</time>
      </trkpt>
      <trkpt lat="47.36285" lon="0.60103">
        <ele>44.2</ele>
        <time>2021-01-18T17:12:36Z</time>
      </trkpt>
      <trkpt lat="47.36285" lon="0.60103">
        <ele>44.2</ele>
        <time>2021-01-18T17:12:36Z</time>
      </trkpt>
      <trkpt lat="47.36285" lon="0.59899">
        <ele>44.3</ele>
        <time>2021-01-18T17:12:36Z</time>
      </trkpt>
      <trkpt lat="47.36319" lon="0.59588">
        <ele>44</ele>
        <time>2021-01-18T17:12:36Z</time>
      </trkpt>
      <trkpt lat="47.36342" lon="0.59506">
        <ele>44</ele>
        <time>2021-01-18T17:12:36Z</time>
      </trkpt>
      <trkpt lat="47.36342" lon="0.59506">
        <ele>44</ele>
        <time>2021-01-18T17:12:36Z</time>
      </trkpt>
      <trkpt lat="47.36406" lon="0.59224">
        <ele>44.3</ele>
        <time>2021-01-18T17:12:36Z</time>
      </trkpt>
      <trkpt lat="47.36438" lon="0.58907">
        <ele>44.5</ele>
        <time>2021-01-18T17:12:36Z</time>
      </trkpt>
      <trkpt lat="47.36438" lon="0.58907">
        <ele>44.5</ele>
        <time>2021-01-18T17:12:36Z</time>
      </trkpt>
      <trkpt lat="47.36438" lon="0.58834">
        <ele>44.2</ele>
        <time>2021-01-18T17:12:36Z</time>
      </trkpt>
      <trkpt lat="47.36418" lon="0.58727">
        <ele>44.9</ele>
        <time>2021-01-18T17:12:36Z</time>
      </trkpt>
      <trkpt lat="47.36418" lon="0.58727">
        <ele>44.9</ele>
        <time>2021-01-18T17:12:36Z</time>
      </trkpt>
      <trkpt lat="47.36409" lon="0.58655">
        <ele>44.3</ele>
        <time>2021-01-18T17:12:36Z</time>
      </trkpt>
      <trkpt lat="47.36196" lon="0.58039">
        <ele>44.4</ele>
        <time>2021-01-18T17:12:36Z</time>
      </trkpt>
      <trkpt lat="47.36151" lon="0.57935">
        <ele>44.9</ele>
        <time>2021-01-18T17:12:36Z</time>
      </trkpt>
      <trkpt lat="47.36134" lon="0.57862">
        <ele>45</ele>
        <time>2021-01-18T17:12:36Z</time>
      </trkpt>
      <trkpt lat="47.36123" lon="0.57859">
        <ele>44.9</ele>
        <time>2021-01-18T17:12:36Z</time>
      </trkpt>
      <trkpt lat="47.3612" lon="0.57847">
        <ele>44.7</ele>
        <time>2021-01-18T17:12:36Z</time>
      </trkpt>
      <trkpt lat="47.3612" lon="0.57847">
        <ele>44.7</ele>
        <time>2021-01-18T17:12:36Z</time>
      </trkpt>
      <trkpt lat="47.36063" lon="0.57575">
        <ele>43.4</ele>
        <time>2021-01-18T17:12:36Z</time>
      </trkpt>
      <trkpt lat="47.36044" lon="0.5736">
        <ele>42.8</ele>
        <time>2021-01-18T17:12:36Z</time>
      </trkpt>
      <trkpt lat="47.36044" lon="0.5736">
        <ele>42.8</ele>
        <time>2021-01-18T17:12:36Z</time>
      </trkpt>
      <trkpt lat="47.36055" lon="0.57128">
        <ele>46</ele>
        <time>2021-01-18T17:12:36Z</time>
      </trkpt>
      <trkpt lat="47.36075" lon="0.57021">
        <ele>43.6</ele>
        <time>2021-01-18T17:12:36Z</time>
      </trkpt>
      <trkpt lat="47.36094" lon="0.56981">
        <ele>43.3</ele>
        <time>2021-01-18T17:12:36Z</time>
      </trkpt>
      <trkpt lat="47.36094" lon="0.56981">
        <ele>43.3</ele>
        <time>2021-01-18T17:12:36Z</time>
      </trkpt>
      <trkpt lat="47.36329" lon="0.56511">
        <ele>44.2</ele>
        <time>2021-01-18T17:12:36Z</time>
      </trkpt>
      <trkpt lat="47.36336" lon="0.56485">
        <ele>44.7</ele>
        <time>2021-01-18T17:12:36Z</time>
      </trkpt>
      <trkpt lat="47.36336" lon="0.56485">
        <ele>44.7</ele>
        <time>2021-01-18T17:12:36Z</time>
      </trkpt>
      <trkpt lat="47.36343" lon="0.56454">
        <ele>43.7</ele>
        <time>2021-01-18T17:12:36Z</time>
      </trkpt>
      <trkpt lat="47.36345" lon="0.56387">
        <ele>43.6</ele>
        <time>2021-01-18T17:12:36Z</time>
      </trkpt>
      <trkpt lat="47.36341" lon="0.56339">
        <ele>44.3</ele>
        <time>2021-01-18T17:12:36Z</time>
      </trkpt>
      <trkpt lat="47.36341" lon="0.56339">
        <ele>44.3</ele>
        <time>2021-01-18T17:12:36Z</time>
      </trkpt>
      <trkpt lat="47.36326" lon="0.56273">
        <ele>44</ele>
        <time>2021-01-18T17:12:36Z</time>
      </trkpt>
      <trkpt lat="47.36175" lon="0.55989">
        <ele>44.5</ele>
        <time>2021-01-18T17:12:36Z</time>
      </trkpt>
      <trkpt lat="47.36175" lon="0.55989">
        <ele>44.5</ele>
        <time>2021-01-18T17:12:36Z</time>
      </trkpt>
      <trkpt lat="47.36182" lon="0.55983">
        <ele>44.1</ele>
        <time>2021-01-18T17:12:36Z</time>
      </trkpt>
      <trkpt lat="47.36121" lon="0.55826">
        <ele>43.2</ele>
        <time>2021-01-18T17:12:36Z</time>
      </trkpt>
      <trkpt lat="47.36106" lon="0.55802">
        <ele>44.5</ele>
        <time>2021-01-18T17:12:36Z</time>
      </trkpt>
      <trkpt lat="47.36076" lon="0.55768">
        <ele>44.2</ele>
        <time>2021-01-18T17:12:36Z</time>
      </trkpt>
      <trkpt lat="47.36059" lon="0.55723">
        <ele>43.6</ele>
        <time>2021-01-18T17:12:36Z</time>
      </trkpt>
      <trkpt lat="47.36051" lon="0.55691">
        <ele>43.9</ele>
        <time>2021-01-18T17:12:36Z</time>
      </trkpt>
      <trkpt lat="47.36051" lon="0.55691">
        <ele>43.9</ele>
        <time>2021-01-18T17:12:36Z</time>
      </trkpt>
      <trkpt lat="47.36018" lon="0.55526">
        <ele>43</ele>
        <time>2021-01-18T17:12:36Z</time>
      </trkpt>
      <trkpt lat="47.3601" lon="0.55504">
        <ele>43.5</ele>
        <time>2021-01-18T17:12:36Z</time>
      </trkpt>
      <trkpt lat="47.35974" lon="0.55437">
        <ele>44</ele>
        <time>2021-01-18T17:12:36Z</time>
      </trkpt>
      <trkpt lat="47.35967" lon="0.55414">
        <ele>44</ele>
        <time>2021-01-18T17:12:36Z</time>
      </trkpt>
      <trkpt lat="47.35962" lon="0.55303">
        <ele>44</ele>
        <time>2021-01-18T17:12:36Z</time>
      </trkpt>
      <trkpt lat="47.35954" lon="0.55277">
        <ele>44</ele>
        <time>2021-01-18T17:12:36Z</time>
      </trkpt>
      <trkpt lat="47.35954" lon="0.55277">
        <ele>44</ele>
        <time>2021-01-18T17:12:36Z</time>
      </trkpt>
      <trkpt lat="47.35947" lon="0.5526">
        <ele>44</ele>
        <time>2021-01-18T17:12:36Z</time>
      </trkpt>
      <trkpt lat="47.35947" lon="0.5526">
        <ele>44</ele>
        <time>2021-01-18T17:12:36Z</time>
      </trkpt>
      <trkpt lat="47.36001" lon="0.55235">
        <ele>43.9</ele>
        <time>2021-01-18T17:12:36Z</time>
      </trkpt>
      <trkpt lat="47.36006" lon="0.55217">
        <ele>43.4</ele>
        <time>2021-01-18T17:12:36Z</time>
      </trkpt>
      <trkpt lat="47.3599" lon="0.55045">
        <ele>44.1</ele>
        <time>2021-01-18T17:12:36Z</time>
      </trkpt>
      <trkpt lat="47.3599" lon="0.55045">
        <ele>44.1</ele>
        <time>2021-01-18T17:12:36Z</time>
      </trkpt>
      <trkpt lat="47.35945" lon="0.54847">
        <ele>44</ele>
        <time>2021-01-18T17:12:36Z</time>
      </trkpt>
      <trkpt lat="47.35928" lon="0.54812">
        <ele>43.7</ele>
        <time>2021-01-18T17:12:36Z</time>
      </trkpt>
      <trkpt lat="47.3585" lon="0.54705">
        <ele>43.2</ele>
        <time>2021-01-18T17:12:36Z</time>
      </trkpt>
      <trkpt lat="47.35778" lon="0.54652">
        <ele>42.5</ele>
        <time>2021-01-18T17:12:36Z</time>
      </trkpt>
      <trkpt lat="47.3561" lon="0.54663">
        <ele>42.6</ele>
        <time>2021-01-18T17:12:36Z</time>
      </trkpt>
      <trkpt lat="47.35453" lon="0.54828">
        <ele>42.7</ele>
        <time>2021-01-18T17:12:36Z</time>
      </trkpt>
      <trkpt lat="47.35268" lon="0.5497">
        <ele>42.8</ele>
        <time>2021-01-18T17:12:36Z</time>
      </trkpt>
      <trkpt lat="47.35107" lon="0.54994">
        <ele>42.6</ele>
        <time>2021-01-18T17:12:36Z</time>
      </trkpt>
      <trkpt lat="47.35003" lon="0.55026">
        <ele>42.9</ele>
        <time>2021-01-18T17:12:36Z</time>
      </trkpt>
      <trkpt lat="47.34926" lon="0.55022">
        <ele>42.5</ele>
        <time>2021-01-18T17:12:36Z</time>
      </trkpt>
      <trkpt lat="47.34864" lon="0.55017">
        <ele>44.8</ele>
        <time>2021-01-18T17:12:36Z</time>
      </trkpt>
      <trkpt lat="47.34849" lon="0.54964">
        <ele>44.7</ele>
        <time>2021-01-18T17:12:36Z</time>
      </trkpt>
      <trkpt lat="47.3487" lon="0.54925">
        <ele>43.4</ele>
        <time>2021-01-18T17:12:36Z</time>
      </trkpt>
      <trkpt lat="47.34855" lon="0.54723">
        <ele>43.5</ele>
        <time>2021-01-18T17:12:36Z</time>
      </trkpt>
      <trkpt lat="47.34838" lon="0.54605">
        <ele>43.4</ele>
        <time>2021-01-18T17:12:36Z</time>
      </trkpt>
      <trkpt lat="47.34817" lon="0.54541">
        <ele>43.4</ele>
        <time>2021-01-18T17:12:36Z</time>
      </trkpt>
      <trkpt lat="47.34785" lon="0.54537">
        <ele>47.4</ele>
        <time>2021-01-18T17:12:36Z</time>
      </trkpt>
      <trkpt lat="47.34742" lon="0.54084">
        <ele>42.6</ele>
        <time>2021-01-18T17:12:36Z</time>
      </trkpt>
      <trkpt lat="47.34689" lon="0.53668">
        <ele>44.8</ele>
        <time>2021-01-18T17:12:36Z</time>
      </trkpt>
      <trkpt lat="47.34681" lon="0.53397">
        <ele>42.5</ele>
        <time>2021-01-18T17:12:36Z</time>
      </trkpt>
      <trkpt lat="47.34714" lon="0.53245">
        <ele>40.9</ele>
        <time>2021-01-18T17:12:36Z</time>
      </trkpt>
      <trkpt lat="47.34684" lon="0.52968">
        <ele>42.4</ele>
        <time>2021-01-18T17:12:36Z</time>
      </trkpt>
      <trkpt lat="47.34711" lon="0.52878">
        <ele>42.5</ele>
        <time>2021-01-18T17:12:36Z</time>
      </trkpt>
      <trkpt lat="47.34694" lon="0.52816">
        <ele>42</ele>
        <time>2021-01-18T17:12:36Z</time>
      </trkpt>
      <trkpt lat="47.34637" lon="0.52584">
        <ele>42</ele>
        <time>2021-01-18T17:12:36Z</time>
      </trkpt>
      <trkpt lat="47.34586" lon="0.52494">
        <ele>42.5</ele>
        <time>2021-01-18T17:12:36Z</time>
      </trkpt>
      <trkpt lat="47.34364" lon="0.51998">
        <ele>44.5</ele>
        <time>2021-01-18T17:12:36Z</time>
      </trkpt>
      <trkpt lat="47.34364" lon="0.51998">
        <ele>44.5</ele>
        <time>2021-01-18T17:12:36Z</time>
      </trkpt>
      <trkpt lat="47.34344" lon="0.51743">
        <ele>41.3</ele>
        <time>2021-01-18T17:12:36Z</time>
      </trkpt>
      <trkpt lat="47.34362" lon="0.51547">
        <ele>45.8</ele>
        <time>2021-01-18T17:12:36Z</time>
      </trkpt>
      <trkpt lat="47.34395" lon="0.51367">
        <ele>43.6</ele>
        <time>2021-01-18T17:12:36Z</time>
      </trkpt>
      <trkpt lat="47.34416" lon="0.5117">
        <ele>45.6</ele>
        <time>2021-01-18T17:12:36Z</time>
      </trkpt>
      <trkpt lat="47.34416" lon="0.5103">
        <ele>45.9</ele>
        <time>2021-01-18T17:12:36Z</time>
      </trkpt>
      <trkpt lat="47.34416" lon="0.5103">
        <ele>45.9</ele>
        <time>2021-01-18T17:12:36Z</time>
      </trkpt>
      <trkpt lat="47.34424" lon="0.50865">
        <ele>42.8</ele>
        <time>2021-01-18T17:12:36Z</time>
      </trkpt>
      <trkpt lat="47.34433" lon="0.50805">
        <ele>42.6</ele>
        <time>2021-01-18T17:12:36Z</time>
      </trkpt>
      <trkpt lat="47.34451" lon="0.50749">
        <ele>42.5</ele>
        <time>2021-01-18T17:12:36Z</time>
      </trkpt>
      <trkpt lat="47.34452" lon="0.5065">
        <ele>43.2</ele>
        <time>2021-01-18T17:12:36Z</time>
      </trkpt>
      <trkpt lat="47.34436" lon="0.5045">
        <ele>42.8</ele>
        <time>2021-01-18T17:12:36Z</time>
      </trkpt>
      <trkpt lat="47.344" lon="0.50322">
        <ele>42.5</ele>
        <time>2021-01-18T17:12:36Z</time>
      </trkpt>
      <trkpt lat="47.344" lon="0.50322">
        <ele>42.5</ele>
        <time>2021-01-18T17:12:36Z</time>
      </trkpt>
      <trkpt lat="47.34375" lon="0.50236">
        <ele>41.3</ele>
        <time>2021-01-18T17:12:36Z</time>
      </trkpt>
      <trkpt lat="47.34373" lon="0.50254">
        <ele>42.2</ele>
        <time>2021-01-18T17:12:36Z</time>
      </trkpt>
      <trkpt lat="47.34374" lon="0.50279">
        <ele>43.4</ele>
        <time>2021-01-18T17:12:36Z</time>
      </trkpt>
      <trkpt lat="47.34372" lon="0.50306">
        <ele>43.2</ele>
        <time>2021-01-18T17:12:36Z</time>
      </trkpt>
      <trkpt lat="47.34375" lon="0.5032">
        <ele>43</ele>
        <time>2021-01-18T17:12:36Z</time>
      </trkpt>
      <trkpt lat="47.3438" lon="0.50335">
        <ele>42.6</ele>
        <time>2021-01-18T17:12:36Z</time>
      </trkpt>
      <trkpt lat="47.34253" lon="0.50412">
        <ele>42</ele>
        <time>2021-01-18T17:12:36Z</time>
      </trkpt>
      <trkpt lat="47.34253" lon="0.50412">
        <ele>42</ele>
        <time>2021-01-18T17:12:36Z</time>
      </trkpt>
      <trkpt lat="47.34253" lon="0.50412">
        <ele>42</ele>
        <time>2021-01-18T17:12:36Z</time>
      </trkpt>
      <trkpt lat="47.34036" lon="0.49886">
        <ele>42.3</ele>
        <time>2021-01-18T17:12:36Z</time>
      </trkpt>
      <trkpt lat="47.34009" lon="0.49645">
        <ele>42</ele>
        <time>2021-01-18T17:12:36Z</time>
      </trkpt>
      <trkpt lat="47.33999" lon="0.49533">
        <ele>42</ele>
        <time>2021-01-18T17:12:36Z</time>
      </trkpt>
      <trkpt lat="47.33999" lon="0.49533">
        <ele>42</ele>
        <time>2021-01-18T17:12:36Z</time>
      </trkpt>
      <trkpt lat="47.33958" lon="0.49376">
        <ele>41.3</ele>
        <time>2021-01-18T17:12:36Z</time>
      </trkpt>
      <trkpt lat="47.33905" lon="0.49155">
        <ele>42.8</ele>
        <time>2021-01-18T17:12:36Z</time>
      </trkpt>
      <trkpt lat="47.33891" lon="0.49123">
        <ele>43</ele>
        <time>2021-01-18T17:12:36Z</time>
      </trkpt>
      <trkpt lat="47.33891" lon="0.49123">
        <ele>43</ele>
        <time>2021-01-18T17:12:36Z</time>
      </trkpt>
      <trkpt lat="47.33875" lon="0.49092">
        <ele>42.3</ele>
        <time>2021-01-18T17:12:36Z</time>
      </trkpt>
      <trkpt lat="47.33872" lon="0.49081">
        <ele>42.2</ele>
        <time>2021-01-18T17:12:36Z</time>
      </trkpt>
      <trkpt lat="47.33851" lon="0.49044">
        <ele>43.1</ele>
        <time>2021-01-18T17:12:36Z</time>
      </trkpt>
      <trkpt lat="47.33816" lon="0.48999">
        <ele>43.7</ele>
        <time>2021-01-18T17:12:36Z</time>
      </trkpt>
      <trkpt lat="47.3382" lon="0.48988">
        <ele>42.6</ele>
        <time>2021-01-18T17:12:36Z</time>
      </trkpt>
      <trkpt lat="47.3382" lon="0.48988">
        <ele>42.6</ele>
        <time>2021-01-18T17:12:36Z</time>
      </trkpt>
      <trkpt lat="47.33822" lon="0.48967">
        <ele>41.6</ele>
        <time>2021-01-18T17:12:36Z</time>
      </trkpt>
      <trkpt lat="47.3381" lon="0.48895">
        <ele>42.2</ele>
        <time>2021-01-18T17:12:36Z</time>
      </trkpt>
      <trkpt lat="47.33801" lon="0.48869">
        <ele>42.6</ele>
        <time>2021-01-18T17:12:36Z</time>
      </trkpt>
      <trkpt lat="47.33765" lon="0.48816">
        <ele>43.1</ele>
        <time>2021-01-18T17:12:36Z</time>
      </trkpt>
      <trkpt lat="47.33756" lon="0.48811">
        <ele>43.9</ele>
        <time>2021-01-18T17:12:36Z</time>
      </trkpt>
      <trkpt lat="47.33747" lon="0.48812">
        <ele>44</ele>
        <time>2021-01-18T17:12:36Z</time>
      </trkpt>
      <trkpt lat="47.33747" lon="0.48812">
        <ele>44</ele>
        <time>2021-01-18T17:12:36Z</time>
      </trkpt>
      <trkpt lat="47.3374" lon="0.48818">
        <ele>43</ele>
        <time>2021-01-18T17:12:36Z</time>
      </trkpt>
      <trkpt lat="47.33704" lon="0.48882">
        <ele>42.1</ele>
        <time>2021-01-18T17:12:36Z</time>
      </trkpt>
      <trkpt lat="47.33687" lon="0.48901">
        <ele>42.3</ele>
        <time>2021-01-18T17:12:36Z</time>
      </trkpt>
      <trkpt lat="47.33619" lon="0.48943">
        <ele>43.2</ele>
        <time>2021-01-18T17:12:36Z</time>
      </trkpt>
      <trkpt lat="47.33619" lon="0.48943">
        <ele>43.2</ele>
        <time>2021-01-18T17:12:36Z</time>
      </trkpt>
      <trkpt lat="47.33623" lon="0.48931">
        <ele>42</ele>
        <time>2021-01-18T17:12:36Z</time>
      </trkpt>
      <trkpt lat="47.33642" lon="0.48918">
        <ele>42.2</ele>
        <time>2021-01-18T17:12:36Z</time>
      </trkpt>
      <trkpt lat="47.33643" lon="0.48904">
        <ele>41.8</ele>
        <time>2021-01-18T17:12:36Z</time>
      </trkpt>
      <trkpt lat="47.33637" lon="0.48893">
        <ele>41.1</ele>
        <time>2021-01-18T17:12:36Z</time>
      </trkpt>
      <trkpt lat="47.33624" lon="0.48884">
        <ele>41</ele>
        <time>2021-01-18T17:12:36Z</time>
      </trkpt>
      <trkpt lat="47.33573" lon="0.48797">
        <ele>41.6</ele>
        <time>2021-01-18T17:12:36Z</time>
      </trkpt>
      <trkpt lat="47.33573" lon="0.48797">
        <ele>41.6</ele>
        <time>2021-01-18T17:12:36Z</time>
      </trkpt>
      <trkpt lat="47.33561" lon="0.48773">
        <ele>42</ele>
        <time>2021-01-18T17:12:36Z</time>
      </trkpt>
      <trkpt lat="47.33407" lon="0.48119">
        <ele>41.5</ele>
        <time>2021-01-18T17:12:36Z</time>
      </trkpt>
      <trkpt lat="47.33366" lon="0.47994">
        <ele>41.9</ele>
        <time>2021-01-18T17:12:36Z</time>
      </trkpt>
      <trkpt lat="47.33321" lon="0.47825">
        <ele>42</ele>
        <time>2021-01-18T17:12:36Z</time>
      </trkpt>
      <trkpt lat="47.3332" lon="0.4779">
        <ele>41.7</ele>
        <time>2021-01-18T17:12:36Z</time>
      </trkpt>
      <trkpt lat="47.3332" lon="0.4779">
        <ele>41.7</ele>
        <time>2021-01-18T17:12:36Z</time>
      </trkpt>
      <trkpt lat="47.33244" lon="0.47693">
        <ele>41.2</ele>
        <time>2021-01-18T17:12:36Z</time>
      </trkpt>
      <trkpt lat="47.33043" lon="0.47483">
        <ele>41.4</ele>
        <time>2021-01-18T17:12:36Z</time>
      </trkpt>
      <trkpt lat="47.33024" lon="0.47445">
        <ele>41.9</ele>
        <time>2021-01-18T17:12:36Z</time>
      </trkpt>
      <trkpt lat="47.33024" lon="0.47445">
        <ele>41.9</ele>
        <time>2021-01-18T17:12:36Z</time>
      </trkpt>
      <trkpt lat="47.3302" lon="0.47428">
        <ele>42.1</ele>
        <time>2021-01-18T17:12:36Z</time>
      </trkpt>
      <trkpt lat="47.33015" lon="0.4732">
        <ele>41.5</ele>
        <time>2021-01-18T17:12:36Z</time>
      </trkpt>
      <trkpt lat="47.32994" lon="0.47241">
        <ele>42.1</ele>
        <time>2021-01-18T17:12:36Z</time>
      </trkpt>
      <trkpt lat="47.32994" lon="0.47241">
        <ele>42.1</ele>
        <time>2021-01-18T17:12:36Z</time>
      </trkpt>
      <trkpt lat="47.32987" lon="0.47232">
        <ele>41.7</ele>
        <time>2021-01-18T17:12:36Z</time>
      </trkpt>
      <trkpt lat="47.32942" lon="0.47125">
        <ele>42</ele>
        <time>2021-01-18T17:12:36Z</time>
      </trkpt>
      <trkpt lat="47.32942" lon="0.47125">
        <ele>42</ele>
        <time>2021-01-18T17:12:36Z</time>
      </trkpt>
      <trkpt lat="47.32899" lon="0.47088">
        <ele>43</ele>
        <time>2021-01-18T17:12:36Z</time>
      </trkpt>
      <trkpt lat="47.32857" lon="0.47071">
        <ele>41.7</ele>
        <time>2021-01-18T17:12:36Z</time>
      </trkpt>
      <trkpt lat="47.32857" lon="0.47071">
        <ele>41.7</ele>
        <time>2021-01-18T17:12:36Z</time>
      </trkpt>
      <trkpt lat="47.32833" lon="0.47055">
        <ele>42</ele>
        <time>2021-01-18T17:12:36Z</time>
      </trkpt>
      <trkpt lat="47.32822" lon="0.4704">
        <ele>41.2</ele>
        <time>2021-01-18T17:12:36Z</time>
      </trkpt>
      <trkpt lat="47.32816" lon="0.47034">
        <ele>41.7</ele>
        <time>2021-01-18T17:12:36Z</time>
      </trkpt>
      <trkpt lat="47.32789" lon="0.47039">
        <ele>42.6</ele>
        <time>2021-01-18T17:12:36Z</time>
      </trkpt>
      <trkpt lat="47.32776" lon="0.47046">
        <ele>42.4</ele>
        <time>2021-01-18T17:12:36Z</time>
      </trkpt>
      <trkpt lat="47.32776" lon="0.47046">
        <ele>42.4</ele>
        <time>2021-01-18T17:12:36Z</time>
      </trkpt>
      <trkpt lat="47.32731" lon="0.47066">
        <ele>42.9</ele>
        <time>2021-01-18T17:12:36Z</time>
      </trkpt>
      <trkpt lat="47.32676" lon="0.47066">
        <ele>42.1</ele>
        <time>2021-01-18T17:12:36Z</time>
      </trkpt>
      <trkpt lat="47.32636" lon="0.47056">
        <ele>43.8</ele>
        <time>2021-01-18T17:12:36Z</time>
      </trkpt>
      <trkpt lat="47.32623" lon="0.47048">
        <ele>43.1</ele>
        <time>2021-01-18T17:12:36Z</time>
      </trkpt>
      <trkpt lat="47.32623" lon="0.47048">
        <ele>43.1</ele>
        <time>2021-01-18T17:12:36Z</time>
      </trkpt>
      <trkpt lat="47.32615" lon="0.47041">
        <ele>42.9</ele>
        <time>2021-01-18T17:12:36Z</time>
      </trkpt>
      <trkpt lat="47.32588" lon="0.4693">
        <ele>42.6</ele>
        <time>2021-01-18T17:12:36Z</time>
      </trkpt>
      <trkpt lat="47.32582" lon="0.46919">
        <ele>43</ele>
        <time>2021-01-18T17:12:36Z</time>
      </trkpt>
      <trkpt lat="47.32577" lon="0.46911">
        <ele>42.4</ele>
        <time>2021-01-18T17:12:36Z</time>
      </trkpt>
      <trkpt lat="47.32556" lon="0.46891">
        <ele>43.8</ele>
        <time>2021-01-18T17:12:36Z</time>
      </trkpt>
      <trkpt lat="47.32473" lon="0.46759">
        <ele>42</ele>
        <time>2021-01-18T17:12:36Z</time>
      </trkpt>
      <trkpt lat="47.32428" lon="0.46727">
        <ele>42.8</ele>
        <time>2021-01-18T17:12:36Z</time>
      </trkpt>
      <trkpt lat="47.32421" lon="0.46723">
        <ele>43.6</ele>
        <time>2021-01-18T17:12:36Z</time>
      </trkpt>
      <trkpt lat="47.32382" lon="0.46683">
        <ele>42.2</ele>
        <time>2021-01-18T17:12:36Z</time>
      </trkpt>
      <trkpt lat="47.32336" lon="0.46617">
        <ele>42.4</ele>
        <time>2021-01-18T17:12:36Z</time>
      </trkpt>
      <trkpt lat="47.32336" lon="0.46617">
        <ele>42.4</ele>
        <time>2021-01-18T17:12:36Z</time>
      </trkpt>
      <trkpt lat="47.32206" lon="0.46425">
        <ele>41.7</ele>
        <time>2021-01-18T17:12:36Z</time>
      </trkpt>
      <trkpt lat="47.31998" lon="0.46185">
        <ele>42</ele>
        <time>2021-01-18T17:12:36Z</time>
      </trkpt>
      <trkpt lat="47.31988" lon="0.4617">
        <ele>40.7</ele>
        <time>2021-01-18T17:12:36Z</time>
      </trkpt>
      <trkpt lat="47.31941" lon="0.46069">
        <ele>41.7</ele>
        <time>2021-01-18T17:12:36Z</time>
      </trkpt>
      <trkpt lat="47.31941" lon="0.46069">
        <ele>41.7</ele>
        <time>2021-01-18T17:12:36Z</time>
      </trkpt>
      <trkpt lat="47.3191" lon="0.4603">
        <ele>39.8</ele>
        <time>2021-01-18T17:12:36Z</time>
      </trkpt>
      <trkpt lat="47.31871" lon="0.46004">
        <ele>40.3</ele>
        <time>2021-01-18T17:12:36Z</time>
      </trkpt>
      <trkpt lat="47.31869" lon="0.45992">
        <ele>40.6</ele>
        <time>2021-01-18T17:12:36Z</time>
      </trkpt>
      <trkpt lat="47.31841" lon="0.45941">
        <ele>41.7</ele>
        <time>2021-01-18T17:12:36Z</time>
      </trkpt>
      <trkpt lat="47.31832" lon="0.45907">
        <ele>41.6</ele>
        <time>2021-01-18T17:12:36Z</time>
      </trkpt>
      <trkpt lat="47.31832" lon="0.45893">
        <ele>41.1</ele>
        <time>2021-01-18T17:12:36Z</time>
      </trkpt>
      <trkpt lat="47.31832" lon="0.45893">
        <ele>41.1</ele>
        <time>2021-01-18T17:12:36Z</time>
      </trkpt>
      <trkpt lat="47.31821" lon="0.45884">
        <ele>41.1</ele>
        <time>2021-01-18T17:12:36Z</time>
      </trkpt>
      <trkpt lat="47.31809" lon="0.45866">
        <ele>42.3</ele>
        <time>2021-01-18T17:12:36Z</time>
      </trkpt>
      <trkpt lat="47.31794" lon="0.45822">
        <ele>40.1</ele>
        <time>2021-01-18T17:12:36Z</time>
      </trkpt>
      <trkpt lat="47.31779" lon="0.45744">
        <ele>41.9</ele>
        <time>2021-01-18T17:12:36Z</time>
      </trkpt>
      <trkpt lat="47.31751" lon="0.45687">
        <ele>41.7</ele>
        <time>2021-01-18T17:12:36Z</time>
      </trkpt>
      <trkpt lat="47.31734" lon="0.4566">
        <ele>41</ele>
        <time>2021-01-18T17:12:36Z</time>
      </trkpt>
      <trkpt lat="47.31734" lon="0.4566">
        <ele>41</ele>
        <time>2021-01-18T17:12:36Z</time>
      </trkpt>
      <trkpt lat="47.31726" lon="0.45644">
        <ele>41.6</ele>
        <time>2021-01-18T17:12:36Z</time>
      </trkpt>
      <trkpt lat="47.31706" lon="0.45583">
        <ele>40.6</ele>
        <time>2021-01-18T17:12:36Z</time>
      </trkpt>
      <trkpt lat="47.31626" lon="0.45448">
        <ele>40.1</ele>
        <time>2021-01-18T17:12:36Z</time>
      </trkpt>
      <trkpt lat="47.31621" lon="0.45426">
        <ele>40.4</ele>
        <time>2021-01-18T17:12:36Z</time>
      </trkpt>
      <trkpt lat="47.31616" lon="0.45381">
        <ele>41.1</ele>
        <time>2021-01-18T17:12:36Z</time>
      </trkpt>
      <trkpt lat="47.31616" lon="0.45381">
        <ele>41.1</ele>
        <time>2021-01-18T17:12:36Z</time>
      </trkpt>
      <trkpt lat="47.31614" lon="0.45364">
        <ele>41.7</ele>
        <time>2021-01-18T17:12:36Z</time>
      </trkpt>
      <trkpt lat="47.31596" lon="0.45424">
        <ele>39.6</ele>
        <time>2021-01-18T17:12:36Z</time>
      </trkpt>
      <trkpt lat="47.31572" lon="0.4545">
        <ele>39.2</ele>
        <time>2021-01-18T17:12:36Z</time>
      </trkpt>
      <trkpt lat="47.3152" lon="0.45486">
        <ele>41</ele>
        <time>2021-01-18T17:12:36Z</time>
      </trkpt>
      <trkpt lat="47.3152" lon="0.45486">
        <ele>41</ele>
        <time>2021-01-18T17:12:36Z</time>
      </trkpt>
      <trkpt lat="47.3153" lon="0.45468">
        <ele>40.8</ele>
        <time>2021-01-18T17:12:36Z</time>
      </trkpt>
      <trkpt lat="47.31532" lon="0.45406">
        <ele>40.9</ele>
        <time>2021-01-18T17:12:36Z</time>
      </trkpt>
      <trkpt lat="47.31532" lon="0.45386">
        <ele>40.8</ele>
        <time>2021-01-18T17:12:36Z</time>
      </trkpt>
      <trkpt lat="47.31534" lon="0.45365">
        <ele>40.4</ele>
        <time>2021-01-18T17:12:36Z</time>
      </trkpt>
      <trkpt lat="47.31534" lon="0.45351">
        <ele>40.4</ele>
        <time>2021-01-18T17:12:36Z</time>
      </trkpt>
      <trkpt lat="47.3153" lon="0.45337">
        <ele>40.7</ele>
        <time>2021-01-18T17:12:36Z</time>
      </trkpt>
      <trkpt lat="47.31528" lon="0.45281">
        <ele>39.1</ele>
        <time>2021-01-18T17:12:36Z</time>
      </trkpt>
      <trkpt lat="47.3153" lon="0.45267">
        <ele>38.9</ele>
        <time>2021-01-18T17:12:36Z</time>
      </trkpt>
      <trkpt lat="47.31565" lon="0.45149">
        <ele>39.6</ele>
        <time>2021-01-18T17:12:36Z</time>
      </trkpt>
      <trkpt lat="47.31601" lon="0.45053">
        <ele>39.4</ele>
        <time>2021-01-18T17:12:36Z</time>
      </trkpt>
      <trkpt lat="47.3164" lon="0.4476">
        <ele>40.6</ele>
        <time>2021-01-18T17:12:36Z</time>
      </trkpt>
      <trkpt lat="47.3164" lon="0.4476">
        <ele>40.6</ele>
        <time>2021-01-18T17:12:36Z</time>
      </trkpt>
      <trkpt lat="47.31639" lon="0.44739">
        <ele>41</ele>
        <time>2021-01-18T17:12:36Z</time>
      </trkpt>
      <trkpt lat="47.31623" lon="0.4469">
        <ele>40.4</ele>
        <time>2021-01-18T17:12:36Z</time>
      </trkpt>
      <trkpt lat="47.31553" lon="0.44559">
        <ele>40.8</ele>
        <time>2021-01-18T17:12:36Z</time>
      </trkpt>
      <trkpt lat="47.31396" lon="0.44377">
        <ele>40.7</ele>
        <time>2021-01-18T17:12:36Z</time>
      </trkpt>
      <trkpt lat="47.31387" lon="0.44359">
        <ele>40.8</ele>
        <time>2021-01-18T17:12:36Z</time>
      </trkpt>
      <trkpt lat="47.31387" lon="0.44359">
        <ele>40.8</ele>
        <time>2021-01-18T17:12:36Z</time>
      </trkpt>
      <trkpt lat="47.3137" lon="0.44307">
        <ele>39.4</ele>
        <time>2021-01-18T17:12:36Z</time>
      </trkpt>
      <trkpt lat="47.31332" lon="0.44064">
        <ele>40.6</ele>
        <time>2021-01-18T17:12:36Z</time>
      </trkpt>
      <trkpt lat="47.31322" lon="0.44033">
        <ele>40</ele>
        <time>2021-01-18T17:12:36Z</time>
      </trkpt>
      <trkpt lat="47.31309" lon="0.44009">
        <ele>40.5</ele>
        <time>2021-01-18T17:12:36Z</time>
      </trkpt>
      <trkpt lat="47.31309" lon="0.44009">
        <ele>40.5</ele>
        <time>2021-01-18T17:12:36Z</time>
      </trkpt>
      <trkpt lat="47.31072" lon="0.43782">
        <ele>40.3</ele>
        <time>2021-01-18T17:12:36Z</time>
      </trkpt>
      <trkpt lat="47.31059" lon="0.43774">
        <ele>40.5</ele>
        <time>2021-01-18T17:12:36Z</time>
      </trkpt>
      <trkpt lat="47.31036" lon="0.43769">
        <ele>40.2</ele>
        <time>2021-01-18T17:12:36Z</time>
      </trkpt>
      <trkpt lat="47.31036" lon="0.43758">
        <ele>40.2</ele>
        <time>2021-01-18T17:12:36Z</time>
      </trkpt>
      <trkpt lat="47.31036" lon="0.43758">
        <ele>40.2</ele>
        <time>2021-01-18T17:12:36Z</time>
      </trkpt>
      <trkpt lat="47.3096" lon="0.43612">
        <ele>38.5</ele>
        <time>2021-01-18T17:12:36Z</time>
      </trkpt>
      <trkpt lat="47.3096" lon="0.43612">
        <ele>38.5</ele>
        <time>2021-01-18T17:12:36Z</time>
      </trkpt>
      <trkpt lat="47.30952" lon="0.43557">
        <ele>39.5</ele>
        <time>2021-01-18T17:12:36Z</time>
      </trkpt>
      <trkpt lat="47.30952" lon="0.43557">
        <ele>39.5</ele>
        <time>2021-01-18T17:12:36Z</time>
      </trkpt>
      <trkpt lat="47.30963" lon="0.43149">
        <ele>40</ele>
        <time>2021-01-18T17:12:36Z</time>
      </trkpt>
      <trkpt lat="47.30963" lon="0.43149">
        <ele>40</ele>
        <time>2021-01-18T17:12:36Z</time>
      </trkpt>
      <trkpt lat="47.31025" lon="0.43173">
        <ele>38.8</ele>
        <time>2021-01-18T17:12:36Z</time>
      </trkpt>
      <trkpt lat="47.31049" lon="0.43171">
        <ele>39.6</ele>
        <time>2021-01-18T17:12:36Z</time>
      </trkpt>
      <trkpt lat="47.31087" lon="0.43151">
        <ele>39.9</ele>
        <time>2021-01-18T17:12:36Z</time>
      </trkpt>
      <trkpt lat="47.31087" lon="0.43151">
        <ele>39.9</ele>
        <time>2021-01-18T17:12:36Z</time>
      </trkpt>
      <trkpt lat="47.31088" lon="0.42992">
        <ele>40.5</ele>
        <time>2021-01-18T17:12:36Z</time>
      </trkpt>
      <trkpt lat="47.31064" lon="0.42877">
        <ele>39.9</ele>
        <time>2021-01-18T17:12:36Z</time>
      </trkpt>
      <trkpt lat="47.3103" lon="0.42777">
        <ele>41.7</ele>
        <time>2021-01-18T17:12:36Z</time>
      </trkpt>
      <trkpt lat="47.30965" lon="0.42613">
        <ele>40</ele>
        <time>2021-01-18T17:12:36Z</time>
      </trkpt>
      <trkpt lat="47.30947" lon="0.42546">
        <ele>40.7</ele>
        <time>2021-01-18T17:12:36Z</time>
      </trkpt>
      <trkpt lat="47.30947" lon="0.42546">
        <ele>40.7</ele>
        <time>2021-01-18T17:12:36Z</time>
      </trkpt>
      <trkpt lat="47.30947" lon="0.42532">
        <ele>40.7</ele>
        <time>2021-01-18T17:12:36Z</time>
      </trkpt>
      <trkpt lat="47.30984" lon="0.42306">
        <ele>39.6</ele>
        <time>2021-01-18T17:12:36Z</time>
      </trkpt>
      <trkpt lat="47.30984" lon="0.42306">
        <ele>39.6</ele>
        <time>2021-01-18T17:12:36Z</time>
      </trkpt>
      <trkpt lat="47.30853" lon="0.42181">
        <ele>39.3</ele>
        <time>2021-01-18T17:12:36Z</time>
      </trkpt>
      <trkpt lat="47.30853" lon="0.42181">
        <ele>39.3</ele>
        <time>2021-01-18T17:12:36Z</time>
      </trkpt>
      <trkpt lat="47.30714" lon="0.42031">
        <ele>39.3</ele>
        <time>2021-01-18T17:12:36Z</time>
      </trkpt>
      <trkpt lat="47.30684" lon="0.41909">
        <ele>38.8</ele>
        <time>2021-01-18T17:12:36Z</time>
      </trkpt>
      <trkpt lat="47.30646" lon="0.41821">
        <ele>39.1</ele>
        <time>2021-01-18T17:12:36Z</time>
      </trkpt>
      <trkpt lat="47.3057" lon="0.41748">
        <ele>39.4</ele>
        <time>2021-01-18T17:12:36Z</time>
      </trkpt>
      <trkpt lat="47.30541" lon="0.41668">
        <ele>39.5</ele>
        <time>2021-01-18T17:12:36Z</time>
      </trkpt>
      <trkpt lat="47.30487" lon="0.41568">
        <ele>39.2</ele>
        <time>2021-01-18T17:12:36Z</time>
      </trkpt>
      <trkpt lat="47.30469" lon="0.41538">
        <ele>39</ele>
        <time>2021-01-18T17:12:36Z</time>
      </trkpt>
      <trkpt lat="47.30365" lon="0.41471">
        <ele>39.2</ele>
        <time>2021-01-18T17:12:36Z</time>
      </trkpt>
      <trkpt lat="47.30354" lon="0.41192">
        <ele>38.7</ele>
        <time>2021-01-18T17:12:36Z</time>
      </trkpt>
      <trkpt lat="47.30314" lon="0.4081">
        <ele>38.3</ele>
        <time>2021-01-18T17:12:36Z</time>
      </trkpt>
      <trkpt lat="47.3029" lon="0.40447">
        <ele>38.3</ele>
        <time>2021-01-18T17:12:36Z</time>
      </trkpt>
      <trkpt lat="47.30278" lon="0.40342">
        <ele>39.4</ele>
        <time>2021-01-18T17:12:36Z</time>
      </trkpt>
      <trkpt lat="47.30242" lon="0.40186">
        <ele>38.2</ele>
        <time>2021-01-18T17:12:36Z</time>
      </trkpt>
      <trkpt lat="47.30243" lon="0.40186">
        <ele>38.3</ele>
        <time>2021-01-18T17:12:36Z</time>
      </trkpt>
      <trkpt lat="47.30243" lon="0.40186">
        <ele>38.3</ele>
        <time>2021-01-18T17:12:36Z</time>
      </trkpt>
      <trkpt lat="47.30237" lon="0.40191">
        <ele>38.1</ele>
        <time>2021-01-18T17:12:36Z</time>
      </trkpt>
      <trkpt lat="47.30196" lon="0.40097">
        <ele>39</ele>
        <time>2021-01-18T17:12:36Z</time>
      </trkpt>
      <trkpt lat="47.30111" lon="0.39982">
        <ele>40</ele>
        <time>2021-01-18T17:12:36Z</time>
      </trkpt>
      <trkpt lat="47.30101" lon="0.39977">
        <ele>39.3</ele>
        <time>2021-01-18T17:12:36Z</time>
      </trkpt>
      <trkpt lat="47.30092" lon="0.39963">
        <ele>38.3</ele>
        <time>2021-01-18T17:12:36Z</time>
      </trkpt>
      <trkpt lat="47.30092" lon="0.39963">
        <ele>38.3</ele>
        <time>2021-01-18T17:12:36Z</time>
      </trkpt>
      <trkpt lat="47.30042" lon="0.39912">
        <ele>37.6</ele>
        <time>2021-01-18T17:12:36Z</time>
      </trkpt>
      <trkpt lat="47.30027" lon="0.39758">
        <ele>38.3</ele>
        <time>2021-01-18T17:12:36Z</time>
      </trkpt>
      <trkpt lat="47.30043" lon="0.39632">
        <ele>38.4</ele>
        <time>2021-01-18T17:12:36Z</time>
      </trkpt>
      <trkpt lat="47.3004" lon="0.39564">
        <ele>38</ele>
        <time>2021-01-18T17:12:36Z</time>
      </trkpt>
      <trkpt lat="47.30048" lon="0.39534">
        <ele>39.2</ele>
        <time>2021-01-18T17:12:36Z</time>
      </trkpt>
      <trkpt lat="47.30039" lon="0.3943">
        <ele>38.4</ele>
        <time>2021-01-18T17:12:36Z</time>
      </trkpt>
      <trkpt lat="47.30018" lon="0.39361">
        <ele>38.7</ele>
        <time>2021-01-18T17:12:36Z</time>
      </trkpt>
      <trkpt lat="47.30016" lon="0.39317">
        <ele>38.4</ele>
        <time>2021-01-18T17:12:36Z</time>
      </trkpt>
      <trkpt lat="47.30031" lon="0.39181">
        <ele>40.3</ele>
        <time>2021-01-18T17:12:36Z</time>
      </trkpt>
      <trkpt lat="47.30031" lon="0.39181">
        <ele>40.3</ele>
        <time>2021-01-18T17:12:36Z</time>
      </trkpt>
      <trkpt lat="47.30033" lon="0.3916">
        <ele>39.2</ele>
        <time>2021-01-18T17:12:36Z</time>
      </trkpt>
      <trkpt lat="47.30053" lon="0.39064">
        <ele>40</ele>
        <time>2021-01-18T17:12:36Z</time>
      </trkpt>
      <trkpt lat="47.30051" lon="0.39031">
        <ele>39.5</ele>
        <time>2021-01-18T17:12:36Z</time>
      </trkpt>
      <trkpt lat="47.30046" lon="0.39012">
        <ele>38.4</ele>
        <time>2021-01-18T17:12:36Z</time>
      </trkpt>
      <trkpt lat="47.30037" lon="0.38991">
        <ele>38.1</ele>
        <time>2021-01-18T17:12:36Z</time>
      </trkpt>
      <trkpt lat="47.30023" lon="0.38976">
        <ele>38.8</ele>
        <time>2021-01-18T17:12:36Z</time>
      </trkpt>
      <trkpt lat="47.29979" lon="0.38952">
        <ele>39.1</ele>
        <time>2021-01-18T17:12:36Z</time>
      </trkpt>
      <trkpt lat="47.29947" lon="0.38945">
        <ele>39.1</ele>
        <time>2021-01-18T17:12:36Z</time>
      </trkpt>
      <trkpt lat="47.29922" lon="0.38918">
        <ele>39.5</ele>
        <time>2021-01-18T17:12:36Z</time>
      </trkpt>
      <trkpt lat="47.29914" lon="0.38893">
        <ele>39.7</ele>
        <time>2021-01-18T17:12:36Z</time>
      </trkpt>
      <trkpt lat="47.29892" lon="0.38779">
        <ele>38.8</ele>
        <time>2021-01-18T17:12:36Z</time>
      </trkpt>
      <trkpt lat="47.29888" lon="0.38767">
        <ele>39</ele>
        <time>2021-01-18T17:12:36Z</time>
      </trkpt>
      <trkpt lat="47.29888" lon="0.38767">
        <ele>39</ele>
        <time>2021-01-18T17:12:36Z</time>
      </trkpt>
      <trkpt lat="47.29877" lon="0.38751">
        <ele>39</ele>
        <time>2021-01-18T17:12:36Z</time>
      </trkpt>
      <trkpt lat="47.29861" lon="0.38741">
        <ele>38.7</ele>
        <time>2021-01-18T17:12:36Z</time>
      </trkpt>
      <trkpt lat="47.29673" lon="0.38724">
        <ele>39.6</ele>
        <time>2021-01-18T17:12:36Z</time>
      </trkpt>
      <trkpt lat="47.29577" lon="0.38622">
        <ele>37.6</ele>
        <time>2021-01-18T17:12:36Z</time>
      </trkpt>
      <trkpt lat="47.29564" lon="0.38601">
        <ele>37.7</ele>
        <time>2021-01-18T17:12:36Z</time>
      </trkpt>
      <trkpt lat="47.29551" lon="0.38557">
        <ele>38.7</ele>
        <time>2021-01-18T17:12:36Z</time>
      </trkpt>
      <trkpt lat="47.29486" lon="0.38477">
        <ele>37.6</ele>
        <time>2021-01-18T17:12:36Z</time>
      </trkpt>
      <trkpt lat="47.29479" lon="0.38457">
        <ele>38.2</ele>
        <time>2021-01-18T17:12:36Z</time>
      </trkpt>
      <trkpt lat="47.29468" lon="0.38401">
        <ele>38.8</ele>
        <time>2021-01-18T17:12:36Z</time>
      </trkpt>
      <trkpt lat="47.29462" lon="0.3839">
        <ele>38</ele>
        <time>2021-01-18T17:12:36Z</time>
      </trkpt>
      <trkpt lat="47.29462" lon="0.3839">
        <ele>38</ele>
        <time>2021-01-18T17:12:36Z</time>
      </trkpt>
      <trkpt lat="47.29456" lon="0.38377">
        <ele>37.8</ele>
        <time>2021-01-18T17:12:36Z</time>
      </trkpt>
      <trkpt lat="47.29424" lon="0.38207">
        <ele>38.4</ele>
        <time>2021-01-18T17:12:36Z</time>
      </trkpt>
      <trkpt lat="47.29426" lon="0.38187">
        <ele>38.3</ele>
        <time>2021-01-18T17:12:36Z</time>
      </trkpt>
      <trkpt lat="47.29368" lon="0.37933">
        <ele>38.1</ele>
        <time>2021-01-18T17:12:36Z</time>
      </trkpt>
      <trkpt lat="47.29368" lon="0.37933">
        <ele>38.1</ele>
        <time>2021-01-18T17:12:36Z</time>
      </trkpt>
      <trkpt lat="47.29344" lon="0.379">
        <ele>38.7</ele>
        <time>2021-01-18T17:12:36Z</time>
      </trkpt>
      <trkpt lat="47.29328" lon="0.37887">
        <ele>39.6</ele>
        <time>2021-01-18T17:12:36Z</time>
      </trkpt>
      <trkpt lat="47.29314" lon="0.37882">
        <ele>38.7</ele>
        <time>2021-01-18T17:12:36Z</time>
      </trkpt>
      <trkpt lat="47.2928" lon="0.37879">
        <ele>38.3</ele>
        <time>2021-01-18T17:12:36Z</time>
      </trkpt>
      <trkpt lat="47.2925" lon="0.37858">
        <ele>38.8</ele>
        <time>2021-01-18T17:12:36Z</time>
      </trkpt>
      <trkpt lat="47.29236" lon="0.37842">
        <ele>37.7</ele>
        <time>2021-01-18T17:12:36Z</time>
      </trkpt>
      <trkpt lat="47.29191" lon="0.37757">
        <ele>38.5</ele>
        <time>2021-01-18T17:12:36Z</time>
      </trkpt>
      <trkpt lat="47.29099" lon="0.37491">
        <ele>37.2</ele>
        <time>2021-01-18T17:12:36Z</time>
      </trkpt>
      <trkpt lat="47.2909" lon="0.37426">
        <ele>37.5</ele>
        <time>2021-01-18T17:12:36Z</time>
      </trkpt>
      <trkpt lat="47.2909" lon="0.37426">
        <ele>37.5</ele>
        <time>2021-01-18T17:12:36Z</time>
      </trkpt>
      <trkpt lat="47.29087" lon="0.37357">
        <ele>38.4</ele>
        <time>2021-01-18T17:12:36Z</time>
      </trkpt>
      <trkpt lat="47.29111" lon="0.37162">
        <ele>38.8</ele>
        <time>2021-01-18T17:12:36Z</time>
      </trkpt>
      <trkpt lat="47.29149" lon="0.37067">
        <ele>36.9</ele>
        <time>2021-01-18T17:12:36Z</time>
      </trkpt>
      <trkpt lat="47.2915" lon="0.37031">
        <ele>36.6</ele>
        <time>2021-01-18T17:12:36Z</time>
      </trkpt>
      <trkpt lat="47.29142" lon="0.36984">
        <ele>38.3</ele>
        <time>2021-01-18T17:12:36Z</time>
      </trkpt>
      <trkpt lat="47.28987" lon="0.36454">
        <ele>36.5</ele>
        <time>2021-01-18T17:12:36Z</time>
      </trkpt>
      <trkpt lat="47.28987" lon="0.36454">
        <ele>36.5</ele>
        <time>2021-01-18T17:12:36Z</time>
      </trkpt>
      <trkpt lat="47.2893" lon="0.36269">
        <ele>36.2</ele>
        <time>2021-01-18T17:12:36Z</time>
      </trkpt>
      <trkpt lat="47.28909" lon="0.3584">
        <ele>36.7</ele>
        <time>2021-01-18T17:12:36Z</time>
      </trkpt>
      <trkpt lat="47.28918" lon="0.35797">
        <ele>38.3</ele>
        <time>2021-01-18T17:12:36Z</time>
      </trkpt>
      <trkpt lat="47.28929" lon="0.35766">
        <ele>36.7</ele>
        <time>2021-01-18T17:12:36Z</time>
      </trkpt>
      <trkpt lat="47.2894" lon="0.35747">
        <ele>37.7</ele>
        <time>2021-01-18T17:12:36Z</time>
      </trkpt>
      <trkpt lat="47.28945" lon="0.35727">
        <ele>38</ele>
        <time>2021-01-18T17:12:36Z</time>
      </trkpt>
      <trkpt lat="47.28945" lon="0.35727">
        <ele>38</ele>
        <time>2021-01-18T17:12:36Z</time>
      </trkpt>
      <trkpt lat="47.2894" lon="0.35708">
        <ele>37.3</ele>
        <time>2021-01-18T17:12:36Z</time>
      </trkpt>
      <trkpt lat="47.28875" lon="0.35622">
        <ele>37</ele>
        <time>2021-01-18T17:12:36Z</time>
      </trkpt>
      <trkpt lat="47.28864" lon="0.35611">
        <ele>37.8</ele>
        <time>2021-01-18T17:12:36Z</time>
      </trkpt>
      <trkpt lat="47.28816" lon="0.35575">
        <ele>36.9</ele>
        <time>2021-01-18T17:12:36Z</time>
      </trkpt>
      <trkpt lat="47.28746" lon="0.35492">
        <ele>37.5</ele>
        <time>2021-01-18T17:12:36Z</time>
      </trkpt>
      <trkpt lat="47.28741" lon="0.35482">
        <ele>36.9</ele>
        <time>2021-01-18T17:12:36Z</time>
      </trkpt>
      <trkpt lat="47.28738" lon="0.3547">
        <ele>36.6</ele>
        <time>2021-01-18T17:12:36Z</time>
      </trkpt>
      <trkpt lat="47.28736" lon="0.35457">
        <ele>36.5</ele>
        <time>2021-01-18T17:12:36Z</time>
      </trkpt>
      <trkpt lat="47.28737" lon="0.35443">
        <ele>36.6</ele>
        <time>2021-01-18T17:12:36Z</time>
      </trkpt>
      <trkpt lat="47.28741" lon="0.3543">
        <ele>37</ele>
        <time>2021-01-18T17:12:36Z</time>
      </trkpt>
      <trkpt lat="47.28755" lon="0.35404">
        <ele>37</ele>
        <time>2021-01-18T17:12:36Z</time>
      </trkpt>
      <trkpt lat="47.28775" lon="0.35376">
        <ele>37.3</ele>
        <time>2021-01-18T17:12:36Z</time>
      </trkpt>
      <trkpt lat="47.28797" lon="0.3533">
        <ele>36.1</ele>
        <time>2021-01-18T17:12:36Z</time>
      </trkpt>
      <trkpt lat="47.28799" lon="0.35317">
        <ele>36.3</ele>
        <time>2021-01-18T17:12:36Z</time>
      </trkpt>
      <trkpt lat="47.28799" lon="0.35317">
        <ele>36.3</ele>
        <time>2021-01-18T17:12:36Z</time>
      </trkpt>
      <trkpt lat="47.28799" lon="0.35306">
        <ele>36.5</ele>
        <time>2021-01-18T17:12:36Z</time>
      </trkpt>
      <trkpt lat="47.28796" lon="0.35294">
        <ele>36.3</ele>
        <time>2021-01-18T17:12:36Z</time>
      </trkpt>
      <trkpt lat="47.28791" lon="0.35283">
        <ele>36.4</ele>
        <time>2021-01-18T17:12:36Z</time>
      </trkpt>
      <trkpt lat="47.2878" lon="0.35266">
        <ele>36.9</ele>
        <time>2021-01-18T17:12:36Z</time>
      </trkpt>
      <trkpt lat="47.28755" lon="0.3524">
        <ele>37.2</ele>
        <time>2021-01-18T17:12:36Z</time>
      </trkpt>
      <trkpt lat="47.28746" lon="0.35225">
        <ele>37.7</ele>
        <time>2021-01-18T17:12:36Z</time>
      </trkpt>
      <trkpt lat="47.28709" lon="0.35108">
        <ele>37</ele>
        <time>2021-01-18T17:12:36Z</time>
      </trkpt>
      <trkpt lat="47.28663" lon="0.35033">
        <ele>37.6</ele>
        <time>2021-01-18T17:12:36Z</time>
      </trkpt>
      <trkpt lat="47.28604" lon="0.34883">
        <ele>37.2</ele>
        <time>2021-01-18T17:12:36Z</time>
      </trkpt>
      <trkpt lat="47.28465" lon="0.34433">
        <ele>36.7</ele>
        <time>2021-01-18T17:12:36Z</time>
      </trkpt>
      <trkpt lat="47.28465" lon="0.34433">
        <ele>36.7</ele>
        <time>2021-01-18T17:12:36Z</time>
      </trkpt>
      <trkpt lat="47.28402" lon="0.3426">
        <ele>36.5</ele>
        <time>2021-01-18T17:12:36Z</time>
      </trkpt>
      <trkpt lat="47.28276" lon="0.34022">
        <ele>37.5</ele>
        <time>2021-01-18T17:12:36Z</time>
      </trkpt>
      <trkpt lat="47.28198" lon="0.33944">
        <ele>37.7</ele>
        <time>2021-01-18T17:12:36Z</time>
      </trkpt>
      <trkpt lat="47.28198" lon="0.33944">
        <ele>37.7</ele>
        <time>2021-01-18T17:12:36Z</time>
      </trkpt>
      <trkpt lat="47.28004" lon="0.33749">
        <ele>37.7</ele>
        <time>2021-01-18T17:12:36Z</time>
      </trkpt>
      <trkpt lat="47.27982" lon="0.33707">
        <ele>36.9</ele>
        <time>2021-01-18T17:12:36Z</time>
      </trkpt>
      <trkpt lat="47.27942" lon="0.33652">
        <ele>37.8</ele>
        <time>2021-01-18T17:12:36Z</time>
      </trkpt>
      <trkpt lat="47.27937" lon="0.3364">
        <ele>37.4</ele>
        <time>2021-01-18T17:12:36Z</time>
      </trkpt>
      <trkpt lat="47.27921" lon="0.33622">
        <ele>37.2</ele>
        <time>2021-01-18T17:12:36Z</time>
      </trkpt>
      <trkpt lat="47.27875" lon="0.3359">
        <ele>36.6</ele>
        <time>2021-01-18T17:12:36Z</time>
      </trkpt>
      <trkpt lat="47.27849" lon="0.33551">
        <ele>37</ele>
        <time>2021-01-18T17:12:36Z</time>
      </trkpt>
      <trkpt lat="47.27786" lon="0.33407">
        <ele>36.6</ele>
        <time>2021-01-18T17:12:36Z</time>
      </trkpt>
      <trkpt lat="47.27786" lon="0.33407">
        <ele>36.6</ele>
        <time>2021-01-18T17:12:36Z</time>
      </trkpt>
      <trkpt lat="47.27771" lon="0.33382">
        <ele>37.6</ele>
        <time>2021-01-18T17:12:36Z</time>
      </trkpt>
      <trkpt lat="47.27614" lon="0.33169">
        <ele>37.5</ele>
        <time>2021-01-18T17:12:36Z</time>
      </trkpt>
      <trkpt lat="47.27614" lon="0.33169">
        <ele>37.5</ele>
        <time>2021-01-18T17:12:36Z</time>
      </trkpt>
      <trkpt lat="47.27615" lon="0.33182">
        <ele>36.8</ele>
        <time>2021-01-18T17:12:36Z</time>
      </trkpt>
      <trkpt lat="47.27571" lon="0.33268">
        <ele>37</ele>
        <time>2021-01-18T17:12:36Z</time>
      </trkpt>
      <trkpt lat="47.27433" lon="0.33518">
        <ele>36.6</ele>
        <time>2021-01-18T17:12:36Z</time>
      </trkpt>
      <trkpt lat="47.27425" lon="0.33522">
        <ele>36.3</ele>
        <time>2021-01-18T17:12:36Z</time>
      </trkpt>
      <trkpt lat="47.27356" lon="0.33499">
        <ele>38.6</ele>
        <time>2021-01-18T17:12:36Z</time>
      </trkpt>
      <trkpt lat="47.27336" lon="0.33742">
        <ele>38.6</ele>
        <time>2021-01-18T17:12:36Z</time>
      </trkpt>
      <trkpt lat="47.27325" lon="0.3374">
        <ele>37.7</ele>
        <time>2021-01-18T17:12:36Z</time>
      </trkpt>
      <trkpt lat="47.27325" lon="0.3374">
        <ele>37.7</ele>
        <time>2021-01-18T17:12:36Z</time>
      </trkpt>
      <trkpt lat="47.27242" lon="0.33717">
        <ele>36.3</ele>
        <time>2021-01-18T17:12:36Z</time>
      </trkpt>
      <trkpt lat="47.27221" lon="0.337">
        <ele>36.3</ele>
        <time>2021-01-18T17:12:36Z</time>
      </trkpt>
      <trkpt lat="47.27208" lon="0.33681">
        <ele>35.7</ele>
        <time>2021-01-18T17:12:36Z</time>
      </trkpt>
      <trkpt lat="47.27171" lon="0.33549">
        <ele>36.3</ele>
        <time>2021-01-18T17:12:36Z</time>
      </trkpt>
      <trkpt lat="47.27165" lon="0.33518">
        <ele>36.9</ele>
        <time>2021-01-18T17:12:36Z</time>
      </trkpt>
      <trkpt lat="47.27152" lon="0.33478">
        <ele>35.8</ele>
        <time>2021-01-18T17:12:36Z</time>
      </trkpt>
      <trkpt lat="47.27055" lon="0.33318">
        <ele>36.1</ele>
        <time>2021-01-18T17:12:36Z</time>
      </trkpt>
      <trkpt lat="47.27021" lon="0.33285">
        <ele>36</ele>
        <time>2021-01-18T17:12:36Z</time>
      </trkpt>
      <trkpt lat="47.26933" lon="0.33246">
        <ele>36.1</ele>
        <time>2021-01-18T17:12:36Z</time>
      </trkpt>
      <trkpt lat="47.26923" lon="0.33246">
        <ele>36</ele>
        <time>2021-01-18T17:12:36Z</time>
      </trkpt>
      <trkpt lat="47.26923" lon="0.33246">
        <ele>36</ele>
        <time>2021-01-18T17:12:36Z</time>
      </trkpt>
      <trkpt lat="47.26858" lon="0.33257">
        <ele>36.3</ele>
        <time>2021-01-18T17:12:36Z</time>
      </trkpt>
      <trkpt lat="47.26849" lon="0.33256">
        <ele>36.4</ele>
        <time>2021-01-18T17:12:36Z</time>
      </trkpt>
      <trkpt lat="47.2683" lon="0.33246">
        <ele>36.6</ele>
        <time>2021-01-18T17:12:36Z</time>
      </trkpt>
      <trkpt lat="47.26778" lon="0.3318">
        <ele>36</ele>
        <time>2021-01-18T17:12:36Z</time>
      </trkpt>
      <trkpt lat="47.26616" lon="0.33044">
        <ele>36</ele>
        <time>2021-01-18T17:12:36Z</time>
      </trkpt>
      <trkpt lat="47.26607" lon="0.3304">
        <ele>36.1</ele>
        <time>2021-01-18T17:12:36Z</time>
      </trkpt>
      <trkpt lat="47.26597" lon="0.33021">
        <ele>36.8</ele>
        <time>2021-01-18T17:12:36Z</time>
      </trkpt>
      <trkpt lat="47.26597" lon="0.33021">
        <ele>36.8</ele>
        <time>2021-01-18T17:12:36Z</time>
      </trkpt>
      <trkpt lat="47.26604" lon="0.33036">
        <ele>36.4</ele>
        <time>2021-01-18T17:12:36Z</time>
      </trkpt>
      <trkpt lat="47.26593" lon="0.3304">
        <ele>36.1</ele>
        <time>2021-01-18T17:12:36Z</time>
      </trkpt>
      <trkpt lat="47.26562" lon="0.33045">
        <ele>36.4</ele>
        <time>2021-01-18T17:12:36Z</time>
      </trkpt>
      <trkpt lat="47.26535" lon="0.33058">
        <ele>36.8</ele>
        <time>2021-01-18T17:12:36Z</time>
      </trkpt>
      <trkpt lat="47.26526" lon="0.33055">
        <ele>36.9</ele>
        <time>2021-01-18T17:12:36Z</time>
      </trkpt>
      <trkpt lat="47.26485" lon="0.32982">
        <ele>36.3</ele>
        <time>2021-01-18T17:12:36Z</time>
      </trkpt>
      <trkpt lat="47.26429" lon="0.32861">
        <ele>36</ele>
        <time>2021-01-18T17:12:36Z</time>
      </trkpt>
      <trkpt lat="47.26421" lon="0.32853">
        <ele>36</ele>
        <time>2021-01-18T17:12:36Z</time>
      </trkpt>
      <trkpt lat="47.26414" lon="0.32849">
        <ele>35.8</ele>
        <time>2021-01-18T17:12:36Z</time>
      </trkpt>
      <trkpt lat="47.26407" lon="0.32841">
        <ele>35.3</ele>
        <time>2021-01-18T17:12:36Z</time>
      </trkpt>
      <trkpt lat="47.26407" lon="0.32841">
        <ele>35.3</ele>
        <time>2021-01-18T17:12:36Z</time>
      </trkpt>
      <trkpt lat="47.26403" lon="0.32829">
        <ele>35.1</ele>
        <time>2021-01-18T17:12:36Z</time>
      </trkpt>
      <trkpt lat="47.26359" lon="0.32618">
        <ele>36.9</ele>
        <time>2021-01-18T17:12:36Z</time>
      </trkpt>
      <trkpt lat="47.26355" lon="0.32608">
        <ele>36.7</ele>
        <time>2021-01-18T17:12:36Z</time>
      </trkpt>
      <trkpt lat="47.26327" lon="0.32587">
        <ele>36.4</ele>
        <time>2021-01-18T17:12:36Z</time>
      </trkpt>
      <trkpt lat="47.26246" lon="0.32539">
        <ele>36.9</ele>
        <time>2021-01-18T17:12:36Z</time>
      </trkpt>
      <trkpt lat="47.26209" lon="0.32496">
        <ele>36.1</ele>
        <time>2021-01-18T17:12:36Z</time>
      </trkpt>
      <trkpt lat="47.26166" lon="0.32407">
        <ele>36.9</ele>
        <time>2021-01-18T17:12:36Z</time>
      </trkpt>
      <trkpt lat="47.26126" lon="0.32207">
        <ele>34.8</ele>
        <time>2021-01-18T17:12:36Z</time>
      </trkpt>
      <trkpt lat="47.26024" lon="0.31725">
        <ele>36.5</ele>
        <time>2021-01-18T17:12:36Z</time>
      </trkpt>
      <trkpt lat="47.26024" lon="0.31725">
        <ele>36.5</ele>
        <time>2021-01-18T17:12:36Z</time>
      </trkpt>
      <trkpt lat="47.26017" lon="0.31705">
        <ele>35.4</ele>
        <time>2021-01-18T17:12:36Z</time>
      </trkpt>
      <trkpt lat="47.26067" lon="0.31604">
        <ele>35.2</ele>
        <time>2021-01-18T17:12:36Z</time>
      </trkpt>
      <trkpt lat="47.2608" lon="0.31588">
        <ele>35.8</ele>
        <time>2021-01-18T17:12:36Z</time>
      </trkpt>
      <trkpt lat="47.26128" lon="0.31562">
        <ele>36</ele>
        <time>2021-01-18T17:12:36Z</time>
      </trkpt>
      <trkpt lat="47.26192" lon="0.31493">
        <ele>35.9</ele>
        <time>2021-01-18T17:12:36Z</time>
      </trkpt>
      <trkpt lat="47.26192" lon="0.31493">
        <ele>35.9</ele>
        <time>2021-01-18T17:12:36Z</time>
      </trkpt>
      <trkpt lat="47.26196" lon="0.3148">
        <ele>36</ele>
        <time>2021-01-18T17:12:36Z</time>
      </trkpt>
      <trkpt lat="47.26197" lon="0.3146">
        <ele>36</ele>
        <time>2021-01-18T17:12:36Z</time>
      </trkpt>
      <trkpt lat="47.26166" lon="0.31338">
        <ele>37</ele>
        <time>2021-01-18T17:12:36Z</time>
      </trkpt>
      <trkpt lat="47.26171" lon="0.31151">
        <ele>35.5</ele>
        <time>2021-01-18T17:12:36Z</time>
      </trkpt>
      <trkpt lat="47.26179" lon="0.31107">
        <ele>35.1</ele>
        <time>2021-01-18T17:12:36Z</time>
      </trkpt>
      <trkpt lat="47.26179" lon="0.31107">
        <ele>35.1</ele>
        <time>2021-01-18T17:12:36Z</time>
      </trkpt>
      <trkpt lat="47.26163" lon="0.31061">
        <ele>35.8</ele>
        <time>2021-01-18T17:12:36Z</time>
      </trkpt>
      <trkpt lat="47.26129" lon="0.31012">
        <ele>35.4</ele>
        <time>2021-01-18T17:12:36Z</time>
      </trkpt>
      <trkpt lat="47.26122" lon="0.30995">
        <ele>35</ele>
        <time>2021-01-18T17:12:36Z</time>
      </trkpt>
      <trkpt lat="47.26102" lon="0.30881">
        <ele>35</ele>
        <time>2021-01-18T17:12:36Z</time>
      </trkpt>
      <trkpt lat="47.26103" lon="0.30844">
        <ele>35.5</ele>
        <time>2021-01-18T17:12:36Z</time>
      </trkpt>
      <trkpt lat="47.26127" lon="0.30755">
        <ele>35.2</ele>
        <time>2021-01-18T17:12:36Z</time>
      </trkpt>
      <trkpt lat="47.26128" lon="0.30741">
        <ele>35.1</ele>
        <time>2021-01-18T17:12:36Z</time>
      </trkpt>
      <trkpt lat="47.26126" lon="0.30724">
        <ele>34.6</ele>
        <time>2021-01-18T17:12:36Z</time>
      </trkpt>
      <trkpt lat="47.26086" lon="0.30592">
        <ele>36</ele>
        <time>2021-01-18T17:12:36Z</time>
      </trkpt>
      <trkpt lat="47.26085" lon="0.3056">
        <ele>36</ele>
        <time>2021-01-18T17:12:36Z</time>
      </trkpt>
      <trkpt lat="47.26102" lon="0.30371">
        <ele>35.5</ele>
        <time>2021-01-18T17:12:36Z</time>
      </trkpt>
      <trkpt lat="47.261" lon="0.30285">
        <ele>35</ele>
        <time>2021-01-18T17:12:36Z</time>
      </trkpt>
      <trkpt lat="47.261" lon="0.30285">
        <ele>35</ele>
        <time>2021-01-18T17:12:36Z</time>
      </trkpt>
      <trkpt lat="47.26098" lon="0.30271">
        <ele>34.8</ele>
        <time>2021-01-18T17:12:36Z</time>
      </trkpt>
      <trkpt lat="47.26093" lon="0.30261">
        <ele>34.9</ele>
        <time>2021-01-18T17:12:36Z</time>
      </trkpt>
      <trkpt lat="47.26081" lon="0.30242">
        <ele>35.2</ele>
        <time>2021-01-18T17:12:36Z</time>
      </trkpt>
      <trkpt lat="47.26043" lon="0.30152">
        <ele>34.9</ele>
        <time>2021-01-18T17:12:36Z</time>
      </trkpt>
      <trkpt lat="47.2602" lon="0.30064">
        <ele>35.3</ele>
        <time>2021-01-18T17:12:36Z</time>
      </trkpt>
      <trkpt lat="47.26018" lon="0.29966">
        <ele>34.5</ele>
        <time>2021-01-18T17:12:36Z</time>
      </trkpt>
      <trkpt lat="47.2595" lon="0.29773">
        <ele>35.3</ele>
        <time>2021-01-18T17:12:36Z</time>
      </trkpt>
      <trkpt lat="47.25936" lon="0.29754">
        <ele>35.6</ele>
        <time>2021-01-18T17:12:36Z</time>
      </trkpt>
      <trkpt lat="47.25906" lon="0.29723">
        <ele>34.8</ele>
        <time>2021-01-18T17:12:36Z</time>
      </trkpt>
      <trkpt lat="47.259" lon="0.29714">
        <ele>34.5</ele>
        <time>2021-01-18T17:12:36Z</time>
      </trkpt>
      <trkpt lat="47.25897" lon="0.29705">
        <ele>34.6</ele>
        <time>2021-01-18T17:12:36Z</time>
      </trkpt>
      <trkpt lat="47.25892" lon="0.29681">
        <ele>35</ele>
        <time>2021-01-18T17:12:36Z</time>
      </trkpt>
      <trkpt lat="47.25895" lon="0.29658">
        <ele>35</ele>
        <time>2021-01-18T17:12:36Z</time>
      </trkpt>
      <trkpt lat="47.25891" lon="0.29641">
        <ele>35</ele>
        <time>2021-01-18T17:12:36Z</time>
      </trkpt>
      <trkpt lat="47.25892" lon="0.29612">
        <ele>35</ele>
        <time>2021-01-18T17:12:36Z</time>
      </trkpt>
      <trkpt lat="47.25899" lon="0.29565">
        <ele>34.4</ele>
        <time>2021-01-18T17:12:36Z</time>
      </trkpt>
      <trkpt lat="47.25899" lon="0.2953">
        <ele>34.7</ele>
        <time>2021-01-18T17:12:36Z</time>
      </trkpt>
      <trkpt lat="47.25889" lon="0.29468">
        <ele>36.8</ele>
        <time>2021-01-18T17:12:36Z</time>
      </trkpt>
      <trkpt lat="47.25889" lon="0.29468">
        <ele>36.8</ele>
        <time>2021-01-18T17:12:36Z</time>
      </trkpt>
      <trkpt lat="47.25845" lon="0.29234">
        <ele>35</ele>
        <time>2021-01-18T17:12:36Z</time>
      </trkpt>
      <trkpt lat="47.25845" lon="0.29218">
        <ele>35</ele>
        <time>2021-01-18T17:12:36Z</time>
      </trkpt>
      <trkpt lat="47.25857" lon="0.29164">
        <ele>35</ele>
        <time>2021-01-18T17:12:36Z</time>
      </trkpt>
      <trkpt lat="47.25854" lon="0.29043">
        <ele>35</ele>
        <time>2021-01-18T17:12:36Z</time>
      </trkpt>
      <trkpt lat="47.25849" lon="0.29027">
        <ele>35</ele>
        <time>2021-01-18T17:12:36Z</time>
      </trkpt>
      <trkpt lat="47.25827" lon="0.2901">
        <ele>35</ele>
        <time>2021-01-18T17:12:36Z</time>
      </trkpt>
      <trkpt lat="47.25825" lon="0.29">
        <ele>35</ele>
        <time>2021-01-18T17:12:36Z</time>
      </trkpt>
      <trkpt lat="47.25825" lon="0.29">
        <ele>35</ele>
        <time>2021-01-18T17:12:36Z</time>
      </trkpt>
      <trkpt lat="47.25821" lon="0.28958">
        <ele>35</ele>
        <time>2021-01-18T17:12:36Z</time>
      </trkpt>
      <trkpt lat="47.25814" lon="0.28943">
        <ele>35</ele>
        <time>2021-01-18T17:12:36Z</time>
      </trkpt>
      <trkpt lat="47.2574" lon="0.28895">
        <ele>35.2</ele>
        <time>2021-01-18T17:12:36Z</time>
      </trkpt>
      <trkpt lat="47.2574" lon="0.28895">
        <ele>35.2</ele>
        <time>2021-01-18T17:12:36Z</time>
      </trkpt>
      <trkpt lat="47.25732" lon="0.28884">
        <ele>34.9</ele>
        <time>2021-01-18T17:12:36Z</time>
      </trkpt>
      <trkpt lat="47.25604" lon="0.28925">
        <ele>35.8</ele>
        <time>2021-01-18T17:12:36Z</time>
      </trkpt>
      <trkpt lat="47.256" lon="0.28917">
        <ele>36</ele>
        <time>2021-01-18T17:12:36Z</time>
      </trkpt>
      <trkpt lat="47.25579" lon="0.2892">
        <ele>36</ele>
        <time>2021-01-18T17:12:36Z</time>
      </trkpt>
      <trkpt lat="47.25579" lon="0.2892">
        <ele>36</ele>
        <time>2021-01-18T17:12:36Z</time>
      </trkpt>
      <trkpt lat="47.25562" lon="0.28925">
        <ele>36</ele>
        <time>2021-01-18T17:12:36Z</time>
      </trkpt>
      <trkpt lat="47.25554" lon="0.28915">
        <ele>35.9</ele>
        <time>2021-01-18T17:12:36Z</time>
      </trkpt>
      <trkpt lat="47.25529" lon="0.28763">
        <ele>35.5</ele>
        <time>2021-01-18T17:12:36Z</time>
      </trkpt>
      <trkpt lat="47.25518" lon="0.2874">
        <ele>35</ele>
        <time>2021-01-18T17:12:36Z</time>
      </trkpt>
      <trkpt lat="47.25492" lon="0.28707">
        <ele>34.4</ele>
        <time>2021-01-18T17:12:36Z</time>
      </trkpt>
      <trkpt lat="47.25486" lon="0.28692">
        <ele>34</ele>
        <time>2021-01-18T17:12:36Z</time>
      </trkpt>
      <trkpt lat="47.25469" lon="0.28581">
        <ele>35.7</ele>
        <time>2021-01-18T17:12:36Z</time>
      </trkpt>
      <trkpt lat="47.25466" lon="0.28535">
        <ele>35.4</ele>
        <time>2021-01-18T17:12:36Z</time>
      </trkpt>
      <trkpt lat="47.25458" lon="0.28497">
        <ele>34</ele>
        <time>2021-01-18T17:12:36Z</time>
      </trkpt>
      <trkpt lat="47.25449" lon="0.28471">
        <ele>34.3</ele>
        <time>2021-01-18T17:12:36Z</time>
      </trkpt>
      <trkpt lat="47.25432" lon="0.2839">
        <ele>34.1</ele>
        <time>2021-01-18T17:12:36Z</time>
      </trkpt>
      <trkpt lat="47.25432" lon="0.2839">
        <ele>34.1</ele>
        <time>2021-01-18T17:12:36Z</time>
      </trkpt>
      <trkpt lat="47.25428" lon="0.28372">
        <ele>34.2</ele>
        <time>2021-01-18T17:12:36Z</time>
      </trkpt>
      <trkpt lat="47.2543" lon="0.2836">
        <ele>34.5</ele>
        <time>2021-01-18T17:12:36Z</time>
      </trkpt>
      <trkpt lat="47.25436" lon="0.28354">
        <ele>34.8</ele>
        <time>2021-01-18T17:12:36Z</time>
      </trkpt>
      <trkpt lat="47.25723" lon="0.28258">
        <ele>35</ele>
        <time>2021-01-18T17:12:36Z</time>
      </trkpt>
      <trkpt lat="47.25732" lon="0.28258">
        <ele>35</ele>
        <time>2021-01-18T17:12:36Z</time>
      </trkpt>
      <trkpt lat="47.25739" lon="0.28261">
        <ele>35</ele>
        <time>2021-01-18T17:12:36Z</time>
      </trkpt>
      <trkpt lat="47.25759" lon="0.2828">
        <ele>34.7</ele>
        <time>2021-01-18T17:12:36Z</time>
      </trkpt>
      <trkpt lat="47.25766" lon="0.28284">
        <ele>34.4</ele>
        <time>2021-01-18T17:12:36Z</time>
      </trkpt>
      <trkpt lat="47.25886" lon="0.28268">
        <ele>35.3</ele>
        <time>2021-01-18T17:12:36Z</time>
      </trkpt>
      <trkpt lat="47.25886" lon="0.28268">
        <ele>35.3</ele>
        <time>2021-01-18T17:12:36Z</time>
      </trkpt>
      <trkpt lat="47.25686" lon="0.27902">
        <ele>35</ele>
        <time>2021-01-18T17:12:36Z</time>
      </trkpt>
      <trkpt lat="47.25647" lon="0.27755">
        <ele>34.9</ele>
        <time>2021-01-18T17:12:36Z</time>
      </trkpt>
      <trkpt lat="47.25647" lon="0.27755">
        <ele>34.9</ele>
        <time>2021-01-18T17:12:36Z</time>
      </trkpt>
      <trkpt lat="47.25579" lon="0.27439">
        <ele>34.9</ele>
        <time>2021-01-18T17:12:36Z</time>
      </trkpt>
      <trkpt lat="47.25574" lon="0.27427">
        <ele>34.9</ele>
        <time>2021-01-18T17:12:36Z</time>
      </trkpt>
      <trkpt lat="47.25574" lon="0.27427">
        <ele>34.9</ele>
        <time>2021-01-18T17:12:36Z</time>
      </trkpt>
      <trkpt lat="47.25565" lon="0.2741">
        <ele>35</ele>
        <time>2021-01-18T17:12:36Z</time>
      </trkpt>
      <trkpt lat="47.25665" lon="0.27296">
        <ele>35.9</ele>
        <time>2021-01-18T17:12:36Z</time>
      </trkpt>
      <trkpt lat="47.25683" lon="0.27264">
        <ele>36.6</ele>
        <time>2021-01-18T17:12:36Z</time>
      </trkpt>
      <trkpt lat="47.25708" lon="0.2726">
        <ele>36.8</ele>
        <time>2021-01-18T17:12:36Z</time>
      </trkpt>
      <trkpt lat="47.25718" lon="0.27256">
        <ele>36.8</ele>
        <time>2021-01-18T17:12:36Z</time>
      </trkpt>
      <trkpt lat="47.25729" lon="0.27249">
        <ele>37</ele>
        <time>2021-01-18T17:12:36Z</time>
      </trkpt>
      <trkpt lat="47.25729" lon="0.27249">
        <ele>37</ele>
        <time>2021-01-18T17:12:36Z</time>
      </trkpt>
      <trkpt lat="47.25708" lon="0.2726">
        <ele>36.8</ele>
        <time>2021-01-18T17:12:36Z</time>
      </trkpt>
      <trkpt lat="47.25683" lon="0.27264">
        <ele>36.6</ele>
        <time>2021-01-18T17:12:36Z</time>
      </trkpt>
      <trkpt lat="47.25588" lon="0.27169">
        <ele>35.8</ele>
        <time>2021-01-18T17:12:36Z</time>
      </trkpt>
      <trkpt lat="47.25576" lon="0.27149">
        <ele>36.4</ele>
        <time>2021-01-18T17:12:36Z</time>
      </trkpt>
      <trkpt lat="47.25543" lon="0.27025">
        <ele>36</ele>
        <time>2021-01-18T17:12:36Z</time>
      </trkpt>
      <trkpt lat="47.25513" lon="0.26734">
        <ele>35.3</ele>
        <time>2021-01-18T17:12:36Z</time>
      </trkpt>
      <trkpt lat="47.25516" lon="0.26504">
        <ele>34.6</ele>
        <time>2021-01-18T17:12:36Z</time>
      </trkpt>
      <trkpt lat="47.2551" lon="0.26492">
        <ele>34.6</ele>
        <time>2021-01-18T17:12:36Z</time>
      </trkpt>
      <trkpt lat="47.25517" lon="0.26487">
        <ele>34.8</ele>
        <time>2021-01-18T17:12:36Z</time>
      </trkpt>
      <trkpt lat="47.25651" lon="0.26453">
        <ele>36.6</ele>
        <time>2021-01-18T17:12:36Z</time>
      </trkpt>
      <trkpt lat="47.25651" lon="0.26453">
        <ele>36.6</ele>
        <time>2021-01-18T17:12:36Z</time>
      </trkpt>
      <trkpt lat="47.25661" lon="0.26448">
        <ele>37.4</ele>
        <time>2021-01-18T17:12:36Z</time>
      </trkpt>
      <trkpt lat="47.25668" lon="0.26441">
        <ele>37.6</ele>
        <time>2021-01-18T17:12:36Z</time>
      </trkpt>
      <trkpt lat="47.25483" lon="0.25776">
        <ele>36.1</ele>
        <time>2021-01-18T17:12:36Z</time>
      </trkpt>
      <trkpt lat="47.25298" lon="0.25361">
        <ele>36.7</ele>
        <time>2021-01-18T17:12:36Z</time>
      </trkpt>
      <trkpt lat="47.24873" lon="0.24581">
        <ele>36</ele>
        <time>2021-01-18T17:12:36Z</time>
      </trkpt>
      <trkpt lat="47.24877" lon="0.24565">
        <ele>35.5</ele>
        <time>2021-01-18T17:12:36Z</time>
      </trkpt>
      <trkpt lat="47.24877" lon="0.24565">
        <ele>35.5</ele>
        <time>2021-01-18T17:12:36Z</time>
      </trkpt>
      <trkpt lat="47.24873" lon="0.24581">
        <ele>36</ele>
        <time>2021-01-18T17:12:36Z</time>
      </trkpt>
      <trkpt lat="47.24865" lon="0.24572">
        <ele>36.2</ele>
        <time>2021-01-18T17:12:36Z</time>
      </trkpt>
      <trkpt lat="47.24856" lon="0.24571">
        <ele>36.3</ele>
        <time>2021-01-18T17:12:36Z</time>
      </trkpt>
      <trkpt lat="47.24765" lon="0.24647">
        <ele>35</ele>
        <time>2021-01-18T17:12:36Z</time>
      </trkpt>
      <trkpt lat="47.24487" lon="0.24785">
        <ele>33.9</ele>
        <time>2021-01-18T17:12:36Z</time>
      </trkpt>
      <trkpt lat="47.24205" lon="0.24695">
        <ele>35.6</ele>
        <time>2021-01-18T17:12:36Z</time>
      </trkpt>
      <trkpt lat="47.24184" lon="0.24696">
        <ele>35.2</ele>
        <time>2021-01-18T17:12:36Z</time>
      </trkpt>
      <trkpt lat="47.24119" lon="0.24728">
        <ele>36.3</ele>
        <time>2021-01-18T17:12:36Z</time>
      </trkpt>
      <trkpt lat="47.24119" lon="0.24728">
        <ele>36.3</ele>
        <time>2021-01-18T17:12:36Z</time>
      </trkpt>
      <trkpt lat="47.24109" lon="0.24731">
        <ele>36.3</ele>
        <time>2021-01-18T17:12:36Z</time>
      </trkpt>
      <trkpt lat="47.24112" lon="0.24719">
        <ele>36.7</ele>
        <time>2021-01-18T17:12:36Z</time>
      </trkpt>
      <trkpt lat="47.24113" lon="0.24706">
        <ele>35.7</ele>
        <time>2021-01-18T17:12:36Z</time>
      </trkpt>
      <trkpt lat="47.24074" lon="0.24397">
        <ele>34.7</ele>
        <time>2021-01-18T17:12:36Z</time>
      </trkpt>
      <trkpt lat="47.23977" lon="0.24074">
        <ele>34.6</ele>
        <time>2021-01-18T17:12:36Z</time>
      </trkpt>
      <trkpt lat="47.23971" lon="0.24066">
        <ele>34.4</ele>
        <time>2021-01-18T17:12:36Z</time>
      </trkpt>
      <trkpt lat="47.23892" lon="0.24046">
        <ele>35.9</ele>
        <time>2021-01-18T17:12:36Z</time>
      </trkpt>
      <trkpt lat="47.23892" lon="0.24046">
        <ele>35.9</ele>
        <time>2021-01-18T17:12:36Z</time>
      </trkpt>
      <trkpt lat="47.23893" lon="0.24033">
        <ele>35.8</ele>
        <time>2021-01-18T17:12:36Z</time>
      </trkpt>
      <trkpt lat="47.23735" lon="0.23452">
        <ele>35.2</ele>
        <time>2021-01-18T17:12:36Z</time>
      </trkpt>
      <trkpt lat="47.23712" lon="0.23286">
        <ele>34.8</ele>
        <time>2021-01-18T17:12:36Z</time>
      </trkpt>
      <trkpt lat="47.23714" lon="0.23274">
        <ele>34.6</ele>
        <time>2021-01-18T17:12:36Z</time>
      </trkpt>
      <trkpt lat="47.23692" lon="0.2302">
        <ele>34.2</ele>
        <time>2021-01-18T17:12:36Z</time>
      </trkpt>
      <trkpt lat="47.23679" lon="0.22967">
        <ele>34.8</ele>
        <time>2021-01-18T17:12:36Z</time>
      </trkpt>
      <trkpt lat="47.23665" lon="0.22917">
        <ele>35.1</ele>
        <time>2021-01-18T17:12:36Z</time>
      </trkpt>
      <trkpt lat="47.23656" lon="0.22867">
        <ele>34.8</ele>
        <time>2021-01-18T17:12:36Z</time>
      </trkpt>
      <trkpt lat="47.23644" lon="0.22823">
        <ele>35.6</ele>
        <time>2021-01-18T17:12:36Z</time>
      </trkpt>
      <trkpt lat="47.23573" lon="0.22418">
        <ele>33.2</ele>
        <time>2021-01-18T17:12:36Z</time>
      </trkpt>
      <trkpt lat="47.23562" lon="0.22387">
        <ele>34</ele>
        <time>2021-01-18T17:12:36Z</time>
      </trkpt>
      <trkpt lat="47.23528" lon="0.22303">
        <ele>33.9</ele>
        <time>2021-01-18T17:12:36Z</time>
      </trkpt>
      <trkpt lat="47.23528" lon="0.22303">
        <ele>33.9</ele>
        <time>2021-01-18T17:12:36Z</time>
      </trkpt>
      <trkpt lat="47.2352" lon="0.22283">
        <ele>32.9</ele>
        <time>2021-01-18T17:12:36Z</time>
      </trkpt>
      <trkpt lat="47.23499" lon="0.22276">
        <ele>32.2</ele>
        <time>2021-01-18T17:12:36Z</time>
      </trkpt>
      <trkpt lat="47.23477" lon="0.22276">
        <ele>34.5</ele>
        <time>2021-01-18T17:12:36Z</time>
      </trkpt>
      <trkpt lat="47.23474" lon="0.22312">
        <ele>35.2</ele>
        <time>2021-01-18T17:12:36Z</time>
      </trkpt>
      <trkpt lat="47.23296" lon="0.22383">
        <ele>34.3</ele>
        <time>2021-01-18T17:12:36Z</time>
      </trkpt>
      <trkpt lat="47.23249" lon="0.22425">
        <ele>33.9</ele>
        <time>2021-01-18T17:12:36Z</time>
      </trkpt>
      <trkpt lat="47.23187" lon="0.22433">
        <ele>34</ele>
        <time>2021-01-18T17:12:36Z</time>
      </trkpt>
      <trkpt lat="47.22979" lon="0.226">
        <ele>33.8</ele>
        <time>2021-01-18T17:12:36Z</time>
      </trkpt>
      <trkpt lat="47.22932" lon="0.2266">
        <ele>34</ele>
        <time>2021-01-18T17:12:36Z</time>
      </trkpt>
      <trkpt lat="47.22923" lon="0.2269">
        <ele>34.2</ele>
        <time>2021-01-18T17:12:36Z</time>
      </trkpt>
      <trkpt lat="47.22915" lon="0.22687">
        <ele>34</ele>
        <time>2021-01-18T17:12:36Z</time>
      </trkpt>
      <trkpt lat="47.22896" lon="0.22638">
        <ele>34</ele>
        <time>2021-01-18T17:12:36Z</time>
      </trkpt>
      <trkpt lat="47.22885" lon="0.22631">
        <ele>33.7</ele>
        <time>2021-01-18T17:12:36Z</time>
      </trkpt>
      <trkpt lat="47.2287" lon="0.2263">
        <ele>33.7</ele>
        <time>2021-01-18T17:12:36Z</time>
      </trkpt>
      <trkpt lat="47.22862" lon="0.22633">
        <ele>33.8</ele>
        <time>2021-01-18T17:12:36Z</time>
      </trkpt>
      <trkpt lat="47.2282" lon="0.22667">
        <ele>33.5</ele>
        <time>2021-01-18T17:12:36Z</time>
      </trkpt>
      <trkpt lat="47.22803" lon="0.22671">
        <ele>33.3</ele>
        <time>2021-01-18T17:12:36Z</time>
      </trkpt>
      <trkpt lat="47.22764" lon="0.22671">
        <ele>33.2</ele>
        <time>2021-01-18T17:12:36Z</time>
      </trkpt>
      <trkpt lat="47.22755" lon="0.22674">
        <ele>33.3</ele>
        <time>2021-01-18T17:12:36Z</time>
      </trkpt>
      <trkpt lat="47.22741" lon="0.22685">
        <ele>33.4</ele>
        <time>2021-01-18T17:12:36Z</time>
      </trkpt>
      <trkpt lat="47.22741" lon="0.22685">
        <ele>33.4</ele>
        <time>2021-01-18T17:12:36Z</time>
      </trkpt>
      <trkpt lat="47.22732" lon="0.22695">
        <ele>33.4</ele>
        <time>2021-01-18T17:12:36Z</time>
      </trkpt>
      <trkpt lat="47.22709" lon="0.22737">
        <ele>34.3</ele>
        <time>2021-01-18T17:12:36Z</time>
      </trkpt>
      <trkpt lat="47.22697" lon="0.22744">
        <ele>34.1</ele>
        <time>2021-01-18T17:12:36Z</time>
      </trkpt>
      <trkpt lat="47.22671" lon="0.22742">
        <ele>34</ele>
        <time>2021-01-18T17:12:36Z</time>
      </trkpt>
      <trkpt lat="47.22656" lon="0.2275">
        <ele>34</ele>
        <time>2021-01-18T17:12:36Z</time>
      </trkpt>
      <trkpt lat="47.22642" lon="0.22759">
        <ele>34.3</ele>
        <time>2021-01-18T17:12:36Z</time>
      </trkpt>
      <trkpt lat="47.22639" lon="0.22771">
        <ele>34.8</ele>
        <time>2021-01-18T17:12:36Z</time>
      </trkpt>
      <trkpt lat="47.22657" lon="0.22845">
        <ele>36</ele>
        <time>2021-01-18T17:12:36Z</time>
      </trkpt>
      <trkpt lat="47.22657" lon="0.22869">
        <ele>36.1</ele>
        <time>2021-01-18T17:12:36Z</time>
      </trkpt>
      <trkpt lat="47.22652" lon="0.22894">
        <ele>36.5</ele>
        <time>2021-01-18T17:12:36Z</time>
      </trkpt>
      <trkpt lat="47.22625" lon="0.22948">
        <ele>37</ele>
        <time>2021-01-18T17:12:36Z</time>
      </trkpt>
      <trkpt lat="47.22576" lon="0.22997">
        <ele>37</ele>
        <time>2021-01-18T17:12:36Z</time>
      </trkpt>
      <trkpt lat="47.22572" lon="0.23012">
        <ele>37</ele>
        <time>2021-01-18T17:12:36Z</time>
      </trkpt>
      <trkpt lat="47.22574" lon="0.23049">
        <ele>37</ele>
        <time>2021-01-18T17:12:36Z</time>
      </trkpt>
      <trkpt lat="47.22571" lon="0.23065">
        <ele>37</ele>
        <time>2021-01-18T17:12:36Z</time>
      </trkpt>
      <trkpt lat="47.22531" lon="0.23112">
        <ele>38</ele>
        <time>2021-01-18T17:12:36Z</time>
      </trkpt>
      <trkpt lat="47.22527" lon="0.23122">
        <ele>38</ele>
        <time>2021-01-18T17:12:36Z</time>
      </trkpt>
      <trkpt lat="47.22524" lon="0.23134">
        <ele>38</ele>
        <time>2021-01-18T17:12:36Z</time>
      </trkpt>
      <trkpt lat="47.22472" lon="0.23166">
        <ele>39</ele>
        <time>2021-01-18T17:12:36Z</time>
      </trkpt>
      <trkpt lat="47.22465" lon="0.23175">
        <ele>39.8</ele>
        <time>2021-01-18T17:12:36Z</time>
      </trkpt>
      <trkpt lat="47.22455" lon="0.23162">
        <ele>40.1</ele>
        <time>2021-01-18T17:12:36Z</time>
      </trkpt>
      <trkpt lat="47.22455" lon="0.23162">
        <ele>40.1</ele>
        <time>2021-01-18T17:12:36Z</time>
      </trkpt>
      <trkpt lat="47.22333" lon="0.22991">
        <ele>37.7</ele>
        <time>2021-01-18T17:12:36Z</time>
      </trkpt>
      <trkpt lat="47.22293" lon="0.22954">
        <ele>36</ele>
        <time>2021-01-18T17:12:36Z</time>
      </trkpt>
      <trkpt lat="47.22241" lon="0.22869">
        <ele>35.5</ele>
        <time>2021-01-18T17:12:36Z</time>
      </trkpt>
      <trkpt lat="47.22193" lon="0.22784">
        <ele>36.8</ele>
        <time>2021-01-18T17:12:36Z</time>
      </trkpt>
      <trkpt lat="47.22193" lon="0.22784">
        <ele>36.8</ele>
        <time>2021-01-18T17:12:36Z</time>
      </trkpt>
      <trkpt lat="47.22174" lon="0.2275">
        <ele>37.8</ele>
        <time>2021-01-18T17:12:36Z</time>
      </trkpt>
      <trkpt lat="47.22096" lon="0.22654">
        <ele>39</ele>
        <time>2021-01-18T17:12:36Z</time>
      </trkpt>
      <trkpt lat="47.22105" lon="0.2263">
        <ele>39</ele>
        <time>2021-01-18T17:12:36Z</time>
      </trkpt>
      <trkpt lat="47.2204" lon="0.22518">
        <ele>39.4</ele>
        <time>2021-01-18T17:12:36Z</time>
      </trkpt>
      <trkpt lat="47.22" lon="0.22465">
        <ele>39.3</ele>
        <time>2021-01-18T17:12:36Z</time>
      </trkpt>
      <trkpt lat="47.21926" lon="0.22326">
        <ele>39.1</ele>
        <time>2021-01-18T17:12:36Z</time>
      </trkpt>
      <trkpt lat="47.2192" lon="0.22318">
        <ele>39.1</ele>
        <time>2021-01-18T17:12:36Z</time>
      </trkpt>
      <trkpt lat="47.21903" lon="0.22274">
        <ele>39</ele>
        <time>2021-01-18T17:12:36Z</time>
      </trkpt>
      <trkpt lat="47.21855" lon="0.2208">
        <ele>39.2</ele>
        <time>2021-01-18T17:12:36Z</time>
      </trkpt>
      <trkpt lat="47.21855" lon="0.2208">
        <ele>39.2</ele>
        <time>2021-01-18T17:12:36Z</time>
      </trkpt>
      <trkpt lat="47.21851" lon="0.22048">
        <ele>39.4</ele>
        <time>2021-01-18T17:12:36Z</time>
      </trkpt>
      <trkpt lat="47.21848" lon="0.21945">
        <ele>39.5</ele>
        <time>2021-01-18T17:12:36Z</time>
      </trkpt>
      <trkpt lat="47.21841" lon="0.21925">
        <ele>39.7</ele>
        <time>2021-01-18T17:12:36Z</time>
      </trkpt>
      <trkpt lat="47.21821" lon="0.21883">
        <ele>39.9</ele>
        <time>2021-01-18T17:12:36Z</time>
      </trkpt>
      <trkpt lat="47.21808" lon="0.21812">
        <ele>39.9</ele>
        <time>2021-01-18T17:12:36Z</time>
      </trkpt>
      <trkpt lat="47.21753" lon="0.20712">
        <ele>38</ele>
        <time>2021-01-18T17:12:36Z</time>
      </trkpt>
      <trkpt lat="47.21671" lon="0.20365">
        <ele>37.9</ele>
        <time>2021-01-18T17:12:36Z</time>
      </trkpt>
      <trkpt lat="47.2167" lon="0.20329">
        <ele>37.1</ele>
        <time>2021-01-18T17:12:36Z</time>
      </trkpt>
      <trkpt lat="47.21687" lon="0.20246">
        <ele>37.9</ele>
        <time>2021-01-18T17:12:36Z</time>
      </trkpt>
      <trkpt lat="47.21739" lon="0.20019">
        <ele>37.7</ele>
        <time>2021-01-18T17:12:36Z</time>
      </trkpt>
      <trkpt lat="47.21741" lon="0.19934">
        <ele>37</ele>
        <time>2021-01-18T17:12:36Z</time>
      </trkpt>
      <trkpt lat="47.21741" lon="0.19934">
        <ele>37</ele>
        <time>2021-01-18T17:12:36Z</time>
      </trkpt>
      <trkpt lat="47.21731" lon="0.19929">
        <ele>37</ele>
        <time>2021-01-18T17:12:36Z</time>
      </trkpt>
      <trkpt lat="47.21389" lon="0.19996">
        <ele>36</ele>
        <time>2021-01-18T17:12:36Z</time>
      </trkpt>
      <trkpt lat="47.2136" lon="0.19992">
        <ele>36</ele>
        <time>2021-01-18T17:12:36Z</time>
      </trkpt>
      <trkpt lat="47.21283" lon="0.19961">
        <ele>36</ele>
        <time>2021-01-18T17:12:36Z</time>
      </trkpt>
      <trkpt lat="47.21199" lon="0.19952">
        <ele>35</ele>
        <time>2021-01-18T17:12:36Z</time>
      </trkpt>
      <trkpt lat="47.21205" lon="0.19942">
        <ele>35.1</ele>
        <time>2021-01-18T17:12:36Z</time>
      </trkpt>
      <trkpt lat="47.21206" lon="0.19925">
        <ele>35.4</ele>
        <time>2021-01-18T17:12:36Z</time>
      </trkpt>
      <trkpt lat="47.21187" lon="0.1982">
        <ele>35</ele>
        <time>2021-01-18T17:12:36Z</time>
      </trkpt>
      <trkpt lat="47.21135" lon="0.19643">
        <ele>35</ele>
        <time>2021-01-18T17:12:36Z</time>
      </trkpt>
      <trkpt lat="47.21132" lon="0.19601">
        <ele>35</ele>
        <time>2021-01-18T17:12:36Z</time>
      </trkpt>
      <trkpt lat="47.2112" lon="0.19595">
        <ele>35</ele>
        <time>2021-01-18T17:12:36Z</time>
      </trkpt>
      <trkpt lat="47.2112" lon="0.19595">
        <ele>35</ele>
        <time>2021-01-18T17:12:36Z</time>
      </trkpt>
      <trkpt lat="47.21037" lon="0.19589">
        <ele>35</ele>
        <time>2021-01-18T17:12:36Z</time>
      </trkpt>
      <trkpt lat="47.20834" lon="0.19607">
        <ele>35</ele>
        <time>2021-01-18T17:12:36Z</time>
      </trkpt>
      <trkpt lat="47.20827" lon="0.19623">
        <ele>35</ele>
        <time>2021-01-18T17:12:36Z</time>
      </trkpt>
      <trkpt lat="47.20825" lon="0.19634">
        <ele>35</ele>
        <time>2021-01-18T17:12:36Z</time>
      </trkpt>
      <trkpt lat="47.20817" lon="0.19644">
        <ele>35</ele>
        <time>2021-01-18T17:12:36Z</time>
      </trkpt>
      <trkpt lat="47.20717" lon="0.19658">
        <ele>37.3</ele>
        <time>2021-01-18T17:12:36Z</time>
      </trkpt>
      <trkpt lat="47.2071" lon="0.19658">
        <ele>37.8</ele>
        <time>2021-01-18T17:12:36Z</time>
      </trkpt>
      <trkpt lat="47.20701" lon="0.19655">
        <ele>38.2</ele>
        <time>2021-01-18T17:12:36Z</time>
      </trkpt>
      <trkpt lat="47.20631" lon="0.19669">
        <ele>41.6</ele>
        <time>2021-01-18T17:12:36Z</time>
      </trkpt>
      <trkpt lat="47.20617" lon="0.19558">
        <ele>41.6</ele>
        <time>2021-01-18T17:12:36Z</time>
      </trkpt>
      <trkpt lat="47.20559" lon="0.1956">
        <ele>46.6</ele>
        <time>2021-01-18T17:12:36Z</time>
      </trkpt>
      <trkpt lat="47.20549" lon="0.19563">
        <ele>47.7</ele>
        <time>2021-01-18T17:12:36Z</time>
      </trkpt>
      <trkpt lat="47.20543" lon="0.19576">
        <ele>48.4</ele>
        <time>2021-01-18T17:12:36Z</time>
      </trkpt>
      <trkpt lat="47.20534" lon="0.19581">
        <ele>49.3</ele>
        <time>2021-01-18T17:12:36Z</time>
      </trkpt>
      <trkpt lat="47.20463" lon="0.19571">
        <ele>56.7</ele>
        <time>2021-01-18T17:12:36Z</time>
      </trkpt>
      <trkpt lat="47.20451" lon="0.19576">
        <ele>57.5</ele>
        <time>2021-01-18T17:12:36Z</time>
      </trkpt>
      <trkpt lat="47.20441" lon="0.19584">
        <ele>58.1</ele>
        <time>2021-01-18T17:12:36Z</time>
      </trkpt>
      <trkpt lat="47.20383" lon="0.1957">
        <ele>60.2</ele>
        <time>2021-01-18T17:12:36Z</time>
      </trkpt>
      <trkpt lat="47.20383" lon="0.1957">
        <ele>60.2</ele>
        <time>2021-01-18T17:12:36Z</time>
      </trkpt>
      <trkpt lat="47.20363" lon="0.19562">
        <ele>60.9</ele>
        <time>2021-01-18T17:12:36Z</time>
      </trkpt>
      <trkpt lat="47.2036" lon="0.19907">
        <ele>59</ele>
        <time>2021-01-18T17:12:36Z</time>
      </trkpt>
      <trkpt lat="47.20372" lon="0.20228">
        <ele>56.3</ele>
        <time>2021-01-18T17:12:36Z</time>
      </trkpt>
      <trkpt lat="47.20368" lon="0.20345">
        <ele>56.1</ele>
        <time>2021-01-18T17:12:36Z</time>
      </trkpt>
      <trkpt lat="47.20366" lon="0.20355">
        <ele>56.5</ele>
        <time>2021-01-18T17:12:36Z</time>
      </trkpt>
      <trkpt lat="47.20323" lon="0.20351">
        <ele>57.8</ele>
        <time>2021-01-18T17:12:36Z</time>
      </trkpt>
      <trkpt lat="47.20313" lon="0.20356">
        <ele>57.9</ele>
        <time>2021-01-18T17:12:36Z</time>
      </trkpt>
      <trkpt lat="47.20311" lon="0.20457">
        <ele>58.9</ele>
        <time>2021-01-18T17:12:36Z</time>
      </trkpt>
      <trkpt lat="47.2032" lon="0.20466">
        <ele>58.9</ele>
        <time>2021-01-18T17:12:36Z</time>
      </trkpt>
      <trkpt lat="47.20359" lon="0.20449">
        <ele>58</ele>
        <time>2021-01-18T17:12:36Z</time>
      </trkpt>
      <trkpt lat="47.20359" lon="0.20449">
        <ele>58</ele>
        <time>2021-01-18T17:12:36Z</time>
      </trkpt>
      <trkpt lat="47.2033" lon="0.20462">
        <ele>58.7</ele>
        <time>2021-01-18T17:12:36Z</time>
      </trkpt>
      <trkpt lat="47.20324" lon="0.20471">
        <ele>59</ele>
        <time>2021-01-18T17:12:36Z</time>
      </trkpt>
      <trkpt lat="47.20298" lon="0.20448">
        <ele>58.7</ele>
        <time>2021-01-18T17:12:36Z</time>
      </trkpt>
      <trkpt lat="47.20266" lon="0.20438">
        <ele>58</ele>
        <time>2021-01-18T17:12:36Z</time>
      </trkpt>
      <trkpt lat="47.20095" lon="0.20432">
        <ele>52</ele>
        <time>2021-01-18T17:12:36Z</time>
      </trkpt>
      <trkpt lat="47.19731" lon="0.20544">
        <ele>48</ele>
        <time>2021-01-18T17:12:36Z</time>
      </trkpt>
      <trkpt lat="47.19722" lon="0.20542">
        <ele>48.5</ele>
        <time>2021-01-18T17:12:36Z</time>
      </trkpt>
      <trkpt lat="47.19715" lon="0.20531">
        <ele>49.4</ele>
        <time>2021-01-18T17:12:36Z</time>
      </trkpt>
      <trkpt lat="47.19715" lon="0.20531">
        <ele>49.4</ele>
        <time>2021-01-18T17:12:36Z</time>
      </trkpt>
      <trkpt lat="47.19722" lon="0.20542">
        <ele>48.5</ele>
        <time>2021-01-18T17:12:36Z</time>
      </trkpt>
      <trkpt lat="47.19665" lon="0.2056">
        <ele>52.8</ele>
        <time>2021-01-18T17:12:36Z</time>
      </trkpt>
      <trkpt lat="47.19658" lon="0.20558">
        <ele>53.5</ele>
        <time>2021-01-18T17:12:36Z</time>
      </trkpt>
      <trkpt lat="47.19483" lon="0.20591">
        <ele>69</ele>
        <time>2021-01-18T17:12:36Z</time>
      </trkpt>
      <trkpt lat="47.19475" lon="0.20588">
        <ele>70.5</ele>
        <time>2021-01-18T17:12:36Z</time>
      </trkpt>
      <trkpt lat="47.19466" lon="0.20581">
        <ele>71.9</ele>
        <time>2021-01-18T17:12:36Z</time>
      </trkpt>
      <trkpt lat="47.19388" lon="0.20569">
        <ele>79</ele>
        <time>2021-01-18T17:12:36Z</time>
      </trkpt>
      <trkpt lat="47.19388" lon="0.20569">
        <ele>79</ele>
        <time>2021-01-18T17:12:36Z</time>
      </trkpt>
      <trkpt lat="47.19126" lon="0.20485">
        <ele>77</ele>
        <time>2021-01-18T17:12:36Z</time>
      </trkpt>
      <trkpt lat="47.19126" lon="0.20468">
        <ele>77</ele>
        <time>2021-01-18T17:12:36Z</time>
      </trkpt>
      <trkpt lat="47.18843" lon="0.20351">
        <ele>71.3</ele>
        <time>2021-01-18T17:12:36Z</time>
      </trkpt>
      <trkpt lat="47.18846" lon="0.20338">
        <ele>71.4</ele>
        <time>2021-01-18T17:12:36Z</time>
      </trkpt>
      <trkpt lat="47.18846" lon="0.20338">
        <ele>71.4</ele>
        <time>2021-01-18T17:12:36Z</time>
      </trkpt>
      <trkpt lat="47.18843" lon="0.20351">
        <ele>71.3</ele>
        <time>2021-01-18T17:12:36Z</time>
      </trkpt>
      <trkpt lat="47.18835" lon="0.20351">
        <ele>71.1</ele>
        <time>2021-01-18T17:12:36Z</time>
      </trkpt>
      <trkpt lat="47.18795" lon="0.20287">
        <ele>71</ele>
        <time>2021-01-18T17:12:36Z</time>
      </trkpt>
      <trkpt lat="47.18546" lon="0.19364">
        <ele>79</ele>
        <time>2021-01-18T17:12:36Z</time>
      </trkpt>
      <trkpt lat="47.18521" lon="0.19316">
        <ele>79</ele>
        <time>2021-01-18T17:12:36Z</time>
      </trkpt>
      <trkpt lat="47.1839" lon="0.19122">
        <ele>70.4</ele>
        <time>2021-01-18T17:12:36Z</time>
      </trkpt>
      <trkpt lat="47.18373" lon="0.19085">
        <ele>69.1</ele>
        <time>2021-01-18T17:12:36Z</time>
      </trkpt>
      <trkpt lat="47.18373" lon="0.19085">
        <ele>69.1</ele>
        <time>2021-01-18T17:12:36Z</time>
      </trkpt>
      <trkpt lat="47.18343" lon="0.19029">
        <ele>66.6</ele>
        <time>2021-01-18T17:12:36Z</time>
      </trkpt>
      <trkpt lat="47.18405" lon="0.18953">
        <ele>67.8</ele>
        <time>2021-01-18T17:12:36Z</time>
      </trkpt>
      <trkpt lat="47.18597" lon="0.18842">
        <ele>60.5</ele>
        <time>2021-01-18T17:12:36Z</time>
      </trkpt>
      <trkpt lat="47.18595" lon="0.18866">
        <ele>60.6</ele>
        <time>2021-01-18T17:12:36Z</time>
      </trkpt>
      <trkpt lat="47.18595" lon="0.18866">
        <ele>60.6</ele>
        <time>2021-01-18T17:12:36Z</time>
      </trkpt>
      <trkpt lat="47.18597" lon="0.18842">
        <ele>60.5</ele>
        <time>2021-01-18T17:12:36Z</time>
      </trkpt>
      <trkpt lat="47.18615" lon="0.18833">
        <ele>60.8</ele>
        <time>2021-01-18T17:12:36Z</time>
      </trkpt>
      <trkpt lat="47.18571" lon="0.18805">
        <ele>60</ele>
        <time>2021-01-18T17:12:36Z</time>
      </trkpt>
      <trkpt lat="47.18447" lon="0.18755">
        <ele>59</ele>
        <time>2021-01-18T17:12:36Z</time>
      </trkpt>
      <trkpt lat="47.18396" lon="0.18712">
        <ele>58.7</ele>
        <time>2021-01-18T17:12:36Z</time>
      </trkpt>
      <trkpt lat="47.18266" lon="0.18692">
        <ele>53.4</ele>
        <time>2021-01-18T17:12:36Z</time>
      </trkpt>
      <trkpt lat="47.18199" lon="0.18643">
        <ele>47.4</ele>
        <time>2021-01-18T17:12:36Z</time>
      </trkpt>
      <trkpt lat="47.18192" lon="0.18626">
        <ele>46</ele>
        <time>2021-01-18T17:12:36Z</time>
      </trkpt>
      <trkpt lat="47.18173" lon="0.18601">
        <ele>43.9</ele>
        <time>2021-01-18T17:12:36Z</time>
      </trkpt>
      <trkpt lat="47.17986" lon="0.18468">
        <ele>35.5</ele>
        <time>2021-01-18T17:12:36Z</time>
      </trkpt>
      <trkpt lat="47.17982" lon="0.18484">
        <ele>35.4</ele>
        <time>2021-01-18T17:12:36Z</time>
      </trkpt>
      <trkpt lat="47.17982" lon="0.18484">
        <ele>35.4</ele>
        <time>2021-01-18T17:12:36Z</time>
      </trkpt>
      <trkpt lat="47.17974" lon="0.18525">
        <ele>35.9</ele>
        <time>2021-01-18T17:12:36Z</time>
      </trkpt>
      <trkpt lat="47.1791" lon="0.18474">
        <ele>33.8</ele>
        <time>2021-01-18T17:12:36Z</time>
      </trkpt>
      <trkpt lat="47.17902" lon="0.18473">
        <ele>33.5</ele>
        <time>2021-01-18T17:12:36Z</time>
      </trkpt>
      <trkpt lat="47.17864" lon="0.18498">
        <ele>33.1</ele>
        <time>2021-01-18T17:12:36Z</time>
      </trkpt>
      <trkpt lat="47.17832" lon="0.18399">
        <ele>32</ele>
        <time>2021-01-18T17:12:36Z</time>
      </trkpt>
      <trkpt lat="47.17787" lon="0.18363">
        <ele>31</ele>
        <time>2021-01-18T17:12:36Z</time>
      </trkpt>
      <trkpt lat="47.17788" lon="0.18346">
        <ele>31</ele>
        <time>2021-01-18T17:12:36Z</time>
      </trkpt>
      <trkpt lat="47.17781" lon="0.18338">
        <ele>31</ele>
        <time>2021-01-18T17:12:36Z</time>
      </trkpt>
      <trkpt lat="47.17478" lon="0.18196">
        <ele>32</ele>
        <time>2021-01-18T17:12:36Z</time>
      </trkpt>
      <trkpt lat="47.17478" lon="0.18196">
        <ele>32</ele>
        <time>2021-01-18T17:12:36Z</time>
      </trkpt>
      <trkpt lat="47.17467" lon="0.18197">
        <ele>31.5</ele>
        <time>2021-01-18T17:12:36Z</time>
      </trkpt>
      <trkpt lat="47.17462" lon="0.18173">
        <ele>30.9</ele>
        <time>2021-01-18T17:12:36Z</time>
      </trkpt>
      <trkpt lat="47.17496" lon="0.17737">
        <ele>31</ele>
        <time>2021-01-18T17:12:36Z</time>
      </trkpt>
      <trkpt lat="47.17528" lon="0.17626">
        <ele>32</ele>
        <time>2021-01-18T17:12:36Z</time>
      </trkpt>
      <trkpt lat="47.17551" lon="0.17479">
        <ele>31.8</ele>
        <time>2021-01-18T17:12:36Z</time>
      </trkpt>
      <trkpt lat="47.17717" lon="0.16865">
        <ele>31</ele>
        <time>2021-01-18T17:12:36Z</time>
      </trkpt>
      <trkpt lat="47.17792" lon="0.16679">
        <ele>31.2</ele>
        <time>2021-01-18T17:12:36Z</time>
      </trkpt>
      <trkpt lat="47.17798" lon="0.16671">
        <ele>31.5</ele>
        <time>2021-01-18T17:12:36Z</time>
      </trkpt>
      <trkpt lat="47.17862" lon="0.16499">
        <ele>31</ele>
        <time>2021-01-18T17:12:36Z</time>
      </trkpt>
      <trkpt lat="47.17932" lon="0.16285">
        <ele>30.2</ele>
        <time>2021-01-18T17:12:36Z</time>
      </trkpt>
      <trkpt lat="47.17971" lon="0.16175">
        <ele>30.9</ele>
        <time>2021-01-18T17:12:36Z</time>
      </trkpt>
      <trkpt lat="47.18092" lon="0.15649">
        <ele>30</ele>
        <time>2021-01-18T17:12:36Z</time>
      </trkpt>
      <trkpt lat="47.18097" lon="0.15541">
        <ele>30</ele>
        <time>2021-01-18T17:12:36Z</time>
      </trkpt>
      <trkpt lat="47.18101" lon="0.15528">
        <ele>30.2</ele>
        <time>2021-01-18T17:12:36Z</time>
      </trkpt>
      <trkpt lat="47.18109" lon="0.15526">
        <ele>30.9</ele>
        <time>2021-01-18T17:12:36Z</time>
      </trkpt>
      <trkpt lat="47.18121" lon="0.1553">
        <ele>31.4</ele>
        <time>2021-01-18T17:12:36Z</time>
      </trkpt>
      <trkpt lat="47.18117" lon="0.15518">
        <ele>31.5</ele>
        <time>2021-01-18T17:12:36Z</time>
      </trkpt>
      <trkpt lat="47.18117" lon="0.15518">
        <ele>31.5</ele>
        <time>2021-01-18T17:12:36Z</time>
      </trkpt>
      <trkpt lat="47.18112" lon="0.15506">
        <ele>31.8</ele>
        <time>2021-01-18T17:12:36Z</time>
      </trkpt>
      <trkpt lat="47.18092" lon="0.15346">
        <ele>30.6</ele>
        <time>2021-01-18T17:12:36Z</time>
      </trkpt>
      <trkpt lat="47.18104" lon="0.15229">
        <ele>30.9</ele>
        <time>2021-01-18T17:12:36Z</time>
      </trkpt>
      <trkpt lat="47.18436" lon="0.12889">
        <ele>31.4</ele>
        <time>2021-01-18T17:12:36Z</time>
      </trkpt>
      <trkpt lat="47.18446" lon="0.12778">
        <ele>32.1</ele>
        <time>2021-01-18T17:12:36Z</time>
      </trkpt>
      <trkpt lat="47.18484" lon="0.12614">
        <ele>31.4</ele>
        <time>2021-01-18T17:12:36Z</time>
      </trkpt>
      <trkpt lat="47.18513" lon="0.12544">
        <ele>31.6</ele>
        <time>2021-01-18T17:12:36Z</time>
      </trkpt>
      <trkpt lat="47.18513" lon="0.12544">
        <ele>31.6</ele>
        <time>2021-01-18T17:12:36Z</time>
      </trkpt>
      <trkpt lat="47.18517" lon="0.12522">
        <ele>31.1</ele>
        <time>2021-01-18T17:12:36Z</time>
      </trkpt>
      <trkpt lat="47.18554" lon="0.12529">
        <ele>31</ele>
        <time>2021-01-18T17:12:36Z</time>
      </trkpt>
      <trkpt lat="47.18569" lon="0.12544">
        <ele>31.2</ele>
        <time>2021-01-18T17:12:36Z</time>
      </trkpt>
      <trkpt lat="47.18582" lon="0.12562">
        <ele>31</ele>
        <time>2021-01-18T17:12:36Z</time>
      </trkpt>
      <trkpt lat="47.18589" lon="0.1257">
        <ele>31.1</ele>
        <time>2021-01-18T17:12:36Z</time>
      </trkpt>
      <trkpt lat="47.18731" lon="0.12628">
        <ele>31.4</ele>
        <time>2021-01-18T17:12:36Z</time>
      </trkpt>
      <trkpt lat="47.18847" lon="0.12709">
        <ele>31.2</ele>
        <time>2021-01-18T17:12:36Z</time>
      </trkpt>
      <trkpt lat="47.18953" lon="0.12746">
        <ele>31.1</ele>
        <time>2021-01-18T17:12:36Z</time>
      </trkpt>
      <trkpt lat="47.19064" lon="0.12823">
        <ele>31</ele>
        <time>2021-01-18T17:12:36Z</time>
      </trkpt>
      <trkpt lat="47.19073" lon="0.12836">
        <ele>31</ele>
        <time>2021-01-18T17:12:36Z</time>
      </trkpt>
      <trkpt lat="47.19073" lon="0.12836">
        <ele>31</ele>
        <time>2021-01-18T17:12:36Z</time>
      </trkpt>
      <trkpt lat="47.19081" lon="0.12822">
        <ele>31</ele>
        <time>2021-01-18T17:12:36Z</time>
      </trkpt>
      <trkpt lat="47.19364" lon="0.12074">
        <ele>30.9</ele>
        <time>2021-01-18T17:12:36Z</time>
      </trkpt>
      <trkpt lat="47.19369" lon="0.11952">
        <ele>30.8</ele>
        <time>2021-01-18T17:12:36Z</time>
      </trkpt>
      <trkpt lat="47.19543" lon="0.11493">
        <ele>30</ele>
        <time>2021-01-18T17:12:36Z</time>
      </trkpt>
      <trkpt lat="47.19543" lon="0.11493">
        <ele>30</ele>
        <time>2021-01-18T17:12:36Z</time>
      </trkpt>
      <trkpt lat="47.19669" lon="0.11259">
        <ele>30</ele>
        <time>2021-01-18T17:12:36Z</time>
      </trkpt>
      <trkpt lat="47.20277" lon="0.10424">
        <ele>30</ele>
        <time>2021-01-18T17:12:36Z</time>
      </trkpt>
      <trkpt lat="47.20581" lon="0.09592">
        <ele>30</ele>
        <time>2021-01-18T17:12:36Z</time>
      </trkpt>
      <trkpt lat="47.20581" lon="0.09592">
        <ele>30</ele>
        <time>2021-01-18T17:12:36Z</time>
      </trkpt>
      <trkpt lat="47.20583" lon="0.09579">
        <ele>30</ele>
        <time>2021-01-18T17:12:36Z</time>
      </trkpt>
      <trkpt lat="47.20583" lon="0.09542">
        <ele>30</ele>
        <time>2021-01-18T17:12:36Z</time>
      </trkpt>
      <trkpt lat="47.20593" lon="0.09516">
        <ele>30.5</ele>
        <time>2021-01-18T17:12:36Z</time>
      </trkpt>
      <trkpt lat="47.20742" lon="0.09628">
        <ele>29.8</ele>
        <time>2021-01-18T17:12:36Z</time>
      </trkpt>
      <trkpt lat="47.2101" lon="0.09831">
        <ele>29.4</ele>
        <time>2021-01-18T17:12:36Z</time>
      </trkpt>
      <trkpt lat="47.21025" lon="0.09818">
        <ele>29.9</ele>
        <time>2021-01-18T17:12:36Z</time>
      </trkpt>
      <trkpt lat="47.2104" lon="0.09786">
        <ele>30</ele>
        <time>2021-01-18T17:12:36Z</time>
      </trkpt>
      <trkpt lat="47.21047" lon="0.09778">
        <ele>30</ele>
        <time>2021-01-18T17:12:36Z</time>
      </trkpt>
      <trkpt lat="47.21055" lon="0.09775">
        <ele>30</ele>
        <time>2021-01-18T17:12:36Z</time>
      </trkpt>
      <trkpt lat="47.21062" lon="0.09774">
        <ele>30</ele>
        <time>2021-01-18T17:12:36Z</time>
      </trkpt>
      <trkpt lat="47.21397" lon="0.09853">
        <ele>32</ele>
        <time>2021-01-18T17:12:36Z</time>
      </trkpt>
      <trkpt lat="47.21397" lon="0.09853">
        <ele>32</ele>
        <time>2021-01-18T17:12:36Z</time>
      </trkpt>
      <trkpt lat="47.21417" lon="0.09857">
        <ele>32</ele>
        <time>2021-01-18T17:12:36Z</time>
      </trkpt>
      <trkpt lat="47.21414" lon="0.09472">
        <ele>32</ele>
        <time>2021-01-18T17:12:36Z</time>
      </trkpt>
      <trkpt lat="47.21382" lon="0.09319">
        <ele>31.6</ele>
        <time>2021-01-18T17:12:36Z</time>
      </trkpt>
      <trkpt lat="47.21381" lon="0.09069">
        <ele>31</ele>
        <time>2021-01-18T17:12:36Z</time>
      </trkpt>
      <trkpt lat="47.21389" lon="0.08998">
        <ele>31</ele>
        <time>2021-01-18T17:12:36Z</time>
      </trkpt>
      <trkpt lat="47.21383" lon="0.08953">
        <ele>31.4</ele>
        <time>2021-01-18T17:12:36Z</time>
      </trkpt>
      <trkpt lat="47.2136" lon="0.08849">
        <ele>31.4</ele>
        <time>2021-01-18T17:12:36Z</time>
      </trkpt>
      <trkpt lat="47.21326" lon="0.08771">
        <ele>31.8</ele>
        <time>2021-01-18T17:12:36Z</time>
      </trkpt>
      <trkpt lat="47.21276" lon="0.08512">
        <ele>31</ele>
        <time>2021-01-18T17:12:36Z</time>
      </trkpt>
      <trkpt lat="47.21273" lon="0.08424">
        <ele>32</ele>
        <time>2021-01-18T17:12:36Z</time>
      </trkpt>
      <trkpt lat="47.21277" lon="0.08384">
        <ele>32.8</ele>
        <time>2021-01-18T17:12:36Z</time>
      </trkpt>
      <trkpt lat="47.21292" lon="0.08407">
        <ele>32.5</ele>
        <time>2021-01-18T17:12:36Z</time>
      </trkpt>
      <trkpt lat="47.21292" lon="0.08407">
        <ele>32.5</ele>
        <time>2021-01-18T17:12:36Z</time>
      </trkpt>
      <trkpt lat="47.20917" lon="0.07817">
        <ele>38.2</ele>
        <time>2021-01-18T17:12:36Z</time>
      </trkpt>
      <trkpt lat="47.20919" lon="0.07799">
        <ele>38.8</ele>
        <time>2021-01-18T17:12:36Z</time>
      </trkpt>
      <trkpt lat="47.20924" lon="0.07786">
        <ele>38.9</ele>
        <time>2021-01-18T17:12:36Z</time>
      </trkpt>
      <trkpt lat="47.20998" lon="0.07678">
        <ele>36.7</ele>
        <time>2021-01-18T17:12:36Z</time>
      </trkpt>
      <trkpt lat="47.21011" lon="0.07699">
        <ele>34</ele>
        <time>2021-01-18T17:12:36Z</time>
      </trkpt>
      <trkpt lat="47.21005" lon="0.07714">
        <ele>33.4</ele>
        <time>2021-01-18T17:12:36Z</time>
      </trkpt>
      <trkpt lat="47.20928" lon="0.07843">
        <ele>32.8</ele>
        <time>2021-01-18T17:12:36Z</time>
      </trkpt>
      <trkpt lat="47.20919" lon="0.07854">
        <ele>32.4</ele>
        <time>2021-01-18T17:12:36Z</time>
      </trkpt>
      <trkpt lat="47.20919" lon="0.07854">
        <ele>32.4</ele>
        <time>2021-01-18T17:12:36Z</time>
      </trkpt>
      <trkpt lat="47.20934" lon="0.07836">
        <ele>32.5</ele>
        <time>2021-01-18T17:12:36Z</time>
      </trkpt>
      <trkpt lat="47.20972" lon="0.07764">
        <ele>33.1</ele>
        <time>2021-01-18T17:12:36Z</time>
      </trkpt>
      <trkpt lat="47.21005" lon="0.07714">
        <ele>33.4</ele>
        <time>2021-01-18T17:12:36Z</time>
      </trkpt>
      <trkpt lat="47.21011" lon="0.07699">
        <ele>34</ele>
        <time>2021-01-18T17:12:36Z</time>
      </trkpt>
      <trkpt lat="47.2106" lon="0.07633">
        <ele>32.4</ele>
        <time>2021-01-18T17:12:36Z</time>
      </trkpt>
      <trkpt lat="47.2109" lon="0.07534">
        <ele>36.3</ele>
        <time>2021-01-18T17:12:36Z</time>
      </trkpt>
      <trkpt lat="47.21123" lon="0.07476">
        <ele>37.8</ele>
        <time>2021-01-18T17:12:36Z</time>
      </trkpt>
      <trkpt lat="47.21123" lon="0.07476">
        <ele>37.8</ele>
        <time>2021-01-18T17:12:36Z</time>
      </trkpt>
      <trkpt lat="47.21145" lon="0.07437">
        <ele>37.1</ele>
        <time>2021-01-18T17:12:36Z</time>
      </trkpt>
      <trkpt lat="47.21422" lon="0.06771">
        <ele>32.6</ele>
        <time>2021-01-18T17:12:36Z</time>
      </trkpt>
      <trkpt lat="47.21419" lon="0.0676">
        <ele>33.4</ele>
        <time>2021-01-18T17:12:36Z</time>
      </trkpt>
      <trkpt lat="47.21429" lon="0.06743">
        <ele>32.5</ele>
        <time>2021-01-18T17:12:36Z</time>
      </trkpt>
      <trkpt lat="47.21438" lon="0.06716">
        <ele>31.8</ele>
        <time>2021-01-18T17:12:36Z</time>
      </trkpt>
      <trkpt lat="47.21438" lon="0.06716">
        <ele>31.8</ele>
        <time>2021-01-18T17:12:36Z</time>
      </trkpt>
      <trkpt lat="47.21446" lon="0.0669">
        <ele>32.9</ele>
        <time>2021-01-18T17:12:36Z</time>
      </trkpt>
      <trkpt lat="47.21494" lon="0.06528">
        <ele>32.4</ele>
        <time>2021-01-18T17:12:36Z</time>
      </trkpt>
      <trkpt lat="47.21484" lon="0.06523">
        <ele>33.8</ele>
        <time>2021-01-18T17:12:36Z</time>
      </trkpt>
      <trkpt lat="47.21465" lon="0.06504">
        <ele>39.5</ele>
        <time>2021-01-18T17:12:36Z</time>
      </trkpt>
      <trkpt lat="47.21478" lon="0.06465">
        <ele>40</ele>
        <time>2021-01-18T17:12:36Z</time>
      </trkpt>
      <trkpt lat="47.21492" lon="0.06392">
        <ele>43.4</ele>
        <time>2021-01-18T17:12:36Z</time>
      </trkpt>
      <trkpt lat="47.21493" lon="0.06378">
        <ele>43.9</ele>
        <time>2021-01-18T17:12:36Z</time>
      </trkpt>
      <trkpt lat="47.21483" lon="0.06318">
        <ele>45.8</ele>
        <time>2021-01-18T17:12:36Z</time>
      </trkpt>
      <trkpt lat="47.21485" lon="0.06228">
        <ele>48.4</ele>
        <time>2021-01-18T17:12:36Z</time>
      </trkpt>
      <trkpt lat="47.21488" lon="0.06215">
        <ele>48.5</ele>
        <time>2021-01-18T17:12:36Z</time>
      </trkpt>
      <trkpt lat="47.21494" lon="0.06202">
        <ele>47.3</ele>
        <time>2021-01-18T17:12:36Z</time>
      </trkpt>
      <trkpt lat="47.21479" lon="0.06188">
        <ele>53.3</ele>
        <time>2021-01-18T17:12:36Z</time>
      </trkpt>
      <trkpt lat="47.21499" lon="0.06139">
        <ele>55.2</ele>
        <time>2021-01-18T17:12:36Z</time>
      </trkpt>
      <trkpt lat="47.21503" lon="0.06122">
        <ele>55.4</ele>
        <time>2021-01-18T17:12:36Z</time>
      </trkpt>
      <trkpt lat="47.21509" lon="0.06066">
        <ele>60.1</ele>
        <time>2021-01-18T17:12:36Z</time>
      </trkpt>
      <trkpt lat="47.21527" lon="0.06013">
        <ele>57.7</ele>
        <time>2021-01-18T17:12:36Z</time>
      </trkpt>
      <trkpt lat="47.21545" lon="0.05967">
        <ele>56.4</ele>
        <time>2021-01-18T17:12:36Z</time>
      </trkpt>
      <trkpt lat="47.21547" lon="0.05944">
        <ele>56.9</ele>
        <time>2021-01-18T17:12:36Z</time>
      </trkpt>
      <trkpt lat="47.21546" lon="0.05935">
        <ele>57.1</ele>
        <time>2021-01-18T17:12:36Z</time>
      </trkpt>
      <trkpt lat="47.21546" lon="0.05935">
        <ele>57.1</ele>
        <time>2021-01-18T17:12:36Z</time>
      </trkpt>
      <trkpt lat="47.21544" lon="0.05922">
        <ele>57.5</ele>
        <time>2021-01-18T17:12:36Z</time>
      </trkpt>
      <trkpt lat="47.21546" lon="0.05903">
        <ele>56.3</ele>
        <time>2021-01-18T17:12:36Z</time>
      </trkpt>
      <trkpt lat="47.21551" lon="0.0589">
        <ele>55</ele>
        <time>2021-01-18T17:12:36Z</time>
      </trkpt>
      <trkpt lat="47.21562" lon="0.05875">
        <ele>53.2</ele>
        <time>2021-01-18T17:12:36Z</time>
      </trkpt>
      <trkpt lat="47.2156" lon="0.0585">
        <ele>51.9</ele>
        <time>2021-01-18T17:12:36Z</time>
      </trkpt>
      <trkpt lat="47.21562" lon="0.05838">
        <ele>51</ele>
        <time>2021-01-18T17:12:36Z</time>
      </trkpt>
      <trkpt lat="47.21572" lon="0.05825">
        <ele>49.9</ele>
        <time>2021-01-18T17:12:36Z</time>
      </trkpt>
      <trkpt lat="47.21582" lon="0.05817">
        <ele>48.4</ele>
        <time>2021-01-18T17:12:36Z</time>
      </trkpt>
      <trkpt lat="47.21589" lon="0.05815">
        <ele>46.5</ele>
        <time>2021-01-18T17:12:36Z</time>
      </trkpt>
      <trkpt lat="47.21607" lon="0.05815">
        <ele>42.3</ele>
        <time>2021-01-18T17:12:36Z</time>
      </trkpt>
      <trkpt lat="47.21615" lon="0.05765">
        <ele>38.7</ele>
        <time>2021-01-18T17:12:36Z</time>
      </trkpt>
      <trkpt lat="47.2161" lon="0.05679">
        <ele>33.5</ele>
        <time>2021-01-18T17:12:36Z</time>
      </trkpt>
      <trkpt lat="47.21613" lon="0.05668">
        <ele>33.1</ele>
        <time>2021-01-18T17:12:36Z</time>
      </trkpt>
      <trkpt lat="47.21609" lon="0.05649">
        <ele>33</ele>
        <time>2021-01-18T17:12:36Z</time>
      </trkpt>
      <trkpt lat="47.21614" lon="0.05493">
        <ele>32</ele>
        <time>2021-01-18T17:12:36Z</time>
      </trkpt>
      <trkpt lat="47.2162" lon="0.05459">
        <ele>32.2</ele>
        <time>2021-01-18T17:12:36Z</time>
      </trkpt>
      <trkpt lat="47.21623" lon="0.05449">
        <ele>32.4</ele>
        <time>2021-01-18T17:12:36Z</time>
      </trkpt>
      <trkpt lat="47.21636" lon="0.0543">
        <ele>32.9</ele>
        <time>2021-01-18T17:12:36Z</time>
      </trkpt>
      <trkpt lat="47.21647" lon="0.05422">
        <ele>33</ele>
        <time>2021-01-18T17:12:36Z</time>
      </trkpt>
      <trkpt lat="47.21668" lon="0.05416">
        <ele>33</ele>
        <time>2021-01-18T17:12:36Z</time>
      </trkpt>
      <trkpt lat="47.21668" lon="0.05416">
        <ele>33</ele>
        <time>2021-01-18T17:12:36Z</time>
      </trkpt>
      <trkpt lat="47.21684" lon="0.05409">
        <ele>33.4</ele>
        <time>2021-01-18T17:12:36Z</time>
      </trkpt>
      <trkpt lat="47.21692" lon="0.05398">
        <ele>33.7</ele>
        <time>2021-01-18T17:12:36Z</time>
      </trkpt>
      <trkpt lat="47.21704" lon="0.05378">
        <ele>34.2</ele>
        <time>2021-01-18T17:12:36Z</time>
      </trkpt>
      <trkpt lat="47.21713" lon="0.05338">
        <ele>37.4</ele>
        <time>2021-01-18T17:12:36Z</time>
      </trkpt>
      <trkpt lat="47.2172" lon="0.05321">
        <ele>40</ele>
        <time>2021-01-18T17:12:36Z</time>
      </trkpt>
      <trkpt lat="47.21732" lon="0.05303">
        <ele>41.9</ele>
        <time>2021-01-18T17:12:36Z</time>
      </trkpt>
      <trkpt lat="47.21775" lon="0.05202">
        <ele>47.8</ele>
        <time>2021-01-18T17:12:36Z</time>
      </trkpt>
      <trkpt lat="47.21777" lon="0.05189">
        <ele>51.7</ele>
        <time>2021-01-18T17:12:36Z</time>
      </trkpt>
      <trkpt lat="47.21782" lon="0.05177">
        <ele>52.1</ele>
        <time>2021-01-18T17:12:36Z</time>
      </trkpt>
      <trkpt lat="47.21803" lon="0.0514">
        <ele>45.8</ele>
        <time>2021-01-18T17:12:36Z</time>
      </trkpt>
      <trkpt lat="47.21814" lon="0.05103">
        <ele>51.2</ele>
        <time>2021-01-18T17:12:36Z</time>
      </trkpt>
      <trkpt lat="47.2182" lon="0.05093">
        <ele>50.5</ele>
        <time>2021-01-18T17:12:36Z</time>
      </trkpt>
      <trkpt lat="47.21827" lon="0.05087">
        <ele>47.8</ele>
        <time>2021-01-18T17:12:36Z</time>
      </trkpt>
      <trkpt lat="47.21832" lon="0.05076">
        <ele>48.4</ele>
        <time>2021-01-18T17:12:36Z</time>
      </trkpt>
      <trkpt lat="47.21834" lon="0.05064">
        <ele>53</ele>
        <time>2021-01-18T17:12:36Z</time>
      </trkpt>
      <trkpt lat="47.21834" lon="0.05064">
        <ele>53</ele>
        <time>2021-01-18T17:12:36Z</time>
      </trkpt>
      <trkpt lat="47.21832" lon="0.05076">
        <ele>48.4</ele>
        <time>2021-01-18T17:12:36Z</time>
      </trkpt>
      <trkpt lat="47.21827" lon="0.05087">
        <ele>47.8</ele>
        <time>2021-01-18T17:12:36Z</time>
      </trkpt>
      <trkpt lat="47.2182" lon="0.05093">
        <ele>50.5</ele>
        <time>2021-01-18T17:12:36Z</time>
      </trkpt>
      <trkpt lat="47.21837" lon="0.05108">
        <ele>35.7</ele>
        <time>2021-01-18T17:12:36Z</time>
      </trkpt>
      <trkpt lat="47.2185" lon="0.05081">
        <ele>38</ele>
        <time>2021-01-18T17:12:36Z</time>
      </trkpt>
      <trkpt lat="47.21857" lon="0.05079">
        <ele>35.2</ele>
        <time>2021-01-18T17:12:36Z</time>
      </trkpt>
      <trkpt lat="47.2187" lon="0.05051">
        <ele>33.3</ele>
        <time>2021-01-18T17:12:36Z</time>
      </trkpt>
      <trkpt lat="47.21881" lon="0.05053">
        <ele>32.5</ele>
        <time>2021-01-18T17:12:36Z</time>
      </trkpt>
      <trkpt lat="47.21887" lon="0.05061">
        <ele>32.2</ele>
        <time>2021-01-18T17:12:36Z</time>
      </trkpt>
      <trkpt lat="47.21911" lon="0.05115">
        <ele>30.6</ele>
        <time>2021-01-18T17:12:36Z</time>
      </trkpt>
      <trkpt lat="47.2193" lon="0.05138">
        <ele>30</ele>
        <time>2021-01-18T17:12:36Z</time>
      </trkpt>
      <trkpt lat="47.21938" lon="0.0514">
        <ele>30</ele>
        <time>2021-01-18T17:12:36Z</time>
      </trkpt>
      <trkpt lat="47.21947" lon="0.05128">
        <ele>29.9</ele>
        <time>2021-01-18T17:12:36Z</time>
      </trkpt>
      <trkpt lat="47.22018" lon="0.04975">
        <ele>29.9</ele>
        <time>2021-01-18T17:12:36Z</time>
      </trkpt>
      <trkpt lat="47.22037" lon="0.04953">
        <ele>30.4</ele>
        <time>2021-01-18T17:12:36Z</time>
      </trkpt>
      <trkpt lat="47.22066" lon="0.0493">
        <ele>30.2</ele>
        <time>2021-01-18T17:12:36Z</time>
      </trkpt>
      <trkpt lat="47.22086" lon="0.04907">
        <ele>30.3</ele>
        <time>2021-01-18T17:12:36Z</time>
      </trkpt>
      <trkpt lat="47.22135" lon="0.04853">
        <ele>29.8</ele>
        <time>2021-01-18T17:12:36Z</time>
      </trkpt>
      <trkpt lat="47.22144" lon="0.0484">
        <ele>30.2</ele>
        <time>2021-01-18T17:12:36Z</time>
      </trkpt>
      <trkpt lat="47.22192" lon="0.0479">
        <ele>29.7</ele>
        <time>2021-01-18T17:12:36Z</time>
      </trkpt>
      <trkpt lat="47.22234" lon="0.04725">
        <ele>29.5</ele>
        <time>2021-01-18T17:12:36Z</time>
      </trkpt>
      <trkpt lat="47.22234" lon="0.04725">
        <ele>29.5</ele>
        <time>2021-01-18T17:12:36Z</time>
      </trkpt>
      <trkpt lat="47.2235" lon="0.04553">
        <ele>28.8</ele>
        <time>2021-01-18T17:12:36Z</time>
      </trkpt>
      <trkpt lat="47.22356" lon="0.04525">
        <ele>29.1</ele>
        <time>2021-01-18T17:12:36Z</time>
      </trkpt>
      <trkpt lat="47.22366" lon="0.04507">
        <ele>29.4</ele>
        <time>2021-01-18T17:12:36Z</time>
      </trkpt>
      <trkpt lat="47.22393" lon="0.04422">
        <ele>28.9</ele>
        <time>2021-01-18T17:12:36Z</time>
      </trkpt>
      <trkpt lat="47.22402" lon="0.04336">
        <ele>29.5</ele>
        <time>2021-01-18T17:12:36Z</time>
      </trkpt>
      <trkpt lat="47.22421" lon="0.04272">
        <ele>30.2</ele>
        <time>2021-01-18T17:12:36Z</time>
      </trkpt>
      <trkpt lat="47.22557" lon="0.04035">
        <ele>29.6</ele>
        <time>2021-01-18T17:12:36Z</time>
      </trkpt>
      <trkpt lat="47.22618" lon="0.03861">
        <ele>30.3</ele>
        <time>2021-01-18T17:12:36Z</time>
      </trkpt>
      <trkpt lat="47.22623" lon="0.03833">
        <ele>29.7</ele>
        <time>2021-01-18T17:12:36Z</time>
      </trkpt>
      <trkpt lat="47.2263" lon="0.03819">
        <ele>29.7</ele>
        <time>2021-01-18T17:12:36Z</time>
      </trkpt>
      <trkpt lat="47.22747" lon="0.0341">
        <ele>28.1</ele>
        <time>2021-01-18T17:12:36Z</time>
      </trkpt>
      <trkpt lat="47.22824" lon="0.03258">
        <ele>29.3</ele>
        <time>2021-01-18T17:12:36Z</time>
      </trkpt>
      <trkpt lat="47.22831" lon="0.03249">
        <ele>29.9</ele>
        <time>2021-01-18T17:12:36Z</time>
      </trkpt>
      <trkpt lat="47.22877" lon="0.03225">
        <ele>29.9</ele>
        <time>2021-01-18T17:12:36Z</time>
      </trkpt>
      <trkpt lat="47.22894" lon="0.03204">
        <ele>29.6</ele>
        <time>2021-01-18T17:12:36Z</time>
      </trkpt>
      <trkpt lat="47.22916" lon="0.0315">
        <ele>29.6</ele>
        <time>2021-01-18T17:12:36Z</time>
      </trkpt>
      <trkpt lat="47.22916" lon="0.0315">
        <ele>29.6</ele>
        <time>2021-01-18T17:12:36Z</time>
      </trkpt>
      <trkpt lat="47.22921" lon="0.03127">
        <ele>29.7</ele>
        <time>2021-01-18T17:12:36Z</time>
      </trkpt>
      <trkpt lat="47.22836" lon="0.03068">
        <ele>29.1</ele>
        <time>2021-01-18T17:12:36Z</time>
      </trkpt>
      <trkpt lat="47.22661" lon="0.0302">
        <ele>30.9</ele>
        <time>2021-01-18T17:12:36Z</time>
      </trkpt>
      <trkpt lat="47.22553" lon="0.02989">
        <ele>30.6</ele>
        <time>2021-01-18T17:12:36Z</time>
      </trkpt>
      <trkpt lat="47.22543" lon="0.02979">
        <ele>31.8</ele>
        <time>2021-01-18T17:12:36Z</time>
      </trkpt>
      <trkpt lat="47.22529" lon="0.02957">
        <ele>32.9</ele>
        <time>2021-01-18T17:12:36Z</time>
      </trkpt>
      <trkpt lat="47.22484" lon="0.0296">
        <ele>32</ele>
        <time>2021-01-18T17:12:36Z</time>
      </trkpt>
      <trkpt lat="47.22382" lon="0.02918">
        <ele>32.2</ele>
        <time>2021-01-18T17:12:36Z</time>
      </trkpt>
      <trkpt lat="47.22382" lon="0.02918">
        <ele>32.2</ele>
        <time>2021-01-18T17:12:36Z</time>
      </trkpt>
      <trkpt lat="47.22292" lon="0.02884">
        <ele>34.4</ele>
        <time>2021-01-18T17:12:36Z</time>
      </trkpt>
      <trkpt lat="47.22292" lon="0.02884">
        <ele>34.4</ele>
        <time>2021-01-18T17:12:36Z</time>
      </trkpt>
      <trkpt lat="47.22302" lon="0.02886">
        <ele>33.3</ele>
        <time>2021-01-18T17:12:36Z</time>
      </trkpt>
      <trkpt lat="47.22308" lon="0.02863">
        <ele>32.9</ele>
        <time>2021-01-18T17:12:36Z</time>
      </trkpt>
      <trkpt lat="47.22308" lon="0.02852">
        <ele>33.3</ele>
        <time>2021-01-18T17:12:36Z</time>
      </trkpt>
      <trkpt lat="47.22317" lon="0.02813">
        <ele>35.5</ele>
        <time>2021-01-18T17:12:36Z</time>
      </trkpt>
      <trkpt lat="47.22323" lon="0.02804">
        <ele>37.2</ele>
        <time>2021-01-18T17:12:36Z</time>
      </trkpt>
      <trkpt lat="47.2233" lon="0.02806">
        <ele>37.6</ele>
        <time>2021-01-18T17:12:36Z</time>
      </trkpt>
      <trkpt lat="47.22341" lon="0.02806">
        <ele>38.6</ele>
        <time>2021-01-18T17:12:36Z</time>
      </trkpt>
      <trkpt lat="47.22352" lon="0.02787">
        <ele>42.3</ele>
        <time>2021-01-18T17:12:36Z</time>
      </trkpt>
      <trkpt lat="47.22395" lon="0.02756">
        <ele>37</ele>
        <time>2021-01-18T17:12:36Z</time>
      </trkpt>
      <trkpt lat="47.22419" lon="0.02695">
        <ele>38</ele>
        <time>2021-01-18T17:12:36Z</time>
      </trkpt>
      <trkpt lat="47.22429" lon="0.02695">
        <ele>34.5</ele>
        <time>2021-01-18T17:12:36Z</time>
      </trkpt>
      <trkpt lat="47.22429" lon="0.02695">
        <ele>34.5</ele>
        <time>2021-01-18T17:12:36Z</time>
      </trkpt>
      <trkpt lat="47.22478" lon="0.0253">
        <ele>34.1</ele>
        <time>2021-01-18T17:12:36Z</time>
      </trkpt>
      <trkpt lat="47.22476" lon="0.02512">
        <ele>36</ele>
        <time>2021-01-18T17:12:36Z</time>
      </trkpt>
      <trkpt lat="47.22484" lon="0.02478">
        <ele>38.8</ele>
        <time>2021-01-18T17:12:36Z</time>
      </trkpt>
      <trkpt lat="47.22524" lon="0.02352">
        <ele>34.5</ele>
        <time>2021-01-18T17:12:36Z</time>
      </trkpt>
      <trkpt lat="47.22524" lon="0.02352">
        <ele>34.5</ele>
        <time>2021-01-18T17:12:36Z</time>
      </trkpt>
      <trkpt lat="47.2251" lon="0.02393">
        <ele>36.8</ele>
        <time>2021-01-18T17:12:36Z</time>
      </trkpt>
      <trkpt lat="47.22505" lon="0.02402">
        <ele>37.2</ele>
        <time>2021-01-18T17:12:36Z</time>
      </trkpt>
      <trkpt lat="47.22513" lon="0.02365">
        <ele>38.4</ele>
        <time>2021-01-18T17:12:36Z</time>
      </trkpt>
      <trkpt lat="47.22514" lon="0.02327">
        <ele>37.7</ele>
        <time>2021-01-18T17:12:36Z</time>
      </trkpt>
      <trkpt lat="47.22492" lon="0.02329">
        <ele>44.2</ele>
        <time>2021-01-18T17:12:36Z</time>
      </trkpt>
      <trkpt lat="47.22478" lon="0.02324">
        <ele>47.3</ele>
        <time>2021-01-18T17:12:36Z</time>
      </trkpt>
      <trkpt lat="47.22475" lon="0.02314">
        <ele>46.8</ele>
        <time>2021-01-18T17:12:36Z</time>
      </trkpt>
      <trkpt lat="47.22479" lon="0.02286">
        <ele>46.2</ele>
        <time>2021-01-18T17:12:36Z</time>
      </trkpt>
      <trkpt lat="47.22476" lon="0.02273">
        <ele>47.9</ele>
        <time>2021-01-18T17:12:36Z</time>
      </trkpt>
      <trkpt lat="47.22462" lon="0.02275">
        <ele>48.9</ele>
        <time>2021-01-18T17:12:36Z</time>
      </trkpt>
      <trkpt lat="47.22454" lon="0.02283">
        <ele>49.3</ele>
        <time>2021-01-18T17:12:36Z</time>
      </trkpt>
      <trkpt lat="47.22453" lon="0.02308">
        <ele>49.5</ele>
        <time>2021-01-18T17:12:36Z</time>
      </trkpt>
      <trkpt lat="47.22445" lon="0.02315">
        <ele>50.6</ele>
        <time>2021-01-18T17:12:36Z</time>
      </trkpt>
      <trkpt lat="47.22351" lon="0.02294">
        <ele>60.6</ele>
        <time>2021-01-18T17:12:36Z</time>
      </trkpt>
      <trkpt lat="47.22335" lon="0.02284">
        <ele>61.5</ele>
        <time>2021-01-18T17:12:36Z</time>
      </trkpt>
      <trkpt lat="47.22329" lon="0.02274">
        <ele>61.7</ele>
        <time>2021-01-18T17:12:36Z</time>
      </trkpt>
      <trkpt lat="47.22329" lon="0.02274">
        <ele>61.7</ele>
        <time>2021-01-18T17:12:36Z</time>
      </trkpt>
      <trkpt lat="47.22344" lon="0.02218">
        <ele>61.5</ele>
        <time>2021-01-18T17:12:36Z</time>
      </trkpt>
      <trkpt lat="47.22336" lon="0.02208">
        <ele>62.4</ele>
        <time>2021-01-18T17:12:36Z</time>
      </trkpt>
      <trkpt lat="47.22336" lon="0.02208">
        <ele>62.4</ele>
        <time>2021-01-18T17:12:36Z</time>
      </trkpt>
      <trkpt lat="47.22278" lon="0.02165">
        <ele>65</ele>
        <time>2021-01-18T17:12:36Z</time>
      </trkpt>
      <trkpt lat="47.22116" lon="0.01986">
        <ele>70.8</ele>
        <time>2021-01-18T17:12:36Z</time>
      </trkpt>
      <trkpt lat="47.2211" lon="0.01973">
        <ele>71.1</ele>
        <time>2021-01-18T17:12:36Z</time>
      </trkpt>
      <trkpt lat="47.22105" lon="0.0195">
        <ele>72.1</ele>
        <time>2021-01-18T17:12:36Z</time>
      </trkpt>
      <trkpt lat="47.221" lon="0.01941">
        <ele>72.4</ele>
        <time>2021-01-18T17:12:36Z</time>
      </trkpt>
      <trkpt lat="47.22038" lon="0.01893">
        <ele>75.6</ele>
        <time>2021-01-18T17:12:36Z</time>
      </trkpt>
      <trkpt lat="47.22025" lon="0.01888">
        <ele>76.1</ele>
        <time>2021-01-18T17:12:36Z</time>
      </trkpt>
      <trkpt lat="47.22025" lon="0.01888">
        <ele>76.1</ele>
        <time>2021-01-18T17:12:36Z</time>
      </trkpt>
      <trkpt lat="47.22037" lon="0.01741">
        <ele>77.7</ele>
        <time>2021-01-18T17:12:36Z</time>
      </trkpt>
      <trkpt lat="47.22036" lon="0.01728">
        <ele>77.7</ele>
        <time>2021-01-18T17:12:36Z</time>
      </trkpt>
      <trkpt lat="47.2204" lon="0.01682">
        <ele>78.2</ele>
        <time>2021-01-18T17:12:36Z</time>
      </trkpt>
      <trkpt lat="47.22037" lon="0.01631">
        <ele>78.7</ele>
        <time>2021-01-18T17:12:36Z</time>
      </trkpt>
      <trkpt lat="47.22018" lon="0.01532">
        <ele>80</ele>
        <time>2021-01-18T17:12:36Z</time>
      </trkpt>
      <trkpt lat="47.22018" lon="0.01532">
        <ele>80</ele>
        <time>2021-01-18T17:12:36Z</time>
      </trkpt>
      <trkpt lat="47.22013" lon="0.015">
        <ele>79</ele>
        <time>2021-01-18T17:12:36Z</time>
      </trkpt>
      <trkpt lat="47.22015" lon="0.01406">
        <ele>72.9</ele>
        <time>2021-01-18T17:12:36Z</time>
      </trkpt>
      <trkpt lat="47.22043" lon="0.01299">
        <ele>64.6</ele>
        <time>2021-01-18T17:12:36Z</time>
      </trkpt>
      <trkpt lat="47.22104" lon="0.0116">
        <ele>52.2</ele>
        <time>2021-01-18T17:12:36Z</time>
      </trkpt>
      <trkpt lat="47.22102" lon="0.01145">
        <ele>51.6</ele>
        <time>2021-01-18T17:12:36Z</time>
      </trkpt>
      <trkpt lat="47.22109" lon="0.0114">
        <ele>51.1</ele>
        <time>2021-01-18T17:12:36Z</time>
      </trkpt>
      <trkpt lat="47.22146" lon="0.01102">
        <ele>49.8</ele>
        <time>2021-01-18T17:12:36Z</time>
      </trkpt>
      <trkpt lat="47.22178" lon="0.01075">
        <ele>49.7</ele>
        <time>2021-01-18T17:12:36Z</time>
      </trkpt>
      <trkpt lat="47.22178" lon="0.01075">
        <ele>49.7</ele>
        <time>2021-01-18T17:12:36Z</time>
      </trkpt>
      <trkpt lat="47.223" lon="0.00956">
        <ele>55.3</ele>
        <time>2021-01-18T17:12:36Z</time>
      </trkpt>
      <trkpt lat="47.22338" lon="0.00903">
        <ele>58.9</ele>
        <time>2021-01-18T17:12:36Z</time>
      </trkpt>
      <trkpt lat="47.22387" lon="0.00864">
        <ele>63</ele>
        <time>2021-01-18T17:12:36Z</time>
      </trkpt>
      <trkpt lat="47.22394" lon="0.00861">
        <ele>63.6</ele>
        <time>2021-01-18T17:12:36Z</time>
      </trkpt>
      <trkpt lat="47.22397" lon="0.00871">
        <ele>63.9</ele>
        <time>2021-01-18T17:12:36Z</time>
      </trkpt>
      <trkpt lat="47.22397" lon="0.00871">
        <ele>63.9</ele>
        <time>2021-01-18T17:12:36Z</time>
      </trkpt>
      <trkpt lat="47.22466" lon="0.01001">
        <ele>69.8</ele>
        <time>2021-01-18T17:12:36Z</time>
      </trkpt>
      <trkpt lat="47.22487" lon="0.01022">
        <ele>70.8</ele>
        <time>2021-01-18T17:12:36Z</time>
      </trkpt>
      <trkpt lat="47.22541" lon="0.01067">
        <ele>69.8</ele>
        <time>2021-01-18T17:12:36Z</time>
      </trkpt>
      <trkpt lat="47.22586" lon="0.01128">
        <ele>68</ele>
        <time>2021-01-18T17:12:36Z</time>
      </trkpt>
      <trkpt lat="47.22685" lon="0.01219">
        <ele>66.3</ele>
        <time>2021-01-18T17:12:36Z</time>
      </trkpt>
      <trkpt lat="47.22795" lon="0.01339">
        <ele>63.5</ele>
        <time>2021-01-18T17:12:36Z</time>
      </trkpt>
      <trkpt lat="47.22795" lon="0.01339">
        <ele>63.5</ele>
        <time>2021-01-18T17:12:36Z</time>
      </trkpt>
      <trkpt lat="47.22851" lon="0.01402">
        <ele>65.5</ele>
        <time>2021-01-18T17:12:36Z</time>
      </trkpt>
      <trkpt lat="47.2286" lon="0.01405">
        <ele>65.6</ele>
        <time>2021-01-18T17:12:36Z</time>
      </trkpt>
      <trkpt lat="47.2286" lon="0.01405">
        <ele>65.6</ele>
        <time>2021-01-18T17:12:36Z</time>
      </trkpt>
      <trkpt lat="47.2287" lon="0.01397">
        <ele>65</ele>
        <time>2021-01-18T17:12:36Z</time>
      </trkpt>
      <trkpt lat="47.22917" lon="0.01315">
        <ele>63.3</ele>
        <time>2021-01-18T17:12:36Z</time>
      </trkpt>
      <trkpt lat="47.22937" lon="0.01295">
        <ele>63</ele>
        <time>2021-01-18T17:12:36Z</time>
      </trkpt>
      <trkpt lat="47.2299" lon="0.01257">
        <ele>59.5</ele>
        <time>2021-01-18T17:12:36Z</time>
      </trkpt>
      <trkpt lat="47.22995" lon="0.01249">
        <ele>61.3</ele>
        <time>2021-01-18T17:12:36Z</time>
      </trkpt>
      <trkpt lat="47.23022" lon="0.0118">
        <ele>62.5</ele>
        <time>2021-01-18T17:12:36Z</time>
      </trkpt>
      <trkpt lat="47.23038" lon="0.01155">
        <ele>60.9</ele>
        <time>2021-01-18T17:12:36Z</time>
      </trkpt>
      <trkpt lat="47.2311" lon="0.00946">
        <ele>63.9</ele>
        <time>2021-01-18T17:12:36Z</time>
      </trkpt>
      <trkpt lat="47.23112" lon="0.00927">
        <ele>63.8</ele>
        <time>2021-01-18T17:12:36Z</time>
      </trkpt>
      <trkpt lat="47.23115" lon="0.00861">
        <ele>64</ele>
        <time>2021-01-18T17:12:36Z</time>
      </trkpt>
      <trkpt lat="47.23118" lon="0.00837">
        <ele>63.4</ele>
        <time>2021-01-18T17:12:36Z</time>
      </trkpt>
      <trkpt lat="47.23115" lon="0.00822">
        <ele>63.1</ele>
        <time>2021-01-18T17:12:36Z</time>
      </trkpt>
      <trkpt lat="47.23115" lon="0.00822">
        <ele>63.1</ele>
        <time>2021-01-18T17:12:36Z</time>
      </trkpt>
      <trkpt lat="47.23114" lon="0.00809">
        <ele>63</ele>
        <time>2021-01-18T17:12:36Z</time>
      </trkpt>
      <trkpt lat="47.2312" lon="0.00795">
        <ele>62.7</ele>
        <time>2021-01-18T17:12:36Z</time>
      </trkpt>
      <trkpt lat="47.23131" lon="0.00789">
        <ele>62.8</ele>
        <time>2021-01-18T17:12:36Z</time>
      </trkpt>
      <trkpt lat="47.23138" lon="0.00792">
        <ele>63</ele>
        <time>2021-01-18T17:12:36Z</time>
      </trkpt>
      <trkpt lat="47.23148" lon="0.008">
        <ele>61.7</ele>
        <time>2021-01-18T17:12:36Z</time>
      </trkpt>
      <trkpt lat="47.23156" lon="0.00802">
        <ele>60.3</ele>
        <time>2021-01-18T17:12:36Z</time>
      </trkpt>
      <trkpt lat="47.23163" lon="0.0079">
        <ele>60.5</ele>
        <time>2021-01-18T17:12:36Z</time>
      </trkpt>
      <trkpt lat="47.23193" lon="0.00675">
        <ele>59.7</ele>
        <time>2021-01-18T17:12:36Z</time>
      </trkpt>
      <trkpt lat="47.23197" lon="0.00638">
        <ele>61</ele>
        <time>2021-01-18T17:12:36Z</time>
      </trkpt>
      <trkpt lat="47.23206" lon="0.00634">
        <ele>57.9</ele>
        <time>2021-01-18T17:12:36Z</time>
      </trkpt>
      <trkpt lat="47.23212" lon="0.00592">
        <ele>57.1</ele>
        <time>2021-01-18T17:12:36Z</time>
      </trkpt>
      <trkpt lat="47.23212" lon="0.00592">
        <ele>57.1</ele>
        <time>2021-01-18T17:12:36Z</time>
      </trkpt>
      <trkpt lat="47.2321" lon="0.00559">
        <ele>61.1</ele>
        <time>2021-01-18T17:12:36Z</time>
      </trkpt>
      <trkpt lat="47.23204" lon="0.0055">
        <ele>61.3</ele>
        <time>2021-01-18T17:12:36Z</time>
      </trkpt>
      <trkpt lat="47.23189" lon="0.00538">
        <ele>60.7</ele>
        <time>2021-01-18T17:12:36Z</time>
      </trkpt>
      <trkpt lat="47.23187" lon="0.00513">
        <ele>59.9</ele>
        <time>2021-01-18T17:12:36Z</time>
      </trkpt>
      <trkpt lat="47.23198" lon="0.00266">
        <ele>47.3</ele>
        <time>2021-01-18T17:12:36Z</time>
      </trkpt>
      <trkpt lat="47.23198" lon="0.00266">
        <ele>47.3</ele>
        <time>2021-01-18T17:12:36Z</time>
      </trkpt>
      <trkpt lat="47.23196" lon="0.00225">
        <ele>44.5</ele>
        <time>2021-01-18T17:12:36Z</time>
      </trkpt>
      <trkpt lat="47.23191" lon="0.00208">
        <ele>43.6</ele>
        <time>2021-01-18T17:12:36Z</time>
      </trkpt>
      <trkpt lat="47.23151" lon="0.00159">
        <ele>45.3</ele>
        <time>2021-01-18T17:12:36Z</time>
      </trkpt>
      <trkpt lat="47.2313" lon="0.00152">
        <ele>47.5</ele>
        <time>2021-01-18T17:12:36Z</time>
      </trkpt>
      <trkpt lat="47.2312" lon="0.00151">
        <ele>48.1</ele>
        <time>2021-01-18T17:12:36Z</time>
      </trkpt>
      <trkpt lat="47.22887" lon="0.00036">
        <ele>59</ele>
        <time>2021-01-18T17:12:36Z</time>
      </trkpt>
      <trkpt lat="47.22837" lon="-0">
        <ele>60</ele>
        <time>2021-01-18T17:12:36Z</time>
      </trkpt>
      <trkpt lat="47.22837" lon="-0">
        <ele>60</ele>
        <time>2021-01-18T17:12:36Z</time>
      </trkpt>
      <trkpt lat="47.22826" lon="-0.00011">
        <ele>60</ele>
        <time>2021-01-18T17:12:36Z</time>
      </trkpt>
      <trkpt lat="47.22957" lon="-0.00381">
        <ele>58.7</ele>
        <time>2021-01-18T17:12:36Z</time>
      </trkpt>
      <trkpt lat="47.22968" lon="-0.00374">
        <ele>58.6</ele>
        <time>2021-01-18T17:12:36Z</time>
      </trkpt>
      <trkpt lat="47.22968" lon="-0.00374">
        <ele>58.6</ele>
        <time>2021-01-18T17:12:36Z</time>
      </trkpt>
      <trkpt lat="47.22795" lon="-0.00473">
        <ele>60</ele>
        <time>2021-01-18T17:12:36Z</time>
      </trkpt>
      <trkpt lat="47.22604" lon="-0.00539">
        <ele>64.8</ele>
        <time>2021-01-18T17:12:36Z</time>
      </trkpt>
      <trkpt lat="47.22541" lon="-0.00577">
        <ele>68.1</ele>
        <time>2021-01-18T17:12:36Z</time>
      </trkpt>
      <trkpt lat="47.22541" lon="-0.00577">
        <ele>68.1</ele>
        <time>2021-01-18T17:12:36Z</time>
      </trkpt>
      <trkpt lat="47.22546" lon="-0.00584">
        <ele>67.7</ele>
        <time>2021-01-18T17:12:36Z</time>
      </trkpt>
      <trkpt lat="47.22549" lon="-0.0072">
        <ele>64.6</ele>
        <time>2021-01-18T17:12:36Z</time>
      </trkpt>
      <trkpt lat="47.22541" lon="-0.00777">
        <ele>64</ele>
        <time>2021-01-18T17:12:36Z</time>
      </trkpt>
      <trkpt lat="47.22544" lon="-0.00844">
        <ele>62.8</ele>
        <time>2021-01-18T17:12:36Z</time>
      </trkpt>
      <trkpt lat="47.2255" lon="-0.00902">
        <ele>61.7</ele>
        <time>2021-01-18T17:12:36Z</time>
      </trkpt>
      <trkpt lat="47.22553" lon="-0.00974">
        <ele>60.1</ele>
        <time>2021-01-18T17:12:36Z</time>
      </trkpt>
      <trkpt lat="47.22612" lon="-0.01273">
        <ele>54.1</ele>
        <time>2021-01-18T17:12:36Z</time>
      </trkpt>
      <trkpt lat="47.22611" lon="-0.01288">
        <ele>53.6</ele>
        <time>2021-01-18T17:12:36Z</time>
      </trkpt>
      <trkpt lat="47.22611" lon="-0.01288">
        <ele>53.6</ele>
        <time>2021-01-18T17:12:36Z</time>
      </trkpt>
      <trkpt lat="47.2258" lon="-0.01333">
        <ele>54.2</ele>
        <time>2021-01-18T17:12:36Z</time>
      </trkpt>
      <trkpt lat="47.22354" lon="-0.01777">
        <ele>79.1</ele>
        <time>2021-01-18T17:12:36Z</time>
      </trkpt>
      <trkpt lat="47.2235" lon="-0.01789">
        <ele>80.5</ele>
        <time>2021-01-18T17:12:36Z</time>
      </trkpt>
      <trkpt lat="47.22341" lon="-0.01799">
        <ele>82.1</ele>
        <time>2021-01-18T17:12:36Z</time>
      </trkpt>
      <trkpt lat="47.22333" lon="-0.01803">
        <ele>82.9</ele>
        <time>2021-01-18T17:12:36Z</time>
      </trkpt>
      <trkpt lat="47.22333" lon="-0.01803">
        <ele>82.9</ele>
        <time>2021-01-18T17:12:36Z</time>
      </trkpt>
      <trkpt lat="47.22311" lon="-0.01813">
        <ele>83.8</ele>
        <time>2021-01-18T17:12:36Z</time>
      </trkpt>
      <trkpt lat="47.22311" lon="-0.01813">
        <ele>83.8</ele>
        <time>2021-01-18T17:12:36Z</time>
      </trkpt>
      <trkpt lat="47.22412" lon="-0.01972">
        <ele>84</ele>
        <time>2021-01-18T17:12:36Z</time>
      </trkpt>
      <trkpt lat="47.22469" lon="-0.02038">
        <ele>84.1</ele>
        <time>2021-01-18T17:12:36Z</time>
      </trkpt>
      <trkpt lat="47.22545" lon="-0.02187">
        <ele>83.8</ele>
        <time>2021-01-18T17:12:36Z</time>
      </trkpt>
      <trkpt lat="47.22548" lon="-0.02202">
        <ele>84</ele>
        <time>2021-01-18T17:12:36Z</time>
      </trkpt>
      <trkpt lat="47.22551" lon="-0.0225">
        <ele>84</ele>
        <time>2021-01-18T17:12:36Z</time>
      </trkpt>
      <trkpt lat="47.22559" lon="-0.02281">
        <ele>84</ele>
        <time>2021-01-18T17:12:36Z</time>
      </trkpt>
      <trkpt lat="47.2257" lon="-0.02304">
        <ele>84.5</ele>
        <time>2021-01-18T17:12:36Z</time>
      </trkpt>
      <trkpt lat="47.22585" lon="-0.02321">
        <ele>84.4</ele>
        <time>2021-01-18T17:12:36Z</time>
      </trkpt>
      <trkpt lat="47.22673" lon="-0.02408">
        <ele>82.7</ele>
        <time>2021-01-18T17:12:36Z</time>
      </trkpt>
      <trkpt lat="47.22712" lon="-0.02475">
        <ele>83.4</ele>
        <time>2021-01-18T17:12:36Z</time>
      </trkpt>
      <trkpt lat="47.22716" lon="-0.02487">
        <ele>83.2</ele>
        <time>2021-01-18T17:12:36Z</time>
      </trkpt>
      <trkpt lat="47.22716" lon="-0.02487">
        <ele>83.2</ele>
        <time>2021-01-18T17:12:36Z</time>
      </trkpt>
      <trkpt lat="47.22729" lon="-0.02498">
        <ele>82.7</ele>
        <time>2021-01-18T17:12:36Z</time>
      </trkpt>
      <trkpt lat="47.2275" lon="-0.02501">
        <ele>82</ele>
        <time>2021-01-18T17:12:36Z</time>
      </trkpt>
      <trkpt lat="47.2284" lon="-0.02483">
        <ele>74.7</ele>
        <time>2021-01-18T17:12:36Z</time>
      </trkpt>
      <trkpt lat="47.22858" lon="-0.02473">
        <ele>70.6</ele>
        <time>2021-01-18T17:12:36Z</time>
      </trkpt>
      <trkpt lat="47.2298" lon="-0.02352">
        <ele>58.1</ele>
        <time>2021-01-18T17:12:36Z</time>
      </trkpt>
      <trkpt lat="47.22987" lon="-0.02347">
        <ele>57.5</ele>
        <time>2021-01-18T17:12:36Z</time>
      </trkpt>
      <trkpt lat="47.2299" lon="-0.02338">
        <ele>56.9</ele>
        <time>2021-01-18T17:12:36Z</time>
      </trkpt>
      <trkpt lat="47.23016" lon="-0.02311">
        <ele>55.4</ele>
        <time>2021-01-18T17:12:36Z</time>
      </trkpt>
      <trkpt lat="47.23176" lon="-0.02189">
        <ele>49.5</ele>
        <time>2021-01-18T17:12:36Z</time>
      </trkpt>
      <trkpt lat="47.23282" lon="-0.0215">
        <ele>48.2</ele>
        <time>2021-01-18T17:12:36Z</time>
      </trkpt>
      <trkpt lat="47.23341" lon="-0.02098">
        <ele>48.7</ele>
        <time>2021-01-18T17:12:36Z</time>
      </trkpt>
      <trkpt lat="47.23366" lon="-0.02051">
        <ele>48.1</ele>
        <time>2021-01-18T17:12:36Z</time>
      </trkpt>
      <trkpt lat="47.23448" lon="-0.02002">
        <ele>51.2</ele>
        <time>2021-01-18T17:12:36Z</time>
      </trkpt>
      <trkpt lat="47.23448" lon="-0.02002">
        <ele>51.2</ele>
        <time>2021-01-18T17:12:36Z</time>
      </trkpt>
      <trkpt lat="47.23456" lon="-0.01996">
        <ele>51.3</ele>
        <time>2021-01-18T17:12:36Z</time>
      </trkpt>
      <trkpt lat="47.23522" lon="-0.02261">
        <ele>55</ele>
        <time>2021-01-18T17:12:36Z</time>
      </trkpt>
      <trkpt lat="47.23524" lon="-0.02316">
        <ele>56.1</ele>
        <time>2021-01-18T17:12:36Z</time>
      </trkpt>
      <trkpt lat="47.23523" lon="-0.0233">
        <ele>56.2</ele>
        <time>2021-01-18T17:12:36Z</time>
      </trkpt>
      <trkpt lat="47.23586" lon="-0.02345">
        <ele>54.5</ele>
        <time>2021-01-18T17:12:36Z</time>
      </trkpt>
      <trkpt lat="47.23607" lon="-0.02344">
        <ele>53.8</ele>
        <time>2021-01-18T17:12:36Z</time>
      </trkpt>
      <trkpt lat="47.23759" lon="-0.02283">
        <ele>51.5</ele>
        <time>2021-01-18T17:12:36Z</time>
      </trkpt>
      <trkpt lat="47.23759" lon="-0.02283">
        <ele>51.5</ele>
        <time>2021-01-18T17:12:36Z</time>
      </trkpt>
      <trkpt lat="47.23767" lon="-0.02289">
        <ele>51</ele>
        <time>2021-01-18T17:12:36Z</time>
      </trkpt>
      <trkpt lat="47.23761" lon="-0.02397">
        <ele>49.5</ele>
        <time>2021-01-18T17:12:36Z</time>
      </trkpt>
      <trkpt lat="47.23761" lon="-0.02397">
        <ele>49.5</ele>
        <time>2021-01-18T17:12:36Z</time>
      </trkpt>
      <trkpt lat="47.23761" lon="-0.0241">
        <ele>50.4</ele>
        <time>2021-01-18T17:12:36Z</time>
      </trkpt>
      <trkpt lat="47.23754" lon="-0.0242">
        <ele>50.7</ele>
        <time>2021-01-18T17:12:36Z</time>
      </trkpt>
      <trkpt lat="47.23731" lon="-0.02426">
        <ele>52</ele>
        <time>2021-01-18T17:12:36Z</time>
      </trkpt>
      <trkpt lat="47.23703" lon="-0.02434">
        <ele>54.2</ele>
        <time>2021-01-18T17:12:36Z</time>
      </trkpt>
      <trkpt lat="47.23616" lon="-0.02498">
        <ele>57.3</ele>
        <time>2021-01-18T17:12:36Z</time>
      </trkpt>
      <trkpt lat="47.23609" lon="-0.02508">
        <ele>57.7</ele>
        <time>2021-01-18T17:12:36Z</time>
      </trkpt>
      <trkpt lat="47.23598" lon="-0.02533">
        <ele>58.6</ele>
        <time>2021-01-18T17:12:36Z</time>
      </trkpt>
      <trkpt lat="47.23595" lon="-0.02614">
        <ele>63.6</ele>
        <time>2021-01-18T17:12:36Z</time>
      </trkpt>
      <trkpt lat="47.23597" lon="-0.02657">
        <ele>65.5</ele>
        <time>2021-01-18T17:12:36Z</time>
      </trkpt>
      <trkpt lat="47.23623" lon="-0.02766">
        <ele>67.6</ele>
        <time>2021-01-18T17:12:36Z</time>
      </trkpt>
      <trkpt lat="47.23695" lon="-0.02887">
        <ele>70.2</ele>
        <time>2021-01-18T17:12:36Z</time>
      </trkpt>
      <trkpt lat="47.23731" lon="-0.02946">
        <ele>78.8</ele>
        <time>2021-01-18T17:12:36Z</time>
      </trkpt>
      <trkpt lat="47.23745" lon="-0.02983">
        <ele>82</ele>
        <time>2021-01-18T17:12:36Z</time>
      </trkpt>
      <trkpt lat="47.23754" lon="-0.03015">
        <ele>83.3</ele>
        <time>2021-01-18T17:12:36Z</time>
      </trkpt>
      <trkpt lat="47.23754" lon="-0.03015">
        <ele>83.3</ele>
        <time>2021-01-18T17:12:36Z</time>
      </trkpt>
      <trkpt lat="47.23757" lon="-0.03027">
        <ele>83.5</ele>
        <time>2021-01-18T17:12:36Z</time>
      </trkpt>
      <trkpt lat="47.23707" lon="-0.03088">
        <ele>84.5</ele>
        <time>2021-01-18T17:12:36Z</time>
      </trkpt>
      <trkpt lat="47.23699" lon="-0.03094">
        <ele>84.2</ele>
        <time>2021-01-18T17:12:36Z</time>
      </trkpt>
      <trkpt lat="47.23657" lon="-0.03106">
        <ele>85.3</ele>
        <time>2021-01-18T17:12:36Z</time>
      </trkpt>
      <trkpt lat="47.2348" lon="-0.03086">
        <ele>84.3</ele>
        <time>2021-01-18T17:12:36Z</time>
      </trkpt>
      <trkpt lat="47.2348" lon="-0.03086">
        <ele>84.3</ele>
        <time>2021-01-18T17:12:36Z</time>
      </trkpt>
      <trkpt lat="47.23484" lon="-0.03109">
        <ele>85</ele>
        <time>2021-01-18T17:12:36Z</time>
      </trkpt>
      <trkpt lat="47.23544" lon="-0.03236">
        <ele>86.4</ele>
        <time>2021-01-18T17:12:36Z</time>
      </trkpt>
      <trkpt lat="47.23584" lon="-0.03376">
        <ele>88</ele>
        <time>2021-01-18T17:12:36Z</time>
      </trkpt>
      <trkpt lat="47.23626" lon="-0.03456">
        <ele>88.5</ele>
        <time>2021-01-18T17:12:36Z</time>
      </trkpt>
      <trkpt lat="47.23632" lon="-0.03492">
        <ele>88.8</ele>
        <time>2021-01-18T17:12:36Z</time>
      </trkpt>
      <trkpt lat="47.23636" lon="-0.03558">
        <ele>86.1</ele>
        <time>2021-01-18T17:12:36Z</time>
      </trkpt>
      <trkpt lat="47.2365" lon="-0.03611">
        <ele>84.8</ele>
        <time>2021-01-18T17:12:36Z</time>
      </trkpt>
      <trkpt lat="47.23662" lon="-0.03637">
        <ele>84.9</ele>
        <time>2021-01-18T17:12:36Z</time>
      </trkpt>
      <trkpt lat="47.23697" lon="-0.03687">
        <ele>84.8</ele>
        <time>2021-01-18T17:12:36Z</time>
      </trkpt>
      <trkpt lat="47.23697" lon="-0.03687">
        <ele>84.8</ele>
        <time>2021-01-18T17:12:36Z</time>
      </trkpt>
      <trkpt lat="47.23696" lon="-0.03697">
        <ele>85.1</ele>
        <time>2021-01-18T17:12:36Z</time>
      </trkpt>
      <trkpt lat="47.23687" lon="-0.03711">
        <ele>85</ele>
        <time>2021-01-18T17:12:36Z</time>
      </trkpt>
      <trkpt lat="47.23687" lon="-0.03721">
        <ele>85</ele>
        <time>2021-01-18T17:12:36Z</time>
      </trkpt>
      <trkpt lat="47.23691" lon="-0.03741">
        <ele>84.9</ele>
        <time>2021-01-18T17:12:36Z</time>
      </trkpt>
      <trkpt lat="47.239" lon="-0.0431">
        <ele>77.9</ele>
        <time>2021-01-18T17:12:36Z</time>
      </trkpt>
      <trkpt lat="47.23912" lon="-0.04373">
        <ele>78.1</ele>
        <time>2021-01-18T17:12:36Z</time>
      </trkpt>
      <trkpt lat="47.23912" lon="-0.04373">
        <ele>78.1</ele>
        <time>2021-01-18T17:12:36Z</time>
      </trkpt>
      <trkpt lat="47.2395" lon="-0.044">
        <ele>76.9</ele>
        <time>2021-01-18T17:12:36Z</time>
      </trkpt>
      <trkpt lat="47.24001" lon="-0.04428">
        <ele>76</ele>
        <time>2021-01-18T17:12:36Z</time>
      </trkpt>
      <trkpt lat="47.24124" lon="-0.04575">
        <ele>73.5</ele>
        <time>2021-01-18T17:12:36Z</time>
      </trkpt>
      <trkpt lat="47.24124" lon="-0.04575">
        <ele>73.5</ele>
        <time>2021-01-18T17:12:36Z</time>
      </trkpt>
      <trkpt lat="47.24114" lon="-0.04566">
        <ele>73.6</ele>
        <time>2021-01-18T17:12:36Z</time>
      </trkpt>
      <trkpt lat="47.24115" lon="-0.04664">
        <ele>72.9</ele>
        <time>2021-01-18T17:12:36Z</time>
      </trkpt>
      <trkpt lat="47.2415" lon="-0.05008">
        <ele>72.5</ele>
        <time>2021-01-18T17:12:36Z</time>
      </trkpt>
      <trkpt lat="47.24146" lon="-0.05108">
        <ele>72.4</ele>
        <time>2021-01-18T17:12:36Z</time>
      </trkpt>
      <trkpt lat="47.24139" lon="-0.05169">
        <ele>71.8</ele>
        <time>2021-01-18T17:12:36Z</time>
      </trkpt>
      <trkpt lat="47.24143" lon="-0.05194">
        <ele>70.5</ele>
        <time>2021-01-18T17:12:36Z</time>
      </trkpt>
      <trkpt lat="47.24202" lon="-0.05335">
        <ele>68.8</ele>
        <time>2021-01-18T17:12:36Z</time>
      </trkpt>
      <trkpt lat="47.24202" lon="-0.05335">
        <ele>68.8</ele>
        <time>2021-01-18T17:12:36Z</time>
      </trkpt>
      <trkpt lat="47.24206" lon="-0.05348">
        <ele>69.3</ele>
        <time>2021-01-18T17:12:36Z</time>
      </trkpt>
      <trkpt lat="47.2416" lon="-0.05374">
        <ele>67</ele>
        <time>2021-01-18T17:12:36Z</time>
      </trkpt>
      <trkpt lat="47.24001" lon="-0.05404">
        <ele>71.4</ele>
        <time>2021-01-18T17:12:36Z</time>
      </trkpt>
      <trkpt lat="47.23981" lon="-0.05406">
        <ele>71.4</ele>
        <time>2021-01-18T17:12:36Z</time>
      </trkpt>
      <trkpt lat="47.23898" lon="-0.05448">
        <ele>72.8</ele>
        <time>2021-01-18T17:12:36Z</time>
      </trkpt>
      <trkpt lat="47.23947" lon="-0.05569">
        <ele>72.4</ele>
        <time>2021-01-18T17:12:36Z</time>
      </trkpt>
      <trkpt lat="47.24004" lon="-0.05609">
        <ele>72</ele>
        <time>2021-01-18T17:12:36Z</time>
      </trkpt>
      <trkpt lat="47.24043" lon="-0.05738">
        <ele>71.8</ele>
        <time>2021-01-18T17:12:36Z</time>
      </trkpt>
      <trkpt lat="47.23956" lon="-0.05792">
        <ele>72.6</ele>
        <time>2021-01-18T17:12:36Z</time>
      </trkpt>
      <trkpt lat="47.23956" lon="-0.05792">
        <ele>72.6</ele>
        <time>2021-01-18T17:12:36Z</time>
      </trkpt>
      <trkpt lat="47.23958" lon="-0.05802">
        <ele>72.5</ele>
        <time>2021-01-18T17:12:36Z</time>
      </trkpt>
      <trkpt lat="47.23943" lon="-0.05806">
        <ele>73.1</ele>
        <time>2021-01-18T17:12:36Z</time>
      </trkpt>
      <trkpt lat="47.23931" lon="-0.058">
        <ele>73.5</ele>
        <time>2021-01-18T17:12:36Z</time>
      </trkpt>
      <trkpt lat="47.23916" lon="-0.05784">
        <ele>74</ele>
        <time>2021-01-18T17:12:36Z</time>
      </trkpt>
      <trkpt lat="47.23908" lon="-0.05781">
        <ele>74</ele>
        <time>2021-01-18T17:12:36Z</time>
      </trkpt>
      <trkpt lat="47.23819" lon="-0.05775">
        <ele>76.5</ele>
        <time>2021-01-18T17:12:36Z</time>
      </trkpt>
      <trkpt lat="47.23793" lon="-0.05764">
        <ele>77</ele>
        <time>2021-01-18T17:12:36Z</time>
      </trkpt>
      <trkpt lat="47.23738" lon="-0.05767">
        <ele>77</ele>
        <time>2021-01-18T17:12:36Z</time>
      </trkpt>
      <trkpt lat="47.23608" lon="-0.05715">
        <ele>76.8</ele>
        <time>2021-01-18T17:12:36Z</time>
      </trkpt>
      <trkpt lat="47.2358" lon="-0.05712">
        <ele>77</ele>
        <time>2021-01-18T17:12:36Z</time>
      </trkpt>
      <trkpt lat="47.23513" lon="-0.05734">
        <ele>75.5</ele>
        <time>2021-01-18T17:12:36Z</time>
      </trkpt>
      <trkpt lat="47.23513" lon="-0.05734">
        <ele>75.5</ele>
        <time>2021-01-18T17:12:36Z</time>
      </trkpt>
      <trkpt lat="47.23475" lon="-0.05743">
        <ele>75</ele>
        <time>2021-01-18T17:12:36Z</time>
      </trkpt>
      <trkpt lat="47.23389" lon="-0.05744">
        <ele>72.6</ele>
        <time>2021-01-18T17:12:36Z</time>
      </trkpt>
      <trkpt lat="47.23289" lon="-0.05766">
        <ele>65.1</ele>
        <time>2021-01-18T17:12:36Z</time>
      </trkpt>
      <trkpt lat="47.23282" lon="-0.05786">
        <ele>65.2</ele>
        <time>2021-01-18T17:12:36Z</time>
      </trkpt>
      <trkpt lat="47.23281" lon="-0.05798">
        <ele>65.1</ele>
        <time>2021-01-18T17:12:36Z</time>
      </trkpt>
      <trkpt lat="47.23273" lon="-0.05785">
        <ele>65</ele>
        <time>2021-01-18T17:12:36Z</time>
      </trkpt>
      <trkpt lat="47.2324" lon="-0.05711">
        <ele>66.1</ele>
        <time>2021-01-18T17:12:36Z</time>
      </trkpt>
      <trkpt lat="47.23093" lon="-0.05468">
        <ele>66.4</ele>
        <time>2021-01-18T17:12:36Z</time>
      </trkpt>
      <trkpt lat="47.2304" lon="-0.05339">
        <ele>59.4</ele>
        <time>2021-01-18T17:12:36Z</time>
      </trkpt>
      <trkpt lat="47.2304" lon="-0.05339">
        <ele>59.4</ele>
        <time>2021-01-18T17:12:36Z</time>
      </trkpt>
      <trkpt lat="47.23046" lon="-0.05353">
        <ele>59.9</ele>
        <time>2021-01-18T17:12:36Z</time>
      </trkpt>
      <trkpt lat="47.22913" lon="-0.05614">
        <ele>56.8</ele>
        <time>2021-01-18T17:12:36Z</time>
      </trkpt>
      <trkpt lat="47.22902" lon="-0.0565">
        <ele>56.8</ele>
        <time>2021-01-18T17:12:36Z</time>
      </trkpt>
      <trkpt lat="47.22888" lon="-0.0578">
        <ele>56.8</ele>
        <time>2021-01-18T17:12:36Z</time>
      </trkpt>
      <trkpt lat="47.229" lon="-0.05954">
        <ele>54.1</ele>
        <time>2021-01-18T17:12:36Z</time>
      </trkpt>
      <trkpt lat="47.22903" lon="-0.0597">
        <ele>54</ele>
        <time>2021-01-18T17:12:36Z</time>
      </trkpt>
      <trkpt lat="47.22903" lon="-0.0597">
        <ele>54</ele>
        <time>2021-01-18T17:12:36Z</time>
      </trkpt>
      <trkpt lat="47.22907" lon="-0.05987">
        <ele>53.9</ele>
        <time>2021-01-18T17:12:36Z</time>
      </trkpt>
      <trkpt lat="47.22916" lon="-0.05996">
        <ele>54.1</ele>
        <time>2021-01-18T17:12:36Z</time>
      </trkpt>
      <trkpt lat="47.22948" lon="-0.0607">
        <ele>57.9</ele>
        <time>2021-01-18T17:12:36Z</time>
      </trkpt>
      <trkpt lat="47.22985" lon="-0.06178">
        <ele>65.2</ele>
        <time>2021-01-18T17:12:36Z</time>
      </trkpt>
      <trkpt lat="47.2299" lon="-0.06188">
        <ele>66.1</ele>
        <time>2021-01-18T17:12:36Z</time>
      </trkpt>
      <trkpt lat="47.23001" lon="-0.06193">
        <ele>67.1</ele>
        <time>2021-01-18T17:12:36Z</time>
      </trkpt>
      <trkpt lat="47.23025" lon="-0.06189">
        <ele>69.6</ele>
        <time>2021-01-18T17:12:36Z</time>
      </trkpt>
      <trkpt lat="47.23062" lon="-0.06522">
        <ele>74.6</ele>
        <time>2021-01-18T17:12:36Z</time>
      </trkpt>
      <trkpt lat="47.23102" lon="-0.06744">
        <ele>75</ele>
        <time>2021-01-18T17:12:36Z</time>
      </trkpt>
      <trkpt lat="47.23111" lon="-0.06742">
        <ele>75</ele>
        <time>2021-01-18T17:12:36Z</time>
      </trkpt>
      <trkpt lat="47.23111" lon="-0.06742">
        <ele>75</ele>
        <time>2021-01-18T17:12:36Z</time>
      </trkpt>
      <trkpt lat="47.23102" lon="-0.06744">
        <ele>75</ele>
        <time>2021-01-18T17:12:36Z</time>
      </trkpt>
      <trkpt lat="47.23103" lon="-0.06775">
        <ele>74.1</ele>
        <time>2021-01-18T17:12:36Z</time>
      </trkpt>
      <trkpt lat="47.23088" lon="-0.06875">
        <ele>68.5</ele>
        <time>2021-01-18T17:12:36Z</time>
      </trkpt>
      <trkpt lat="47.23061" lon="-0.06949">
        <ele>64.2</ele>
        <time>2021-01-18T17:12:36Z</time>
      </trkpt>
      <trkpt lat="47.23016" lon="-0.0712">
        <ele>54.3</ele>
        <time>2021-01-18T17:12:36Z</time>
      </trkpt>
      <trkpt lat="47.23016" lon="-0.0712">
        <ele>54.3</ele>
        <time>2021-01-18T17:12:36Z</time>
      </trkpt>
      <trkpt lat="47.23012" lon="-0.07131">
        <ele>53.7</ele>
        <time>2021-01-18T17:12:36Z</time>
      </trkpt>
      <trkpt lat="47.22936" lon="-0.07062">
        <ele>54.2</ele>
        <time>2021-01-18T17:12:36Z</time>
      </trkpt>
      <trkpt lat="47.22935" lon="-0.07079">
        <ele>53.8</ele>
        <time>2021-01-18T17:12:36Z</time>
      </trkpt>
      <trkpt lat="47.22935" lon="-0.07079">
        <ele>53.8</ele>
        <time>2021-01-18T17:12:36Z</time>
      </trkpt>
      <trkpt lat="47.22954" lon="-0.0733">
        <ele>46.7</ele>
        <time>2021-01-18T17:12:36Z</time>
      </trkpt>
      <trkpt lat="47.22999" lon="-0.07324">
        <ele>46.1</ele>
        <time>2021-01-18T17:12:36Z</time>
      </trkpt>
      <trkpt lat="47.22999" lon="-0.07324">
        <ele>46.1</ele>
        <time>2021-01-18T17:12:36Z</time>
      </trkpt>
      <trkpt lat="47.2301" lon="-0.07322">
        <ele>46.3</ele>
        <time>2021-01-18T17:12:36Z</time>
      </trkpt>
      <trkpt lat="47.23015" lon="-0.07333">
        <ele>45.6</ele>
        <time>2021-01-18T17:12:36Z</time>
      </trkpt>
      <trkpt lat="47.23063" lon="-0.07794">
        <ele>33.1</ele>
        <time>2021-01-18T17:12:36Z</time>
      </trkpt>
      <trkpt lat="47.23063" lon="-0.07794">
        <ele>33.1</ele>
        <time>2021-01-18T17:12:36Z</time>
      </trkpt>
      <trkpt lat="47.23082" lon="-0.07907">
        <ele>29.3</ele>
        <time>2021-01-18T17:12:36Z</time>
      </trkpt>
      <trkpt lat="47.23087" lon="-0.07922">
        <ele>28.8</ele>
        <time>2021-01-18T17:12:36Z</time>
      </trkpt>
      <trkpt lat="47.23153" lon="-0.08307">
        <ele>26</ele>
        <time>2021-01-18T17:12:36Z</time>
      </trkpt>
      <trkpt lat="47.23153" lon="-0.08307">
        <ele>26</ele>
        <time>2021-01-18T17:12:36Z</time>
      </trkpt>
      <trkpt lat="47.23671" lon="-0.08214">
        <ele>26</ele>
        <time>2021-01-18T17:12:36Z</time>
      </trkpt>
      <trkpt lat="47.23671" lon="-0.08214">
        <ele>26</ele>
        <time>2021-01-18T17:12:36Z</time>
      </trkpt>
      <trkpt lat="47.23741" lon="-0.08208">
        <ele>26</ele>
        <time>2021-01-18T17:12:36Z</time>
      </trkpt>
      <trkpt lat="47.23794" lon="-0.08215">
        <ele>26</ele>
        <time>2021-01-18T17:12:36Z</time>
      </trkpt>
      <trkpt lat="47.23796" lon="-0.08259">
        <ele>26</ele>
        <time>2021-01-18T17:12:36Z</time>
      </trkpt>
      <trkpt lat="47.23804" lon="-0.083">
        <ele>26</ele>
        <time>2021-01-18T17:12:36Z</time>
      </trkpt>
      <trkpt lat="47.23811" lon="-0.08497">
        <ele>26.1</ele>
        <time>2021-01-18T17:12:36Z</time>
      </trkpt>
      <trkpt lat="47.23816" lon="-0.08522">
        <ele>26.3</ele>
        <time>2021-01-18T17:12:36Z</time>
      </trkpt>
      <trkpt lat="47.23824" lon="-0.08537">
        <ele>26.5</ele>
        <time>2021-01-18T17:12:36Z</time>
      </trkpt>
      <trkpt lat="47.23923" lon="-0.08603">
        <ele>26.4</ele>
        <time>2021-01-18T17:12:36Z</time>
      </trkpt>
      <trkpt lat="47.2393" lon="-0.08605">
        <ele>26.5</ele>
        <time>2021-01-18T17:12:36Z</time>
      </trkpt>
      <trkpt lat="47.2393" lon="-0.08605">
        <ele>26.5</ele>
        <time>2021-01-18T17:12:36Z</time>
      </trkpt>
      <trkpt lat="47.24006" lon="-0.08636">
        <ele>26.9</ele>
        <time>2021-01-18T17:12:36Z</time>
      </trkpt>
      <trkpt lat="47.24028" lon="-0.08652">
        <ele>27</ele>
        <time>2021-01-18T17:12:36Z</time>
      </trkpt>
      <trkpt lat="47.24072" lon="-0.08665">
        <ele>26.9</ele>
        <time>2021-01-18T17:12:36Z</time>
      </trkpt>
      <trkpt lat="47.24086" lon="-0.08664">
        <ele>26.8</ele>
        <time>2021-01-18T17:12:36Z</time>
      </trkpt>
      <trkpt lat="47.24113" lon="-0.08649">
        <ele>26</ele>
        <time>2021-01-18T17:12:36Z</time>
      </trkpt>
      <trkpt lat="47.24117" lon="-0.08639">
        <ele>26</ele>
        <time>2021-01-18T17:12:36Z</time>
      </trkpt>
      <trkpt lat="47.2412" lon="-0.08628">
        <ele>26</ele>
        <time>2021-01-18T17:12:36Z</time>
      </trkpt>
      <trkpt lat="47.24128" lon="-0.08629">
        <ele>26</ele>
        <time>2021-01-18T17:12:36Z</time>
      </trkpt>
      <trkpt lat="47.24156" lon="-0.08616">
        <ele>26.5</ele>
        <time>2021-01-18T17:12:36Z</time>
      </trkpt>
      <trkpt lat="47.24175" lon="-0.08599">
        <ele>26.8</ele>
        <time>2021-01-18T17:12:36Z</time>
      </trkpt>
      <trkpt lat="47.24288" lon="-0.08585">
        <ele>26</ele>
        <time>2021-01-18T17:12:36Z</time>
      </trkpt>
      <trkpt lat="47.24399" lon="-0.0852">
        <ele>26</ele>
        <time>2021-01-18T17:12:36Z</time>
      </trkpt>
      <trkpt lat="47.24435" lon="-0.08478">
        <ele>26</ele>
        <time>2021-01-18T17:12:36Z</time>
      </trkpt>
      <trkpt lat="47.24435" lon="-0.08478">
        <ele>26</ele>
        <time>2021-01-18T17:12:36Z</time>
      </trkpt>
      <trkpt lat="47.2446" lon="-0.08463">
        <ele>26</ele>
        <time>2021-01-18T17:12:36Z</time>
      </trkpt>
      <trkpt lat="47.2446" lon="-0.08476">
        <ele>26.1</ele>
        <time>2021-01-18T17:12:36Z</time>
      </trkpt>
      <trkpt lat="47.24472" lon="-0.08499">
        <ele>26.9</ele>
        <time>2021-01-18T17:12:36Z</time>
      </trkpt>
      <trkpt lat="47.24483" lon="-0.08508">
        <ele>26.7</ele>
        <time>2021-01-18T17:12:36Z</time>
      </trkpt>
      <trkpt lat="47.24545" lon="-0.08504">
        <ele>26.5</ele>
        <time>2021-01-18T17:12:36Z</time>
      </trkpt>
      <trkpt lat="47.24639" lon="-0.08453">
        <ele>26.7</ele>
        <time>2021-01-18T17:12:36Z</time>
      </trkpt>
      <trkpt lat="47.24815" lon="-0.08431">
        <ele>26.2</ele>
        <time>2021-01-18T17:12:36Z</time>
      </trkpt>
      <trkpt lat="47.25001" lon="-0.08312">
        <ele>26.8</ele>
        <time>2021-01-18T17:12:36Z</time>
      </trkpt>
      <trkpt lat="47.25049" lon="-0.08304">
        <ele>27</ele>
        <time>2021-01-18T17:12:36Z</time>
      </trkpt>
      <trkpt lat="47.25056" lon="-0.08289">
        <ele>27</ele>
        <time>2021-01-18T17:12:36Z</time>
      </trkpt>
      <trkpt lat="47.25056" lon="-0.08289">
        <ele>27</ele>
        <time>2021-01-18T17:12:36Z</time>
      </trkpt>
      <trkpt lat="47.25049" lon="-0.08304">
        <ele>27</ele>
        <time>2021-01-18T17:12:36Z</time>
      </trkpt>
      <trkpt lat="47.25115" lon="-0.08315">
        <ele>26.7</ele>
        <time>2021-01-18T17:12:36Z</time>
      </trkpt>
      <trkpt lat="47.25196" lon="-0.08361">
        <ele>27.1</ele>
        <time>2021-01-18T17:12:36Z</time>
      </trkpt>
      <trkpt lat="47.25238" lon="-0.08399">
        <ele>27.4</ele>
        <time>2021-01-18T17:12:36Z</time>
      </trkpt>
      <trkpt lat="47.25294" lon="-0.08479">
        <ele>28.1</ele>
        <time>2021-01-18T17:12:36Z</time>
      </trkpt>
      <trkpt lat="47.25318" lon="-0.08489">
        <ele>29.7</ele>
        <time>2021-01-18T17:12:36Z</time>
      </trkpt>
      <trkpt lat="47.25326" lon="-0.08507">
        <ele>30.3</ele>
        <time>2021-01-18T17:12:36Z</time>
      </trkpt>
      <trkpt lat="47.25329" lon="-0.08523">
        <ele>30.4</ele>
        <time>2021-01-18T17:12:36Z</time>
      </trkpt>
      <trkpt lat="47.25331" lon="-0.08549">
        <ele>28.5</ele>
        <time>2021-01-18T17:12:36Z</time>
      </trkpt>
      <trkpt lat="47.25353" lon="-0.08594">
        <ele>27.7</ele>
        <time>2021-01-18T17:12:36Z</time>
      </trkpt>
      <trkpt lat="47.25362" lon="-0.086">
        <ele>27.6</ele>
        <time>2021-01-18T17:12:36Z</time>
      </trkpt>
      <trkpt lat="47.25362" lon="-0.086">
        <ele>27.6</ele>
        <time>2021-01-18T17:12:36Z</time>
      </trkpt>
      <trkpt lat="47.25385" lon="-0.08642">
        <ele>28.5</ele>
        <time>2021-01-18T17:12:36Z</time>
      </trkpt>
      <trkpt lat="47.25387" lon="-0.08661">
        <ele>28</ele>
        <time>2021-01-18T17:12:36Z</time>
      </trkpt>
      <trkpt lat="47.25383" lon="-0.08687">
        <ele>28.1</ele>
        <time>2021-01-18T17:12:36Z</time>
      </trkpt>
      <trkpt lat="47.25388" lon="-0.08715">
        <ele>27.4</ele>
        <time>2021-01-18T17:12:36Z</time>
      </trkpt>
      <trkpt lat="47.25449" lon="-0.08826">
        <ele>26.6</ele>
        <time>2021-01-18T17:12:36Z</time>
      </trkpt>
      <trkpt lat="47.2546" lon="-0.08857">
        <ele>26.5</ele>
        <time>2021-01-18T17:12:36Z</time>
      </trkpt>
      <trkpt lat="47.25514" lon="-0.08944">
        <ele>26.5</ele>
        <time>2021-01-18T17:12:36Z</time>
      </trkpt>
      <trkpt lat="47.25536" lon="-0.08964">
        <ele>26.8</ele>
        <time>2021-01-18T17:12:36Z</time>
      </trkpt>
      <trkpt lat="47.25601" lon="-0.08997">
        <ele>27.1</ele>
        <time>2021-01-18T17:12:36Z</time>
      </trkpt>
      <trkpt lat="47.25641" lon="-0.09001">
        <ele>27</ele>
        <time>2021-01-18T17:12:36Z</time>
      </trkpt>
      <trkpt lat="47.25714" lon="-0.09061">
        <ele>27.4</ele>
        <time>2021-01-18T17:12:36Z</time>
      </trkpt>
      <trkpt lat="47.25728" lon="-0.09065">
        <ele>27.5</ele>
        <time>2021-01-18T17:12:36Z</time>
      </trkpt>
      <trkpt lat="47.25777" lon="-0.0907">
        <ele>28.9</ele>
        <time>2021-01-18T17:12:36Z</time>
      </trkpt>
      <trkpt lat="47.25791" lon="-0.09077">
        <ele>28.3</ele>
        <time>2021-01-18T17:12:36Z</time>
      </trkpt>
      <trkpt lat="47.25791" lon="-0.09077">
        <ele>28.3</ele>
        <time>2021-01-18T17:12:36Z</time>
      </trkpt>
      <trkpt lat="47.25846" lon="-0.0912">
        <ele>28</ele>
        <time>2021-01-18T17:12:36Z</time>
      </trkpt>
      <trkpt lat="47.25863" lon="-0.09142">
        <ele>27.9</ele>
        <time>2021-01-18T17:12:36Z</time>
      </trkpt>
      <trkpt lat="47.25885" lon="-0.09157">
        <ele>27.5</ele>
        <time>2021-01-18T17:12:36Z</time>
      </trkpt>
      <trkpt lat="47.25948" lon="-0.09177">
        <ele>27.1</ele>
        <time>2021-01-18T17:12:36Z</time>
      </trkpt>
      <trkpt lat="47.25972" lon="-0.09176">
        <ele>27.7</ele>
        <time>2021-01-18T17:12:36Z</time>
      </trkpt>
      <trkpt lat="47.2606" lon="-0.09148">
        <ele>27.7</ele>
        <time>2021-01-18T17:12:36Z</time>
      </trkpt>
      <trkpt lat="47.26072" lon="-0.0915">
        <ele>27.6</ele>
        <time>2021-01-18T17:12:36Z</time>
      </trkpt>
      <trkpt lat="47.26088" lon="-0.0916">
        <ele>27.5</ele>
        <time>2021-01-18T17:12:36Z</time>
      </trkpt>
      <trkpt lat="47.26241" lon="-0.09317">
        <ele>27.1</ele>
        <time>2021-01-18T17:12:36Z</time>
      </trkpt>
      <trkpt lat="47.26241" lon="-0.09317">
        <ele>27.1</ele>
        <time>2021-01-18T17:12:36Z</time>
      </trkpt>
      <trkpt lat="47.26295" lon="-0.09352">
        <ele>29.7</ele>
        <time>2021-01-18T17:12:36Z</time>
      </trkpt>
      <trkpt lat="47.26303" lon="-0.09369">
        <ele>30.6</ele>
        <time>2021-01-18T17:12:36Z</time>
      </trkpt>
      <trkpt lat="47.26315" lon="-0.09438">
        <ele>29.1</ele>
        <time>2021-01-18T17:12:36Z</time>
      </trkpt>
      <trkpt lat="47.26324" lon="-0.09472">
        <ele>31</ele>
        <time>2021-01-18T17:12:36Z</time>
      </trkpt>
      <trkpt lat="47.26324" lon="-0.09472">
        <ele>31</ele>
        <time>2021-01-18T17:12:36Z</time>
      </trkpt>
      <trkpt lat="47.26349" lon="-0.0954">
        <ele>29.1</ele>
        <time>2021-01-18T17:12:36Z</time>
      </trkpt>
      <trkpt lat="47.26357" lon="-0.09551">
        <ele>29.7</ele>
        <time>2021-01-18T17:12:36Z</time>
      </trkpt>
      <trkpt lat="47.26368" lon="-0.09553">
        <ele>30.3</ele>
        <time>2021-01-18T17:12:36Z</time>
      </trkpt>
      <trkpt lat="47.26368" lon="-0.09553">
        <ele>30.3</ele>
        <time>2021-01-18T17:12:36Z</time>
      </trkpt>
      <trkpt lat="47.26406" lon="-0.09609">
        <ele>26.4</ele>
        <time>2021-01-18T17:12:36Z</time>
      </trkpt>
      <trkpt lat="47.26501" lon="-0.096">
        <ele>27</ele>
        <time>2021-01-18T17:12:36Z</time>
      </trkpt>
      <trkpt lat="47.26579" lon="-0.09781">
        <ele>26.8</ele>
        <time>2021-01-18T17:12:36Z</time>
      </trkpt>
      <trkpt lat="47.2661" lon="-0.09907">
        <ele>26.3</ele>
        <time>2021-01-18T17:12:36Z</time>
      </trkpt>
      <trkpt lat="47.26656" lon="-0.09952">
        <ele>26.3</ele>
        <time>2021-01-18T17:12:36Z</time>
      </trkpt>
      <trkpt lat="47.26624" lon="-0.10053">
        <ele>25.4</ele>
        <time>2021-01-18T17:12:36Z</time>
      </trkpt>
      <trkpt lat="47.26592" lon="-0.10075">
        <ele>27</ele>
        <time>2021-01-18T17:12:36Z</time>
      </trkpt>
      <trkpt lat="47.26594" lon="-0.10133">
        <ele>29.7</ele>
        <time>2021-01-18T17:12:36Z</time>
      </trkpt>
      <trkpt lat="47.26585" lon="-0.10184">
        <ele>32.6</ele>
        <time>2021-01-18T17:12:36Z</time>
      </trkpt>
      <trkpt lat="47.26645" lon="-0.10281">
        <ele>38.9</ele>
        <time>2021-01-18T17:12:36Z</time>
      </trkpt>
      <trkpt lat="47.26645" lon="-0.10281">
        <ele>38.9</ele>
        <time>2021-01-18T17:12:36Z</time>
      </trkpt>
      <trkpt lat="47.26648" lon="-0.10291">
        <ele>39.5</ele>
        <time>2021-01-18T17:12:36Z</time>
      </trkpt>
      <trkpt lat="47.26643" lon="-0.10304">
        <ele>40.1</ele>
        <time>2021-01-18T17:12:36Z</time>
      </trkpt>
      <trkpt lat="47.26643" lon="-0.10304">
        <ele>40.1</ele>
        <time>2021-01-18T17:12:36Z</time>
      </trkpt>
      <trkpt lat="47.26643" lon="-0.10304">
        <ele>40.1</ele>
        <time>2021-01-18T17:12:36Z</time>
      </trkpt>
      <trkpt lat="47.26641" lon="-0.10338">
        <ele>41.2</ele>
        <time>2021-01-18T17:12:36Z</time>
      </trkpt>
      <trkpt lat="47.26639" lon="-0.10349">
        <ele>41.6</ele>
        <time>2021-01-18T17:12:36Z</time>
      </trkpt>
      <trkpt lat="47.26898" lon="-0.10483">
        <ele>41.8</ele>
        <time>2021-01-18T17:12:36Z</time>
      </trkpt>
      <trkpt lat="47.26913" lon="-0.10495">
        <ele>40.5</ele>
        <time>2021-01-18T17:12:36Z</time>
      </trkpt>
      <trkpt lat="47.26913" lon="-0.10495">
        <ele>40.5</ele>
        <time>2021-01-18T17:12:36Z</time>
      </trkpt>
      <trkpt lat="47.26935" lon="-0.1052">
        <ele>38.1</ele>
        <time>2021-01-18T17:12:36Z</time>
      </trkpt>
      <trkpt lat="47.2693" lon="-0.10529">
        <ele>38.6</ele>
        <time>2021-01-18T17:12:36Z</time>
      </trkpt>
      <trkpt lat="47.26925" lon="-0.10561">
        <ele>39.7</ele>
        <time>2021-01-18T17:12:36Z</time>
      </trkpt>
      <trkpt lat="47.26856" lon="-0.1074">
        <ele>51</ele>
        <time>2021-01-18T17:12:36Z</time>
      </trkpt>
      <trkpt lat="47.26856" lon="-0.10753">
        <ele>51.9</ele>
        <time>2021-01-18T17:12:36Z</time>
      </trkpt>
      <trkpt lat="47.26856" lon="-0.10753">
        <ele>51.9</ele>
        <time>2021-01-18T17:12:36Z</time>
      </trkpt>
      <trkpt lat="47.26883" lon="-0.10778">
        <ele>53</ele>
        <time>2021-01-18T17:12:36Z</time>
      </trkpt>
      <trkpt lat="47.26891" lon="-0.10779">
        <ele>53.4</ele>
        <time>2021-01-18T17:12:36Z</time>
      </trkpt>
      <trkpt lat="47.26903" lon="-0.10759">
        <ele>53.7</ele>
        <time>2021-01-18T17:12:36Z</time>
      </trkpt>
      <trkpt lat="47.26911" lon="-0.10758">
        <ele>54.8</ele>
        <time>2021-01-18T17:12:36Z</time>
      </trkpt>
      <trkpt lat="47.26956" lon="-0.10813">
        <ele>61.3</ele>
        <time>2021-01-18T17:12:36Z</time>
      </trkpt>
      <trkpt lat="47.26994" lon="-0.10862">
        <ele>65.1</ele>
        <time>2021-01-18T17:12:36Z</time>
      </trkpt>
      <trkpt lat="47.26994" lon="-0.10862">
        <ele>65.1</ele>
        <time>2021-01-18T17:12:36Z</time>
      </trkpt>
      <trkpt lat="47.27007" lon="-0.10879">
        <ele>65.8</ele>
        <time>2021-01-18T17:12:36Z</time>
      </trkpt>
      <trkpt lat="47.27013" lon="-0.10891">
        <ele>66.1</ele>
        <time>2021-01-18T17:12:36Z</time>
      </trkpt>
      <trkpt lat="47.26978" lon="-0.10983">
        <ele>70.6</ele>
        <time>2021-01-18T17:12:36Z</time>
      </trkpt>
      <trkpt lat="47.27005" lon="-0.10999">
        <ele>69.6</ele>
        <time>2021-01-18T17:12:36Z</time>
      </trkpt>
      <trkpt lat="47.27015" lon="-0.11002">
        <ele>69</ele>
        <time>2021-01-18T17:12:36Z</time>
      </trkpt>
      <trkpt lat="47.27015" lon="-0.11002">
        <ele>69</ele>
        <time>2021-01-18T17:12:36Z</time>
      </trkpt>
      <trkpt lat="47.27032" lon="-0.11003">
        <ele>67.6</ele>
        <time>2021-01-18T17:12:36Z</time>
      </trkpt>
      <trkpt lat="47.27059" lon="-0.10968">
        <ele>64.7</ele>
        <time>2021-01-18T17:12:36Z</time>
      </trkpt>
      <trkpt lat="47.27069" lon="-0.10945">
        <ele>62.2</ele>
        <time>2021-01-18T17:12:36Z</time>
      </trkpt>
      <trkpt lat="47.2708" lon="-0.10881">
        <ele>59</ele>
        <time>2021-01-18T17:12:36Z</time>
      </trkpt>
      <trkpt lat="47.2708" lon="-0.10881">
        <ele>59</ele>
        <time>2021-01-18T17:12:36Z</time>
      </trkpt>
      <trkpt lat="47.27065" lon="-0.10956">
        <ele>63.4</ele>
        <time>2021-01-18T17:12:36Z</time>
      </trkpt>
      <trkpt lat="47.27038" lon="-0.11">
        <ele>66.6</ele>
        <time>2021-01-18T17:12:36Z</time>
      </trkpt>
      <trkpt lat="47.27022" lon="-0.11003">
        <ele>68.5</ele>
        <time>2021-01-18T17:12:36Z</time>
      </trkpt>
      <trkpt lat="47.26998" lon="-0.10996">
        <ele>69.9</ele>
        <time>2021-01-18T17:12:36Z</time>
      </trkpt>
      <trkpt lat="47.26985" lon="-0.10987">
        <ele>70.3</ele>
        <time>2021-01-18T17:12:36Z</time>
      </trkpt>
      <trkpt lat="47.26972" lon="-0.10996">
        <ele>71</ele>
        <time>2021-01-18T17:12:36Z</time>
      </trkpt>
      <trkpt lat="47.26954" lon="-0.11029">
        <ele>70.9</ele>
        <time>2021-01-18T17:12:36Z</time>
      </trkpt>
      <trkpt lat="47.26871" lon="-0.11129">
        <ele>69.6</ele>
        <time>2021-01-18T17:12:36Z</time>
      </trkpt>
      <trkpt lat="47.26928" lon="-0.1122">
        <ele>66.8</ele>
        <time>2021-01-18T17:12:36Z</time>
      </trkpt>
      <trkpt lat="47.26976" lon="-0.11163">
        <ele>67</ele>
        <time>2021-01-18T17:12:36Z</time>
      </trkpt>
      <trkpt lat="47.26993" lon="-0.11148">
        <ele>66.4</ele>
        <time>2021-01-18T17:12:36Z</time>
      </trkpt>
      <trkpt lat="47.27078" lon="-0.10958">
        <ele>61.8</ele>
        <time>2021-01-18T17:12:36Z</time>
      </trkpt>
      <trkpt lat="47.27082" lon="-0.10946">
        <ele>59.6</ele>
        <time>2021-01-18T17:12:36Z</time>
      </trkpt>
      <trkpt lat="47.2709" lon="-0.10943">
        <ele>59.2</ele>
        <time>2021-01-18T17:12:36Z</time>
      </trkpt>
      <trkpt lat="47.27104" lon="-0.10958">
        <ele>61</ele>
        <time>2021-01-18T17:12:36Z</time>
      </trkpt>
      <trkpt lat="47.2721" lon="-0.11123">
        <ele>54.1</ele>
        <time>2021-01-18T17:12:36Z</time>
      </trkpt>
      <trkpt lat="47.27231" lon="-0.11141">
        <ele>51.5</ele>
        <time>2021-01-18T17:12:36Z</time>
      </trkpt>
      <trkpt lat="47.27341" lon="-0.11178">
        <ele>42.5</ele>
        <time>2021-01-18T17:12:36Z</time>
      </trkpt>
      <trkpt lat="47.27341" lon="-0.11178">
        <ele>42.5</ele>
        <time>2021-01-18T17:12:36Z</time>
      </trkpt>
      <trkpt lat="47.27388" lon="-0.11206">
        <ele>36.9</ele>
        <time>2021-01-18T17:12:36Z</time>
      </trkpt>
      <trkpt lat="47.27443" lon="-0.11281">
        <ele>29.1</ele>
        <time>2021-01-18T17:12:36Z</time>
      </trkpt>
      <trkpt lat="47.27443" lon="-0.11281">
        <ele>29.1</ele>
        <time>2021-01-18T17:12:36Z</time>
      </trkpt>
      <trkpt lat="47.27452" lon="-0.11293">
        <ele>29</ele>
        <time>2021-01-18T17:12:36Z</time>
      </trkpt>
      <trkpt lat="47.27388" lon="-0.11422">
        <ele>29</ele>
        <time>2021-01-18T17:12:36Z</time>
      </trkpt>
      <trkpt lat="47.27351" lon="-0.11551">
        <ele>30.4</ele>
        <time>2021-01-18T17:12:36Z</time>
      </trkpt>
      <trkpt lat="47.27351" lon="-0.11551">
        <ele>30.4</ele>
        <time>2021-01-18T17:12:36Z</time>
      </trkpt>
      <trkpt lat="47.27345" lon="-0.11569">
        <ele>30.8</ele>
        <time>2021-01-18T17:12:36Z</time>
      </trkpt>
      <trkpt lat="47.27431" lon="-0.11686">
        <ele>35.7</ele>
        <time>2021-01-18T17:12:36Z</time>
      </trkpt>
      <trkpt lat="47.27526" lon="-0.11876">
        <ele>40.4</ele>
        <time>2021-01-18T17:12:36Z</time>
      </trkpt>
      <trkpt lat="47.27616" lon="-0.12002">
        <ele>44.6</ele>
        <time>2021-01-18T17:12:36Z</time>
      </trkpt>
      <trkpt lat="47.27616" lon="-0.12002">
        <ele>44.6</ele>
        <time>2021-01-18T17:12:36Z</time>
      </trkpt>
      <trkpt lat="47.27628" lon="-0.11983">
        <ele>45.7</ele>
        <time>2021-01-18T17:12:36Z</time>
      </trkpt>
      <trkpt lat="47.27682" lon="-0.11934">
        <ele>48.1</ele>
        <time>2021-01-18T17:12:36Z</time>
      </trkpt>
      <trkpt lat="47.27803" lon="-0.11852">
        <ele>36.3</ele>
        <time>2021-01-18T17:12:36Z</time>
      </trkpt>
      <trkpt lat="47.27858" lon="-0.11765">
        <ele>30.1</ele>
        <time>2021-01-18T17:12:36Z</time>
      </trkpt>
      <trkpt lat="47.27858" lon="-0.11765">
        <ele>30.1</ele>
        <time>2021-01-18T17:12:36Z</time>
      </trkpt>
      <trkpt lat="47.28144" lon="-0.11296">
        <ele>27</ele>
        <time>2021-01-18T17:12:36Z</time>
      </trkpt>
      <trkpt lat="47.28144" lon="-0.11296">
        <ele>27</ele>
        <time>2021-01-18T17:12:36Z</time>
      </trkpt>
      <trkpt lat="47.28157" lon="-0.11276">
        <ele>27</ele>
        <time>2021-01-18T17:12:36Z</time>
      </trkpt>
      <trkpt lat="47.28167" lon="-0.1127">
        <ele>26.7</ele>
        <time>2021-01-18T17:12:36Z</time>
      </trkpt>
      <trkpt lat="47.28177" lon="-0.1128">
        <ele>26.3</ele>
        <time>2021-01-18T17:12:36Z</time>
      </trkpt>
      <trkpt lat="47.28189" lon="-0.11301">
        <ele>26.8</ele>
        <time>2021-01-18T17:12:36Z</time>
      </trkpt>
      <trkpt lat="47.28308" lon="-0.11585">
        <ele>26.9</ele>
        <time>2021-01-18T17:12:36Z</time>
      </trkpt>
      <trkpt lat="47.28577" lon="-0.11988">
        <ele>26.3</ele>
        <time>2021-01-18T17:12:36Z</time>
      </trkpt>
      <trkpt lat="47.28645" lon="-0.1216">
        <ele>26.7</ele>
        <time>2021-01-18T17:12:36Z</time>
      </trkpt>
      <trkpt lat="47.28645" lon="-0.1216">
        <ele>26.7</ele>
        <time>2021-01-18T17:12:36Z</time>
      </trkpt>
      <trkpt lat="47.29095" lon="-0.13047">
        <ele>25.6</ele>
        <time>2021-01-18T17:12:36Z</time>
      </trkpt>
      <trkpt lat="47.29095" lon="-0.13047">
        <ele>25.6</ele>
        <time>2021-01-18T17:12:36Z</time>
      </trkpt>
      <trkpt lat="47.29362" lon="-0.13597">
        <ele>25</ele>
        <time>2021-01-18T17:12:36Z</time>
      </trkpt>
      <trkpt lat="47.29371" lon="-0.13609">
        <ele>25</ele>
        <time>2021-01-18T17:12:36Z</time>
      </trkpt>
      <trkpt lat="47.29371" lon="-0.13609">
        <ele>25</ele>
        <time>2021-01-18T17:12:36Z</time>
      </trkpt>
      <trkpt lat="47.29374" lon="-0.13594">
        <ele>25</ele>
        <time>2021-01-18T17:12:36Z</time>
      </trkpt>
      <trkpt lat="47.29505" lon="-0.13729">
        <ele>25</ele>
        <time>2021-01-18T17:12:36Z</time>
      </trkpt>
      <trkpt lat="47.29482" lon="-0.138">
        <ele>27.1</ele>
        <time>2021-01-18T17:12:36Z</time>
      </trkpt>
      <trkpt lat="47.29652" lon="-0.13948">
        <ele>27.7</ele>
        <time>2021-01-18T17:12:36Z</time>
      </trkpt>
      <trkpt lat="47.29626" lon="-0.14137">
        <ele>45.1</ele>
        <time>2021-01-18T17:12:36Z</time>
      </trkpt>
      <trkpt lat="47.29588" lon="-0.14175">
        <ele>43.5</ele>
        <time>2021-01-18T17:12:36Z</time>
      </trkpt>
      <trkpt lat="47.29594" lon="-0.14377">
        <ele>67.5</ele>
        <time>2021-01-18T17:12:36Z</time>
      </trkpt>
      <trkpt lat="47.29633" lon="-0.14343">
        <ele>73.6</ele>
        <time>2021-01-18T17:12:36Z</time>
      </trkpt>
      <trkpt lat="47.29633" lon="-0.14343">
        <ele>73.6</ele>
        <time>2021-01-18T17:12:36Z</time>
      </trkpt>
      <trkpt lat="47.29641" lon="-0.1436">
        <ele>75.3</ele>
        <time>2021-01-18T17:12:36Z</time>
      </trkpt>
      <trkpt lat="47.29712" lon="-0.14457">
        <ele>81.6</ele>
        <time>2021-01-18T17:12:36Z</time>
      </trkpt>
      <trkpt lat="47.29763" lon="-0.14507">
        <ele>83</ele>
        <time>2021-01-18T17:12:36Z</time>
      </trkpt>
      <trkpt lat="47.30064" lon="-0.1495">
        <ele>83</ele>
        <time>2021-01-18T17:12:36Z</time>
      </trkpt>
      <trkpt lat="47.3006" lon="-0.1498">
        <ele>83</ele>
        <time>2021-01-18T17:12:36Z</time>
      </trkpt>
      <trkpt lat="47.30063" lon="-0.14992">
        <ele>83</ele>
        <time>2021-01-18T17:12:36Z</time>
      </trkpt>
      <trkpt lat="47.30114" lon="-0.15069">
        <ele>83</ele>
        <time>2021-01-18T17:12:36Z</time>
      </trkpt>
      <trkpt lat="47.30136" lon="-0.15098">
        <ele>83</ele>
        <time>2021-01-18T17:12:36Z</time>
      </trkpt>
      <trkpt lat="47.30152" lon="-0.15225">
        <ele>83</ele>
        <time>2021-01-18T17:12:36Z</time>
      </trkpt>
      <trkpt lat="47.30167" lon="-0.15261">
        <ele>83</ele>
        <time>2021-01-18T17:12:36Z</time>
      </trkpt>
      <trkpt lat="47.30174" lon="-0.15272">
        <ele>83</ele>
        <time>2021-01-18T17:12:36Z</time>
      </trkpt>
      <trkpt lat="47.30191" lon="-0.15286">
        <ele>82.7</ele>
        <time>2021-01-18T17:12:36Z</time>
      </trkpt>
      <trkpt lat="47.30198" lon="-0.1529">
        <ele>82.5</ele>
        <time>2021-01-18T17:12:36Z</time>
      </trkpt>
      <trkpt lat="47.30205" lon="-0.15291">
        <ele>82.3</ele>
        <time>2021-01-18T17:12:36Z</time>
      </trkpt>
      <trkpt lat="47.30219" lon="-0.15301">
        <ele>82</ele>
        <time>2021-01-18T17:12:36Z</time>
      </trkpt>
      <trkpt lat="47.30227" lon="-0.153">
        <ele>82</ele>
        <time>2021-01-18T17:12:36Z</time>
      </trkpt>
      <trkpt lat="47.30227" lon="-0.153">
        <ele>82</ele>
        <time>2021-01-18T17:12:36Z</time>
      </trkpt>
      <trkpt lat="47.30254" lon="-0.15295">
        <ele>81.9</ele>
        <time>2021-01-18T17:12:36Z</time>
      </trkpt>
      <trkpt lat="47.30291" lon="-0.15297">
        <ele>81</ele>
        <time>2021-01-18T17:12:36Z</time>
      </trkpt>
      <trkpt lat="47.30298" lon="-0.15302">
        <ele>81</ele>
        <time>2021-01-18T17:12:36Z</time>
      </trkpt>
      <trkpt lat="47.30371" lon="-0.15396">
        <ele>75.7</ele>
        <time>2021-01-18T17:12:36Z</time>
      </trkpt>
      <trkpt lat="47.304" lon="-0.15345">
        <ele>75</ele>
        <time>2021-01-18T17:12:36Z</time>
      </trkpt>
      <trkpt lat="47.30409" lon="-0.15343">
        <ele>74.3</ele>
        <time>2021-01-18T17:12:36Z</time>
      </trkpt>
      <trkpt lat="47.30421" lon="-0.15348">
        <ele>73.5</ele>
        <time>2021-01-18T17:12:36Z</time>
      </trkpt>
      <trkpt lat="47.30524" lon="-0.15427">
        <ele>62</ele>
        <time>2021-01-18T17:12:36Z</time>
      </trkpt>
      <trkpt lat="47.30554" lon="-0.15438">
        <ele>58.6</ele>
        <time>2021-01-18T17:12:36Z</time>
      </trkpt>
      <trkpt lat="47.30577" lon="-0.15438">
        <ele>55.3</ele>
        <time>2021-01-18T17:12:36Z</time>
      </trkpt>
      <trkpt lat="47.30593" lon="-0.15432">
        <ele>53.4</ele>
        <time>2021-01-18T17:12:36Z</time>
      </trkpt>
      <trkpt lat="47.30604" lon="-0.15419">
        <ele>51.5</ele>
        <time>2021-01-18T17:12:36Z</time>
      </trkpt>
      <trkpt lat="47.30605" lon="-0.15409">
        <ele>50.5</ele>
        <time>2021-01-18T17:12:36Z</time>
      </trkpt>
      <trkpt lat="47.30605" lon="-0.15409">
        <ele>50.5</ele>
        <time>2021-01-18T17:12:36Z</time>
      </trkpt>
      <trkpt lat="47.30611" lon="-0.15381">
        <ele>47.1</ele>
        <time>2021-01-18T17:12:36Z</time>
      </trkpt>
      <trkpt lat="47.30616" lon="-0.15367">
        <ele>47.5</ele>
        <time>2021-01-18T17:12:36Z</time>
      </trkpt>
      <trkpt lat="47.30622" lon="-0.1536">
        <ele>46.8</ele>
        <time>2021-01-18T17:12:36Z</time>
      </trkpt>
      <trkpt lat="47.30661" lon="-0.15329">
        <ele>40.4</ele>
        <time>2021-01-18T17:12:36Z</time>
      </trkpt>
      <trkpt lat="47.30725" lon="-0.15177">
        <ele>29.4</ele>
        <time>2021-01-18T17:12:36Z</time>
      </trkpt>
      <trkpt lat="47.30725" lon="-0.15158">
        <ele>29.7</ele>
        <time>2021-01-18T17:12:36Z</time>
      </trkpt>
      <trkpt lat="47.30725" lon="-0.15158">
        <ele>29.7</ele>
        <time>2021-01-18T17:12:36Z</time>
      </trkpt>
      <trkpt lat="47.30753" lon="-0.15226">
        <ele>28.7</ele>
        <time>2021-01-18T17:12:36Z</time>
      </trkpt>
      <trkpt lat="47.30802" lon="-0.15291">
        <ele>28.8</ele>
        <time>2021-01-18T17:12:36Z</time>
      </trkpt>
      <trkpt lat="47.30828" lon="-0.15312">
        <ele>29</ele>
        <time>2021-01-18T17:12:36Z</time>
      </trkpt>
      <trkpt lat="47.30828" lon="-0.15312">
        <ele>29</ele>
        <time>2021-01-18T17:12:36Z</time>
      </trkpt>
      <trkpt lat="47.30809" lon="-0.15379">
        <ele>34</ele>
        <time>2021-01-18T17:12:36Z</time>
      </trkpt>
      <trkpt lat="47.30814" lon="-0.15395">
        <ele>36.8</ele>
        <time>2021-01-18T17:12:36Z</time>
      </trkpt>
      <trkpt lat="47.30796" lon="-0.15465">
        <ele>42.3</ele>
        <time>2021-01-18T17:12:36Z</time>
      </trkpt>
      <trkpt lat="47.30796" lon="-0.15465">
        <ele>42.3</ele>
        <time>2021-01-18T17:12:36Z</time>
      </trkpt>
      <trkpt lat="47.30783" lon="-0.15486">
        <ele>39.6</ele>
        <time>2021-01-18T17:12:36Z</time>
      </trkpt>
      <trkpt lat="47.30771" lon="-0.15496">
        <ele>37.2</ele>
        <time>2021-01-18T17:12:36Z</time>
      </trkpt>
      <trkpt lat="47.30764" lon="-0.15499">
        <ele>35.5</ele>
        <time>2021-01-18T17:12:36Z</time>
      </trkpt>
      <trkpt lat="47.30717" lon="-0.15598">
        <ele>35.2</ele>
        <time>2021-01-18T17:12:36Z</time>
      </trkpt>
      <trkpt lat="47.30713" lon="-0.15618">
        <ele>36.1</ele>
        <time>2021-01-18T17:12:36Z</time>
      </trkpt>
      <trkpt lat="47.30712" lon="-0.15678">
        <ele>34.8</ele>
        <time>2021-01-18T17:12:36Z</time>
      </trkpt>
      <trkpt lat="47.30709" lon="-0.15691">
        <ele>34.1</ele>
        <time>2021-01-18T17:12:36Z</time>
      </trkpt>
      <trkpt lat="47.30701" lon="-0.15702">
        <ele>33.2</ele>
        <time>2021-01-18T17:12:36Z</time>
      </trkpt>
      <trkpt lat="47.30704" lon="-0.15774">
        <ele>36.6</ele>
        <time>2021-01-18T17:12:36Z</time>
      </trkpt>
      <trkpt lat="47.30702" lon="-0.15787">
        <ele>36.8</ele>
        <time>2021-01-18T17:12:36Z</time>
      </trkpt>
      <trkpt lat="47.30695" lon="-0.15802">
        <ele>36</ele>
        <time>2021-01-18T17:12:36Z</time>
      </trkpt>
      <trkpt lat="47.30653" lon="-0.15866">
        <ele>35.6</ele>
        <time>2021-01-18T17:12:36Z</time>
      </trkpt>
      <trkpt lat="47.30642" lon="-0.1589">
        <ele>36</ele>
        <time>2021-01-18T17:12:36Z</time>
      </trkpt>
      <trkpt lat="47.30655" lon="-0.15907">
        <ele>36</ele>
        <time>2021-01-18T17:12:36Z</time>
      </trkpt>
      <trkpt lat="47.30655" lon="-0.15907">
        <ele>36</ele>
        <time>2021-01-18T17:12:36Z</time>
      </trkpt>
      <trkpt lat="47.30676" lon="-0.15936">
        <ele>36.8</ele>
        <time>2021-01-18T17:12:36Z</time>
      </trkpt>
      <trkpt lat="47.30687" lon="-0.15967">
        <ele>37</ele>
        <time>2021-01-18T17:12:36Z</time>
      </trkpt>
      <trkpt lat="47.30718" lon="-0.15953">
        <ele>41.8</ele>
        <time>2021-01-18T17:12:36Z</time>
      </trkpt>
      <trkpt lat="47.30723" lon="-0.15946">
        <ele>43.3</ele>
        <time>2021-01-18T17:12:36Z</time>
      </trkpt>
      <trkpt lat="47.30786" lon="-0.15926">
        <ele>63.9</ele>
        <time>2021-01-18T17:12:36Z</time>
      </trkpt>
      <trkpt lat="47.30786" lon="-0.15926">
        <ele>63.9</ele>
        <time>2021-01-18T17:12:36Z</time>
      </trkpt>
      <trkpt lat="47.30821" lon="-0.15985">
        <ele>72.3</ele>
        <time>2021-01-18T17:12:36Z</time>
      </trkpt>
      <trkpt lat="47.30828" lon="-0.15992">
        <ele>73.5</ele>
        <time>2021-01-18T17:12:36Z</time>
      </trkpt>
      <trkpt lat="47.30829" lon="-0.16027">
        <ele>72.5</ele>
        <time>2021-01-18T17:12:36Z</time>
      </trkpt>
      <trkpt lat="47.30841" lon="-0.16024">
        <ele>73.4</ele>
        <time>2021-01-18T17:12:36Z</time>
      </trkpt>
      <trkpt lat="47.30892" lon="-0.1603">
        <ele>77.2</ele>
        <time>2021-01-18T17:12:36Z</time>
      </trkpt>
      <trkpt lat="47.30921" lon="-0.16043">
        <ele>76.8</ele>
        <time>2021-01-18T17:12:36Z</time>
      </trkpt>
      <trkpt lat="47.3094" lon="-0.16041">
        <ele>76.7</ele>
        <time>2021-01-18T17:12:36Z</time>
      </trkpt>
      <trkpt lat="47.31005" lon="-0.16016">
        <ele>70.6</ele>
        <time>2021-01-18T17:12:36Z</time>
      </trkpt>
      <trkpt lat="47.31034" lon="-0.16015">
        <ele>70</ele>
        <time>2021-01-18T17:12:36Z</time>
      </trkpt>
      <trkpt lat="47.31032" lon="-0.16029">
        <ele>70.3</ele>
        <time>2021-01-18T17:12:36Z</time>
      </trkpt>
      <trkpt lat="47.31032" lon="-0.16029">
        <ele>70.3</ele>
        <time>2021-01-18T17:12:36Z</time>
      </trkpt>
      <trkpt lat="47.31032" lon="-0.16047">
        <ele>70.9</ele>
        <time>2021-01-18T17:12:36Z</time>
      </trkpt>
      <trkpt lat="47.31086" lon="-0.1628">
        <ele>70.9</ele>
        <time>2021-01-18T17:12:36Z</time>
      </trkpt>
      <trkpt lat="47.31085" lon="-0.16293">
        <ele>71</ele>
        <time>2021-01-18T17:12:36Z</time>
      </trkpt>
      <trkpt lat="47.31103" lon="-0.16323">
        <ele>71.6</ele>
        <time>2021-01-18T17:12:36Z</time>
      </trkpt>
      <trkpt lat="47.31132" lon="-0.16402">
        <ele>70.3</ele>
        <time>2021-01-18T17:12:36Z</time>
      </trkpt>
      <trkpt lat="47.31145" lon="-0.16471">
        <ele>71.9</ele>
        <time>2021-01-18T17:12:36Z</time>
      </trkpt>
      <trkpt lat="47.31156" lon="-0.16573">
        <ele>72.6</ele>
        <time>2021-01-18T17:12:36Z</time>
      </trkpt>
      <trkpt lat="47.31161" lon="-0.16598">
        <ele>72.5</ele>
        <time>2021-01-18T17:12:36Z</time>
      </trkpt>
      <trkpt lat="47.31161" lon="-0.16598">
        <ele>72.5</ele>
        <time>2021-01-18T17:12:36Z</time>
      </trkpt>
      <trkpt lat="47.31161" lon="-0.16626">
        <ele>72</ele>
        <time>2021-01-18T17:12:36Z</time>
      </trkpt>
      <trkpt lat="47.31137" lon="-0.16736">
        <ele>72.5</ele>
        <time>2021-01-18T17:12:36Z</time>
      </trkpt>
      <trkpt lat="47.31138" lon="-0.16767">
        <ele>73</ele>
        <time>2021-01-18T17:12:36Z</time>
      </trkpt>
      <trkpt lat="47.31138" lon="-0.16767">
        <ele>73</ele>
        <time>2021-01-18T17:12:36Z</time>
      </trkpt>
      <trkpt lat="47.31146" lon="-0.16818">
        <ele>72.6</ele>
        <time>2021-01-18T17:12:36Z</time>
      </trkpt>
      <trkpt lat="47.31192" lon="-0.16936">
        <ele>73.6</ele>
        <time>2021-01-18T17:12:36Z</time>
      </trkpt>
      <trkpt lat="47.31201" lon="-0.1695">
        <ele>73.6</ele>
        <time>2021-01-18T17:12:36Z</time>
      </trkpt>
      <trkpt lat="47.31214" lon="-0.16989">
        <ele>73</ele>
        <time>2021-01-18T17:12:36Z</time>
      </trkpt>
      <trkpt lat="47.31224" lon="-0.17044">
        <ele>73</ele>
        <time>2021-01-18T17:12:36Z</time>
      </trkpt>
      <trkpt lat="47.31267" lon="-0.17146">
        <ele>73.5</ele>
        <time>2021-01-18T17:12:36Z</time>
      </trkpt>
      <trkpt lat="47.31283" lon="-0.17183">
        <ele>73.5</ele>
        <time>2021-01-18T17:12:36Z</time>
      </trkpt>
      <trkpt lat="47.31311" lon="-0.17296">
        <ele>73</ele>
        <time>2021-01-18T17:12:36Z</time>
      </trkpt>
      <trkpt lat="47.31319" lon="-0.17341">
        <ele>72.9</ele>
        <time>2021-01-18T17:12:36Z</time>
      </trkpt>
      <trkpt lat="47.31325" lon="-0.17363">
        <ele>72.3</ele>
        <time>2021-01-18T17:12:36Z</time>
      </trkpt>
      <trkpt lat="47.31337" lon="-0.17469">
        <ele>72.7</ele>
        <time>2021-01-18T17:12:36Z</time>
      </trkpt>
      <trkpt lat="47.31337" lon="-0.17469">
        <ele>72.7</ele>
        <time>2021-01-18T17:12:36Z</time>
      </trkpt>
      <trkpt lat="47.3136" lon="-0.17588">
        <ele>72.2</ele>
        <time>2021-01-18T17:12:36Z</time>
      </trkpt>
      <trkpt lat="47.31396" lon="-0.1759">
        <ele>69.1</ele>
        <time>2021-01-18T17:12:36Z</time>
      </trkpt>
      <trkpt lat="47.31421" lon="-0.17575">
        <ele>67</ele>
        <time>2021-01-18T17:12:36Z</time>
      </trkpt>
      <trkpt lat="47.31479" lon="-0.17603">
        <ele>63.1</ele>
        <time>2021-01-18T17:12:36Z</time>
      </trkpt>
      <trkpt lat="47.31488" lon="-0.17599">
        <ele>61.4</ele>
        <time>2021-01-18T17:12:36Z</time>
      </trkpt>
      <trkpt lat="47.31499" lon="-0.17578">
        <ele>58.6</ele>
        <time>2021-01-18T17:12:36Z</time>
      </trkpt>
      <trkpt lat="47.3151" lon="-0.17573">
        <ele>57.9</ele>
        <time>2021-01-18T17:12:36Z</time>
      </trkpt>
      <trkpt lat="47.31545" lon="-0.17597">
        <ele>51.4</ele>
        <time>2021-01-18T17:12:36Z</time>
      </trkpt>
      <trkpt lat="47.31667" lon="-0.17611">
        <ele>37.1</ele>
        <time>2021-01-18T17:12:36Z</time>
      </trkpt>
      <trkpt lat="47.31726" lon="-0.17629">
        <ele>31.9</ele>
        <time>2021-01-18T17:12:36Z</time>
      </trkpt>
      <trkpt lat="47.31769" lon="-0.17617">
        <ele>28.2</ele>
        <time>2021-01-18T17:12:36Z</time>
      </trkpt>
      <trkpt lat="47.31771" lon="-0.1763">
        <ele>28.6</ele>
        <time>2021-01-18T17:12:36Z</time>
      </trkpt>
      <trkpt lat="47.31771" lon="-0.1763">
        <ele>28.6</ele>
        <time>2021-01-18T17:12:36Z</time>
      </trkpt>
      <trkpt lat="47.31821" lon="-0.17799">
        <ele>28.3</ele>
        <time>2021-01-18T17:12:36Z</time>
      </trkpt>
      <trkpt lat="47.31964" lon="-0.18168">
        <ele>29.4</ele>
        <time>2021-01-18T17:12:36Z</time>
      </trkpt>
      <trkpt lat="47.31964" lon="-0.18168">
        <ele>29.4</ele>
        <time>2021-01-18T17:12:36Z</time>
      </trkpt>
      <trkpt lat="47.32015" lon="-0.18409">
        <ele>30.8</ele>
        <time>2021-01-18T17:12:36Z</time>
      </trkpt>
      <trkpt lat="47.32015" lon="-0.18409">
        <ele>30.8</ele>
        <time>2021-01-18T17:12:36Z</time>
      </trkpt>
      <trkpt lat="47.32025" lon="-0.18404">
        <ele>29.4</ele>
        <time>2021-01-18T17:12:36Z</time>
      </trkpt>
      <trkpt lat="47.32031" lon="-0.18418">
        <ele>29.9</ele>
        <time>2021-01-18T17:12:36Z</time>
      </trkpt>
      <trkpt lat="47.32032" lon="-0.18486">
        <ele>32.8</ele>
        <time>2021-01-18T17:12:36Z</time>
      </trkpt>
      <trkpt lat="47.32036" lon="-0.18496">
        <ele>32.4</ele>
        <time>2021-01-18T17:12:36Z</time>
      </trkpt>
      <trkpt lat="47.32047" lon="-0.18503">
        <ele>31.7</ele>
        <time>2021-01-18T17:12:36Z</time>
      </trkpt>
      <trkpt lat="47.32047" lon="-0.18503">
        <ele>31.7</ele>
        <time>2021-01-18T17:12:36Z</time>
      </trkpt>
      <trkpt lat="47.32054" lon="-0.18511">
        <ele>33.1</ele>
        <time>2021-01-18T17:12:36Z</time>
      </trkpt>
      <trkpt lat="47.3207" lon="-0.1852">
        <ele>34.5</ele>
        <time>2021-01-18T17:12:36Z</time>
      </trkpt>
      <trkpt lat="47.32087" lon="-0.18523">
        <ele>33.4</ele>
        <time>2021-01-18T17:12:36Z</time>
      </trkpt>
      <trkpt lat="47.32123" lon="-0.18569">
        <ele>30.1</ele>
        <time>2021-01-18T17:12:36Z</time>
      </trkpt>
      <trkpt lat="47.32136" lon="-0.18577">
        <ele>29.7</ele>
        <time>2021-01-18T17:12:36Z</time>
      </trkpt>
      <trkpt lat="47.32152" lon="-0.18598">
        <ele>29.6</ele>
        <time>2021-01-18T17:12:36Z</time>
      </trkpt>
      <trkpt lat="47.32152" lon="-0.18598">
        <ele>29.6</ele>
        <time>2021-01-18T17:12:36Z</time>
      </trkpt>
      <trkpt lat="47.32168" lon="-0.18625">
        <ele>29</ele>
        <time>2021-01-18T17:12:36Z</time>
      </trkpt>
      <trkpt lat="47.32108" lon="-0.18713">
        <ele>36.9</ele>
        <time>2021-01-18T17:12:36Z</time>
      </trkpt>
      <trkpt lat="47.32155" lon="-0.18782">
        <ele>32.4</ele>
        <time>2021-01-18T17:12:36Z</time>
      </trkpt>
      <trkpt lat="47.32179" lon="-0.1884">
        <ele>31.1</ele>
        <time>2021-01-18T17:12:36Z</time>
      </trkpt>
      <trkpt lat="47.32187" lon="-0.18849">
        <ele>30.6</ele>
        <time>2021-01-18T17:12:36Z</time>
      </trkpt>
      <trkpt lat="47.32187" lon="-0.18849">
        <ele>30.6</ele>
        <time>2021-01-18T17:12:36Z</time>
      </trkpt>
      <trkpt lat="47.32181" lon="-0.18871">
        <ele>30.8</ele>
        <time>2021-01-18T17:12:36Z</time>
      </trkpt>
      <trkpt lat="47.32163" lon="-0.18887">
        <ele>31.4</ele>
        <time>2021-01-18T17:12:36Z</time>
      </trkpt>
      <trkpt lat="47.32159" lon="-0.18897">
        <ele>31.8</ele>
        <time>2021-01-18T17:12:36Z</time>
      </trkpt>
      <trkpt lat="47.32155" lon="-0.18937">
        <ele>34.6</ele>
        <time>2021-01-18T17:12:36Z</time>
      </trkpt>
      <trkpt lat="47.32152" lon="-0.18949">
        <ele>36.1</ele>
        <time>2021-01-18T17:12:36Z</time>
      </trkpt>
      <trkpt lat="47.32146" lon="-0.18956">
        <ele>37.6</ele>
        <time>2021-01-18T17:12:36Z</time>
      </trkpt>
      <trkpt lat="47.32112" lon="-0.18951">
        <ele>44</ele>
        <time>2021-01-18T17:12:36Z</time>
      </trkpt>
      <trkpt lat="47.32095" lon="-0.18944">
        <ele>44.8</ele>
        <time>2021-01-18T17:12:36Z</time>
      </trkpt>
      <trkpt lat="47.32087" lon="-0.18943">
        <ele>45.7</ele>
        <time>2021-01-18T17:12:36Z</time>
      </trkpt>
      <trkpt lat="47.3208" lon="-0.18952">
        <ele>48.3</ele>
        <time>2021-01-18T17:12:36Z</time>
      </trkpt>
      <trkpt lat="47.32077" lon="-0.18962">
        <ele>51.1</ele>
        <time>2021-01-18T17:12:36Z</time>
      </trkpt>
      <trkpt lat="47.32073" lon="-0.19012">
        <ele>54.3</ele>
        <time>2021-01-18T17:12:36Z</time>
      </trkpt>
      <trkpt lat="47.32077" lon="-0.19051">
        <ele>54.7</ele>
        <time>2021-01-18T17:12:36Z</time>
      </trkpt>
      <trkpt lat="47.32075" lon="-0.19073">
        <ele>56.1</ele>
        <time>2021-01-18T17:12:36Z</time>
      </trkpt>
      <trkpt lat="47.3207" lon="-0.19087">
        <ele>57</ele>
        <time>2021-01-18T17:12:36Z</time>
      </trkpt>
      <trkpt lat="47.32026" lon="-0.19146">
        <ele>58.7</ele>
        <time>2021-01-18T17:12:36Z</time>
      </trkpt>
      <trkpt lat="47.32019" lon="-0.19162">
        <ele>60.4</ele>
        <time>2021-01-18T17:12:36Z</time>
      </trkpt>
      <trkpt lat="47.32015" lon="-0.19183">
        <ele>61.5</ele>
        <time>2021-01-18T17:12:36Z</time>
      </trkpt>
      <trkpt lat="47.32023" lon="-0.19272">
        <ele>62.3</ele>
        <time>2021-01-18T17:12:36Z</time>
      </trkpt>
      <trkpt lat="47.32018" lon="-0.19289">
        <ele>63.2</ele>
        <time>2021-01-18T17:12:36Z</time>
      </trkpt>
      <trkpt lat="47.32" lon="-0.19325">
        <ele>64.7</ele>
        <time>2021-01-18T17:12:36Z</time>
      </trkpt>
      <trkpt lat="47.32" lon="-0.19325">
        <ele>64.7</ele>
        <time>2021-01-18T17:12:36Z</time>
      </trkpt>
      <trkpt lat="47.31811" lon="-0.19544">
        <ele>74.5</ele>
        <time>2021-01-18T17:12:36Z</time>
      </trkpt>
      <trkpt lat="47.32056" lon="-0.20198">
        <ele>80</ele>
        <time>2021-01-18T17:12:36Z</time>
      </trkpt>
      <trkpt lat="47.32284" lon="-0.19919">
        <ele>74.8</ele>
        <time>2021-01-18T17:12:36Z</time>
      </trkpt>
      <trkpt lat="47.32284" lon="-0.19919">
        <ele>74.8</ele>
        <time>2021-01-18T17:12:36Z</time>
      </trkpt>
      <trkpt lat="47.3229" lon="-0.19905">
        <ele>74.5</ele>
        <time>2021-01-18T17:12:36Z</time>
      </trkpt>
      <trkpt lat="47.32299" lon="-0.19899">
        <ele>74.2</ele>
        <time>2021-01-18T17:12:36Z</time>
      </trkpt>
      <trkpt lat="47.32458" lon="-0.19845">
        <ele>69.1</ele>
        <time>2021-01-18T17:12:36Z</time>
      </trkpt>
      <trkpt lat="47.3251" lon="-0.19798">
        <ele>64.4</ele>
        <time>2021-01-18T17:12:36Z</time>
      </trkpt>
      <trkpt lat="47.32523" lon="-0.19796">
        <ele>64</ele>
        <time>2021-01-18T17:12:36Z</time>
      </trkpt>
      <trkpt lat="47.32642" lon="-0.19701">
        <ele>52.7</ele>
        <time>2021-01-18T17:12:36Z</time>
      </trkpt>
      <trkpt lat="47.32659" lon="-0.19679">
        <ele>50.8</ele>
        <time>2021-01-18T17:12:36Z</time>
      </trkpt>
      <trkpt lat="47.32643" lon="-0.19612">
        <ele>40.4</ele>
        <time>2021-01-18T17:12:36Z</time>
      </trkpt>
      <trkpt lat="47.32643" lon="-0.19599">
        <ele>38</ele>
        <time>2021-01-18T17:12:36Z</time>
      </trkpt>
      <trkpt lat="47.32663" lon="-0.19514">
        <ele>30.4</ele>
        <time>2021-01-18T17:12:36Z</time>
      </trkpt>
      <trkpt lat="47.32668" lon="-0.19504">
        <ele>29.9</ele>
        <time>2021-01-18T17:12:36Z</time>
      </trkpt>
      <trkpt lat="47.32675" lon="-0.19516">
        <ele>29.3</ele>
        <time>2021-01-18T17:12:36Z</time>
      </trkpt>
      <trkpt lat="47.32675" lon="-0.19516">
        <ele>29.3</ele>
        <time>2021-01-18T17:12:36Z</time>
      </trkpt>
      <trkpt lat="47.32973" lon="-0.19952">
        <ele>28.8</ele>
        <time>2021-01-18T17:12:36Z</time>
      </trkpt>
      <trkpt lat="47.32973" lon="-0.19952">
        <ele>28.8</ele>
        <time>2021-01-18T17:12:36Z</time>
      </trkpt>
      <trkpt lat="47.32976" lon="-0.19977">
        <ele>28.9</ele>
        <time>2021-01-18T17:12:36Z</time>
      </trkpt>
      <trkpt lat="47.3297" lon="-0.20025">
        <ele>30.1</ele>
        <time>2021-01-18T17:12:36Z</time>
      </trkpt>
      <trkpt lat="47.32984" lon="-0.201">
        <ele>30.3</ele>
        <time>2021-01-18T17:12:36Z</time>
      </trkpt>
      <trkpt lat="47.32916" lon="-0.20139">
        <ele>34</ele>
        <time>2021-01-18T17:12:36Z</time>
      </trkpt>
      <trkpt lat="47.32909" lon="-0.20226">
        <ele>43</ele>
        <time>2021-01-18T17:12:36Z</time>
      </trkpt>
      <trkpt lat="47.32897" lon="-0.20238">
        <ele>43.4</ele>
        <time>2021-01-18T17:12:36Z</time>
      </trkpt>
      <trkpt lat="47.32889" lon="-0.20239">
        <ele>43.2</ele>
        <time>2021-01-18T17:12:36Z</time>
      </trkpt>
      <trkpt lat="47.32889" lon="-0.20239">
        <ele>43.2</ele>
        <time>2021-01-18T17:12:36Z</time>
      </trkpt>
      <trkpt lat="47.32885" lon="-0.20252">
        <ele>43.5</ele>
        <time>2021-01-18T17:12:36Z</time>
      </trkpt>
      <trkpt lat="47.32883" lon="-0.20314">
        <ele>46.4</ele>
        <time>2021-01-18T17:12:36Z</time>
      </trkpt>
      <trkpt lat="47.32887" lon="-0.20348">
        <ele>45.7</ele>
        <time>2021-01-18T17:12:36Z</time>
      </trkpt>
      <trkpt lat="47.32878" lon="-0.20352">
        <ele>46.8</ele>
        <time>2021-01-18T17:12:36Z</time>
      </trkpt>
      <trkpt lat="47.32886" lon="-0.20391">
        <ele>48.4</ele>
        <time>2021-01-18T17:12:36Z</time>
      </trkpt>
      <trkpt lat="47.3289" lon="-0.20399">
        <ele>48.4</ele>
        <time>2021-01-18T17:12:36Z</time>
      </trkpt>
      <trkpt lat="47.32886" lon="-0.20413">
        <ele>49.2</ele>
        <time>2021-01-18T17:12:36Z</time>
      </trkpt>
      <trkpt lat="47.32893" lon="-0.2042">
        <ele>49.6</ele>
        <time>2021-01-18T17:12:36Z</time>
      </trkpt>
      <trkpt lat="47.32904" lon="-0.20436">
        <ele>51</ele>
        <time>2021-01-18T17:12:36Z</time>
      </trkpt>
      <trkpt lat="47.32904" lon="-0.20436">
        <ele>51</ele>
        <time>2021-01-18T17:12:36Z</time>
      </trkpt>
      <trkpt lat="47.32944" lon="-0.20526">
        <ele>55.9</ele>
        <time>2021-01-18T17:12:36Z</time>
      </trkpt>
      <trkpt lat="47.32979" lon="-0.20658">
        <ele>61.4</ele>
        <time>2021-01-18T17:12:36Z</time>
      </trkpt>
      <trkpt lat="47.32979" lon="-0.20658">
        <ele>61.4</ele>
        <time>2021-01-18T17:12:36Z</time>
      </trkpt>
      <trkpt lat="47.32971" lon="-0.20675">
        <ele>60.6</ele>
        <time>2021-01-18T17:12:36Z</time>
      </trkpt>
      <trkpt lat="47.3291" lon="-0.2096">
        <ele>68</ele>
        <time>2021-01-18T17:12:36Z</time>
      </trkpt>
      <trkpt lat="47.3286" lon="-0.21093">
        <ele>71.4</ele>
        <time>2021-01-18T17:12:36Z</time>
      </trkpt>
      <trkpt lat="47.32849" lon="-0.21141">
        <ele>72.5</ele>
        <time>2021-01-18T17:12:36Z</time>
      </trkpt>
      <trkpt lat="47.32848" lon="-0.21205">
        <ele>72.5</ele>
        <time>2021-01-18T17:12:36Z</time>
      </trkpt>
      <trkpt lat="47.32861" lon="-0.21311">
        <ele>74</ele>
        <time>2021-01-18T17:12:36Z</time>
      </trkpt>
      <trkpt lat="47.32861" lon="-0.21338">
        <ele>74</ele>
        <time>2021-01-18T17:12:36Z</time>
      </trkpt>
      <trkpt lat="47.3287" lon="-0.21393">
        <ele>74</ele>
        <time>2021-01-18T17:12:36Z</time>
      </trkpt>
      <trkpt lat="47.32854" lon="-0.21478">
        <ele>73.8</ele>
        <time>2021-01-18T17:12:36Z</time>
      </trkpt>
      <trkpt lat="47.32847" lon="-0.21495">
        <ele>73.5</ele>
        <time>2021-01-18T17:12:36Z</time>
      </trkpt>
      <trkpt lat="47.32847" lon="-0.21495">
        <ele>73.5</ele>
        <time>2021-01-18T17:12:36Z</time>
      </trkpt>
      <trkpt lat="47.32867" lon="-0.21525">
        <ele>73.1</ele>
        <time>2021-01-18T17:12:36Z</time>
      </trkpt>
      <trkpt lat="47.32876" lon="-0.2155">
        <ele>73</ele>
        <time>2021-01-18T17:12:36Z</time>
      </trkpt>
      <trkpt lat="47.32875" lon="-0.21563">
        <ele>72.9</ele>
        <time>2021-01-18T17:12:36Z</time>
      </trkpt>
      <trkpt lat="47.32808" lon="-0.21645">
        <ele>73.9</ele>
        <time>2021-01-18T17:12:36Z</time>
      </trkpt>
      <trkpt lat="47.32784" lon="-0.2172">
        <ele>75</ele>
        <time>2021-01-18T17:12:36Z</time>
      </trkpt>
      <trkpt lat="47.32783" lon="-0.21731">
        <ele>75.3</ele>
        <time>2021-01-18T17:12:36Z</time>
      </trkpt>
      <trkpt lat="47.3279" lon="-0.21795">
        <ele>76</ele>
        <time>2021-01-18T17:12:36Z</time>
      </trkpt>
      <trkpt lat="47.32786" lon="-0.21826">
        <ele>76</ele>
        <time>2021-01-18T17:12:36Z</time>
      </trkpt>
      <trkpt lat="47.32786" lon="-0.21826">
        <ele>76</ele>
        <time>2021-01-18T17:12:36Z</time>
      </trkpt>
      <trkpt lat="47.32687" lon="-0.22152">
        <ele>75.3</ele>
        <time>2021-01-18T17:12:36Z</time>
      </trkpt>
      <trkpt lat="47.32676" lon="-0.22239">
        <ele>70.4</ele>
        <time>2021-01-18T17:12:36Z</time>
      </trkpt>
      <trkpt lat="47.32676" lon="-0.22239">
        <ele>70.4</ele>
        <time>2021-01-18T17:12:36Z</time>
      </trkpt>
      <trkpt lat="47.32671" lon="-0.22248">
        <ele>70.1</ele>
        <time>2021-01-18T17:12:36Z</time>
      </trkpt>
      <trkpt lat="47.32577" lon="-0.22242">
        <ele>67.8</ele>
        <time>2021-01-18T17:12:36Z</time>
      </trkpt>
      <trkpt lat="47.32328" lon="-0.22143">
        <ele>68</ele>
        <time>2021-01-18T17:12:36Z</time>
      </trkpt>
      <trkpt lat="47.32291" lon="-0.22151">
        <ele>69.1</ele>
        <time>2021-01-18T17:12:36Z</time>
      </trkpt>
      <trkpt lat="47.32291" lon="-0.22151">
        <ele>69.1</ele>
        <time>2021-01-18T17:12:36Z</time>
      </trkpt>
      <trkpt lat="47.32289" lon="-0.22165">
        <ele>68.7</ele>
        <time>2021-01-18T17:12:36Z</time>
      </trkpt>
      <trkpt lat="47.32271" lon="-0.22217">
        <ele>67.4</ele>
        <time>2021-01-18T17:12:36Z</time>
      </trkpt>
      <trkpt lat="47.32262" lon="-0.22278">
        <ele>67.1</ele>
        <time>2021-01-18T17:12:36Z</time>
      </trkpt>
      <trkpt lat="47.32274" lon="-0.22357">
        <ele>67.3</ele>
        <time>2021-01-18T17:12:36Z</time>
      </trkpt>
      <trkpt lat="47.32271" lon="-0.22375">
        <ele>67.1</ele>
        <time>2021-01-18T17:12:36Z</time>
      </trkpt>
      <trkpt lat="47.32257" lon="-0.22405">
        <ele>67.8</ele>
        <time>2021-01-18T17:12:36Z</time>
      </trkpt>
      <trkpt lat="47.32228" lon="-0.22439">
        <ele>68.8</ele>
        <time>2021-01-18T17:12:36Z</time>
      </trkpt>
      <trkpt lat="47.32222" lon="-0.22451">
        <ele>68.8</ele>
        <time>2021-01-18T17:12:36Z</time>
      </trkpt>
      <trkpt lat="47.32215" lon="-0.22485">
        <ele>68.8</ele>
        <time>2021-01-18T17:12:36Z</time>
      </trkpt>
      <trkpt lat="47.322" lon="-0.22514">
        <ele>69.1</ele>
        <time>2021-01-18T17:12:36Z</time>
      </trkpt>
      <trkpt lat="47.32182" lon="-0.22532">
        <ele>69.8</ele>
        <time>2021-01-18T17:12:36Z</time>
      </trkpt>
      <trkpt lat="47.32174" lon="-0.22549">
        <ele>70.3</ele>
        <time>2021-01-18T17:12:36Z</time>
      </trkpt>
      <trkpt lat="47.32159" lon="-0.22618">
        <ele>71.6</ele>
        <time>2021-01-18T17:12:36Z</time>
      </trkpt>
      <trkpt lat="47.32129" lon="-0.22664">
        <ele>73.7</ele>
        <time>2021-01-18T17:12:36Z</time>
      </trkpt>
      <trkpt lat="47.32124" lon="-0.22704">
        <ele>72.9</ele>
        <time>2021-01-18T17:12:36Z</time>
      </trkpt>
      <trkpt lat="47.32114" lon="-0.22727">
        <ele>72.7</ele>
        <time>2021-01-18T17:12:36Z</time>
      </trkpt>
      <trkpt lat="47.32115" lon="-0.22739">
        <ele>72.2</ele>
        <time>2021-01-18T17:12:36Z</time>
      </trkpt>
      <trkpt lat="47.32122" lon="-0.22756">
        <ele>70.8</ele>
        <time>2021-01-18T17:12:36Z</time>
      </trkpt>
      <trkpt lat="47.32116" lon="-0.22809">
        <ele>66.3</ele>
        <time>2021-01-18T17:12:36Z</time>
      </trkpt>
      <trkpt lat="47.32108" lon="-0.22826">
        <ele>65.8</ele>
        <time>2021-01-18T17:12:36Z</time>
      </trkpt>
      <trkpt lat="47.32113" lon="-0.22867">
        <ele>64.2</ele>
        <time>2021-01-18T17:12:36Z</time>
      </trkpt>
      <trkpt lat="47.32121" lon="-0.22865">
        <ele>64.1</ele>
        <time>2021-01-18T17:12:36Z</time>
      </trkpt>
      <trkpt lat="47.32121" lon="-0.22865">
        <ele>64.1</ele>
        <time>2021-01-18T17:12:36Z</time>
      </trkpt>
      <trkpt lat="47.3221" lon="-0.22835">
        <ele>64.5</ele>
        <time>2021-01-18T17:12:36Z</time>
      </trkpt>
      <trkpt lat="47.32234" lon="-0.22841">
        <ele>64.6</ele>
        <time>2021-01-18T17:12:36Z</time>
      </trkpt>
      <trkpt lat="47.32265" lon="-0.22862">
        <ele>66</ele>
        <time>2021-01-18T17:12:36Z</time>
      </trkpt>
      <trkpt lat="47.32347" lon="-0.2288">
        <ele>66.4</ele>
        <time>2021-01-18T17:12:36Z</time>
      </trkpt>
      <trkpt lat="47.32387" lon="-0.22925">
        <ele>64.8</ele>
        <time>2021-01-18T17:12:36Z</time>
      </trkpt>
      <trkpt lat="47.32392" lon="-0.22937">
        <ele>64.2</ele>
        <time>2021-01-18T17:12:36Z</time>
      </trkpt>
      <trkpt lat="47.32398" lon="-0.22943">
        <ele>64</ele>
        <time>2021-01-18T17:12:36Z</time>
      </trkpt>
      <trkpt lat="47.32552" lon="-0.22888">
        <ele>62</ele>
        <time>2021-01-18T17:12:36Z</time>
      </trkpt>
      <trkpt lat="47.32552" lon="-0.22888">
        <ele>62</ele>
        <time>2021-01-18T17:12:36Z</time>
      </trkpt>
      <trkpt lat="47.32749" lon="-0.22782">
        <ele>63.1</ele>
        <time>2021-01-18T17:12:36Z</time>
      </trkpt>
      <trkpt lat="47.32798" lon="-0.2274">
        <ele>64.1</ele>
        <time>2021-01-18T17:12:36Z</time>
      </trkpt>
      <trkpt lat="47.32873" lon="-0.22716">
        <ele>62.3</ele>
        <time>2021-01-18T17:12:36Z</time>
      </trkpt>
      <trkpt lat="47.33008" lon="-0.22685">
        <ele>58.4</ele>
        <time>2021-01-18T17:12:36Z</time>
      </trkpt>
      <trkpt lat="47.33103" lon="-0.22647">
        <ele>58.8</ele>
        <time>2021-01-18T17:12:36Z</time>
      </trkpt>
      <trkpt lat="47.33103" lon="-0.22647">
        <ele>58.8</ele>
        <time>2021-01-18T17:12:36Z</time>
      </trkpt>
      <trkpt lat="47.33136" lon="-0.22634">
        <ele>57.9</ele>
        <time>2021-01-18T17:12:36Z</time>
      </trkpt>
      <trkpt lat="47.33136" lon="-0.22634">
        <ele>57.9</ele>
        <time>2021-01-18T17:12:36Z</time>
      </trkpt>
      <trkpt lat="47.33162" lon="-0.22664">
        <ele>57.8</ele>
        <time>2021-01-18T17:12:36Z</time>
      </trkpt>
      <trkpt lat="47.33351" lon="-0.22993">
        <ele>56.9</ele>
        <time>2021-01-18T17:12:36Z</time>
      </trkpt>
      <trkpt lat="47.3336" lon="-0.23002">
        <ele>57</ele>
        <time>2021-01-18T17:12:36Z</time>
      </trkpt>
      <trkpt lat="47.3336" lon="-0.23002">
        <ele>57</ele>
        <time>2021-01-18T17:12:36Z</time>
      </trkpt>
      <trkpt lat="47.33367" lon="-0.23007">
        <ele>56.7</ele>
        <time>2021-01-18T17:12:36Z</time>
      </trkpt>
      <trkpt lat="47.3351" lon="-0.2295">
        <ele>51.9</ele>
        <time>2021-01-18T17:12:36Z</time>
      </trkpt>
      <trkpt lat="47.33662" lon="-0.2298">
        <ele>47.9</ele>
        <time>2021-01-18T17:12:36Z</time>
      </trkpt>
      <trkpt lat="47.33662" lon="-0.2298">
        <ele>47.9</ele>
        <time>2021-01-18T17:12:36Z</time>
      </trkpt>
      <trkpt lat="47.3368" lon="-0.22992">
        <ele>47.2</ele>
        <time>2021-01-18T17:12:36Z</time>
      </trkpt>
      <trkpt lat="47.33732" lon="-0.23047">
        <ele>43</ele>
        <time>2021-01-18T17:12:36Z</time>
      </trkpt>
      <trkpt lat="47.3383" lon="-0.23206">
        <ele>31.6</ele>
        <time>2021-01-18T17:12:36Z</time>
      </trkpt>
      <trkpt lat="47.3392" lon="-0.23313">
        <ele>28</ele>
        <time>2021-01-18T17:12:36Z</time>
      </trkpt>
      <trkpt lat="47.3392" lon="-0.23313">
        <ele>28</ele>
        <time>2021-01-18T17:12:36Z</time>
      </trkpt>
      <trkpt lat="47.3392" lon="-0.23327">
        <ele>28.1</ele>
        <time>2021-01-18T17:12:36Z</time>
      </trkpt>
      <trkpt lat="47.33901" lon="-0.23412">
        <ele>29</ele>
        <time>2021-01-18T17:12:36Z</time>
      </trkpt>
      <trkpt lat="47.33894" lon="-0.23506">
        <ele>30.2</ele>
        <time>2021-01-18T17:12:36Z</time>
      </trkpt>
      <trkpt lat="47.33894" lon="-0.23506">
        <ele>30.2</ele>
        <time>2021-01-18T17:12:36Z</time>
      </trkpt>
      <trkpt lat="47.3389" lon="-0.23523">
        <ele>30</ele>
        <time>2021-01-18T17:12:36Z</time>
      </trkpt>
      <trkpt lat="47.34062" lon="-0.2386">
        <ele>58.6</ele>
        <time>2021-01-18T17:12:36Z</time>
      </trkpt>
      <trkpt lat="47.34143" lon="-0.24071">
        <ele>62.1</ele>
        <time>2021-01-18T17:12:36Z</time>
      </trkpt>
      <trkpt lat="47.34143" lon="-0.24071">
        <ele>62.1</ele>
        <time>2021-01-18T17:12:36Z</time>
      </trkpt>
      <trkpt lat="47.34147" lon="-0.24082">
        <ele>62</ele>
        <time>2021-01-18T17:12:36Z</time>
      </trkpt>
      <trkpt lat="47.34187" lon="-0.24091">
        <ele>61.5</ele>
        <time>2021-01-18T17:12:36Z</time>
      </trkpt>
      <trkpt lat="47.34234" lon="-0.24136">
        <ele>56.5</ele>
        <time>2021-01-18T17:12:36Z</time>
      </trkpt>
      <trkpt lat="47.34259" lon="-0.24137">
        <ele>53.6</ele>
        <time>2021-01-18T17:12:36Z</time>
      </trkpt>
      <trkpt lat="47.34289" lon="-0.24128">
        <ele>52</ele>
        <time>2021-01-18T17:12:36Z</time>
      </trkpt>
      <trkpt lat="47.34329" lon="-0.24114">
        <ele>51.7</ele>
        <time>2021-01-18T17:12:36Z</time>
      </trkpt>
      <trkpt lat="47.34329" lon="-0.24114">
        <ele>51.7</ele>
        <time>2021-01-18T17:12:36Z</time>
      </trkpt>
      <trkpt lat="47.34319" lon="-0.24232">
        <ele>55</ele>
        <time>2021-01-18T17:12:36Z</time>
      </trkpt>
      <trkpt lat="47.34321" lon="-0.24243">
        <ele>55.5</ele>
        <time>2021-01-18T17:12:36Z</time>
      </trkpt>
      <trkpt lat="47.34346" lon="-0.2412">
        <ele>48.9</ele>
        <time>2021-01-18T17:12:36Z</time>
      </trkpt>
      <trkpt lat="47.34361" lon="-0.24097">
        <ele>46.6</ele>
        <time>2021-01-18T17:12:36Z</time>
      </trkpt>
      <trkpt lat="47.3445" lon="-0.23997">
        <ele>39</ele>
        <time>2021-01-18T17:12:36Z</time>
      </trkpt>
      <trkpt lat="47.34491" lon="-0.23926">
        <ele>35.6</ele>
        <time>2021-01-18T17:12:36Z</time>
      </trkpt>
      <trkpt lat="47.34504" lon="-0.2391">
        <ele>33.6</ele>
        <time>2021-01-18T17:12:36Z</time>
      </trkpt>
      <trkpt lat="47.34512" lon="-0.23906">
        <ele>33.4</ele>
        <time>2021-01-18T17:12:36Z</time>
      </trkpt>
      <trkpt lat="47.34523" lon="-0.23906">
        <ele>32.4</ele>
        <time>2021-01-18T17:12:36Z</time>
      </trkpt>
      <trkpt lat="47.34549" lon="-0.23914">
        <ele>30.5</ele>
        <time>2021-01-18T17:12:36Z</time>
      </trkpt>
      <trkpt lat="47.34603" lon="-0.2405">
        <ele>41.9</ele>
        <time>2021-01-18T17:12:36Z</time>
      </trkpt>
      <trkpt lat="47.34603" lon="-0.2405">
        <ele>41.9</ele>
        <time>2021-01-18T17:12:36Z</time>
      </trkpt>
      <trkpt lat="47.34648" lon="-0.24114">
        <ele>50</ele>
        <time>2021-01-18T17:12:36Z</time>
      </trkpt>
      <trkpt lat="47.34648" lon="-0.24114">
        <ele>50</ele>
        <time>2021-01-18T17:12:36Z</time>
      </trkpt>
      <trkpt lat="47.34762" lon="-0.24359">
        <ele>64.1</ele>
        <time>2021-01-18T17:12:36Z</time>
      </trkpt>
      <trkpt lat="47.3478" lon="-0.24406">
        <ele>64.9</ele>
        <time>2021-01-18T17:12:36Z</time>
      </trkpt>
      <trkpt lat="47.34852" lon="-0.24535">
        <ele>64.2</ele>
        <time>2021-01-18T17:12:36Z</time>
      </trkpt>
      <trkpt lat="47.34854" lon="-0.24546">
        <ele>64.7</ele>
        <time>2021-01-18T17:12:36Z</time>
      </trkpt>
      <trkpt lat="47.34854" lon="-0.24546">
        <ele>64.7</ele>
        <time>2021-01-18T17:12:36Z</time>
      </trkpt>
      <trkpt lat="47.3483" lon="-0.24577">
        <ele>65.8</ele>
        <time>2021-01-18T17:12:36Z</time>
      </trkpt>
      <trkpt lat="47.3485" lon="-0.24607">
        <ele>65.9</ele>
        <time>2021-01-18T17:12:36Z</time>
      </trkpt>
      <trkpt lat="47.3485" lon="-0.24607">
        <ele>65.9</ele>
        <time>2021-01-18T17:12:36Z</time>
      </trkpt>
      <trkpt lat="47.34853" lon="-0.24619">
        <ele>66.5</ele>
        <time>2021-01-18T17:12:36Z</time>
      </trkpt>
      <trkpt lat="47.34851" lon="-0.24632">
        <ele>67.2</ele>
        <time>2021-01-18T17:12:36Z</time>
      </trkpt>
      <trkpt lat="47.34851" lon="-0.24645">
        <ele>67.4</ele>
        <time>2021-01-18T17:12:36Z</time>
      </trkpt>
      <trkpt lat="47.34858" lon="-0.24658">
        <ele>66.7</ele>
        <time>2021-01-18T17:12:36Z</time>
      </trkpt>
      <trkpt lat="47.34873" lon="-0.24675">
        <ele>66.5</ele>
        <time>2021-01-18T17:12:36Z</time>
      </trkpt>
      <trkpt lat="47.34873" lon="-0.24675">
        <ele>66.5</ele>
        <time>2021-01-18T17:12:36Z</time>
      </trkpt>
      <trkpt lat="47.34987" lon="-0.24784">
        <ele>56.1</ele>
        <time>2021-01-18T17:12:36Z</time>
      </trkpt>
      <trkpt lat="47.34999" lon="-0.24807">
        <ele>51.2</ele>
        <time>2021-01-18T17:12:36Z</time>
      </trkpt>
      <trkpt lat="47.35008" lon="-0.24886">
        <ele>49.4</ele>
        <time>2021-01-18T17:12:36Z</time>
      </trkpt>
      <trkpt lat="47.35013" lon="-0.24897">
        <ele>49.4</ele>
        <time>2021-01-18T17:12:36Z</time>
      </trkpt>
      <trkpt lat="47.35043" lon="-0.24942">
        <ele>49.6</ele>
        <time>2021-01-18T17:12:36Z</time>
      </trkpt>
      <trkpt lat="47.35065" lon="-0.25022">
        <ele>53.4</ele>
        <time>2021-01-18T17:12:36Z</time>
      </trkpt>
      <trkpt lat="47.35082" lon="-0.25058">
        <ele>56.2</ele>
        <time>2021-01-18T17:12:36Z</time>
      </trkpt>
      <trkpt lat="47.3509" lon="-0.25068">
        <ele>57</ele>
        <time>2021-01-18T17:12:36Z</time>
      </trkpt>
      <trkpt lat="47.35124" lon="-0.2509">
        <ele>60</ele>
        <time>2021-01-18T17:12:36Z</time>
      </trkpt>
      <trkpt lat="47.35141" lon="-0.25117">
        <ele>61.9</ele>
        <time>2021-01-18T17:12:36Z</time>
      </trkpt>
      <trkpt lat="47.35146" lon="-0.25129">
        <ele>61.7</ele>
        <time>2021-01-18T17:12:36Z</time>
      </trkpt>
      <trkpt lat="47.3515" lon="-0.25144">
        <ele>61.8</ele>
        <time>2021-01-18T17:12:36Z</time>
      </trkpt>
      <trkpt lat="47.3515" lon="-0.25144">
        <ele>61.8</ele>
        <time>2021-01-18T17:12:36Z</time>
      </trkpt>
      <trkpt lat="47.35152" lon="-0.25159">
        <ele>61.6</ele>
        <time>2021-01-18T17:12:36Z</time>
      </trkpt>
      <trkpt lat="47.35141" lon="-0.25164">
        <ele>62.8</ele>
        <time>2021-01-18T17:12:36Z</time>
      </trkpt>
      <trkpt lat="47.35139" lon="-0.25174">
        <ele>63.5</ele>
        <time>2021-01-18T17:12:36Z</time>
      </trkpt>
      <trkpt lat="47.35323" lon="-0.25567">
        <ele>57.4</ele>
        <time>2021-01-18T17:12:36Z</time>
      </trkpt>
      <trkpt lat="47.35323" lon="-0.25567">
        <ele>57.4</ele>
        <time>2021-01-18T17:12:36Z</time>
      </trkpt>
      <trkpt lat="47.35373" lon="-0.25543">
        <ele>55.2</ele>
        <time>2021-01-18T17:12:36Z</time>
      </trkpt>
      <trkpt lat="47.35385" lon="-0.25551">
        <ele>54.3</ele>
        <time>2021-01-18T17:12:36Z</time>
      </trkpt>
      <trkpt lat="47.35397" lon="-0.25551">
        <ele>53.7</ele>
        <time>2021-01-18T17:12:36Z</time>
      </trkpt>
      <trkpt lat="47.35402" lon="-0.25561">
        <ele>53.5</ele>
        <time>2021-01-18T17:12:36Z</time>
      </trkpt>
      <trkpt lat="47.35413" lon="-0.25611">
        <ele>51.5</ele>
        <time>2021-01-18T17:12:36Z</time>
      </trkpt>
      <trkpt lat="47.35425" lon="-0.25636">
        <ele>49</ele>
        <time>2021-01-18T17:12:36Z</time>
      </trkpt>
      <trkpt lat="47.35431" lon="-0.25645">
        <ele>47.9</ele>
        <time>2021-01-18T17:12:36Z</time>
      </trkpt>
      <trkpt lat="47.35444" lon="-0.25661">
        <ele>45.3</ele>
        <time>2021-01-18T17:12:36Z</time>
      </trkpt>
      <trkpt lat="47.35444" lon="-0.25661">
        <ele>45.3</ele>
        <time>2021-01-18T17:12:36Z</time>
      </trkpt>
      <trkpt lat="47.35449" lon="-0.25672">
        <ele>44.2</ele>
        <time>2021-01-18T17:12:36Z</time>
      </trkpt>
      <trkpt lat="47.3557" lon="-0.25628">
        <ele>29.4</ele>
        <time>2021-01-18T17:12:36Z</time>
      </trkpt>
      <trkpt lat="47.35594" lon="-0.25604">
        <ele>28.7</ele>
        <time>2021-01-18T17:12:36Z</time>
      </trkpt>
      <trkpt lat="47.35696" lon="-0.25689">
        <ele>25</ele>
        <time>2021-01-18T17:12:36Z</time>
      </trkpt>
      <trkpt lat="47.35701" lon="-0.25697">
        <ele>25</ele>
        <time>2021-01-18T17:12:36Z</time>
      </trkpt>
      <trkpt lat="47.35701" lon="-0.25697">
        <ele>25</ele>
        <time>2021-01-18T17:12:36Z</time>
      </trkpt>
      <trkpt lat="47.35704" lon="-0.25707">
        <ele>24.9</ele>
        <time>2021-01-18T17:12:36Z</time>
      </trkpt>
      <trkpt lat="47.35715" lon="-0.25857">
        <ele>28</ele>
        <time>2021-01-18T17:12:36Z</time>
      </trkpt>
      <trkpt lat="47.3572" lon="-0.2587">
        <ele>28.6</ele>
        <time>2021-01-18T17:12:36Z</time>
      </trkpt>
      <trkpt lat="47.35766" lon="-0.25934">
        <ele>31.1</ele>
        <time>2021-01-18T17:12:36Z</time>
      </trkpt>
      <trkpt lat="47.35786" lon="-0.25955">
        <ele>31.6</ele>
        <time>2021-01-18T17:12:36Z</time>
      </trkpt>
      <trkpt lat="47.35825" lon="-0.26035">
        <ele>35.3</ele>
        <time>2021-01-18T17:12:36Z</time>
      </trkpt>
      <trkpt lat="47.35828" lon="-0.26046">
        <ele>35.8</ele>
        <time>2021-01-18T17:12:36Z</time>
      </trkpt>
      <trkpt lat="47.35828" lon="-0.26046">
        <ele>35.8</ele>
        <time>2021-01-18T17:12:36Z</time>
      </trkpt>
      <trkpt lat="47.3583" lon="-0.2608">
        <ele>37.8</ele>
        <time>2021-01-18T17:12:36Z</time>
      </trkpt>
      <trkpt lat="47.35824" lon="-0.2612">
        <ele>40.8</ele>
        <time>2021-01-18T17:12:36Z</time>
      </trkpt>
      <trkpt lat="47.35816" lon="-0.26143">
        <ele>42.7</ele>
        <time>2021-01-18T17:12:36Z</time>
      </trkpt>
      <trkpt lat="47.358" lon="-0.26164">
        <ele>44.7</ele>
        <time>2021-01-18T17:12:36Z</time>
      </trkpt>
      <trkpt lat="47.35792" lon="-0.26172">
        <ele>45.5</ele>
        <time>2021-01-18T17:12:36Z</time>
      </trkpt>
      <trkpt lat="47.35792" lon="-0.26172">
        <ele>45.5</ele>
        <time>2021-01-18T17:12:36Z</time>
      </trkpt>
      <trkpt lat="47.35755" lon="-0.26202">
        <ele>49</ele>
        <time>2021-01-18T17:12:36Z</time>
      </trkpt>
      <trkpt lat="47.35726" lon="-0.26242">
        <ele>50.9</ele>
        <time>2021-01-18T17:12:36Z</time>
      </trkpt>
      <trkpt lat="47.357" lon="-0.26307">
        <ele>50.4</ele>
        <time>2021-01-18T17:12:36Z</time>
      </trkpt>
      <trkpt lat="47.357" lon="-0.26318">
        <ele>50.4</ele>
        <time>2021-01-18T17:12:36Z</time>
      </trkpt>
      <trkpt lat="47.357" lon="-0.26318">
        <ele>50.4</ele>
        <time>2021-01-18T17:12:36Z</time>
      </trkpt>
      <trkpt lat="47.35708" lon="-0.26335">
        <ele>51</ele>
        <time>2021-01-18T17:12:36Z</time>
      </trkpt>
      <trkpt lat="47.35742" lon="-0.26376">
        <ele>51.7</ele>
        <time>2021-01-18T17:12:36Z</time>
      </trkpt>
      <trkpt lat="47.35741" lon="-0.2639">
        <ele>51.7</ele>
        <time>2021-01-18T17:12:36Z</time>
      </trkpt>
      <trkpt lat="47.35653" lon="-0.26579">
        <ele>57.1</ele>
        <time>2021-01-18T17:12:36Z</time>
      </trkpt>
      <trkpt lat="47.35652" lon="-0.26591">
        <ele>57.5</ele>
        <time>2021-01-18T17:12:36Z</time>
      </trkpt>
      <trkpt lat="47.35654" lon="-0.26602">
        <ele>57.5</ele>
        <time>2021-01-18T17:12:36Z</time>
      </trkpt>
      <trkpt lat="47.35684" lon="-0.26687">
        <ele>60.4</ele>
        <time>2021-01-18T17:12:36Z</time>
      </trkpt>
      <trkpt lat="47.35686" lon="-0.26706">
        <ele>61.1</ele>
        <time>2021-01-18T17:12:36Z</time>
      </trkpt>
      <trkpt lat="47.35686" lon="-0.26721">
        <ele>61.6</ele>
        <time>2021-01-18T17:12:36Z</time>
      </trkpt>
      <trkpt lat="47.35686" lon="-0.26721">
        <ele>61.6</ele>
        <time>2021-01-18T17:12:36Z</time>
      </trkpt>
      <trkpt lat="47.35684" lon="-0.26735">
        <ele>61.8</ele>
        <time>2021-01-18T17:12:36Z</time>
      </trkpt>
      <trkpt lat="47.35658" lon="-0.26805">
        <ele>62</ele>
        <time>2021-01-18T17:12:36Z</time>
      </trkpt>
      <trkpt lat="47.35656" lon="-0.2684">
        <ele>62.8</ele>
        <time>2021-01-18T17:12:36Z</time>
      </trkpt>
      <trkpt lat="47.35659" lon="-0.26879">
        <ele>63</ele>
        <time>2021-01-18T17:12:36Z</time>
      </trkpt>
      <trkpt lat="47.35658" lon="-0.26893">
        <ele>63</ele>
        <time>2021-01-18T17:12:36Z</time>
      </trkpt>
      <trkpt lat="47.35637" lon="-0.26953">
        <ele>63.9</ele>
        <time>2021-01-18T17:12:36Z</time>
      </trkpt>
      <trkpt lat="47.35621" lon="-0.26978">
        <ele>64.2</ele>
        <time>2021-01-18T17:12:36Z</time>
      </trkpt>
      <trkpt lat="47.35621" lon="-0.26978">
        <ele>64.2</ele>
        <time>2021-01-18T17:12:36Z</time>
      </trkpt>
      <trkpt lat="47.35614" lon="-0.26986">
        <ele>64.5</ele>
        <time>2021-01-18T17:12:36Z</time>
      </trkpt>
      <trkpt lat="47.35612" lon="-0.26998">
        <ele>64.9</ele>
        <time>2021-01-18T17:12:36Z</time>
      </trkpt>
      <trkpt lat="47.35619" lon="-0.27023">
        <ele>65.6</ele>
        <time>2021-01-18T17:12:36Z</time>
      </trkpt>
      <trkpt lat="47.35611" lon="-0.27039">
        <ele>66</ele>
        <time>2021-01-18T17:12:36Z</time>
      </trkpt>
      <trkpt lat="47.35595" lon="-0.27052">
        <ele>65.9</ele>
        <time>2021-01-18T17:12:36Z</time>
      </trkpt>
      <trkpt lat="47.35624" lon="-0.27083">
        <ele>66</ele>
        <time>2021-01-18T17:12:36Z</time>
      </trkpt>
      <trkpt lat="47.35635" lon="-0.27148">
        <ele>64.5</ele>
        <time>2021-01-18T17:12:36Z</time>
      </trkpt>
      <trkpt lat="47.35632" lon="-0.27204">
        <ele>63.3</ele>
        <time>2021-01-18T17:12:36Z</time>
      </trkpt>
      <trkpt lat="47.35678" lon="-0.27292">
        <ele>56.5</ele>
        <time>2021-01-18T17:12:36Z</time>
      </trkpt>
      <trkpt lat="47.35684" lon="-0.27375">
        <ele>47.7</ele>
        <time>2021-01-18T17:12:36Z</time>
      </trkpt>
      <trkpt lat="47.35684" lon="-0.27375">
        <ele>47.7</ele>
        <time>2021-01-18T17:12:36Z</time>
      </trkpt>
      <trkpt lat="47.35682" lon="-0.27387">
        <ele>46.2</ele>
        <time>2021-01-18T17:12:36Z</time>
      </trkpt>
      <trkpt lat="47.35717" lon="-0.27398">
        <ele>45.4</ele>
        <time>2021-01-18T17:12:36Z</time>
      </trkpt>
      <trkpt lat="47.35818" lon="-0.27459">
        <ele>42.5</ele>
        <time>2021-01-18T17:12:36Z</time>
      </trkpt>
      <trkpt lat="47.35843" lon="-0.2746">
        <ele>42</ele>
        <time>2021-01-18T17:12:36Z</time>
      </trkpt>
      <trkpt lat="47.35865" lon="-0.27472">
        <ele>41</ele>
        <time>2021-01-18T17:12:36Z</time>
      </trkpt>
      <trkpt lat="47.35884" lon="-0.27484">
        <ele>41.4</ele>
        <time>2021-01-18T17:12:36Z</time>
      </trkpt>
      <trkpt lat="47.35891" lon="-0.27485">
        <ele>41.5</ele>
        <time>2021-01-18T17:12:36Z</time>
      </trkpt>
      <trkpt lat="47.359" lon="-0.27481">
        <ele>41.6</ele>
        <time>2021-01-18T17:12:36Z</time>
      </trkpt>
      <trkpt lat="47.3592" lon="-0.27447">
        <ele>40.3</ele>
        <time>2021-01-18T17:12:36Z</time>
      </trkpt>
      <trkpt lat="47.3592" lon="-0.27447">
        <ele>40.3</ele>
        <time>2021-01-18T17:12:36Z</time>
      </trkpt>
      <trkpt lat="47.35942" lon="-0.27398">
        <ele>39.5</ele>
        <time>2021-01-18T17:12:36Z</time>
      </trkpt>
      <trkpt lat="47.35949" lon="-0.2739">
        <ele>39</ele>
        <time>2021-01-18T17:12:36Z</time>
      </trkpt>
      <trkpt lat="47.35979" lon="-0.27374">
        <ele>38.3</ele>
        <time>2021-01-18T17:12:36Z</time>
      </trkpt>
      <trkpt lat="47.35987" lon="-0.27373">
        <ele>38.1</ele>
        <time>2021-01-18T17:12:36Z</time>
      </trkpt>
      <trkpt lat="47.36015" lon="-0.27379">
        <ele>39.8</ele>
        <time>2021-01-18T17:12:36Z</time>
      </trkpt>
      <trkpt lat="47.36106" lon="-0.27359">
        <ele>44.4</ele>
        <time>2021-01-18T17:12:36Z</time>
      </trkpt>
      <trkpt lat="47.3616" lon="-0.27363">
        <ele>43.1</ele>
        <time>2021-01-18T17:12:36Z</time>
      </trkpt>
      <trkpt lat="47.3616" lon="-0.27363">
        <ele>43.1</ele>
        <time>2021-01-18T17:12:36Z</time>
      </trkpt>
      <trkpt lat="47.36178" lon="-0.27363">
        <ele>42.7</ele>
        <time>2021-01-18T17:12:36Z</time>
      </trkpt>
      <trkpt lat="47.36184" lon="-0.27355">
        <ele>41.9</ele>
        <time>2021-01-18T17:12:36Z</time>
      </trkpt>
      <trkpt lat="47.36177" lon="-0.27277">
        <ele>37</ele>
        <time>2021-01-18T17:12:36Z</time>
      </trkpt>
      <trkpt lat="47.36177" lon="-0.27266">
        <ele>36.3</ele>
        <time>2021-01-18T17:12:36Z</time>
      </trkpt>
      <trkpt lat="47.3618" lon="-0.27255">
        <ele>35.8</ele>
        <time>2021-01-18T17:12:36Z</time>
      </trkpt>
      <trkpt lat="47.36187" lon="-0.27246">
        <ele>35.5</ele>
        <time>2021-01-18T17:12:36Z</time>
      </trkpt>
      <trkpt lat="47.36252" lon="-0.27229">
        <ele>34.6</ele>
        <time>2021-01-18T17:12:36Z</time>
      </trkpt>
      <trkpt lat="47.36298" lon="-0.27181">
        <ele>35</ele>
        <time>2021-01-18T17:12:36Z</time>
      </trkpt>
      <trkpt lat="47.36406" lon="-0.27054">
        <ele>38.5</ele>
        <time>2021-01-18T17:12:36Z</time>
      </trkpt>
      <trkpt lat="47.36406" lon="-0.27054">
        <ele>38.5</ele>
        <time>2021-01-18T17:12:36Z</time>
      </trkpt>
      <trkpt lat="47.36461" lon="-0.26987">
        <ele>41</ele>
        <time>2021-01-18T17:12:36Z</time>
      </trkpt>
      <trkpt lat="47.36416" lon="-0.26903">
        <ele>39.4</ele>
        <time>2021-01-18T17:12:36Z</time>
      </trkpt>
      <trkpt lat="47.36385" lon="-0.26861">
        <ele>40.6</ele>
        <time>2021-01-18T17:12:36Z</time>
      </trkpt>
      <trkpt lat="47.36376" lon="-0.26837">
        <ele>40.9</ele>
        <time>2021-01-18T17:12:36Z</time>
      </trkpt>
      <trkpt lat="47.36374" lon="-0.26822">
        <ele>41.2</ele>
        <time>2021-01-18T17:12:36Z</time>
      </trkpt>
      <trkpt lat="47.36381" lon="-0.26701">
        <ele>40.8</ele>
        <time>2021-01-18T17:12:36Z</time>
      </trkpt>
      <trkpt lat="47.36444" lon="-0.26497">
        <ele>34.6</ele>
        <time>2021-01-18T17:12:36Z</time>
      </trkpt>
      <trkpt lat="47.36451" lon="-0.26483">
        <ele>33.7</ele>
        <time>2021-01-18T17:12:36Z</time>
      </trkpt>
      <trkpt lat="47.36501" lon="-0.26435">
        <ele>32.7</ele>
        <time>2021-01-18T17:12:36Z</time>
      </trkpt>
      <trkpt lat="47.36501" lon="-0.26435">
        <ele>32.7</ele>
        <time>2021-01-18T17:12:36Z</time>
      </trkpt>
      <trkpt lat="47.36596" lon="-0.26375">
        <ele>30.3</ele>
        <time>2021-01-18T17:12:36Z</time>
      </trkpt>
      <trkpt lat="47.36616" lon="-0.2634">
        <ele>27.8</ele>
        <time>2021-01-18T17:12:36Z</time>
      </trkpt>
      <trkpt lat="47.36625" lon="-0.26315">
        <ele>25.8</ele>
        <time>2021-01-18T17:12:36Z</time>
      </trkpt>
      <trkpt lat="47.36622" lon="-0.26306">
        <ele>25</ele>
        <time>2021-01-18T17:12:36Z</time>
      </trkpt>
      <trkpt lat="47.36622" lon="-0.26306">
        <ele>25</ele>
        <time>2021-01-18T17:12:36Z</time>
      </trkpt>
      <trkpt lat="47.36887" lon="-0.26339">
        <ele>23.8</ele>
        <time>2021-01-18T17:12:36Z</time>
      </trkpt>
      <trkpt lat="47.36895" lon="-0.26343">
        <ele>23.8</ele>
        <time>2021-01-18T17:12:36Z</time>
      </trkpt>
      <trkpt lat="47.36895" lon="-0.26343">
        <ele>23.8</ele>
        <time>2021-01-18T17:12:36Z</time>
      </trkpt>
      <trkpt lat="47.36887" lon="-0.26339">
        <ele>23.8</ele>
        <time>2021-01-18T17:12:36Z</time>
      </trkpt>
      <trkpt lat="47.36855" lon="-0.26339">
        <ele>25.2</ele>
        <time>2021-01-18T17:12:36Z</time>
      </trkpt>
      <trkpt lat="47.37011" lon="-0.26426">
        <ele>24.3</ele>
        <time>2021-01-18T17:12:36Z</time>
      </trkpt>
      <trkpt lat="47.37102" lon="-0.26491">
        <ele>24.9</ele>
        <time>2021-01-18T17:12:36Z</time>
      </trkpt>
      <trkpt lat="47.37102" lon="-0.26491">
        <ele>24.9</ele>
        <time>2021-01-18T17:12:36Z</time>
      </trkpt>
      <trkpt lat="47.37107" lon="-0.265">
        <ele>25.5</ele>
        <time>2021-01-18T17:12:36Z</time>
      </trkpt>
      <trkpt lat="47.37111" lon="-0.26517">
        <ele>26.3</ele>
        <time>2021-01-18T17:12:36Z</time>
      </trkpt>
      <trkpt lat="47.37119" lon="-0.26532">
        <ele>26.7</ele>
        <time>2021-01-18T17:12:36Z</time>
      </trkpt>
      <trkpt lat="47.37119" lon="-0.26532">
        <ele>26.7</ele>
        <time>2021-01-18T17:12:36Z</time>
      </trkpt>
      <trkpt lat="47.37126" lon="-0.26539">
        <ele>26.5</ele>
        <time>2021-01-18T17:12:36Z</time>
      </trkpt>
      <trkpt lat="47.37113" lon="-0.26573">
        <ele>28.3</ele>
        <time>2021-01-18T17:12:36Z</time>
      </trkpt>
      <trkpt lat="47.37077" lon="-0.26609">
        <ele>31.2</ele>
        <time>2021-01-18T17:12:36Z</time>
      </trkpt>
      <trkpt lat="47.37064" lon="-0.26631">
        <ele>31.8</ele>
        <time>2021-01-18T17:12:36Z</time>
      </trkpt>
      <trkpt lat="47.37064" lon="-0.26631">
        <ele>31.8</ele>
        <time>2021-01-18T17:12:36Z</time>
      </trkpt>
      <trkpt lat="47.37065" lon="-0.26651">
        <ele>31.1</ele>
        <time>2021-01-18T17:12:36Z</time>
      </trkpt>
      <trkpt lat="47.37096" lon="-0.26708">
        <ele>32.7</ele>
        <time>2021-01-18T17:12:36Z</time>
      </trkpt>
      <trkpt lat="47.37113" lon="-0.26758">
        <ele>34.6</ele>
        <time>2021-01-18T17:12:36Z</time>
      </trkpt>
      <trkpt lat="47.37136" lon="-0.26796">
        <ele>37.3</ele>
        <time>2021-01-18T17:12:36Z</time>
      </trkpt>
      <trkpt lat="47.37174" lon="-0.2685">
        <ele>41.5</ele>
        <time>2021-01-18T17:12:36Z</time>
      </trkpt>
      <trkpt lat="47.3719" lon="-0.26879">
        <ele>45.3</ele>
        <time>2021-01-18T17:12:36Z</time>
      </trkpt>
      <trkpt lat="47.37208" lon="-0.26902">
        <ele>48.4</ele>
        <time>2021-01-18T17:12:36Z</time>
      </trkpt>
      <trkpt lat="47.37215" lon="-0.26912">
        <ele>49.2</ele>
        <time>2021-01-18T17:12:36Z</time>
      </trkpt>
      <trkpt lat="47.37215" lon="-0.26912">
        <ele>49.2</ele>
        <time>2021-01-18T17:12:36Z</time>
      </trkpt>
      <trkpt lat="47.37233" lon="-0.26956">
        <ele>51.4</ele>
        <time>2021-01-18T17:12:36Z</time>
      </trkpt>
      <trkpt lat="47.37312" lon="-0.27069">
        <ele>59.9</ele>
        <time>2021-01-18T17:12:36Z</time>
      </trkpt>
      <trkpt lat="47.37372" lon="-0.2719">
        <ele>71.9</ele>
        <time>2021-01-18T17:12:36Z</time>
      </trkpt>
      <trkpt lat="47.37372" lon="-0.2719">
        <ele>71.9</ele>
        <time>2021-01-18T17:12:36Z</time>
      </trkpt>
      <trkpt lat="47.37403" lon="-0.2724">
        <ele>75</ele>
        <time>2021-01-18T17:12:36Z</time>
      </trkpt>
      <trkpt lat="47.37403" lon="-0.2724">
        <ele>75</ele>
        <time>2021-01-18T17:12:36Z</time>
      </trkpt>
      <trkpt lat="47.37671" lon="-0.27542">
        <ele>83.5</ele>
        <time>2021-01-18T17:12:36Z</time>
      </trkpt>
      <trkpt lat="47.37724" lon="-0.27632">
        <ele>82.3</ele>
        <time>2021-01-18T17:12:36Z</time>
      </trkpt>
      <trkpt lat="47.37773" lon="-0.27693">
        <ele>82</ele>
        <time>2021-01-18T17:12:36Z</time>
      </trkpt>
      <trkpt lat="47.37773" lon="-0.27693">
        <ele>82</ele>
        <time>2021-01-18T17:12:36Z</time>
      </trkpt>
      <trkpt lat="47.37866" lon="-0.27821">
        <ele>78.5</ele>
        <time>2021-01-18T17:12:36Z</time>
      </trkpt>
      <trkpt lat="47.37921" lon="-0.27952">
        <ele>76.2</ele>
        <time>2021-01-18T17:12:36Z</time>
      </trkpt>
      <trkpt lat="47.37921" lon="-0.27952">
        <ele>76.2</ele>
        <time>2021-01-18T17:12:36Z</time>
      </trkpt>
      <trkpt lat="47.38005" lon="-0.2803">
        <ele>75.8</ele>
        <time>2021-01-18T17:12:36Z</time>
      </trkpt>
      <trkpt lat="47.38015" lon="-0.28034">
        <ele>75.4</ele>
        <time>2021-01-18T17:12:36Z</time>
      </trkpt>
      <trkpt lat="47.38025" lon="-0.28034">
        <ele>75.1</ele>
        <time>2021-01-18T17:12:36Z</time>
      </trkpt>
      <trkpt lat="47.38043" lon="-0.28027">
        <ele>74.4</ele>
        <time>2021-01-18T17:12:36Z</time>
      </trkpt>
      <trkpt lat="47.38056" lon="-0.28015">
        <ele>74</ele>
        <time>2021-01-18T17:12:36Z</time>
      </trkpt>
      <trkpt lat="47.38065" lon="-0.2801">
        <ele>73.4</ele>
        <time>2021-01-18T17:12:36Z</time>
      </trkpt>
      <trkpt lat="47.38076" lon="-0.28009">
        <ele>72.5</ele>
        <time>2021-01-18T17:12:36Z</time>
      </trkpt>
      <trkpt lat="47.38085" lon="-0.28012">
        <ele>71.9</ele>
        <time>2021-01-18T17:12:36Z</time>
      </trkpt>
      <trkpt lat="47.38085" lon="-0.28012">
        <ele>71.9</ele>
        <time>2021-01-18T17:12:36Z</time>
      </trkpt>
      <trkpt lat="47.38191" lon="-0.28055">
        <ele>73.8</ele>
        <time>2021-01-18T17:12:36Z</time>
      </trkpt>
      <trkpt lat="47.38238" lon="-0.28097">
        <ele>76.2</ele>
        <time>2021-01-18T17:12:36Z</time>
      </trkpt>
      <trkpt lat="47.38311" lon="-0.28189">
        <ele>77.8</ele>
        <time>2021-01-18T17:12:36Z</time>
      </trkpt>
      <trkpt lat="47.38353" lon="-0.28263">
        <ele>77.1</ele>
        <time>2021-01-18T17:12:36Z</time>
      </trkpt>
      <trkpt lat="47.38388" lon="-0.28313">
        <ele>77</ele>
        <time>2021-01-18T17:12:36Z</time>
      </trkpt>
      <trkpt lat="47.38393" lon="-0.28323">
        <ele>77</ele>
        <time>2021-01-18T17:12:36Z</time>
      </trkpt>
      <trkpt lat="47.38393" lon="-0.28323">
        <ele>77</ele>
        <time>2021-01-18T17:12:36Z</time>
      </trkpt>
      <trkpt lat="47.38449" lon="-0.28448">
        <ele>79.3</ele>
        <time>2021-01-18T17:12:36Z</time>
      </trkpt>
      <trkpt lat="47.38471" lon="-0.28474">
        <ele>80.9</ele>
        <time>2021-01-18T17:12:36Z</time>
      </trkpt>
      <trkpt lat="47.38521" lon="-0.28515">
        <ele>80.4</ele>
        <time>2021-01-18T17:12:36Z</time>
      </trkpt>
      <trkpt lat="47.38578" lon="-0.28606">
        <ele>78.3</ele>
        <time>2021-01-18T17:12:36Z</time>
      </trkpt>
      <trkpt lat="47.38619" lon="-0.28702">
        <ele>77.3</ele>
        <time>2021-01-18T17:12:36Z</time>
      </trkpt>
      <trkpt lat="47.38641" lon="-0.2872">
        <ele>77.7</ele>
        <time>2021-01-18T17:12:36Z</time>
      </trkpt>
      <trkpt lat="47.38641" lon="-0.2872">
        <ele>77.7</ele>
        <time>2021-01-18T17:12:36Z</time>
      </trkpt>
      <trkpt lat="47.38647" lon="-0.28733">
        <ele>77.4</ele>
        <time>2021-01-18T17:12:36Z</time>
      </trkpt>
      <trkpt lat="47.38648" lon="-0.28746">
        <ele>77.4</ele>
        <time>2021-01-18T17:12:36Z</time>
      </trkpt>
      <trkpt lat="47.38645" lon="-0.28759">
        <ele>77.2</ele>
        <time>2021-01-18T17:12:36Z</time>
      </trkpt>
      <trkpt lat="47.38618" lon="-0.28813">
        <ele>76.6</ele>
        <time>2021-01-18T17:12:36Z</time>
      </trkpt>
      <trkpt lat="47.38617" lon="-0.28827">
        <ele>76.2</ele>
        <time>2021-01-18T17:12:36Z</time>
      </trkpt>
      <trkpt lat="47.38618" lon="-0.2884">
        <ele>76.2</ele>
        <time>2021-01-18T17:12:36Z</time>
      </trkpt>
      <trkpt lat="47.38618" lon="-0.2884">
        <ele>76.2</ele>
        <time>2021-01-18T17:12:36Z</time>
      </trkpt>
      <trkpt lat="47.38624" lon="-0.28849">
        <ele>76.3</ele>
        <time>2021-01-18T17:12:36Z</time>
      </trkpt>
      <trkpt lat="47.38635" lon="-0.2883">
        <ele>76</ele>
        <time>2021-01-18T17:12:36Z</time>
      </trkpt>
      <trkpt lat="47.38644" lon="-0.28801">
        <ele>76.3</ele>
        <time>2021-01-18T17:12:36Z</time>
      </trkpt>
      <trkpt lat="47.38691" lon="-0.28743">
        <ele>72.9</ele>
        <time>2021-01-18T17:12:36Z</time>
      </trkpt>
      <trkpt lat="47.38776" lon="-0.28659">
        <ele>63</ele>
        <time>2021-01-18T17:12:36Z</time>
      </trkpt>
      <trkpt lat="47.38776" lon="-0.28659">
        <ele>63</ele>
        <time>2021-01-18T17:12:36Z</time>
      </trkpt>
      <trkpt lat="47.38801" lon="-0.28637">
        <ele>61</ele>
        <time>2021-01-18T17:12:36Z</time>
      </trkpt>
      <trkpt lat="47.38864" lon="-0.28604">
        <ele>56.3</ele>
        <time>2021-01-18T17:12:36Z</time>
      </trkpt>
      <trkpt lat="47.38991" lon="-0.28987">
        <ele>71.9</ele>
        <time>2021-01-18T17:12:36Z</time>
      </trkpt>
      <trkpt lat="47.38991" lon="-0.28987">
        <ele>71.9</ele>
        <time>2021-01-18T17:12:36Z</time>
      </trkpt>
      <trkpt lat="47.38993" lon="-0.28998">
        <ele>72</ele>
        <time>2021-01-18T17:12:36Z</time>
      </trkpt>
      <trkpt lat="47.38842" lon="-0.2922">
        <ele>70</ele>
        <time>2021-01-18T17:12:36Z</time>
      </trkpt>
      <trkpt lat="47.38849" lon="-0.29236">
        <ele>70</ele>
        <time>2021-01-18T17:12:36Z</time>
      </trkpt>
      <trkpt lat="47.38909" lon="-0.29318">
        <ele>72.3</ele>
        <time>2021-01-18T17:12:36Z</time>
      </trkpt>
      <trkpt lat="47.38909" lon="-0.29318">
        <ele>72.3</ele>
        <time>2021-01-18T17:12:36Z</time>
      </trkpt>
      <trkpt lat="47.38917" lon="-0.2934">
        <ele>73.5</ele>
        <time>2021-01-18T17:12:36Z</time>
      </trkpt>
      <trkpt lat="47.3892" lon="-0.29354">
        <ele>74.4</ele>
        <time>2021-01-18T17:12:36Z</time>
      </trkpt>
      <trkpt lat="47.38934" lon="-0.29371">
        <ele>74.6</ele>
        <time>2021-01-18T17:12:36Z</time>
      </trkpt>
      <trkpt lat="47.38938" lon="-0.2938">
        <ele>74.8</ele>
        <time>2021-01-18T17:12:36Z</time>
      </trkpt>
      <trkpt lat="47.38942" lon="-0.29403">
        <ele>75</ele>
        <time>2021-01-18T17:12:36Z</time>
      </trkpt>
      <trkpt lat="47.38943" lon="-0.29429">
        <ele>75.5</ele>
        <time>2021-01-18T17:12:36Z</time>
      </trkpt>
      <trkpt lat="47.38945" lon="-0.2944">
        <ele>75.8</ele>
        <time>2021-01-18T17:12:36Z</time>
      </trkpt>
      <trkpt lat="47.38959" lon="-0.29476">
        <ele>74.4</ele>
        <time>2021-01-18T17:12:36Z</time>
      </trkpt>
      <trkpt lat="47.38962" lon="-0.29504">
        <ele>73.7</ele>
        <time>2021-01-18T17:12:36Z</time>
      </trkpt>
      <trkpt lat="47.38973" lon="-0.29646">
        <ele>74</ele>
        <time>2021-01-18T17:12:36Z</time>
      </trkpt>
      <trkpt lat="47.38988" lon="-0.2973">
        <ele>75.6</ele>
        <time>2021-01-18T17:12:36Z</time>
      </trkpt>
      <trkpt lat="47.38992" lon="-0.29741">
        <ele>75.8</ele>
        <time>2021-01-18T17:12:36Z</time>
      </trkpt>
      <trkpt lat="47.39016" lon="-0.2977">
        <ele>74.8</ele>
        <time>2021-01-18T17:12:36Z</time>
      </trkpt>
      <trkpt lat="47.3902" lon="-0.29784">
        <ele>74.5</ele>
        <time>2021-01-18T17:12:36Z</time>
      </trkpt>
      <trkpt lat="47.39029" lon="-0.2984">
        <ele>72.7</ele>
        <time>2021-01-18T17:12:36Z</time>
      </trkpt>
      <trkpt lat="47.39029" lon="-0.2984">
        <ele>72.7</ele>
        <time>2021-01-18T17:12:36Z</time>
      </trkpt>
      <trkpt lat="47.39076" lon="-0.30071">
        <ele>68.6</ele>
        <time>2021-01-18T17:12:36Z</time>
      </trkpt>
      <trkpt lat="47.39076" lon="-0.30071">
        <ele>68.6</ele>
        <time>2021-01-18T17:12:36Z</time>
      </trkpt>
      <trkpt lat="47.39103" lon="-0.30074">
        <ele>69.1</ele>
        <time>2021-01-18T17:12:36Z</time>
      </trkpt>
      <trkpt lat="47.39138" lon="-0.30058">
        <ele>70</ele>
        <time>2021-01-18T17:12:36Z</time>
      </trkpt>
      <trkpt lat="47.39183" lon="-0.30022">
        <ele>67.4</ele>
        <time>2021-01-18T17:12:36Z</time>
      </trkpt>
      <trkpt lat="47.39221" lon="-0.30012">
        <ele>65.1</ele>
        <time>2021-01-18T17:12:36Z</time>
      </trkpt>
      <trkpt lat="47.39325" lon="-0.30006">
        <ele>58</ele>
        <time>2021-01-18T17:12:36Z</time>
      </trkpt>
      <trkpt lat="47.39346" lon="-0.29996">
        <ele>56.2</ele>
        <time>2021-01-18T17:12:36Z</time>
      </trkpt>
      <trkpt lat="47.39357" lon="-0.29995">
        <ele>55.3</ele>
        <time>2021-01-18T17:12:36Z</time>
      </trkpt>
      <trkpt lat="47.3938" lon="-0.29999">
        <ele>52.2</ele>
        <time>2021-01-18T17:12:36Z</time>
      </trkpt>
      <trkpt lat="47.39506" lon="-0.29971">
        <ele>39.5</ele>
        <time>2021-01-18T17:12:36Z</time>
      </trkpt>
      <trkpt lat="47.39512" lon="-0.29962">
        <ele>39</ele>
        <time>2021-01-18T17:12:36Z</time>
      </trkpt>
      <trkpt lat="47.39512" lon="-0.29962">
        <ele>39</ele>
        <time>2021-01-18T17:12:36Z</time>
      </trkpt>
      <trkpt lat="47.39517" lon="-0.29936">
        <ele>37.9</ele>
        <time>2021-01-18T17:12:36Z</time>
      </trkpt>
      <trkpt lat="47.39522" lon="-0.29926">
        <ele>37</ele>
        <time>2021-01-18T17:12:36Z</time>
      </trkpt>
      <trkpt lat="47.3953" lon="-0.29922">
        <ele>36.1</ele>
        <time>2021-01-18T17:12:36Z</time>
      </trkpt>
      <trkpt lat="47.39641" lon="-0.29911">
        <ele>28.7</ele>
        <time>2021-01-18T17:12:36Z</time>
      </trkpt>
      <trkpt lat="47.39644" lon="-0.29923">
        <ele>28.9</ele>
        <time>2021-01-18T17:12:36Z</time>
      </trkpt>
      <trkpt lat="47.39646" lon="-0.29927">
        <ele>29</ele>
        <time>2021-01-18T17:12:36Z</time>
      </trkpt>
      <trkpt lat="47.39646" lon="-0.29925">
        <ele>28.9</ele>
        <time>2021-01-18T17:12:36Z</time>
      </trkpt>
      <trkpt lat="47.39646" lon="-0.29925">
        <ele>28.9</ele>
        <time>2021-01-18T17:12:36Z</time>
      </trkpt>
      <trkpt lat="47.39646" lon="-0.29913">
        <ele>27.9</ele>
        <time>2021-01-18T17:12:36Z</time>
      </trkpt>
      <trkpt lat="47.39649" lon="-0.29901">
        <ele>27.3</ele>
        <time>2021-01-18T17:12:36Z</time>
      </trkpt>
      <trkpt lat="47.39656" lon="-0.29892">
        <ele>26</ele>
        <time>2021-01-18T17:12:36Z</time>
      </trkpt>
      <trkpt lat="47.39663" lon="-0.29887">
        <ele>24.7</ele>
        <time>2021-01-18T17:12:36Z</time>
      </trkpt>
      <trkpt lat="47.3967" lon="-0.29885">
        <ele>23.5</ele>
        <time>2021-01-18T17:12:36Z</time>
      </trkpt>
      <trkpt lat="47.3967" lon="-0.29885">
        <ele>23.5</ele>
        <time>2021-01-18T17:12:36Z</time>
      </trkpt>
      <trkpt lat="47.39694" lon="-0.29963">
        <ele>22.8</ele>
        <time>2021-01-18T17:12:36Z</time>
      </trkpt>
      <trkpt lat="47.39703" lon="-0.30014">
        <ele>23.1</ele>
        <time>2021-01-18T17:12:36Z</time>
      </trkpt>
      <trkpt lat="47.39713" lon="-0.30138">
        <ele>24</ele>
        <time>2021-01-18T17:12:36Z</time>
      </trkpt>
      <trkpt lat="47.39723" lon="-0.30196">
        <ele>22.1</ele>
        <time>2021-01-18T17:12:36Z</time>
      </trkpt>
      <trkpt lat="47.3976" lon="-0.30436">
        <ele>22.5</ele>
        <time>2021-01-18T17:12:36Z</time>
      </trkpt>
      <trkpt lat="47.3976" lon="-0.30436">
        <ele>22.5</ele>
        <time>2021-01-18T17:12:36Z</time>
      </trkpt>
      <trkpt lat="47.3977" lon="-0.30439">
        <ele>22.1</ele>
        <time>2021-01-18T17:12:36Z</time>
      </trkpt>
      <trkpt lat="47.39809" lon="-0.30431">
        <ele>21.4</ele>
        <time>2021-01-18T17:12:36Z</time>
      </trkpt>
      <trkpt lat="47.39825" lon="-0.30421">
        <ele>21.1</ele>
        <time>2021-01-18T17:12:36Z</time>
      </trkpt>
      <trkpt lat="47.39894" lon="-0.30402">
        <ele>22.2</ele>
        <time>2021-01-18T17:12:36Z</time>
      </trkpt>
      <trkpt lat="47.39929" lon="-0.3038">
        <ele>23</ele>
        <time>2021-01-18T17:12:36Z</time>
      </trkpt>
      <trkpt lat="47.39932" lon="-0.30355">
        <ele>22.9</ele>
        <time>2021-01-18T17:12:36Z</time>
      </trkpt>
      <trkpt lat="47.39985" lon="-0.30331">
        <ele>22.4</ele>
        <time>2021-01-18T17:12:36Z</time>
      </trkpt>
      <trkpt lat="47.39985" lon="-0.30331">
        <ele>22.4</ele>
        <time>2021-01-18T17:12:36Z</time>
      </trkpt>
      <trkpt lat="47.39994" lon="-0.30335">
        <ele>22.7</ele>
        <time>2021-01-18T17:12:36Z</time>
      </trkpt>
      <trkpt lat="47.40012" lon="-0.30365">
        <ele>22</ele>
        <time>2021-01-18T17:12:36Z</time>
      </trkpt>
      <trkpt lat="47.40027" lon="-0.30377">
        <ele>22</ele>
        <time>2021-01-18T17:12:36Z</time>
      </trkpt>
      <trkpt lat="47.40057" lon="-0.30421">
        <ele>21.2</ele>
        <time>2021-01-18T17:12:36Z</time>
      </trkpt>
      <trkpt lat="47.40104" lon="-0.3053">
        <ele>23</ele>
        <time>2021-01-18T17:12:36Z</time>
      </trkpt>
      <trkpt lat="47.40111" lon="-0.30535">
        <ele>23</ele>
        <time>2021-01-18T17:12:36Z</time>
      </trkpt>
      <trkpt lat="47.40171" lon="-0.30645">
        <ele>22</ele>
        <time>2021-01-18T17:12:36Z</time>
      </trkpt>
      <trkpt lat="47.40171" lon="-0.30693">
        <ele>23.1</ele>
        <time>2021-01-18T17:12:36Z</time>
      </trkpt>
      <trkpt lat="47.39997" lon="-0.30724">
        <ele>22</ele>
        <time>2021-01-18T17:12:36Z</time>
      </trkpt>
      <trkpt lat="47.39963" lon="-0.30861">
        <ele>22</ele>
        <time>2021-01-18T17:12:36Z</time>
      </trkpt>
      <trkpt lat="47.39986" lon="-0.30968">
        <ele>22.5</ele>
        <time>2021-01-18T17:12:36Z</time>
      </trkpt>
      <trkpt lat="47.39986" lon="-0.30968">
        <ele>22.5</ele>
        <time>2021-01-18T17:12:36Z</time>
      </trkpt>
      <trkpt lat="47.39986" lon="-0.30967">
        <ele>22.5</ele>
        <time>2021-01-18T17:12:36Z</time>
      </trkpt>
      <trkpt lat="47.39986" lon="-0.30961">
        <ele>22.5</ele>
        <time>2021-01-18T17:12:36Z</time>
      </trkpt>
      <trkpt lat="47.39986" lon="-0.30979">
        <ele>22.5</ele>
        <time>2021-01-18T17:12:36Z</time>
      </trkpt>
      <trkpt lat="47.39987" lon="-0.30997">
        <ele>22.5</ele>
        <time>2021-01-18T17:12:36Z</time>
      </trkpt>
      <trkpt lat="47.39998" lon="-0.31022">
        <ele>22.9</ele>
        <time>2021-01-18T17:12:36Z</time>
      </trkpt>
      <trkpt lat="47.39998" lon="-0.31012">
        <ele>22.9</ele>
        <time>2021-01-18T17:12:36Z</time>
      </trkpt>
      <trkpt lat="47.39998" lon="-0.31012">
        <ele>22.9</ele>
        <time>2021-01-18T17:12:36Z</time>
      </trkpt>
      <trkpt lat="47.40055" lon="-0.31252">
        <ele>22</ele>
        <time>2021-01-18T17:12:36Z</time>
      </trkpt>
      <trkpt lat="47.40055" lon="-0.31252">
        <ele>22</ele>
        <time>2021-01-18T17:12:36Z</time>
      </trkpt>
      <trkpt lat="47.39886" lon="-0.31362">
        <ele>22</ele>
        <time>2021-01-18T17:12:36Z</time>
      </trkpt>
      <trkpt lat="47.39886" lon="-0.31362">
        <ele>22</ele>
        <time>2021-01-18T17:12:36Z</time>
      </trkpt>
      <trkpt lat="47.399" lon="-0.31455">
        <ele>21.8</ele>
        <time>2021-01-18T17:12:36Z</time>
      </trkpt>
      <trkpt lat="47.39907" lon="-0.3146">
        <ele>21.5</ele>
        <time>2021-01-18T17:12:36Z</time>
      </trkpt>
      <trkpt lat="47.39917" lon="-0.31464">
        <ele>21</ele>
        <time>2021-01-18T17:12:36Z</time>
      </trkpt>
      <trkpt lat="47.39955" lon="-0.31768">
        <ele>23</ele>
        <time>2021-01-18T17:12:36Z</time>
      </trkpt>
      <trkpt lat="47.39955" lon="-0.31768">
        <ele>23</ele>
        <time>2021-01-18T17:12:36Z</time>
      </trkpt>
      <trkpt lat="47.3996" lon="-0.31774">
        <ele>23.3</ele>
        <time>2021-01-18T17:12:36Z</time>
      </trkpt>
      <trkpt lat="47.39922" lon="-0.3178">
        <ele>24.7</ele>
        <time>2021-01-18T17:12:36Z</time>
      </trkpt>
      <trkpt lat="47.39915" lon="-0.31775">
        <ele>24.6</ele>
        <time>2021-01-18T17:12:36Z</time>
      </trkpt>
      <trkpt lat="47.39809" lon="-0.31746">
        <ele>25.3</ele>
        <time>2021-01-18T17:12:36Z</time>
      </trkpt>
      <trkpt lat="47.39809" lon="-0.31746">
        <ele>25.3</ele>
        <time>2021-01-18T17:12:36Z</time>
      </trkpt>
      <trkpt lat="47.3976" lon="-0.31737">
        <ele>28.1</ele>
        <time>2021-01-18T17:12:36Z</time>
      </trkpt>
      <trkpt lat="47.39716" lon="-0.31745">
        <ele>28.2</ele>
        <time>2021-01-18T17:12:36Z</time>
      </trkpt>
      <trkpt lat="47.39716" lon="-0.31745">
        <ele>28.2</ele>
        <time>2021-01-18T17:12:36Z</time>
      </trkpt>
      <trkpt lat="47.39704" lon="-0.31749">
        <ele>28</ele>
        <time>2021-01-18T17:12:36Z</time>
      </trkpt>
      <trkpt lat="47.39666" lon="-0.31794">
        <ele>25.3</ele>
        <time>2021-01-18T17:12:36Z</time>
      </trkpt>
      <trkpt lat="47.39658" lon="-0.31798">
        <ele>24.7</ele>
        <time>2021-01-18T17:12:36Z</time>
      </trkpt>
      <trkpt lat="47.39588" lon="-0.31803">
        <ele>23.1</ele>
        <time>2021-01-18T17:12:36Z</time>
      </trkpt>
      <trkpt lat="47.39588" lon="-0.31803">
        <ele>23.1</ele>
        <time>2021-01-18T17:12:36Z</time>
      </trkpt>
      <trkpt lat="47.39583" lon="-0.31819">
        <ele>23</ele>
        <time>2021-01-18T17:12:36Z</time>
      </trkpt>
      <trkpt lat="47.39534" lon="-0.31848">
        <ele>22</ele>
        <time>2021-01-18T17:12:36Z</time>
      </trkpt>
      <trkpt lat="47.39534" lon="-0.31848">
        <ele>22</ele>
        <time>2021-01-18T17:12:36Z</time>
      </trkpt>
      <trkpt lat="47.39493" lon="-0.31893">
        <ele>22</ele>
        <time>2021-01-18T17:12:36Z</time>
      </trkpt>
      <trkpt lat="47.39447" lon="-0.31958">
        <ele>22.4</ele>
        <time>2021-01-18T17:12:36Z</time>
      </trkpt>
      <trkpt lat="47.39438" lon="-0.31966">
        <ele>23.1</ele>
        <time>2021-01-18T17:12:36Z</time>
      </trkpt>
      <trkpt lat="47.39431" lon="-0.31969">
        <ele>23.4</ele>
        <time>2021-01-18T17:12:36Z</time>
      </trkpt>
      <trkpt lat="47.39365" lon="-0.32055">
        <ele>22.9</ele>
        <time>2021-01-18T17:12:36Z</time>
      </trkpt>
      <trkpt lat="47.39361" lon="-0.32066">
        <ele>23</ele>
        <time>2021-01-18T17:12:36Z</time>
      </trkpt>
      <trkpt lat="47.39359" lon="-0.32079">
        <ele>23</ele>
        <time>2021-01-18T17:12:36Z</time>
      </trkpt>
      <trkpt lat="47.39359" lon="-0.3209">
        <ele>23</ele>
        <time>2021-01-18T17:12:36Z</time>
      </trkpt>
      <trkpt lat="47.39386" lon="-0.32172">
        <ele>24.3</ele>
        <time>2021-01-18T17:12:36Z</time>
      </trkpt>
      <trkpt lat="47.39404" lon="-0.32182">
        <ele>25.6</ele>
        <time>2021-01-18T17:12:36Z</time>
      </trkpt>
      <trkpt lat="47.39419" lon="-0.32179">
        <ele>26.1</ele>
        <time>2021-01-18T17:12:36Z</time>
      </trkpt>
      <trkpt lat="47.39419" lon="-0.32179">
        <ele>26.1</ele>
        <time>2021-01-18T17:12:36Z</time>
      </trkpt>
      <trkpt lat="47.39429" lon="-0.32176">
        <ele>26.4</ele>
        <time>2021-01-18T17:12:36Z</time>
      </trkpt>
      <trkpt lat="47.39437" lon="-0.32423">
        <ele>32.5</ele>
        <time>2021-01-18T17:12:36Z</time>
      </trkpt>
      <trkpt lat="47.39437" lon="-0.32423">
        <ele>32.5</ele>
        <time>2021-01-18T17:12:36Z</time>
      </trkpt>
      <trkpt lat="47.39436" lon="-0.32444">
        <ele>33.3</ele>
        <time>2021-01-18T17:12:36Z</time>
      </trkpt>
      <trkpt lat="47.39425" lon="-0.3245">
        <ele>33.9</ele>
        <time>2021-01-18T17:12:36Z</time>
      </trkpt>
      <trkpt lat="47.39391" lon="-0.32453">
        <ele>34.6</ele>
        <time>2021-01-18T17:12:36Z</time>
      </trkpt>
      <trkpt lat="47.3938" lon="-0.3246">
        <ele>35.2</ele>
        <time>2021-01-18T17:12:36Z</time>
      </trkpt>
      <trkpt lat="47.39373" lon="-0.32523">
        <ele>37.8</ele>
        <time>2021-01-18T17:12:36Z</time>
      </trkpt>
      <trkpt lat="47.39373" lon="-0.32579">
        <ele>39.4</ele>
        <time>2021-01-18T17:12:36Z</time>
      </trkpt>
      <trkpt lat="47.39377" lon="-0.32618">
        <ele>40.7</ele>
        <time>2021-01-18T17:12:36Z</time>
      </trkpt>
      <trkpt lat="47.39362" lon="-0.32708">
        <ele>42.5</ele>
        <time>2021-01-18T17:12:36Z</time>
      </trkpt>
      <trkpt lat="47.3933" lon="-0.32836">
        <ele>49.3</ele>
        <time>2021-01-18T17:12:36Z</time>
      </trkpt>
      <trkpt lat="47.39328" lon="-0.32866">
        <ele>50.2</ele>
        <time>2021-01-18T17:12:36Z</time>
      </trkpt>
      <trkpt lat="47.39328" lon="-0.32879">
        <ele>50.2</ele>
        <time>2021-01-18T17:12:36Z</time>
      </trkpt>
      <trkpt lat="47.39328" lon="-0.32879">
        <ele>50.2</ele>
        <time>2021-01-18T17:12:36Z</time>
      </trkpt>
      <trkpt lat="47.39333" lon="-0.32908">
        <ele>50.7</ele>
        <time>2021-01-18T17:12:36Z</time>
      </trkpt>
      <trkpt lat="47.39336" lon="-0.32918">
        <ele>50.9</ele>
        <time>2021-01-18T17:12:36Z</time>
      </trkpt>
      <trkpt lat="47.39359" lon="-0.32949">
        <ele>51</ele>
        <time>2021-01-18T17:12:36Z</time>
      </trkpt>
      <trkpt lat="47.39364" lon="-0.3296">
        <ele>51.1</ele>
        <time>2021-01-18T17:12:36Z</time>
      </trkpt>
      <trkpt lat="47.3937" lon="-0.32996">
        <ele>51.3</ele>
        <time>2021-01-18T17:12:36Z</time>
      </trkpt>
      <trkpt lat="47.39376" lon="-0.33176">
        <ele>53.2</ele>
        <time>2021-01-18T17:12:36Z</time>
      </trkpt>
      <trkpt lat="47.39376" lon="-0.33176">
        <ele>53.2</ele>
        <time>2021-01-18T17:12:36Z</time>
      </trkpt>
      <trkpt lat="47.39264" lon="-0.33225">
        <ele>55</ele>
        <time>2021-01-18T17:12:36Z</time>
      </trkpt>
      <trkpt lat="47.39264" lon="-0.33225">
        <ele>55</ele>
        <time>2021-01-18T17:12:36Z</time>
      </trkpt>
      <trkpt lat="47.39382" lon="-0.33631">
        <ele>61.8</ele>
        <time>2021-01-18T17:12:36Z</time>
      </trkpt>
      <trkpt lat="47.39432" lon="-0.33694">
        <ele>61.4</ele>
        <time>2021-01-18T17:12:36Z</time>
      </trkpt>
      <trkpt lat="47.39444" lon="-0.33701">
        <ele>60.8</ele>
        <time>2021-01-18T17:12:36Z</time>
      </trkpt>
      <trkpt lat="47.39444" lon="-0.33701">
        <ele>60.8</ele>
        <time>2021-01-18T17:12:36Z</time>
      </trkpt>
      <trkpt lat="47.39445" lon="-0.33718">
        <ele>60.1</ele>
        <time>2021-01-18T17:12:36Z</time>
      </trkpt>
      <trkpt lat="47.39476" lon="-0.33795">
        <ele>58.8</ele>
        <time>2021-01-18T17:12:36Z</time>
      </trkpt>
      <trkpt lat="47.3953" lon="-0.33904">
        <ele>59.1</ele>
        <time>2021-01-18T17:12:36Z</time>
      </trkpt>
      <trkpt lat="47.3953" lon="-0.33904">
        <ele>59.1</ele>
        <time>2021-01-18T17:12:36Z</time>
      </trkpt>
      <trkpt lat="47.39638" lon="-0.33904">
        <ele>58.7</ele>
        <time>2021-01-18T17:12:36Z</time>
      </trkpt>
      <trkpt lat="47.39645" lon="-0.33915">
        <ele>58.7</ele>
        <time>2021-01-18T17:12:36Z</time>
      </trkpt>
      <trkpt lat="47.39653" lon="-0.33953">
        <ele>59.9</ele>
        <time>2021-01-18T17:12:36Z</time>
      </trkpt>
      <trkpt lat="47.39673" lon="-0.33999">
        <ele>61.8</ele>
        <time>2021-01-18T17:12:36Z</time>
      </trkpt>
      <trkpt lat="47.39673" lon="-0.33999">
        <ele>61.8</ele>
        <time>2021-01-18T17:12:36Z</time>
      </trkpt>
      <trkpt lat="47.39677" lon="-0.34018">
        <ele>61.9</ele>
        <time>2021-01-18T17:12:36Z</time>
      </trkpt>
      <trkpt lat="47.39721" lon="-0.34005">
        <ele>58.5</ele>
        <time>2021-01-18T17:12:36Z</time>
      </trkpt>
      <trkpt lat="47.39808" lon="-0.3397">
        <ele>52.9</ele>
        <time>2021-01-18T17:12:36Z</time>
      </trkpt>
      <trkpt lat="47.39861" lon="-0.34273">
        <ele>45.2</ele>
        <time>2021-01-18T17:12:36Z</time>
      </trkpt>
      <trkpt lat="47.39861" lon="-0.34273">
        <ele>45.2</ele>
        <time>2021-01-18T17:12:36Z</time>
      </trkpt>
      <trkpt lat="47.39897" lon="-0.3453">
        <ele>54.8</ele>
        <time>2021-01-18T17:12:36Z</time>
      </trkpt>
      <trkpt lat="47.39933" lon="-0.34921">
        <ele>50.9</ele>
        <time>2021-01-18T17:12:36Z</time>
      </trkpt>
      <trkpt lat="47.39933" lon="-0.34921">
        <ele>50.9</ele>
        <time>2021-01-18T17:12:36Z</time>
      </trkpt>
      <trkpt lat="47.39936" lon="-0.34949">
        <ele>53</ele>
        <time>2021-01-18T17:12:36Z</time>
      </trkpt>
      <trkpt lat="47.39928" lon="-0.34956">
        <ele>53</ele>
        <time>2021-01-18T17:12:36Z</time>
      </trkpt>
      <trkpt lat="47.3992" lon="-0.34968">
        <ele>53.1</ele>
        <time>2021-01-18T17:12:36Z</time>
      </trkpt>
      <trkpt lat="47.39915" lon="-0.34983">
        <ele>54.1</ele>
        <time>2021-01-18T17:12:36Z</time>
      </trkpt>
      <trkpt lat="47.39902" lon="-0.35048">
        <ele>56.3</ele>
        <time>2021-01-18T17:12:36Z</time>
      </trkpt>
      <trkpt lat="47.39896" lon="-0.35057">
        <ele>56.4</ele>
        <time>2021-01-18T17:12:36Z</time>
      </trkpt>
      <trkpt lat="47.3991" lon="-0.35065">
        <ele>57.7</ele>
        <time>2021-01-18T17:12:36Z</time>
      </trkpt>
      <trkpt lat="47.3992" lon="-0.35066">
        <ele>58.5</ele>
        <time>2021-01-18T17:12:36Z</time>
      </trkpt>
      <trkpt lat="47.3993" lon="-0.35063">
        <ele>59.8</ele>
        <time>2021-01-18T17:12:36Z</time>
      </trkpt>
      <trkpt lat="47.39955" lon="-0.35043">
        <ele>60</ele>
        <time>2021-01-18T17:12:36Z</time>
      </trkpt>
      <trkpt lat="47.39983" lon="-0.35026">
        <ele>58.5</ele>
        <time>2021-01-18T17:12:36Z</time>
      </trkpt>
      <trkpt lat="47.39983" lon="-0.35026">
        <ele>58.5</ele>
        <time>2021-01-18T17:12:36Z</time>
      </trkpt>
      <trkpt lat="47.40074" lon="-0.35138">
        <ele>63</ele>
        <time>2021-01-18T17:12:36Z</time>
      </trkpt>
      <trkpt lat="47.40159" lon="-0.35207">
        <ele>58.5</ele>
        <time>2021-01-18T17:12:36Z</time>
      </trkpt>
      <trkpt lat="47.40187" lon="-0.35211">
        <ele>55.4</ele>
        <time>2021-01-18T17:12:36Z</time>
      </trkpt>
      <trkpt lat="47.40199" lon="-0.35219">
        <ele>54.2</ele>
        <time>2021-01-18T17:12:36Z</time>
      </trkpt>
      <trkpt lat="47.40211" lon="-0.35242">
        <ele>52.1</ele>
        <time>2021-01-18T17:12:36Z</time>
      </trkpt>
      <trkpt lat="47.40298" lon="-0.35507">
        <ele>68</ele>
        <time>2021-01-18T17:12:36Z</time>
      </trkpt>
      <trkpt lat="47.40298" lon="-0.35507">
        <ele>68</ele>
        <time>2021-01-18T17:12:36Z</time>
      </trkpt>
      <trkpt lat="47.40308" lon="-0.35528">
        <ele>70.3</ele>
        <time>2021-01-18T17:12:36Z</time>
      </trkpt>
      <trkpt lat="47.40319" lon="-0.35585">
        <ele>68.3</ele>
        <time>2021-01-18T17:12:36Z</time>
      </trkpt>
      <trkpt lat="47.40324" lon="-0.35595">
        <ele>67.2</ele>
        <time>2021-01-18T17:12:36Z</time>
      </trkpt>
      <trkpt lat="47.40381" lon="-0.35673">
        <ele>58</ele>
        <time>2021-01-18T17:12:36Z</time>
      </trkpt>
      <trkpt lat="47.40396" lon="-0.3571">
        <ele>55.4</ele>
        <time>2021-01-18T17:12:36Z</time>
      </trkpt>
      <trkpt lat="47.40398" lon="-0.35724">
        <ele>54.2</ele>
        <time>2021-01-18T17:12:36Z</time>
      </trkpt>
      <trkpt lat="47.40394" lon="-0.35782">
        <ele>49.5</ele>
        <time>2021-01-18T17:12:36Z</time>
      </trkpt>
      <trkpt lat="47.40394" lon="-0.35782">
        <ele>49.5</ele>
        <time>2021-01-18T17:12:36Z</time>
      </trkpt>
      <trkpt lat="47.40405" lon="-0.35793">
        <ele>48</ele>
        <time>2021-01-18T17:12:36Z</time>
      </trkpt>
      <trkpt lat="47.40443" lon="-0.3581">
        <ele>44.7</ele>
        <time>2021-01-18T17:12:36Z</time>
      </trkpt>
      <trkpt lat="47.40475" lon="-0.35848">
        <ele>41.4</ele>
        <time>2021-01-18T17:12:36Z</time>
      </trkpt>
      <trkpt lat="47.40508" lon="-0.35923">
        <ele>35.4</ele>
        <time>2021-01-18T17:12:36Z</time>
      </trkpt>
      <trkpt lat="47.40518" lon="-0.35937">
        <ele>34.2</ele>
        <time>2021-01-18T17:12:36Z</time>
      </trkpt>
      <trkpt lat="47.40518" lon="-0.35937">
        <ele>34.2</ele>
        <time>2021-01-18T17:12:36Z</time>
      </trkpt>
      <trkpt lat="47.40506" lon="-0.35979">
        <ele>32.3</ele>
        <time>2021-01-18T17:12:36Z</time>
      </trkpt>
      <trkpt lat="47.40505" lon="-0.36007">
        <ele>30.5</ele>
        <time>2021-01-18T17:12:36Z</time>
      </trkpt>
      <trkpt lat="47.40509" lon="-0.36018">
        <ele>29.8</ele>
        <time>2021-01-18T17:12:36Z</time>
      </trkpt>
      <trkpt lat="47.4052" lon="-0.36034">
        <ele>28.2</ele>
        <time>2021-01-18T17:12:36Z</time>
      </trkpt>
      <trkpt lat="47.40593" lon="-0.36077">
        <ele>22.7</ele>
        <time>2021-01-18T17:12:36Z</time>
      </trkpt>
      <trkpt lat="47.40636" lon="-0.36088">
        <ele>22</ele>
        <time>2021-01-18T17:12:36Z</time>
      </trkpt>
      <trkpt lat="47.40636" lon="-0.36088">
        <ele>22</ele>
        <time>2021-01-18T17:12:36Z</time>
      </trkpt>
      <trkpt lat="47.40637" lon="-0.36123">
        <ele>22</ele>
        <time>2021-01-18T17:12:36Z</time>
      </trkpt>
      <trkpt lat="47.40641" lon="-0.36166">
        <ele>21.8</ele>
        <time>2021-01-18T17:12:36Z</time>
      </trkpt>
      <trkpt lat="47.4064" lon="-0.36199">
        <ele>21.8</ele>
        <time>2021-01-18T17:12:36Z</time>
      </trkpt>
      <trkpt lat="47.40585" lon="-0.36633">
        <ele>21.9</ele>
        <time>2021-01-18T17:12:36Z</time>
      </trkpt>
      <trkpt lat="47.40526" lon="-0.3688">
        <ele>22</ele>
        <time>2021-01-18T17:12:36Z</time>
      </trkpt>
      <trkpt lat="47.40526" lon="-0.3688">
        <ele>22</ele>
        <time>2021-01-18T17:12:36Z</time>
      </trkpt>
      <trkpt lat="47.40463" lon="-0.3715">
        <ele>22</ele>
        <time>2021-01-18T17:12:36Z</time>
      </trkpt>
      <trkpt lat="47.40432" lon="-0.37189">
        <ele>22</ele>
        <time>2021-01-18T17:12:36Z</time>
      </trkpt>
      <trkpt lat="47.4042" lon="-0.37216">
        <ele>22</ele>
        <time>2021-01-18T17:12:36Z</time>
      </trkpt>
      <trkpt lat="47.40382" lon="-0.37357">
        <ele>21.4</ele>
        <time>2021-01-18T17:12:36Z</time>
      </trkpt>
      <trkpt lat="47.40421" lon="-0.37382">
        <ele>22</ele>
        <time>2021-01-18T17:12:36Z</time>
      </trkpt>
      <trkpt lat="47.4034" lon="-0.37991">
        <ele>21.3</ele>
        <time>2021-01-18T17:12:36Z</time>
      </trkpt>
      <trkpt lat="47.4034" lon="-0.37991">
        <ele>21.3</ele>
        <time>2021-01-18T17:12:36Z</time>
      </trkpt>
      <trkpt lat="47.40444" lon="-0.37999">
        <ele>21</ele>
        <time>2021-01-18T17:12:36Z</time>
      </trkpt>
      <trkpt lat="47.40588" lon="-0.37988">
        <ele>21.3</ele>
        <time>2021-01-18T17:12:36Z</time>
      </trkpt>
      <trkpt lat="47.40601" lon="-0.37994">
        <ele>22.2</ele>
        <time>2021-01-18T17:12:36Z</time>
      </trkpt>
      <trkpt lat="47.40609" lon="-0.38006">
        <ele>22.8</ele>
        <time>2021-01-18T17:12:36Z</time>
      </trkpt>
      <trkpt lat="47.40609" lon="-0.38006">
        <ele>22.8</ele>
        <time>2021-01-18T17:12:36Z</time>
      </trkpt>
      <trkpt lat="47.40601" lon="-0.37994">
        <ele>22.2</ele>
        <time>2021-01-18T17:12:36Z</time>
      </trkpt>
      <trkpt lat="47.40664" lon="-0.38472">
        <ele>21.9</ele>
        <time>2021-01-18T17:12:36Z</time>
      </trkpt>
      <trkpt lat="47.40664" lon="-0.38472">
        <ele>21.9</ele>
        <time>2021-01-18T17:12:36Z</time>
      </trkpt>
      <trkpt lat="47.40751" lon="-0.3877">
        <ele>22.3</ele>
        <time>2021-01-18T17:12:36Z</time>
      </trkpt>
      <trkpt lat="47.40854" lon="-0.38988">
        <ele>21.6</ele>
        <time>2021-01-18T17:12:36Z</time>
      </trkpt>
      <trkpt lat="47.40854" lon="-0.38988">
        <ele>21.6</ele>
        <time>2021-01-18T17:12:36Z</time>
      </trkpt>
      <trkpt lat="47.40992" lon="-0.39307">
        <ele>23</ele>
        <time>2021-01-18T17:12:36Z</time>
      </trkpt>
      <trkpt lat="47.4104" lon="-0.39516">
        <ele>21.4</ele>
        <time>2021-01-18T17:12:36Z</time>
      </trkpt>
      <trkpt lat="47.4104" lon="-0.39516">
        <ele>21.4</ele>
        <time>2021-01-18T17:12:36Z</time>
      </trkpt>
      <trkpt lat="47.41109" lon="-0.3987">
        <ele>22.6</ele>
        <time>2021-01-18T17:12:36Z</time>
      </trkpt>
      <trkpt lat="47.41155" lon="-0.40026">
        <ele>21.6</ele>
        <time>2021-01-18T17:12:36Z</time>
      </trkpt>
      <trkpt lat="47.41247" lon="-0.40265">
        <ele>22.4</ele>
        <time>2021-01-18T17:12:36Z</time>
      </trkpt>
      <trkpt lat="47.41261" lon="-0.40285">
        <ele>21.9</ele>
        <time>2021-01-18T17:12:36Z</time>
      </trkpt>
      <trkpt lat="47.41261" lon="-0.40285">
        <ele>21.9</ele>
        <time>2021-01-18T17:12:36Z</time>
      </trkpt>
      <trkpt lat="47.41274" lon="-0.40311">
        <ele>22.1</ele>
        <time>2021-01-18T17:12:36Z</time>
      </trkpt>
      <trkpt lat="47.41292" lon="-0.40357">
        <ele>21.1</ele>
        <time>2021-01-18T17:12:36Z</time>
      </trkpt>
      <trkpt lat="47.41384" lon="-0.40553">
        <ele>22.7</ele>
        <time>2021-01-18T17:12:36Z</time>
      </trkpt>
      <trkpt lat="47.41387" lon="-0.40573">
        <ele>23</ele>
        <time>2021-01-18T17:12:36Z</time>
      </trkpt>
      <trkpt lat="47.41378" lon="-0.40728">
        <ele>21</ele>
        <time>2021-01-18T17:12:36Z</time>
      </trkpt>
      <trkpt lat="47.41378" lon="-0.40728">
        <ele>21</ele>
        <time>2021-01-18T17:12:36Z</time>
      </trkpt>
      <trkpt lat="47.41373" lon="-0.40723">
        <ele>21.7</ele>
        <time>2021-01-18T17:12:36Z</time>
      </trkpt>
      <trkpt lat="47.4133" lon="-0.40761">
        <ele>21.2</ele>
        <time>2021-01-18T17:12:36Z</time>
      </trkpt>
      <trkpt lat="47.41238" lon="-0.40865">
        <ele>20.6</ele>
        <time>2021-01-18T17:12:36Z</time>
      </trkpt>
      <trkpt lat="47.4123" lon="-0.40869">
        <ele>20.9</ele>
        <time>2021-01-18T17:12:36Z</time>
      </trkpt>
      <trkpt lat="47.4123" lon="-0.40869">
        <ele>20.9</ele>
        <time>2021-01-18T17:12:36Z</time>
      </trkpt>
      <trkpt lat="47.41153" lon="-0.40874">
        <ele>21</ele>
        <time>2021-01-18T17:12:36Z</time>
      </trkpt>
      <trkpt lat="47.41065" lon="-0.40872">
        <ele>21</ele>
        <time>2021-01-18T17:12:36Z</time>
      </trkpt>
      <trkpt lat="47.40894" lon="-0.40833">
        <ele>21</ele>
        <time>2021-01-18T17:12:36Z</time>
      </trkpt>
      <trkpt lat="47.40894" lon="-0.40833">
        <ele>21</ele>
        <time>2021-01-18T17:12:36Z</time>
      </trkpt>
      <trkpt lat="47.40821" lon="-0.40837">
        <ele>20.5</ele>
        <time>2021-01-18T17:12:36Z</time>
      </trkpt>
      <trkpt lat="47.40762" lon="-0.40849">
        <ele>20.3</ele>
        <time>2021-01-18T17:12:36Z</time>
      </trkpt>
      <trkpt lat="47.40861" lon="-0.4156">
        <ele>20</ele>
        <time>2021-01-18T17:12:36Z</time>
      </trkpt>
      <trkpt lat="47.40861" lon="-0.4156">
        <ele>20</ele>
        <time>2021-01-18T17:12:36Z</time>
      </trkpt>
      <trkpt lat="47.40875" lon="-0.41816">
        <ele>20.5</ele>
        <time>2021-01-18T17:12:36Z</time>
      </trkpt>
      <trkpt lat="47.40738" lon="-0.42859">
        <ele>20</ele>
        <time>2021-01-18T17:12:36Z</time>
      </trkpt>
      <trkpt lat="47.40733" lon="-0.42873">
        <ele>20</ele>
        <time>2021-01-18T17:12:36Z</time>
      </trkpt>
      <trkpt lat="47.40733" lon="-0.42873">
        <ele>20</ele>
        <time>2021-01-18T17:12:36Z</time>
      </trkpt>
      <trkpt lat="47.40603" lon="-0.43158">
        <ele>19</ele>
        <time>2021-01-18T17:12:36Z</time>
      </trkpt>
      <trkpt lat="47.40603" lon="-0.43158">
        <ele>19</ele>
        <time>2021-01-18T17:12:36Z</time>
      </trkpt>
      <trkpt lat="47.40607" lon="-0.43165">
        <ele>19</ele>
        <time>2021-01-18T17:12:36Z</time>
      </trkpt>
      <trkpt lat="47.40896" lon="-0.43087">
        <ele>21</ele>
        <time>2021-01-18T17:12:36Z</time>
      </trkpt>
      <trkpt lat="47.40897" lon="-0.431">
        <ele>21</ele>
        <time>2021-01-18T17:12:36Z</time>
      </trkpt>
      <trkpt lat="47.40897" lon="-0.431">
        <ele>21</ele>
        <time>2021-01-18T17:12:36Z</time>
      </trkpt>
      <trkpt lat="47.40928" lon="-0.43804">
        <ele>20</ele>
        <time>2021-01-18T17:12:36Z</time>
      </trkpt>
      <trkpt lat="47.40928" lon="-0.43804">
        <ele>20</ele>
        <time>2021-01-18T17:12:36Z</time>
      </trkpt>
      <trkpt lat="47.40924" lon="-0.43978">
        <ele>19.3</ele>
        <time>2021-01-18T17:12:36Z</time>
      </trkpt>
      <trkpt lat="47.40914" lon="-0.44271">
        <ele>20</ele>
        <time>2021-01-18T17:12:36Z</time>
      </trkpt>
      <trkpt lat="47.40914" lon="-0.44271">
        <ele>20</ele>
        <time>2021-01-18T17:12:36Z</time>
      </trkpt>
      <trkpt lat="47.40913" lon="-0.44283">
        <ele>20</ele>
        <time>2021-01-18T17:12:36Z</time>
      </trkpt>
      <trkpt lat="47.40612" lon="-0.4436">
        <ele>18</ele>
        <time>2021-01-18T17:12:36Z</time>
      </trkpt>
      <trkpt lat="47.40612" lon="-0.4436">
        <ele>18</ele>
        <time>2021-01-18T17:12:36Z</time>
      </trkpt>
      <trkpt lat="47.40598" lon="-0.44363">
        <ele>18</ele>
        <time>2021-01-18T17:12:36Z</time>
      </trkpt>
      <trkpt lat="47.40535" lon="-0.4487">
        <ele>18</ele>
        <time>2021-01-18T17:12:36Z</time>
      </trkpt>
      <trkpt lat="47.40535" lon="-0.4487">
        <ele>18</ele>
        <time>2021-01-18T17:12:36Z</time>
      </trkpt>
      <trkpt lat="47.40532" lon="-0.44886">
        <ele>18</ele>
        <time>2021-01-18T17:12:36Z</time>
      </trkpt>
      <trkpt lat="47.4075" lon="-0.45569">
        <ele>18</ele>
        <time>2021-01-18T17:12:36Z</time>
      </trkpt>
      <trkpt lat="47.4075" lon="-0.45569">
        <ele>18</ele>
        <time>2021-01-18T17:12:36Z</time>
      </trkpt>
      <trkpt lat="47.40798" lon="-0.45802">
        <ele>18.7</ele>
        <time>2021-01-18T17:12:36Z</time>
      </trkpt>
      <trkpt lat="47.40753" lon="-0.46202">
        <ele>18.7</ele>
        <time>2021-01-18T17:12:36Z</time>
      </trkpt>
      <trkpt lat="47.40753" lon="-0.46202">
        <ele>18.7</ele>
        <time>2021-01-18T17:12:36Z</time>
      </trkpt>
      <trkpt lat="47.4071" lon="-0.46171">
        <ele>18</ele>
        <time>2021-01-18T17:12:36Z</time>
      </trkpt>
      <trkpt lat="47.4071" lon="-0.46171">
        <ele>18</ele>
        <time>2021-01-18T17:12:36Z</time>
      </trkpt>
      <trkpt lat="47.4071" lon="-0.46171">
        <ele>18</ele>
        <time>2021-01-18T17:12:36Z</time>
      </trkpt>
      <trkpt lat="47.40689" lon="-0.46462">
        <ele>18</ele>
        <time>2021-01-18T17:12:36Z</time>
      </trkpt>
      <trkpt lat="47.40541" lon="-0.46392">
        <ele>18.1</ele>
        <time>2021-01-18T17:12:36Z</time>
      </trkpt>
      <trkpt lat="47.40541" lon="-0.46392">
        <ele>18.1</ele>
        <time>2021-01-18T17:12:36Z</time>
      </trkpt>
      <trkpt lat="47.40534" lon="-0.46405">
        <ele>18.4</ele>
        <time>2021-01-18T17:12:36Z</time>
      </trkpt>
      <trkpt lat="47.40532" lon="-0.4642">
        <ele>18.8</ele>
        <time>2021-01-18T17:12:36Z</time>
      </trkpt>
      <trkpt lat="47.40567" lon="-0.46503">
        <ele>20.4</ele>
        <time>2021-01-18T17:12:36Z</time>
      </trkpt>
      <trkpt lat="47.40627" lon="-0.4673">
        <ele>20</ele>
        <time>2021-01-18T17:12:36Z</time>
      </trkpt>
      <trkpt lat="47.40639" lon="-0.46797">
        <ele>19</ele>
        <time>2021-01-18T17:12:36Z</time>
      </trkpt>
      <trkpt lat="47.40651" lon="-0.46851">
        <ele>19.1</ele>
        <time>2021-01-18T17:12:36Z</time>
      </trkpt>
      <trkpt lat="47.40651" lon="-0.46851">
        <ele>19.1</ele>
        <time>2021-01-18T17:12:36Z</time>
      </trkpt>
      <trkpt lat="47.40667" lon="-0.46952">
        <ele>18.3</ele>
        <time>2021-01-18T17:12:36Z</time>
      </trkpt>
      <trkpt lat="47.40652" lon="-0.46999">
        <ele>18.5</ele>
        <time>2021-01-18T17:12:36Z</time>
      </trkpt>
      <trkpt lat="47.40647" lon="-0.47188">
        <ele>18.7</ele>
        <time>2021-01-18T17:12:36Z</time>
      </trkpt>
      <trkpt lat="47.40626" lon="-0.47198">
        <ele>19.6</ele>
        <time>2021-01-18T17:12:36Z</time>
      </trkpt>
      <trkpt lat="47.4063" lon="-0.47235">
        <ele>19.9</ele>
        <time>2021-01-18T17:12:36Z</time>
      </trkpt>
      <trkpt lat="47.40636" lon="-0.47253">
        <ele>19.5</ele>
        <time>2021-01-18T17:12:36Z</time>
      </trkpt>
      <trkpt lat="47.40643" lon="-0.47266">
        <ele>18.9</ele>
        <time>2021-01-18T17:12:36Z</time>
      </trkpt>
      <trkpt lat="47.4065" lon="-0.47271">
        <ele>18.9</ele>
        <time>2021-01-18T17:12:36Z</time>
      </trkpt>
      <trkpt lat="47.4065" lon="-0.47271">
        <ele>18.9</ele>
        <time>2021-01-18T17:12:36Z</time>
      </trkpt>
      <trkpt lat="47.40671" lon="-0.47288">
        <ele>19.5</ele>
        <time>2021-01-18T17:12:36Z</time>
      </trkpt>
      <trkpt lat="47.40699" lon="-0.47329">
        <ele>19.4</ele>
        <time>2021-01-18T17:12:36Z</time>
      </trkpt>
      <trkpt lat="47.40734" lon="-0.47348">
        <ele>18.6</ele>
        <time>2021-01-18T17:12:36Z</time>
      </trkpt>
      <trkpt lat="47.40785" lon="-0.47433">
        <ele>19.1</ele>
        <time>2021-01-18T17:12:36Z</time>
      </trkpt>
      <trkpt lat="47.40804" lon="-0.47487">
        <ele>19.6</ele>
        <time>2021-01-18T17:12:36Z</time>
      </trkpt>
      <trkpt lat="47.40829" lon="-0.47689">
        <ele>20.1</ele>
        <time>2021-01-18T17:12:36Z</time>
      </trkpt>
      <trkpt lat="47.40847" lon="-0.4789">
        <ele>19.1</ele>
        <time>2021-01-18T17:12:36Z</time>
      </trkpt>
      <trkpt lat="47.40861" lon="-0.47997">
        <ele>19.9</ele>
        <time>2021-01-18T17:12:36Z</time>
      </trkpt>
      <trkpt lat="47.40861" lon="-0.47997">
        <ele>19.9</ele>
        <time>2021-01-18T17:12:36Z</time>
      </trkpt>
      <trkpt lat="47.4087" lon="-0.48061">
        <ele>20.2</ele>
        <time>2021-01-18T17:12:36Z</time>
      </trkpt>
      <trkpt lat="47.40871" lon="-0.48079">
        <ele>20.8</ele>
        <time>2021-01-18T17:12:36Z</time>
      </trkpt>
      <trkpt lat="47.40859" lon="-0.48093">
        <ele>21.1</ele>
        <time>2021-01-18T17:12:36Z</time>
      </trkpt>
      <trkpt lat="47.40849" lon="-0.48099">
        <ele>21.4</ele>
        <time>2021-01-18T17:12:36Z</time>
      </trkpt>
      <trkpt lat="47.40853" lon="-0.4813">
        <ele>21.3</ele>
        <time>2021-01-18T17:12:36Z</time>
      </trkpt>
      <trkpt lat="47.40853" lon="-0.4813">
        <ele>21.3</ele>
        <time>2021-01-18T17:12:36Z</time>
      </trkpt>
      <trkpt lat="47.40846" lon="-0.48137">
        <ele>21.5</ele>
        <time>2021-01-18T17:12:36Z</time>
      </trkpt>
      <trkpt lat="47.40848" lon="-0.48148">
        <ele>21.5</ele>
        <time>2021-01-18T17:12:36Z</time>
      </trkpt>
      <trkpt lat="47.40841" lon="-0.48155">
        <ele>21.7</ele>
        <time>2021-01-18T17:12:36Z</time>
      </trkpt>
      <trkpt lat="47.40834" lon="-0.48172">
        <ele>22</ele>
        <time>2021-01-18T17:12:36Z</time>
      </trkpt>
      <trkpt lat="47.40823" lon="-0.48226">
        <ele>22</ele>
        <time>2021-01-18T17:12:36Z</time>
      </trkpt>
      <trkpt lat="47.40816" lon="-0.48233">
        <ele>23.5</ele>
        <time>2021-01-18T17:12:36Z</time>
      </trkpt>
      <trkpt lat="47.40812" lon="-0.48287">
        <ele>24.2</ele>
        <time>2021-01-18T17:12:36Z</time>
      </trkpt>
      <trkpt lat="47.40806" lon="-0.48314">
        <ele>23.9</ele>
        <time>2021-01-18T17:12:36Z</time>
      </trkpt>
      <trkpt lat="47.40795" lon="-0.48481">
        <ele>20.6</ele>
        <time>2021-01-18T17:12:36Z</time>
      </trkpt>
      <trkpt lat="47.40795" lon="-0.48481">
        <ele>20.6</ele>
        <time>2021-01-18T17:12:36Z</time>
      </trkpt>
      <trkpt lat="47.40796" lon="-0.48502">
        <ele>20.1</ele>
        <time>2021-01-18T17:12:36Z</time>
      </trkpt>
      <trkpt lat="47.40835" lon="-0.48644">
        <ele>19.9</ele>
        <time>2021-01-18T17:12:36Z</time>
      </trkpt>
      <trkpt lat="47.40839" lon="-0.48753">
        <ele>20.4</ele>
        <time>2021-01-18T17:12:36Z</time>
      </trkpt>
      <trkpt lat="47.40824" lon="-0.4902">
        <ele>21.3</ele>
        <time>2021-01-18T17:12:36Z</time>
      </trkpt>
      <trkpt lat="47.40825" lon="-0.49044">
        <ele>20.7</ele>
        <time>2021-01-18T17:12:36Z</time>
      </trkpt>
      <trkpt lat="47.40831" lon="-0.49066">
        <ele>20.8</ele>
        <time>2021-01-18T17:12:36Z</time>
      </trkpt>
      <trkpt lat="47.40831" lon="-0.49066">
        <ele>20.8</ele>
        <time>2021-01-18T17:12:36Z</time>
      </trkpt>
      <trkpt lat="47.4084" lon="-0.49118">
        <ele>22.1</ele>
        <time>2021-01-18T17:12:36Z</time>
      </trkpt>
      <trkpt lat="47.40839" lon="-0.493">
        <ele>22.3</ele>
        <time>2021-01-18T17:12:36Z</time>
      </trkpt>
      <trkpt lat="47.40813" lon="-0.49576">
        <ele>18.5</ele>
        <time>2021-01-18T17:12:36Z</time>
      </trkpt>
      <trkpt lat="47.40814" lon="-0.4962">
        <ele>19</ele>
        <time>2021-01-18T17:12:36Z</time>
      </trkpt>
      <trkpt lat="47.40793" lon="-0.49844">
        <ele>19</ele>
        <time>2021-01-18T17:12:36Z</time>
      </trkpt>
      <trkpt lat="47.40785" lon="-0.49869">
        <ele>19</ele>
        <time>2021-01-18T17:12:36Z</time>
      </trkpt>
      <trkpt lat="47.40785" lon="-0.49869">
        <ele>19</ele>
        <time>2021-01-18T17:12:36Z</time>
      </trkpt>
      <trkpt lat="47.40782" lon="-0.49951">
        <ele>19</ele>
        <time>2021-01-18T17:12:36Z</time>
      </trkpt>
      <trkpt lat="47.40791" lon="-0.50563">
        <ele>19</ele>
        <time>2021-01-18T17:12:36Z</time>
      </trkpt>
      <trkpt lat="47.40771" lon="-0.5067">
        <ele>18.8</ele>
        <time>2021-01-18T17:12:36Z</time>
      </trkpt>
      <trkpt lat="47.4077" lon="-0.50761">
        <ele>18.7</ele>
        <time>2021-01-18T17:12:36Z</time>
      </trkpt>
      <trkpt lat="47.40763" lon="-0.50794">
        <ele>18.5</ele>
        <time>2021-01-18T17:12:36Z</time>
      </trkpt>
      <trkpt lat="47.40763" lon="-0.50794">
        <ele>18.5</ele>
        <time>2021-01-18T17:12:36Z</time>
      </trkpt>
      <trkpt lat="47.40754" lon="-0.50841">
        <ele>18.4</ele>
        <time>2021-01-18T17:12:36Z</time>
      </trkpt>
      <trkpt lat="47.40748" lon="-0.50854">
        <ele>18.7</ele>
        <time>2021-01-18T17:12:36Z</time>
      </trkpt>
      <trkpt lat="47.40733" lon="-0.5087">
        <ele>20.2</ele>
        <time>2021-01-18T17:12:36Z</time>
      </trkpt>
      <trkpt lat="47.40602" lon="-0.50915">
        <ele>18.6</ele>
        <time>2021-01-18T17:12:36Z</time>
      </trkpt>
      <trkpt lat="47.40602" lon="-0.50915">
        <ele>18.6</ele>
        <time>2021-01-18T17:12:36Z</time>
      </trkpt>
      <trkpt lat="47.40596" lon="-0.50927">
        <ele>19.4</ele>
        <time>2021-01-18T17:12:36Z</time>
      </trkpt>
      <trkpt lat="47.40599" lon="-0.50961">
        <ele>20.7</ele>
        <time>2021-01-18T17:12:36Z</time>
      </trkpt>
      <trkpt lat="47.40599" lon="-0.50961">
        <ele>20.7</ele>
        <time>2021-01-18T17:12:36Z</time>
      </trkpt>
      <trkpt lat="47.40604" lon="-0.5098">
        <ele>20.4</ele>
        <time>2021-01-18T17:12:36Z</time>
      </trkpt>
      <trkpt lat="47.40612" lon="-0.50992">
        <ele>19.9</ele>
        <time>2021-01-18T17:12:36Z</time>
      </trkpt>
      <trkpt lat="47.40612" lon="-0.50992">
        <ele>19.9</ele>
        <time>2021-01-18T17:12:36Z</time>
      </trkpt>
      <trkpt lat="47.40811" lon="-0.50925">
        <ele>20.3</ele>
        <time>2021-01-18T17:12:36Z</time>
      </trkpt>
      <trkpt lat="47.40811" lon="-0.50925">
        <ele>20.3</ele>
        <time>2021-01-18T17:12:36Z</time>
      </trkpt>
      <trkpt lat="47.40818" lon="-0.50928">
        <ele>19.9</ele>
        <time>2021-01-18T17:12:36Z</time>
      </trkpt>
      <trkpt lat="47.40892" lon="-0.50974">
        <ele>19</ele>
        <time>2021-01-18T17:12:36Z</time>
      </trkpt>
      <trkpt lat="47.40895" lon="-0.50989">
        <ele>19</ele>
        <time>2021-01-18T17:12:36Z</time>
      </trkpt>
      <trkpt lat="47.40863" lon="-0.51245">
        <ele>18.2</ele>
        <time>2021-01-18T17:12:36Z</time>
      </trkpt>
      <trkpt lat="47.40863" lon="-0.51245">
        <ele>18.2</ele>
        <time>2021-01-18T17:12:36Z</time>
      </trkpt>
      <trkpt lat="47.40861" lon="-0.51257">
        <ele>18</ele>
        <time>2021-01-18T17:12:36Z</time>
      </trkpt>
      <trkpt lat="47.40885" lon="-0.51329">
        <ele>18</ele>
        <time>2021-01-18T17:12:36Z</time>
      </trkpt>
      <trkpt lat="47.40905" lon="-0.51345">
        <ele>18</ele>
        <time>2021-01-18T17:12:36Z</time>
      </trkpt>
      <trkpt lat="47.40922" lon="-0.51318">
        <ele>18</ele>
        <time>2021-01-18T17:12:36Z</time>
      </trkpt>
      <trkpt lat="47.40933" lon="-0.51312">
        <ele>18</ele>
        <time>2021-01-18T17:12:36Z</time>
      </trkpt>
      <trkpt lat="47.40945" lon="-0.51311">
        <ele>18</ele>
        <time>2021-01-18T17:12:36Z</time>
      </trkpt>
      <trkpt lat="47.41052" lon="-0.51363">
        <ele>18</ele>
        <time>2021-01-18T17:12:36Z</time>
      </trkpt>
      <trkpt lat="47.41055" lon="-0.51382">
        <ele>18</ele>
        <time>2021-01-18T17:12:36Z</time>
      </trkpt>
      <trkpt lat="47.41063" lon="-0.51397">
        <ele>18</ele>
        <time>2021-01-18T17:12:36Z</time>
      </trkpt>
      <trkpt lat="47.41084" lon="-0.51404">
        <ele>18</ele>
        <time>2021-01-18T17:12:36Z</time>
      </trkpt>
      <trkpt lat="47.41084" lon="-0.51404">
        <ele>18</ele>
        <time>2021-01-18T17:12:36Z</time>
      </trkpt>
      <trkpt lat="47.4108" lon="-0.51514">
        <ele>19.1</ele>
        <time>2021-01-18T17:12:36Z</time>
      </trkpt>
      <trkpt lat="47.41062" lon="-0.51612">
        <ele>18.8</ele>
        <time>2021-01-18T17:12:36Z</time>
      </trkpt>
      <trkpt lat="47.40972" lon="-0.5218">
        <ele>19</ele>
        <time>2021-01-18T17:12:36Z</time>
      </trkpt>
      <trkpt lat="47.40972" lon="-0.5218">
        <ele>19</ele>
        <time>2021-01-18T17:12:36Z</time>
      </trkpt>
      <trkpt lat="47.40937" lon="-0.52349">
        <ele>18.7</ele>
        <time>2021-01-18T17:12:36Z</time>
      </trkpt>
      <trkpt lat="47.40932" lon="-0.52431">
        <ele>19.5</ele>
        <time>2021-01-18T17:12:36Z</time>
      </trkpt>
      <trkpt lat="47.40938" lon="-0.52472">
        <ele>21.2</ele>
        <time>2021-01-18T17:12:36Z</time>
      </trkpt>
    </trkseg>
  </trk>
</gpx>